<?xml version="1.0" encoding="UTF-8" standalone="no" ?>
<gpx xmlns="http://www.topografix.com/GPX/1/1" xmlns:xsi="http://www.w3.org/2001/XMLSchema-instance" xsi:schemaLocation="http://www.topografix.com/GPX/1/1 http://www.topografix.com/GPX/1/1/gpx.xsd" version="1.1" creator="VisuGPX - https://www.visugpx.com">
  <metadata>
    <name>Pornichet 29/07/2021</name>
    <desc><![CDATA[Sortie VTT du jeudi 29 juillet 2021]]></desc>
  </metadata>
  <trk>
    <name><![CDATA[Pornichet Cyclisme]]></name>
    <trkseg>
      <trkpt lat="47.26406" lon="-2.31572">
        <ele>8.8000001907349</ele>
        <time>2021-07-29T06:48:03.000Z</time>
      </trkpt>
      <trkpt lat="47.26407" lon="-2.31585">
        <ele>8.8000001907349</ele>
        <time>2021-07-29T06:48:06.000Z</time>
      </trkpt>
      <trkpt lat="47.26406" lon="-2.3159">
        <ele>8.8000001907349</ele>
        <time>2021-07-29T06:48:07.000Z</time>
      </trkpt>
      <trkpt lat="47.26405" lon="-2.31605">
        <ele>8.8000001907349</ele>
        <time>2021-07-29T06:48:10.000Z</time>
      </trkpt>
      <trkpt lat="47.26405" lon="-2.31612">
        <ele>8.8000001907349</ele>
        <time>2021-07-29T06:48:14.000Z</time>
      </trkpt>
      <trkpt lat="47.26405" lon="-2.31616">
        <ele>8.8000001907349</ele>
        <time>2021-07-29T06:48:32.000Z</time>
      </trkpt>
      <trkpt lat="47.26405" lon="-2.31621">
        <ele>8.8000001907349</ele>
        <time>2021-07-29T06:48:34.000Z</time>
      </trkpt>
      <trkpt lat="47.26407" lon="-2.31643">
        <ele>8.8000001907349</ele>
        <time>2021-07-29T06:48:39.000Z</time>
      </trkpt>
      <trkpt lat="47.26405" lon="-2.31665">
        <ele>8.8000001907349</ele>
        <time>2021-07-29T06:48:44.000Z</time>
      </trkpt>
      <trkpt lat="47.26402" lon="-2.31666">
        <ele>8.8000001907349</ele>
        <time>2021-07-29T06:48:45.000Z</time>
      </trkpt>
      <trkpt lat="47.26382" lon="-2.31677">
        <ele>8.8000001907349</ele>
        <time>2021-07-29T06:48:50.000Z</time>
      </trkpt>
      <trkpt lat="47.26347" lon="-2.31697">
        <ele>8.8000001907349</ele>
        <time>2021-07-29T06:48:57.000Z</time>
      </trkpt>
      <trkpt lat="47.26337" lon="-2.31702">
        <ele>8.3999996185303</ele>
        <time>2021-07-29T06:48:59.000Z</time>
      </trkpt>
      <trkpt lat="47.26331" lon="-2.31704">
        <ele>8</ele>
        <time>2021-07-29T06:49:00.000Z</time>
      </trkpt>
      <trkpt lat="47.26325" lon="-2.31707">
        <ele>7.5999999046326</ele>
        <time>2021-07-29T06:49:01.000Z</time>
      </trkpt>
      <trkpt lat="47.2632" lon="-2.31709">
        <ele>7.1999998092651</ele>
        <time>2021-07-29T06:49:02.000Z</time>
      </trkpt>
      <trkpt lat="47.26315" lon="-2.31712">
        <ele>6.8000001907349</ele>
        <time>2021-07-29T06:49:03.000Z</time>
      </trkpt>
      <trkpt lat="47.26311" lon="-2.31714">
        <ele>6.8000001907349</ele>
        <time>2021-07-29T06:49:04.000Z</time>
      </trkpt>
      <trkpt lat="47.26306" lon="-2.31717">
        <ele>6.8000001907349</ele>
        <time>2021-07-29T06:49:05.000Z</time>
      </trkpt>
      <trkpt lat="47.26303" lon="-2.31722">
        <ele>6.4000000953674</ele>
        <time>2021-07-29T06:49:06.000Z</time>
      </trkpt>
      <trkpt lat="47.26303" lon="-2.31729">
        <ele>6</ele>
        <time>2021-07-29T06:49:07.000Z</time>
      </trkpt>
      <trkpt lat="47.26302" lon="-2.31734">
        <ele>5.4000000953674</ele>
        <time>2021-07-29T06:49:08.000Z</time>
      </trkpt>
      <trkpt lat="47.26303" lon="-2.3174">
        <ele>5</ele>
        <time>2021-07-29T06:49:09.000Z</time>
      </trkpt>
      <trkpt lat="47.26303" lon="-2.31745">
        <ele>4.5999999046326</ele>
        <time>2021-07-29T06:49:10.000Z</time>
      </trkpt>
      <trkpt lat="47.26304" lon="-2.31757">
        <ele>4.5999999046326</ele>
        <time>2021-07-29T06:49:12.000Z</time>
      </trkpt>
      <trkpt lat="47.26305" lon="-2.31791">
        <ele>4.5999999046326</ele>
        <time>2021-07-29T06:49:18.000Z</time>
      </trkpt>
      <trkpt lat="47.26304" lon="-2.31797">
        <ele>4.5999999046326</ele>
        <time>2021-07-29T06:49:19.000Z</time>
      </trkpt>
      <trkpt lat="47.26303" lon="-2.31822">
        <ele>4.5999999046326</ele>
        <time>2021-07-29T06:49:23.000Z</time>
      </trkpt>
      <trkpt lat="47.26302" lon="-2.31868">
        <ele>4.5999999046326</ele>
        <time>2021-07-29T06:49:30.000Z</time>
      </trkpt>
      <trkpt lat="47.26297" lon="-2.3188">
        <ele>4.5999999046326</ele>
        <time>2021-07-29T06:49:32.000Z</time>
      </trkpt>
      <trkpt lat="47.26294" lon="-2.31884">
        <ele>4.5999999046326</ele>
        <time>2021-07-29T06:49:33.000Z</time>
      </trkpt>
      <trkpt lat="47.26278" lon="-2.31901">
        <ele>4.5999999046326</ele>
        <time>2021-07-29T06:49:38.000Z</time>
      </trkpt>
      <trkpt lat="47.26267" lon="-2.31923">
        <ele>4.5999999046326</ele>
        <time>2021-07-29T06:49:43.000Z</time>
      </trkpt>
      <trkpt lat="47.26252" lon="-2.31954">
        <ele>4.5999999046326</ele>
        <time>2021-07-29T06:49:49.000Z</time>
      </trkpt>
      <trkpt lat="47.26238" lon="-2.31972">
        <ele>4.5999999046326</ele>
        <time>2021-07-29T06:49:54.000Z</time>
      </trkpt>
      <trkpt lat="47.26232" lon="-2.31978">
        <ele>4.5999999046326</ele>
        <time>2021-07-29T06:49:56.000Z</time>
      </trkpt>
      <trkpt lat="47.26227" lon="-2.31984">
        <ele>4.5999999046326</ele>
        <time>2021-07-29T06:49:58.000Z</time>
      </trkpt>
      <trkpt lat="47.26206" lon="-2.31997">
        <ele>4.5999999046326</ele>
        <time>2021-07-29T06:50:05.000Z</time>
      </trkpt>
      <trkpt lat="47.26204" lon="-2.32003">
        <ele>4.5999999046326</ele>
        <time>2021-07-29T06:50:06.000Z</time>
      </trkpt>
      <trkpt lat="47.26201" lon="-2.32016">
        <ele>4.5999999046326</ele>
        <time>2021-07-29T06:50:09.000Z</time>
      </trkpt>
      <trkpt lat="47.26193" lon="-2.32023">
        <ele>4.5999999046326</ele>
        <time>2021-07-29T06:50:13.000Z</time>
      </trkpt>
      <trkpt lat="47.26187" lon="-2.32023">
        <ele>4.5999999046326</ele>
        <time>2021-07-29T06:50:15.000Z</time>
      </trkpt>
      <trkpt lat="47.26177" lon="-2.32025">
        <ele>4.5999999046326</ele>
        <time>2021-07-29T06:50:18.000Z</time>
      </trkpt>
      <trkpt lat="47.26162" lon="-2.32033">
        <ele>4.5999999046326</ele>
        <time>2021-07-29T06:50:23.000Z</time>
      </trkpt>
      <trkpt lat="47.26154" lon="-2.32053">
        <ele>4.5999999046326</ele>
        <time>2021-07-29T06:50:27.000Z</time>
      </trkpt>
      <trkpt lat="47.26141" lon="-2.32093">
        <ele>4.5999999046326</ele>
        <time>2021-07-29T06:50:34.000Z</time>
      </trkpt>
      <trkpt lat="47.26129" lon="-2.32134">
        <ele>4.5999999046326</ele>
        <time>2021-07-29T06:50:41.000Z</time>
      </trkpt>
      <trkpt lat="47.26124" lon="-2.32151">
        <ele>4.5999999046326</ele>
        <time>2021-07-29T06:50:44.000Z</time>
      </trkpt>
      <trkpt lat="47.26113" lon="-2.32178">
        <ele>4.5999999046326</ele>
        <time>2021-07-29T06:50:49.000Z</time>
      </trkpt>
      <trkpt lat="47.26107" lon="-2.32193">
        <ele>4.5999999046326</ele>
        <time>2021-07-29T06:50:52.000Z</time>
      </trkpt>
      <trkpt lat="47.261" lon="-2.32209">
        <ele>4.5999999046326</ele>
        <time>2021-07-29T06:50:55.000Z</time>
      </trkpt>
      <trkpt lat="47.26096" lon="-2.32213">
        <ele>4.5999999046326</ele>
        <time>2021-07-29T06:50:56.000Z</time>
      </trkpt>
      <trkpt lat="47.26083" lon="-2.32231">
        <ele>4.5999999046326</ele>
        <time>2021-07-29T06:51:00.000Z</time>
      </trkpt>
      <trkpt lat="47.26069" lon="-2.32251">
        <ele>4.5999999046326</ele>
        <time>2021-07-29T06:51:04.000Z</time>
      </trkpt>
      <trkpt lat="47.2606" lon="-2.3226">
        <ele>4.5999999046326</ele>
        <time>2021-07-29T06:51:06.000Z</time>
      </trkpt>
      <trkpt lat="47.26035" lon="-2.32289">
        <ele>4.5999999046326</ele>
        <time>2021-07-29T06:51:12.000Z</time>
      </trkpt>
      <trkpt lat="47.26008" lon="-2.32323">
        <ele>4.5999999046326</ele>
        <time>2021-07-29T06:51:19.000Z</time>
      </trkpt>
      <trkpt lat="47.2598" lon="-2.32359">
        <ele>4.5999999046326</ele>
        <time>2021-07-29T06:51:26.000Z</time>
      </trkpt>
      <trkpt lat="47.25952" lon="-2.32394">
        <ele>4.5999999046326</ele>
        <time>2021-07-29T06:51:33.000Z</time>
      </trkpt>
      <trkpt lat="47.25918" lon="-2.32437">
        <ele>4.5999999046326</ele>
        <time>2021-07-29T06:51:42.000Z</time>
      </trkpt>
      <trkpt lat="47.25902" lon="-2.32465">
        <ele>4.5999999046326</ele>
        <time>2021-07-29T06:51:48.000Z</time>
      </trkpt>
      <trkpt lat="47.25907" lon="-2.32472">
        <ele>4.5999999046326</ele>
        <time>2021-07-29T06:51:51.000Z</time>
      </trkpt>
      <trkpt lat="47.25914" lon="-2.32476">
        <ele>4.5999999046326</ele>
        <time>2021-07-29T06:51:53.000Z</time>
      </trkpt>
      <trkpt lat="47.2592" lon="-2.32484">
        <ele>4.5999999046326</ele>
        <time>2021-07-29T06:51:55.000Z</time>
      </trkpt>
      <trkpt lat="47.25932" lon="-2.32516">
        <ele>4.5999999046326</ele>
        <time>2021-07-29T06:52:00.000Z</time>
      </trkpt>
      <trkpt lat="47.25946" lon="-2.32561">
        <ele>4.5999999046326</ele>
        <time>2021-07-29T06:52:07.000Z</time>
      </trkpt>
      <trkpt lat="47.25959" lon="-2.32613">
        <ele>4.5999999046326</ele>
        <time>2021-07-29T06:52:15.000Z</time>
      </trkpt>
      <trkpt lat="47.25961" lon="-2.32652">
        <ele>4.5999999046326</ele>
        <time>2021-07-29T06:52:22.000Z</time>
      </trkpt>
      <trkpt lat="47.25963" lon="-2.32659">
        <ele>4.5999999046326</ele>
        <time>2021-07-29T06:52:24.000Z</time>
      </trkpt>
      <trkpt lat="47.2597" lon="-2.32655">
        <ele>4.5999999046326</ele>
        <time>2021-07-29T06:52:26.000Z</time>
      </trkpt>
      <trkpt lat="47.25982" lon="-2.32658">
        <ele>4.5999999046326</ele>
        <time>2021-07-29T06:52:29.000Z</time>
      </trkpt>
      <trkpt lat="47.25986" lon="-2.32658">
        <ele>4.5999999046326</ele>
        <time>2021-07-29T06:52:30.000Z</time>
      </trkpt>
      <trkpt lat="47.26008" lon="-2.32654">
        <ele>4.5999999046326</ele>
        <time>2021-07-29T06:52:35.000Z</time>
      </trkpt>
      <trkpt lat="47.26039" lon="-2.32649">
        <ele>4.5999999046326</ele>
        <time>2021-07-29T06:52:42.000Z</time>
      </trkpt>
      <trkpt lat="47.26069" lon="-2.32644">
        <ele>4.5999999046326</ele>
        <time>2021-07-29T06:52:49.000Z</time>
      </trkpt>
      <trkpt lat="47.26095" lon="-2.3264">
        <ele>4.5999999046326</ele>
        <time>2021-07-29T06:52:56.000Z</time>
      </trkpt>
      <trkpt lat="47.26125" lon="-2.32636">
        <ele>4.5999999046326</ele>
        <time>2021-07-29T06:53:03.000Z</time>
      </trkpt>
      <trkpt lat="47.26129" lon="-2.32637">
        <ele>4.5999999046326</ele>
        <time>2021-07-29T06:53:04.000Z</time>
      </trkpt>
      <trkpt lat="47.26147" lon="-2.32642">
        <ele>4.5999999046326</ele>
        <time>2021-07-29T06:53:08.000Z</time>
      </trkpt>
      <trkpt lat="47.2618" lon="-2.3266">
        <ele>4.5999999046326</ele>
        <time>2021-07-29T06:53:16.000Z</time>
      </trkpt>
      <trkpt lat="47.26192" lon="-2.32671">
        <ele>4.5999999046326</ele>
        <time>2021-07-29T06:53:19.000Z</time>
      </trkpt>
      <trkpt lat="47.26211" lon="-2.32691">
        <ele>4.5999999046326</ele>
        <time>2021-07-29T06:53:24.000Z</time>
      </trkpt>
      <trkpt lat="47.26243" lon="-2.32738">
        <ele>4.5999999046326</ele>
        <time>2021-07-29T06:53:33.000Z</time>
      </trkpt>
      <trkpt lat="47.26272" lon="-2.32783">
        <ele>4.5999999046326</ele>
        <time>2021-07-29T06:53:40.000Z</time>
      </trkpt>
      <trkpt lat="47.26284" lon="-2.32813">
        <ele>4.5999999046326</ele>
        <time>2021-07-29T06:53:44.000Z</time>
      </trkpt>
      <trkpt lat="47.26288" lon="-2.3283">
        <ele>4.5999999046326</ele>
        <time>2021-07-29T06:53:46.000Z</time>
      </trkpt>
      <trkpt lat="47.26292" lon="-2.32855">
        <ele>4.5999999046326</ele>
        <time>2021-07-29T06:53:49.000Z</time>
      </trkpt>
      <trkpt lat="47.26295" lon="-2.32861">
        <ele>4.5999999046326</ele>
        <time>2021-07-29T06:53:50.000Z</time>
      </trkpt>
      <trkpt lat="47.26305" lon="-2.32867">
        <ele>4.5999999046326</ele>
        <time>2021-07-29T06:53:52.000Z</time>
      </trkpt>
      <trkpt lat="47.2632" lon="-2.32879">
        <ele>4.5999999046326</ele>
        <time>2021-07-29T06:53:55.000Z</time>
      </trkpt>
      <trkpt lat="47.26322" lon="-2.32887">
        <ele>4.5999999046326</ele>
        <time>2021-07-29T06:53:56.000Z</time>
      </trkpt>
      <trkpt lat="47.2633" lon="-2.3291">
        <ele>4.5999999046326</ele>
        <time>2021-07-29T06:53:59.000Z</time>
      </trkpt>
      <trkpt lat="47.26335" lon="-2.32925">
        <ele>4.5999999046326</ele>
        <time>2021-07-29T06:54:01.000Z</time>
      </trkpt>
      <trkpt lat="47.26353" lon="-2.32976">
        <ele>4.5999999046326</ele>
        <time>2021-07-29T06:54:08.000Z</time>
      </trkpt>
      <trkpt lat="47.26357" lon="-2.32981">
        <ele>4.5999999046326</ele>
        <time>2021-07-29T06:54:09.000Z</time>
      </trkpt>
      <trkpt lat="47.26364" lon="-2.32992">
        <ele>4.5999999046326</ele>
        <time>2021-07-29T06:54:11.000Z</time>
      </trkpt>
      <trkpt lat="47.26366" lon="-2.32999">
        <ele>4.5999999046326</ele>
        <time>2021-07-29T06:54:12.000Z</time>
      </trkpt>
      <trkpt lat="47.26367" lon="-2.33024">
        <ele>4.5999999046326</ele>
        <time>2021-07-29T06:54:15.000Z</time>
      </trkpt>
      <trkpt lat="47.26367" lon="-2.33032">
        <ele>4.5999999046326</ele>
        <time>2021-07-29T06:54:16.000Z</time>
      </trkpt>
      <trkpt lat="47.26372" lon="-2.33119">
        <ele>4.5999999046326</ele>
        <time>2021-07-29T06:54:27.000Z</time>
      </trkpt>
      <trkpt lat="47.26372" lon="-2.33126">
        <ele>4.5999999046326</ele>
        <time>2021-07-29T06:54:28.000Z</time>
      </trkpt>
      <trkpt lat="47.26372" lon="-2.33135">
        <ele>4.5999999046326</ele>
        <time>2021-07-29T06:54:29.000Z</time>
      </trkpt>
      <trkpt lat="47.26377" lon="-2.33208">
        <ele>4.5999999046326</ele>
        <time>2021-07-29T06:54:38.000Z</time>
      </trkpt>
      <trkpt lat="47.2638" lon="-2.33246">
        <ele>4.5999999046326</ele>
        <time>2021-07-29T06:54:43.000Z</time>
      </trkpt>
      <trkpt lat="47.26385" lon="-2.33262">
        <ele>4.5999999046326</ele>
        <time>2021-07-29T06:54:45.000Z</time>
      </trkpt>
      <trkpt lat="47.26399" lon="-2.33271">
        <ele>4.5999999046326</ele>
        <time>2021-07-29T06:54:48.000Z</time>
      </trkpt>
      <trkpt lat="47.26404" lon="-2.33273">
        <ele>4.5999999046326</ele>
        <time>2021-07-29T06:54:49.000Z</time>
      </trkpt>
      <trkpt lat="47.26409" lon="-2.33273">
        <ele>4.5999999046326</ele>
        <time>2021-07-29T06:54:50.000Z</time>
      </trkpt>
      <trkpt lat="47.26433" lon="-2.33273">
        <ele>4.5999999046326</ele>
        <time>2021-07-29T06:54:54.000Z</time>
      </trkpt>
      <trkpt lat="47.26481" lon="-2.33278">
        <ele>4.5999999046326</ele>
        <time>2021-07-29T06:55:03.000Z</time>
      </trkpt>
      <trkpt lat="47.26501" lon="-2.33283">
        <ele>4.5999999046326</ele>
        <time>2021-07-29T06:55:07.000Z</time>
      </trkpt>
      <trkpt lat="47.2651" lon="-2.33288">
        <ele>4.5999999046326</ele>
        <time>2021-07-29T06:55:09.000Z</time>
      </trkpt>
      <trkpt lat="47.26522" lon="-2.33291">
        <ele>4.5999999046326</ele>
        <time>2021-07-29T06:55:12.000Z</time>
      </trkpt>
      <trkpt lat="47.26526" lon="-2.3329">
        <ele>4.5999999046326</ele>
        <time>2021-07-29T06:55:13.000Z</time>
      </trkpt>
      <trkpt lat="47.2653" lon="-2.33291">
        <ele>4.5999999046326</ele>
        <time>2021-07-29T06:55:14.000Z</time>
      </trkpt>
      <trkpt lat="47.26535" lon="-2.33298">
        <ele>4.5999999046326</ele>
        <time>2021-07-29T06:55:16.000Z</time>
      </trkpt>
      <trkpt lat="47.26542" lon="-2.33299">
        <ele>4.5999999046326</ele>
        <time>2021-07-29T06:55:19.000Z</time>
      </trkpt>
      <trkpt lat="47.26544" lon="-2.33296">
        <ele>4.5999999046326</ele>
        <time>2021-07-29T06:55:20.000Z</time>
      </trkpt>
      <trkpt lat="47.26557" lon="-2.33282">
        <ele>4.5999999046326</ele>
        <time>2021-07-29T06:55:24.000Z</time>
      </trkpt>
      <trkpt lat="47.26584" lon="-2.33252">
        <ele>4.5999999046326</ele>
        <time>2021-07-29T06:55:32.000Z</time>
      </trkpt>
      <trkpt lat="47.26614" lon="-2.33222">
        <ele>4.5999999046326</ele>
        <time>2021-07-29T06:55:40.000Z</time>
      </trkpt>
      <trkpt lat="47.26641" lon="-2.33192">
        <ele>4.5999999046326</ele>
        <time>2021-07-29T06:55:48.000Z</time>
      </trkpt>
      <trkpt lat="47.26669" lon="-2.33164">
        <ele>4.5999999046326</ele>
        <time>2021-07-29T06:55:56.000Z</time>
      </trkpt>
      <trkpt lat="47.26695" lon="-2.33138">
        <ele>4.5999999046326</ele>
        <time>2021-07-29T06:56:03.000Z</time>
      </trkpt>
      <trkpt lat="47.26724" lon="-2.33107">
        <ele>4.5999999046326</ele>
        <time>2021-07-29T06:56:11.000Z</time>
      </trkpt>
      <trkpt lat="47.26745" lon="-2.33087">
        <ele>4.5999999046326</ele>
        <time>2021-07-29T06:56:17.000Z</time>
      </trkpt>
      <trkpt lat="47.26752" lon="-2.33085">
        <ele>4.5999999046326</ele>
        <time>2021-07-29T06:56:19.000Z</time>
      </trkpt>
      <trkpt lat="47.26755" lon="-2.33088">
        <ele>4.5999999046326</ele>
        <time>2021-07-29T06:56:20.000Z</time>
      </trkpt>
      <trkpt lat="47.26763" lon="-2.33103">
        <ele>4.5999999046326</ele>
        <time>2021-07-29T06:56:23.000Z</time>
      </trkpt>
      <trkpt lat="47.26766" lon="-2.33131">
        <ele>4.5999999046326</ele>
        <time>2021-07-29T06:56:28.000Z</time>
      </trkpt>
      <trkpt lat="47.26763" lon="-2.33143">
        <ele>4.5999999046326</ele>
        <time>2021-07-29T06:56:30.000Z</time>
      </trkpt>
      <trkpt lat="47.26757" lon="-2.33161">
        <ele>4.5999999046326</ele>
        <time>2021-07-29T06:56:33.000Z</time>
      </trkpt>
      <trkpt lat="47.26751" lon="-2.33185">
        <ele>4.1999998092651</ele>
        <time>2021-07-29T06:56:37.000Z</time>
      </trkpt>
      <trkpt lat="47.26749" lon="-2.33191">
        <ele>3.7999999523163</ele>
        <time>2021-07-29T06:56:38.000Z</time>
      </trkpt>
      <trkpt lat="47.26747" lon="-2.33196">
        <ele>3.4000000953674</ele>
        <time>2021-07-29T06:56:39.000Z</time>
      </trkpt>
      <trkpt lat="47.26746" lon="-2.33201">
        <ele>3</ele>
        <time>2021-07-29T06:56:40.000Z</time>
      </trkpt>
      <trkpt lat="47.26744" lon="-2.33206">
        <ele>2.5999999046326</ele>
        <time>2021-07-29T06:56:41.000Z</time>
      </trkpt>
      <trkpt lat="47.26733" lon="-2.33235">
        <ele>2.5999999046326</ele>
        <time>2021-07-29T06:56:46.000Z</time>
      </trkpt>
      <trkpt lat="47.26729" lon="-2.33262">
        <ele>2.5999999046326</ele>
        <time>2021-07-29T06:56:50.000Z</time>
      </trkpt>
      <trkpt lat="47.26729" lon="-2.33276">
        <ele>2.5999999046326</ele>
        <time>2021-07-29T06:56:52.000Z</time>
      </trkpt>
      <trkpt lat="47.26731" lon="-2.33297">
        <ele>2.5999999046326</ele>
        <time>2021-07-29T06:56:55.000Z</time>
      </trkpt>
      <trkpt lat="47.26735" lon="-2.33309">
        <ele>2.5999999046326</ele>
        <time>2021-07-29T06:56:57.000Z</time>
      </trkpt>
      <trkpt lat="47.26748" lon="-2.33352">
        <ele>2.5999999046326</ele>
        <time>2021-07-29T06:57:04.000Z</time>
      </trkpt>
      <trkpt lat="47.26752" lon="-2.3337">
        <ele>2.5999999046326</ele>
        <time>2021-07-29T06:57:07.000Z</time>
      </trkpt>
      <trkpt lat="47.26753" lon="-2.3339">
        <ele>2.5999999046326</ele>
        <time>2021-07-29T06:57:10.000Z</time>
      </trkpt>
      <trkpt lat="47.26762" lon="-2.33452">
        <ele>2.5999999046326</ele>
        <time>2021-07-29T06:57:20.000Z</time>
      </trkpt>
      <trkpt lat="47.26769" lon="-2.33501">
        <ele>2.5999999046326</ele>
        <time>2021-07-29T06:57:27.000Z</time>
      </trkpt>
      <trkpt lat="47.2677" lon="-2.33506">
        <ele>2.5999999046326</ele>
        <time>2021-07-29T06:57:28.000Z</time>
      </trkpt>
      <trkpt lat="47.26777" lon="-2.33544">
        <ele>2.5999999046326</ele>
        <time>2021-07-29T06:57:34.000Z</time>
      </trkpt>
      <trkpt lat="47.26781" lon="-2.33588">
        <ele>2.5999999046326</ele>
        <time>2021-07-29T06:57:41.000Z</time>
      </trkpt>
      <trkpt lat="47.26781" lon="-2.33594">
        <ele>2.5999999046326</ele>
        <time>2021-07-29T06:57:42.000Z</time>
      </trkpt>
      <trkpt lat="47.2678" lon="-2.3365">
        <ele>2.5999999046326</ele>
        <time>2021-07-29T06:57:51.000Z</time>
      </trkpt>
      <trkpt lat="47.26778" lon="-2.33672">
        <ele>3</ele>
        <time>2021-07-29T06:57:55.000Z</time>
      </trkpt>
      <trkpt lat="47.26778" lon="-2.33677">
        <ele>3.4000000953674</ele>
        <time>2021-07-29T06:57:56.000Z</time>
      </trkpt>
      <trkpt lat="47.26777" lon="-2.33683">
        <ele>4</ele>
        <time>2021-07-29T06:57:57.000Z</time>
      </trkpt>
      <trkpt lat="47.26777" lon="-2.33688">
        <ele>4.4000000953674</ele>
        <time>2021-07-29T06:57:58.000Z</time>
      </trkpt>
      <trkpt lat="47.26777" lon="-2.33693">
        <ele>4.8000001907349</ele>
        <time>2021-07-29T06:57:59.000Z</time>
      </trkpt>
      <trkpt lat="47.2678" lon="-2.33701">
        <ele>4.8000001907349</ele>
        <time>2021-07-29T06:58:01.000Z</time>
      </trkpt>
      <trkpt lat="47.26782" lon="-2.33705">
        <ele>4.8000001907349</ele>
        <time>2021-07-29T06:58:02.000Z</time>
      </trkpt>
      <trkpt lat="47.26797" lon="-2.33722">
        <ele>4.8000001907349</ele>
        <time>2021-07-29T06:58:07.000Z</time>
      </trkpt>
      <trkpt lat="47.26803" lon="-2.3373">
        <ele>4.8000001907349</ele>
        <time>2021-07-29T06:58:09.000Z</time>
      </trkpt>
      <trkpt lat="47.26824" lon="-2.33755">
        <ele>4.8000001907349</ele>
        <time>2021-07-29T06:58:16.000Z</time>
      </trkpt>
      <trkpt lat="47.2684" lon="-2.33777">
        <ele>4.8000001907349</ele>
        <time>2021-07-29T06:58:21.000Z</time>
      </trkpt>
      <trkpt lat="47.26844" lon="-2.33779">
        <ele>4.8000001907349</ele>
        <time>2021-07-29T06:58:22.000Z</time>
      </trkpt>
      <trkpt lat="47.2688" lon="-2.33792">
        <ele>4.8000001907349</ele>
        <time>2021-07-29T06:58:31.000Z</time>
      </trkpt>
      <trkpt lat="47.26895" lon="-2.33808">
        <ele>4.8000001907349</ele>
        <time>2021-07-29T06:58:36.000Z</time>
      </trkpt>
      <trkpt lat="47.26897" lon="-2.33813">
        <ele>5.1999998092651</ele>
        <time>2021-07-29T06:58:37.000Z</time>
      </trkpt>
      <trkpt lat="47.26898" lon="-2.33818">
        <ele>5.5999999046326</ele>
        <time>2021-07-29T06:58:38.000Z</time>
      </trkpt>
      <trkpt lat="47.26899" lon="-2.33825">
        <ele>6</ele>
        <time>2021-07-29T06:58:39.000Z</time>
      </trkpt>
      <trkpt lat="47.269" lon="-2.33831">
        <ele>6.4000000953674</ele>
        <time>2021-07-29T06:58:40.000Z</time>
      </trkpt>
      <trkpt lat="47.26901" lon="-2.33838">
        <ele>6.8000001907349</ele>
        <time>2021-07-29T06:58:41.000Z</time>
      </trkpt>
      <trkpt lat="47.26903" lon="-2.33844">
        <ele>6.8000001907349</ele>
        <time>2021-07-29T06:58:42.000Z</time>
      </trkpt>
      <trkpt lat="47.26912" lon="-2.3388">
        <ele>6.8000001907349</ele>
        <time>2021-07-29T06:58:48.000Z</time>
      </trkpt>
      <trkpt lat="47.26924" lon="-2.33928">
        <ele>6.8000001907349</ele>
        <time>2021-07-29T06:58:56.000Z</time>
      </trkpt>
      <trkpt lat="47.26938" lon="-2.33982">
        <ele>6.8000001907349</ele>
        <time>2021-07-29T06:59:05.000Z</time>
      </trkpt>
      <trkpt lat="47.26952" lon="-2.34035">
        <ele>6.8000001907349</ele>
        <time>2021-07-29T06:59:14.000Z</time>
      </trkpt>
      <trkpt lat="47.26965" lon="-2.34083">
        <ele>6.8000001907349</ele>
        <time>2021-07-29T06:59:22.000Z</time>
      </trkpt>
      <trkpt lat="47.26973" lon="-2.34132">
        <ele>6.8000001907349</ele>
        <time>2021-07-29T06:59:30.000Z</time>
      </trkpt>
      <trkpt lat="47.26988" lon="-2.34188">
        <ele>6.8000001907349</ele>
        <time>2021-07-29T06:59:39.000Z</time>
      </trkpt>
      <trkpt lat="47.26994" lon="-2.34219">
        <ele>7.1999998092651</ele>
        <time>2021-07-29T06:59:44.000Z</time>
      </trkpt>
      <trkpt lat="47.26996" lon="-2.34225">
        <ele>7.5999999046326</ele>
        <time>2021-07-29T06:59:45.000Z</time>
      </trkpt>
      <trkpt lat="47.26997" lon="-2.34231">
        <ele>8</ele>
        <time>2021-07-29T06:59:46.000Z</time>
      </trkpt>
      <trkpt lat="47.26998" lon="-2.34237">
        <ele>8.3999996185303</ele>
        <time>2021-07-29T06:59:47.000Z</time>
      </trkpt>
      <trkpt lat="47.26999" lon="-2.34243">
        <ele>8.8000001907349</ele>
        <time>2021-07-29T06:59:48.000Z</time>
      </trkpt>
      <trkpt lat="47.27" lon="-2.34249">
        <ele>8.8000001907349</ele>
        <time>2021-07-29T06:59:49.000Z</time>
      </trkpt>
      <trkpt lat="47.27008" lon="-2.34294">
        <ele>8.8000001907349</ele>
        <time>2021-07-29T06:59:57.000Z</time>
      </trkpt>
      <trkpt lat="47.27007" lon="-2.34313">
        <ele>8.8000001907349</ele>
        <time>2021-07-29T07:00:01.000Z</time>
      </trkpt>
      <trkpt lat="47.27008" lon="-2.34316">
        <ele>8.8000001907349</ele>
        <time>2021-07-29T07:00:02.000Z</time>
      </trkpt>
      <trkpt lat="47.27019" lon="-2.34321">
        <ele>8.8000001907349</ele>
        <time>2021-07-29T07:00:06.000Z</time>
      </trkpt>
      <trkpt lat="47.27022" lon="-2.34321">
        <ele>8.8000001907349</ele>
        <time>2021-07-29T07:00:07.000Z</time>
      </trkpt>
      <trkpt lat="47.27036" lon="-2.34326">
        <ele>8.8000001907349</ele>
        <time>2021-07-29T07:00:11.000Z</time>
      </trkpt>
      <trkpt lat="47.27041" lon="-2.34342">
        <ele>8.8000001907349</ele>
        <time>2021-07-29T07:00:14.000Z</time>
      </trkpt>
      <trkpt lat="47.27043" lon="-2.34349">
        <ele>8.8000001907349</ele>
        <time>2021-07-29T07:00:15.000Z</time>
      </trkpt>
      <trkpt lat="47.27054" lon="-2.34394">
        <ele>8.8000001907349</ele>
        <time>2021-07-29T07:00:22.000Z</time>
      </trkpt>
      <trkpt lat="47.27066" lon="-2.34446">
        <ele>8.8000001907349</ele>
        <time>2021-07-29T07:00:30.000Z</time>
      </trkpt>
      <trkpt lat="47.27077" lon="-2.34497">
        <ele>8.8000001907349</ele>
        <time>2021-07-29T07:00:38.000Z</time>
      </trkpt>
      <trkpt lat="47.27092" lon="-2.3456">
        <ele>8.8000001907349</ele>
        <time>2021-07-29T07:00:48.000Z</time>
      </trkpt>
      <trkpt lat="47.27101" lon="-2.34604">
        <ele>8.8000001907349</ele>
        <time>2021-07-29T07:00:55.000Z</time>
      </trkpt>
      <trkpt lat="47.27111" lon="-2.34653">
        <ele>8.8000001907349</ele>
        <time>2021-07-29T07:01:02.000Z</time>
      </trkpt>
      <trkpt lat="47.27122" lon="-2.347">
        <ele>8.8000001907349</ele>
        <time>2021-07-29T07:01:09.000Z</time>
      </trkpt>
      <trkpt lat="47.27133" lon="-2.34743">
        <ele>8.8000001907349</ele>
        <time>2021-07-29T07:01:16.000Z</time>
      </trkpt>
      <trkpt lat="47.27147" lon="-2.34814">
        <ele>8.8000001907349</ele>
        <time>2021-07-29T07:01:27.000Z</time>
      </trkpt>
      <trkpt lat="47.27159" lon="-2.34866">
        <ele>8.8000001907349</ele>
        <time>2021-07-29T07:01:35.000Z</time>
      </trkpt>
      <trkpt lat="47.27161" lon="-2.34872">
        <ele>8.8000001907349</ele>
        <time>2021-07-29T07:01:36.000Z</time>
      </trkpt>
      <trkpt lat="47.27175" lon="-2.34917">
        <ele>8.8000001907349</ele>
        <time>2021-07-29T07:01:43.000Z</time>
      </trkpt>
      <trkpt lat="47.27183" lon="-2.34944">
        <ele>9.1999998092651</ele>
        <time>2021-07-29T07:01:47.000Z</time>
      </trkpt>
      <trkpt lat="47.27185" lon="-2.34951">
        <ele>9.6000003814697</ele>
        <time>2021-07-29T07:01:48.000Z</time>
      </trkpt>
      <trkpt lat="47.27187" lon="-2.34958">
        <ele>10</ele>
        <time>2021-07-29T07:01:49.000Z</time>
      </trkpt>
      <trkpt lat="47.27189" lon="-2.34965">
        <ele>10.39999961853</ele>
        <time>2021-07-29T07:01:50.000Z</time>
      </trkpt>
      <trkpt lat="47.27192" lon="-2.34972">
        <ele>10.800000190735</ele>
        <time>2021-07-29T07:01:51.000Z</time>
      </trkpt>
      <trkpt lat="47.27194" lon="-2.34979">
        <ele>10.800000190735</ele>
        <time>2021-07-29T07:01:52.000Z</time>
      </trkpt>
      <trkpt lat="47.27211" lon="-2.35029">
        <ele>10.800000190735</ele>
        <time>2021-07-29T07:02:00.000Z</time>
      </trkpt>
      <trkpt lat="47.27228" lon="-2.35074">
        <ele>10.800000190735</ele>
        <time>2021-07-29T07:02:07.000Z</time>
      </trkpt>
      <trkpt lat="47.2725" lon="-2.35122">
        <ele>10.800000190735</ele>
        <time>2021-07-29T07:02:15.000Z</time>
      </trkpt>
      <trkpt lat="47.27263" lon="-2.35124">
        <ele>10.800000190735</ele>
        <time>2021-07-29T07:02:18.000Z</time>
      </trkpt>
      <trkpt lat="47.27267" lon="-2.35122">
        <ele>10.800000190735</ele>
        <time>2021-07-29T07:02:19.000Z</time>
      </trkpt>
      <trkpt lat="47.27295" lon="-2.35108">
        <ele>10.800000190735</ele>
        <time>2021-07-29T07:02:26.000Z</time>
      </trkpt>
      <trkpt lat="47.273" lon="-2.35111">
        <ele>10.800000190735</ele>
        <time>2021-07-29T07:02:28.000Z</time>
      </trkpt>
      <trkpt lat="47.27302" lon="-2.35115">
        <ele>10.800000190735</ele>
        <time>2021-07-29T07:02:29.000Z</time>
      </trkpt>
      <trkpt lat="47.27306" lon="-2.35125">
        <ele>11.199999809265</ele>
        <time>2021-07-29T07:02:31.000Z</time>
      </trkpt>
      <trkpt lat="47.27308" lon="-2.3513">
        <ele>11.60000038147</ele>
        <time>2021-07-29T07:02:32.000Z</time>
      </trkpt>
      <trkpt lat="47.2731" lon="-2.35136">
        <ele>12</ele>
        <time>2021-07-29T07:02:33.000Z</time>
      </trkpt>
      <trkpt lat="47.27312" lon="-2.35142">
        <ele>12.60000038147</ele>
        <time>2021-07-29T07:02:34.000Z</time>
      </trkpt>
      <trkpt lat="47.27314" lon="-2.35149">
        <ele>13</ele>
        <time>2021-07-29T07:02:35.000Z</time>
      </trkpt>
      <trkpt lat="47.27327" lon="-2.35204">
        <ele>13</ele>
        <time>2021-07-29T07:02:43.000Z</time>
      </trkpt>
      <trkpt lat="47.27337" lon="-2.35249">
        <ele>13</ele>
        <time>2021-07-29T07:02:49.000Z</time>
      </trkpt>
      <trkpt lat="47.27349" lon="-2.35298">
        <ele>13</ele>
        <time>2021-07-29T07:02:56.000Z</time>
      </trkpt>
      <trkpt lat="47.27362" lon="-2.35348">
        <ele>13</ele>
        <time>2021-07-29T07:03:02.000Z</time>
      </trkpt>
      <trkpt lat="47.27373" lon="-2.35405">
        <ele>12.60000038147</ele>
        <time>2021-07-29T07:03:08.000Z</time>
      </trkpt>
      <trkpt lat="47.27375" lon="-2.35415">
        <ele>12</ele>
        <time>2021-07-29T07:03:09.000Z</time>
      </trkpt>
      <trkpt lat="47.27377" lon="-2.35424">
        <ele>11.60000038147</ele>
        <time>2021-07-29T07:03:10.000Z</time>
      </trkpt>
      <trkpt lat="47.27379" lon="-2.35434">
        <ele>11.199999809265</ele>
        <time>2021-07-29T07:03:11.000Z</time>
      </trkpt>
      <trkpt lat="47.27381" lon="-2.35444">
        <ele>10.800000190735</ele>
        <time>2021-07-29T07:03:12.000Z</time>
      </trkpt>
      <trkpt lat="47.27393" lon="-2.35505">
        <ele>10.39999961853</ele>
        <time>2021-07-29T07:03:18.000Z</time>
      </trkpt>
      <trkpt lat="47.27396" lon="-2.35514">
        <ele>10</ele>
        <time>2021-07-29T07:03:19.000Z</time>
      </trkpt>
      <trkpt lat="47.27398" lon="-2.35523">
        <ele>9.6000003814697</ele>
        <time>2021-07-29T07:03:20.000Z</time>
      </trkpt>
      <trkpt lat="47.27399" lon="-2.35532">
        <ele>9.1999998092651</ele>
        <time>2021-07-29T07:03:21.000Z</time>
      </trkpt>
      <trkpt lat="47.27401" lon="-2.35542">
        <ele>8.8000001907349</ele>
        <time>2021-07-29T07:03:22.000Z</time>
      </trkpt>
      <trkpt lat="47.27405" lon="-2.3557">
        <ele>8.8000001907349</ele>
        <time>2021-07-29T07:03:25.000Z</time>
      </trkpt>
      <trkpt lat="47.27411" lon="-2.35617">
        <ele>8.3999996185303</ele>
        <time>2021-07-29T07:03:30.000Z</time>
      </trkpt>
      <trkpt lat="47.27412" lon="-2.35626">
        <ele>8</ele>
        <time>2021-07-29T07:03:31.000Z</time>
      </trkpt>
      <trkpt lat="47.27414" lon="-2.35636">
        <ele>7.5999999046326</ele>
        <time>2021-07-29T07:03:32.000Z</time>
      </trkpt>
      <trkpt lat="47.27415" lon="-2.35645">
        <ele>7</ele>
        <time>2021-07-29T07:03:33.000Z</time>
      </trkpt>
      <trkpt lat="47.27418" lon="-2.35653">
        <ele>6.5999999046326</ele>
        <time>2021-07-29T07:03:34.000Z</time>
      </trkpt>
      <trkpt lat="47.27422" lon="-2.35661">
        <ele>6.5999999046326</ele>
        <time>2021-07-29T07:03:35.000Z</time>
      </trkpt>
      <trkpt lat="47.27427" lon="-2.35668">
        <ele>6.5999999046326</ele>
        <time>2021-07-29T07:03:36.000Z</time>
      </trkpt>
      <trkpt lat="47.27445" lon="-2.35683">
        <ele>6.5999999046326</ele>
        <time>2021-07-29T07:03:40.000Z</time>
      </trkpt>
      <trkpt lat="47.27455" lon="-2.35687">
        <ele>6.5999999046326</ele>
        <time>2021-07-29T07:03:42.000Z</time>
      </trkpt>
      <trkpt lat="47.27476" lon="-2.35688">
        <ele>6.5999999046326</ele>
        <time>2021-07-29T07:03:45.000Z</time>
      </trkpt>
      <trkpt lat="47.27521" lon="-2.35692">
        <ele>6.5999999046326</ele>
        <time>2021-07-29T07:03:52.000Z</time>
      </trkpt>
      <trkpt lat="47.27565" lon="-2.357">
        <ele>6.5999999046326</ele>
        <time>2021-07-29T07:04:00.000Z</time>
      </trkpt>
      <trkpt lat="47.27591" lon="-2.35707">
        <ele>6.5999999046326</ele>
        <time>2021-07-29T07:04:05.000Z</time>
      </trkpt>
      <trkpt lat="47.27628" lon="-2.35713">
        <ele>6.5999999046326</ele>
        <time>2021-07-29T07:04:12.000Z</time>
      </trkpt>
      <trkpt lat="47.27656" lon="-2.35721">
        <ele>7</ele>
        <time>2021-07-29T07:04:18.000Z</time>
      </trkpt>
      <trkpt lat="47.27661" lon="-2.35723">
        <ele>7.4000000953674</ele>
        <time>2021-07-29T07:04:19.000Z</time>
      </trkpt>
      <trkpt lat="47.27666" lon="-2.35724">
        <ele>7.8000001907349</ele>
        <time>2021-07-29T07:04:20.000Z</time>
      </trkpt>
      <trkpt lat="47.2767" lon="-2.35726">
        <ele>8.1999998092651</ele>
        <time>2021-07-29T07:04:21.000Z</time>
      </trkpt>
      <trkpt lat="47.27675" lon="-2.35726">
        <ele>8.8000001907349</ele>
        <time>2021-07-29T07:04:22.000Z</time>
      </trkpt>
      <trkpt lat="47.27684" lon="-2.35728">
        <ele>8.8000001907349</ele>
        <time>2021-07-29T07:04:24.000Z</time>
      </trkpt>
      <trkpt lat="47.27694" lon="-2.35726">
        <ele>8.8000001907349</ele>
        <time>2021-07-29T07:04:26.000Z</time>
      </trkpt>
      <trkpt lat="47.27703" lon="-2.3572">
        <ele>8.8000001907349</ele>
        <time>2021-07-29T07:04:28.000Z</time>
      </trkpt>
      <trkpt lat="47.27715" lon="-2.35707">
        <ele>8.8000001907349</ele>
        <time>2021-07-29T07:04:31.000Z</time>
      </trkpt>
      <trkpt lat="47.27722" lon="-2.35697">
        <ele>9.1999998092651</ele>
        <time>2021-07-29T07:04:33.000Z</time>
      </trkpt>
      <trkpt lat="47.27725" lon="-2.35692">
        <ele>9.6000003814697</ele>
        <time>2021-07-29T07:04:34.000Z</time>
      </trkpt>
      <trkpt lat="47.27729" lon="-2.35686">
        <ele>10</ele>
        <time>2021-07-29T07:04:35.000Z</time>
      </trkpt>
      <trkpt lat="47.27732" lon="-2.35681">
        <ele>10.39999961853</ele>
        <time>2021-07-29T07:04:36.000Z</time>
      </trkpt>
      <trkpt lat="47.27736" lon="-2.35675">
        <ele>10.800000190735</ele>
        <time>2021-07-29T07:04:37.000Z</time>
      </trkpt>
      <trkpt lat="47.27754" lon="-2.35648">
        <ele>10.800000190735</ele>
        <time>2021-07-29T07:04:42.000Z</time>
      </trkpt>
      <trkpt lat="47.27774" lon="-2.35626">
        <ele>11.199999809265</ele>
        <time>2021-07-29T07:04:47.000Z</time>
      </trkpt>
      <trkpt lat="47.27778" lon="-2.35623">
        <ele>11.60000038147</ele>
        <time>2021-07-29T07:04:48.000Z</time>
      </trkpt>
      <trkpt lat="47.27783" lon="-2.3562">
        <ele>12.199999809265</ele>
        <time>2021-07-29T07:04:49.000Z</time>
      </trkpt>
      <trkpt lat="47.27788" lon="-2.35617">
        <ele>12.60000038147</ele>
        <time>2021-07-29T07:04:50.000Z</time>
      </trkpt>
      <trkpt lat="47.27793" lon="-2.35615">
        <ele>13</ele>
        <time>2021-07-29T07:04:51.000Z</time>
      </trkpt>
      <trkpt lat="47.27808" lon="-2.35608">
        <ele>13</ele>
        <time>2021-07-29T07:04:54.000Z</time>
      </trkpt>
      <trkpt lat="47.27813" lon="-2.35607">
        <ele>13</ele>
        <time>2021-07-29T07:04:55.000Z</time>
      </trkpt>
      <trkpt lat="47.27836" lon="-2.35601">
        <ele>13</ele>
        <time>2021-07-29T07:05:00.000Z</time>
      </trkpt>
      <trkpt lat="47.27855" lon="-2.35595">
        <ele>13.39999961853</ele>
        <time>2021-07-29T07:05:04.000Z</time>
      </trkpt>
      <trkpt lat="47.27859" lon="-2.35593">
        <ele>13.800000190735</ele>
        <time>2021-07-29T07:05:05.000Z</time>
      </trkpt>
      <trkpt lat="47.27864" lon="-2.35592">
        <ele>14.199999809265</ele>
        <time>2021-07-29T07:05:06.000Z</time>
      </trkpt>
      <trkpt lat="47.27869" lon="-2.35591">
        <ele>14.60000038147</ele>
        <time>2021-07-29T07:05:07.000Z</time>
      </trkpt>
      <trkpt lat="47.27873" lon="-2.35589">
        <ele>15</ele>
        <time>2021-07-29T07:05:08.000Z</time>
      </trkpt>
      <trkpt lat="47.279" lon="-2.35583">
        <ele>15</ele>
        <time>2021-07-29T07:05:14.000Z</time>
      </trkpt>
      <trkpt lat="47.27917" lon="-2.35579">
        <ele>15.39999961853</ele>
        <time>2021-07-29T07:05:18.000Z</time>
      </trkpt>
      <trkpt lat="47.27921" lon="-2.35578">
        <ele>15.800000190735</ele>
        <time>2021-07-29T07:05:19.000Z</time>
      </trkpt>
      <trkpt lat="47.27925" lon="-2.35577">
        <ele>16.60000038147</ele>
        <time>2021-07-29T07:05:20.000Z</time>
      </trkpt>
      <trkpt lat="47.27929" lon="-2.35576">
        <ele>17</ele>
        <time>2021-07-29T07:05:21.000Z</time>
      </trkpt>
      <trkpt lat="47.27933" lon="-2.35575">
        <ele>17</ele>
        <time>2021-07-29T07:05:22.000Z</time>
      </trkpt>
      <trkpt lat="47.27952" lon="-2.35571">
        <ele>17</ele>
        <time>2021-07-29T07:05:27.000Z</time>
      </trkpt>
      <trkpt lat="47.27971" lon="-2.3558">
        <ele>17</ele>
        <time>2021-07-29T07:05:32.000Z</time>
      </trkpt>
      <trkpt lat="47.27989" lon="-2.35583">
        <ele>17</ele>
        <time>2021-07-29T07:05:37.000Z</time>
      </trkpt>
      <trkpt lat="47.28012" lon="-2.35574">
        <ele>17</ele>
        <time>2021-07-29T07:05:43.000Z</time>
      </trkpt>
      <trkpt lat="47.28016" lon="-2.35573">
        <ele>17.39999961853</ele>
        <time>2021-07-29T07:05:44.000Z</time>
      </trkpt>
      <trkpt lat="47.2802" lon="-2.35572">
        <ele>18.39999961853</ele>
        <time>2021-07-29T07:05:45.000Z</time>
      </trkpt>
      <trkpt lat="47.28024" lon="-2.35572">
        <ele>18.799999237061</ele>
        <time>2021-07-29T07:05:46.000Z</time>
      </trkpt>
      <trkpt lat="47.28028" lon="-2.35571">
        <ele>19.200000762939</ele>
        <time>2021-07-29T07:05:47.000Z</time>
      </trkpt>
      <trkpt lat="47.2804" lon="-2.35572">
        <ele>19.200000762939</ele>
        <time>2021-07-29T07:05:50.000Z</time>
      </trkpt>
      <trkpt lat="47.28061" lon="-2.35579">
        <ele>19.200000762939</ele>
        <time>2021-07-29T07:05:56.000Z</time>
      </trkpt>
      <trkpt lat="47.28074" lon="-2.35592">
        <ele>19.200000762939</ele>
        <time>2021-07-29T07:06:01.000Z</time>
      </trkpt>
      <trkpt lat="47.28082" lon="-2.35608">
        <ele>19.200000762939</ele>
        <time>2021-07-29T07:06:07.000Z</time>
      </trkpt>
      <trkpt lat="47.28082" lon="-2.35609">
        <ele>19.200000762939</ele>
        <time>2021-07-29T07:06:08.000Z</time>
      </trkpt>
      <trkpt lat="47.2808" lon="-2.3561">
        <ele>19.200000762939</ele>
        <time>2021-07-29T07:08:42.000Z</time>
      </trkpt>
      <trkpt lat="47.28078" lon="-2.35607">
        <ele>19.200000762939</ele>
        <time>2021-07-29T07:08:44.000Z</time>
      </trkpt>
      <trkpt lat="47.28072" lon="-2.35611">
        <ele>19.200000762939</ele>
        <time>2021-07-29T07:08:48.000Z</time>
      </trkpt>
      <trkpt lat="47.28074" lon="-2.3562">
        <ele>19.60000038147</ele>
        <time>2021-07-29T07:08:51.000Z</time>
      </trkpt>
      <trkpt lat="47.28074" lon="-2.35624">
        <ele>20</ele>
        <time>2021-07-29T07:08:52.000Z</time>
      </trkpt>
      <trkpt lat="47.28075" lon="-2.35626">
        <ele>20.39999961853</ele>
        <time>2021-07-29T07:08:53.000Z</time>
      </trkpt>
      <trkpt lat="47.28075" lon="-2.35628">
        <ele>20.799999237061</ele>
        <time>2021-07-29T07:08:54.000Z</time>
      </trkpt>
      <trkpt lat="47.28076" lon="-2.3563">
        <ele>21.200000762939</ele>
        <time>2021-07-29T07:08:55.000Z</time>
      </trkpt>
      <trkpt lat="47.28078" lon="-2.35636">
        <ele>21.200000762939</ele>
        <time>2021-07-29T07:08:58.000Z</time>
      </trkpt>
      <trkpt lat="47.28079" lon="-2.3564">
        <ele>21.60000038147</ele>
        <time>2021-07-29T07:09:01.000Z</time>
      </trkpt>
      <trkpt lat="47.28073" lon="-2.35625">
        <ele>23.39999961853</ele>
        <time>2021-07-29T07:11:25.000Z</time>
      </trkpt>
      <trkpt lat="47.28074" lon="-2.35619">
        <ele>23.39999961853</ele>
        <time>2021-07-29T07:11:29.000Z</time>
      </trkpt>
      <trkpt lat="47.28074" lon="-2.3562">
        <ele>23.39999961853</ele>
        <time>2021-07-29T07:11:30.000Z</time>
      </trkpt>
      <trkpt lat="47.28075" lon="-2.35621">
        <ele>22.60000038147</ele>
        <time>2021-07-29T07:11:31.000Z</time>
      </trkpt>
      <trkpt lat="47.28074" lon="-2.35622">
        <ele>22.200000762939</ele>
        <time>2021-07-29T07:11:32.000Z</time>
      </trkpt>
      <trkpt lat="47.28074" lon="-2.35624">
        <ele>21.799999237061</ele>
        <time>2021-07-29T07:11:33.000Z</time>
      </trkpt>
      <trkpt lat="47.28073" lon="-2.35625">
        <ele>21.39999961853</ele>
        <time>2021-07-29T07:11:34.000Z</time>
      </trkpt>
      <trkpt lat="47.28073" lon="-2.35627">
        <ele>21.39999961853</ele>
        <time>2021-07-29T07:11:36.000Z</time>
      </trkpt>
      <trkpt lat="47.28072" lon="-2.3563">
        <ele>21.39999961853</ele>
        <time>2021-07-29T07:11:40.000Z</time>
      </trkpt>
      <trkpt lat="47.28072" lon="-2.3563">
        <ele>21.39999961853</ele>
        <time>2021-07-29T07:11:41.000Z</time>
      </trkpt>
      <trkpt lat="47.28073" lon="-2.35634">
        <ele>21.39999961853</ele>
        <time>2021-07-29T07:11:59.000Z</time>
      </trkpt>
      <trkpt lat="47.28075" lon="-2.35638">
        <ele>21.39999961853</ele>
        <time>2021-07-29T07:12:01.000Z</time>
      </trkpt>
      <trkpt lat="47.28076" lon="-2.3564">
        <ele>21.799999237061</ele>
        <time>2021-07-29T07:12:02.000Z</time>
      </trkpt>
      <trkpt lat="47.28078" lon="-2.35642">
        <ele>22.200000762939</ele>
        <time>2021-07-29T07:12:03.000Z</time>
      </trkpt>
      <trkpt lat="47.28079" lon="-2.35645">
        <ele>22.60000038147</ele>
        <time>2021-07-29T07:12:04.000Z</time>
      </trkpt>
      <trkpt lat="47.2808" lon="-2.35648">
        <ele>23</ele>
        <time>2021-07-29T07:12:05.000Z</time>
      </trkpt>
      <trkpt lat="47.28081" lon="-2.35652">
        <ele>23.39999961853</ele>
        <time>2021-07-29T07:12:06.000Z</time>
      </trkpt>
      <trkpt lat="47.28085" lon="-2.35666">
        <ele>24</ele>
        <time>2021-07-29T07:12:09.000Z</time>
      </trkpt>
      <trkpt lat="47.28086" lon="-2.3567">
        <ele>24.39999961853</ele>
        <time>2021-07-29T07:12:10.000Z</time>
      </trkpt>
      <trkpt lat="47.28087" lon="-2.35675">
        <ele>24.799999237061</ele>
        <time>2021-07-29T07:12:11.000Z</time>
      </trkpt>
      <trkpt lat="47.28088" lon="-2.35678">
        <ele>25.200000762939</ele>
        <time>2021-07-29T07:12:12.000Z</time>
      </trkpt>
      <trkpt lat="47.28089" lon="-2.35682">
        <ele>25.799999237061</ele>
        <time>2021-07-29T07:12:13.000Z</time>
      </trkpt>
      <trkpt lat="47.28095" lon="-2.35705">
        <ele>26.200000762939</ele>
        <time>2021-07-29T07:12:19.000Z</time>
      </trkpt>
      <trkpt lat="47.28095" lon="-2.3571">
        <ele>27</ele>
        <time>2021-07-29T07:12:20.000Z</time>
      </trkpt>
      <trkpt lat="47.28095" lon="-2.35714">
        <ele>27.39999961853</ele>
        <time>2021-07-29T07:12:21.000Z</time>
      </trkpt>
      <trkpt lat="47.28094" lon="-2.35718">
        <ele>27.799999237061</ele>
        <time>2021-07-29T07:12:22.000Z</time>
      </trkpt>
      <trkpt lat="47.28087" lon="-2.35738">
        <ele>27.799999237061</ele>
        <time>2021-07-29T07:12:26.000Z</time>
      </trkpt>
      <trkpt lat="47.28083" lon="-2.35763">
        <ele>27.799999237061</ele>
        <time>2021-07-29T07:12:32.000Z</time>
      </trkpt>
      <trkpt lat="47.28077" lon="-2.35782">
        <ele>27.39999961853</ele>
        <time>2021-07-29T07:12:36.000Z</time>
      </trkpt>
      <trkpt lat="47.28075" lon="-2.35786">
        <ele>27</ele>
        <time>2021-07-29T07:12:37.000Z</time>
      </trkpt>
      <trkpt lat="47.28074" lon="-2.35792">
        <ele>26.60000038147</ele>
        <time>2021-07-29T07:12:38.000Z</time>
      </trkpt>
      <trkpt lat="47.28074" lon="-2.35798">
        <ele>26.200000762939</ele>
        <time>2021-07-29T07:12:39.000Z</time>
      </trkpt>
      <trkpt lat="47.28074" lon="-2.35803">
        <ele>25.799999237061</ele>
        <time>2021-07-29T07:12:40.000Z</time>
      </trkpt>
      <trkpt lat="47.28076" lon="-2.3581">
        <ele>25.799999237061</ele>
        <time>2021-07-29T07:12:41.000Z</time>
      </trkpt>
      <trkpt lat="47.28077" lon="-2.35817">
        <ele>25.39999961853</ele>
        <time>2021-07-29T07:12:42.000Z</time>
      </trkpt>
      <trkpt lat="47.28082" lon="-2.35822">
        <ele>25</ele>
        <time>2021-07-29T07:12:43.000Z</time>
      </trkpt>
      <trkpt lat="47.28085" lon="-2.35826">
        <ele>24.60000038147</ele>
        <time>2021-07-29T07:12:44.000Z</time>
      </trkpt>
      <trkpt lat="47.28088" lon="-2.35832">
        <ele>23.799999237061</ele>
        <time>2021-07-29T07:12:45.000Z</time>
      </trkpt>
      <trkpt lat="47.28091" lon="-2.35837">
        <ele>23.799999237061</ele>
        <time>2021-07-29T07:12:46.000Z</time>
      </trkpt>
      <trkpt lat="47.28105" lon="-2.35858">
        <ele>23.799999237061</ele>
        <time>2021-07-29T07:12:52.000Z</time>
      </trkpt>
      <trkpt lat="47.28109" lon="-2.35862">
        <ele>23.799999237061</ele>
        <time>2021-07-29T07:12:55.000Z</time>
      </trkpt>
      <trkpt lat="47.28115" lon="-2.35871">
        <ele>23.799999237061</ele>
        <time>2021-07-29T07:15:05.000Z</time>
      </trkpt>
      <trkpt lat="47.28126" lon="-2.35884">
        <ele>23.799999237061</ele>
        <time>2021-07-29T07:15:10.000Z</time>
      </trkpt>
      <trkpt lat="47.28141" lon="-2.35907">
        <ele>23.799999237061</ele>
        <time>2021-07-29T07:15:17.000Z</time>
      </trkpt>
      <trkpt lat="47.28148" lon="-2.35916">
        <ele>23.799999237061</ele>
        <time>2021-07-29T07:15:19.000Z</time>
      </trkpt>
      <trkpt lat="47.28156" lon="-2.35928">
        <ele>23.799999237061</ele>
        <time>2021-07-29T07:15:21.000Z</time>
      </trkpt>
      <trkpt lat="47.28164" lon="-2.3594">
        <ele>23.799999237061</ele>
        <time>2021-07-29T07:15:23.000Z</time>
      </trkpt>
      <trkpt lat="47.28173" lon="-2.35957">
        <ele>23.799999237061</ele>
        <time>2021-07-29T07:15:26.000Z</time>
      </trkpt>
      <trkpt lat="47.28181" lon="-2.35974">
        <ele>23.799999237061</ele>
        <time>2021-07-29T07:15:29.000Z</time>
      </trkpt>
      <trkpt lat="47.28186" lon="-2.35989">
        <ele>23.200000762939</ele>
        <time>2021-07-29T07:15:31.000Z</time>
      </trkpt>
      <trkpt lat="47.28189" lon="-2.35997">
        <ele>22.799999237061</ele>
        <time>2021-07-29T07:15:32.000Z</time>
      </trkpt>
      <trkpt lat="47.28191" lon="-2.36004">
        <ele>22.39999961853</ele>
        <time>2021-07-29T07:15:33.000Z</time>
      </trkpt>
      <trkpt lat="47.28194" lon="-2.36011">
        <ele>22</ele>
        <time>2021-07-29T07:15:34.000Z</time>
      </trkpt>
      <trkpt lat="47.28196" lon="-2.36017">
        <ele>21.60000038147</ele>
        <time>2021-07-29T07:15:35.000Z</time>
      </trkpt>
      <trkpt lat="47.282" lon="-2.36027">
        <ele>21.60000038147</ele>
        <time>2021-07-29T07:15:37.000Z</time>
      </trkpt>
      <trkpt lat="47.28215" lon="-2.36061">
        <ele>21.60000038147</ele>
        <time>2021-07-29T07:15:44.000Z</time>
      </trkpt>
      <trkpt lat="47.28224" lon="-2.36088">
        <ele>21.60000038147</ele>
        <time>2021-07-29T07:15:49.000Z</time>
      </trkpt>
      <trkpt lat="47.28227" lon="-2.36098">
        <ele>22</ele>
        <time>2021-07-29T07:15:51.000Z</time>
      </trkpt>
      <trkpt lat="47.28229" lon="-2.36104">
        <ele>22.39999961853</ele>
        <time>2021-07-29T07:15:52.000Z</time>
      </trkpt>
      <trkpt lat="47.28231" lon="-2.36111">
        <ele>23</ele>
        <time>2021-07-29T07:15:53.000Z</time>
      </trkpt>
      <trkpt lat="47.28233" lon="-2.36119">
        <ele>23.39999961853</ele>
        <time>2021-07-29T07:15:54.000Z</time>
      </trkpt>
      <trkpt lat="47.28235" lon="-2.36125">
        <ele>23.799999237061</ele>
        <time>2021-07-29T07:15:55.000Z</time>
      </trkpt>
      <trkpt lat="47.28247" lon="-2.36161">
        <ele>23.799999237061</ele>
        <time>2021-07-29T07:15:59.000Z</time>
      </trkpt>
      <trkpt lat="47.28253" lon="-2.36178">
        <ele>23.39999961853</ele>
        <time>2021-07-29T07:16:01.000Z</time>
      </trkpt>
      <trkpt lat="47.28256" lon="-2.36185">
        <ele>22.799999237061</ele>
        <time>2021-07-29T07:16:02.000Z</time>
      </trkpt>
      <trkpt lat="47.28259" lon="-2.36193">
        <ele>22</ele>
        <time>2021-07-29T07:16:03.000Z</time>
      </trkpt>
      <trkpt lat="47.28262" lon="-2.36201">
        <ele>21.60000038147</ele>
        <time>2021-07-29T07:16:04.000Z</time>
      </trkpt>
      <trkpt lat="47.28264" lon="-2.36208">
        <ele>21.60000038147</ele>
        <time>2021-07-29T07:16:05.000Z</time>
      </trkpt>
      <trkpt lat="47.28271" lon="-2.36222">
        <ele>21.60000038147</ele>
        <time>2021-07-29T07:16:07.000Z</time>
      </trkpt>
      <trkpt lat="47.28283" lon="-2.36236">
        <ele>21.60000038147</ele>
        <time>2021-07-29T07:16:10.000Z</time>
      </trkpt>
      <trkpt lat="47.28287" lon="-2.36238">
        <ele>21.60000038147</ele>
        <time>2021-07-29T07:16:11.000Z</time>
      </trkpt>
      <trkpt lat="47.283" lon="-2.3624">
        <ele>21.60000038147</ele>
        <time>2021-07-29T07:16:14.000Z</time>
      </trkpt>
      <trkpt lat="47.28308" lon="-2.36242">
        <ele>21.60000038147</ele>
        <time>2021-07-29T07:16:16.000Z</time>
      </trkpt>
      <trkpt lat="47.28322" lon="-2.36246">
        <ele>21.60000038147</ele>
        <time>2021-07-29T07:16:20.000Z</time>
      </trkpt>
      <trkpt lat="47.28341" lon="-2.36251">
        <ele>22</ele>
        <time>2021-07-29T07:16:26.000Z</time>
      </trkpt>
      <trkpt lat="47.28344" lon="-2.36253">
        <ele>22.799999237061</ele>
        <time>2021-07-29T07:16:27.000Z</time>
      </trkpt>
      <trkpt lat="47.28347" lon="-2.36254">
        <ele>23.200000762939</ele>
        <time>2021-07-29T07:16:28.000Z</time>
      </trkpt>
      <trkpt lat="47.28351" lon="-2.36256">
        <ele>23.60000038147</ele>
        <time>2021-07-29T07:16:29.000Z</time>
      </trkpt>
      <trkpt lat="47.28361" lon="-2.36259">
        <ele>23.60000038147</ele>
        <time>2021-07-29T07:16:32.000Z</time>
      </trkpt>
      <trkpt lat="47.2837" lon="-2.36263">
        <ele>24</ele>
        <time>2021-07-29T07:16:35.000Z</time>
      </trkpt>
      <trkpt lat="47.28372" lon="-2.36264">
        <ele>24.39999961853</ele>
        <time>2021-07-29T07:16:36.000Z</time>
      </trkpt>
      <trkpt lat="47.28375" lon="-2.36266">
        <ele>24.799999237061</ele>
        <time>2021-07-29T07:16:37.000Z</time>
      </trkpt>
      <trkpt lat="47.28378" lon="-2.36267">
        <ele>25.200000762939</ele>
        <time>2021-07-29T07:16:38.000Z</time>
      </trkpt>
      <trkpt lat="47.28381" lon="-2.36268">
        <ele>25.60000038147</ele>
        <time>2021-07-29T07:16:39.000Z</time>
      </trkpt>
      <trkpt lat="47.28391" lon="-2.36271">
        <ele>25.60000038147</ele>
        <time>2021-07-29T07:16:42.000Z</time>
      </trkpt>
      <trkpt lat="47.28406" lon="-2.36277">
        <ele>26</ele>
        <time>2021-07-29T07:16:47.000Z</time>
      </trkpt>
      <trkpt lat="47.28408" lon="-2.36277">
        <ele>26.60000038147</ele>
        <time>2021-07-29T07:16:48.000Z</time>
      </trkpt>
      <trkpt lat="47.28411" lon="-2.36279">
        <ele>27</ele>
        <time>2021-07-29T07:16:49.000Z</time>
      </trkpt>
      <trkpt lat="47.28414" lon="-2.3628">
        <ele>27.39999961853</ele>
        <time>2021-07-29T07:16:50.000Z</time>
      </trkpt>
      <trkpt lat="47.28417" lon="-2.36281">
        <ele>27.799999237061</ele>
        <time>2021-07-29T07:16:51.000Z</time>
      </trkpt>
      <trkpt lat="47.2843" lon="-2.36288">
        <ele>27.799999237061</ele>
        <time>2021-07-29T07:16:55.000Z</time>
      </trkpt>
      <trkpt lat="47.28446" lon="-2.36295">
        <ele>27.799999237061</ele>
        <time>2021-07-29T07:17:00.000Z</time>
      </trkpt>
      <trkpt lat="47.28451" lon="-2.36306">
        <ele>28.200000762939</ele>
        <time>2021-07-29T07:17:03.000Z</time>
      </trkpt>
      <trkpt lat="47.28452" lon="-2.3631">
        <ele>28.60000038147</ele>
        <time>2021-07-29T07:17:04.000Z</time>
      </trkpt>
      <trkpt lat="47.28453" lon="-2.36316">
        <ele>29</ele>
        <time>2021-07-29T07:17:05.000Z</time>
      </trkpt>
      <trkpt lat="47.28455" lon="-2.36323">
        <ele>29.39999961853</ele>
        <time>2021-07-29T07:17:06.000Z</time>
      </trkpt>
      <trkpt lat="47.28457" lon="-2.3633">
        <ele>29.799999237061</ele>
        <time>2021-07-29T07:17:07.000Z</time>
      </trkpt>
      <trkpt lat="47.28461" lon="-2.36362">
        <ele>29.799999237061</ele>
        <time>2021-07-29T07:17:12.000Z</time>
      </trkpt>
      <trkpt lat="47.28465" lon="-2.36404">
        <ele>29.799999237061</ele>
        <time>2021-07-29T07:17:20.000Z</time>
      </trkpt>
      <trkpt lat="47.28472" lon="-2.36421">
        <ele>29.799999237061</ele>
        <time>2021-07-29T07:17:24.000Z</time>
      </trkpt>
      <trkpt lat="47.28474" lon="-2.36425">
        <ele>29.799999237061</ele>
        <time>2021-07-29T07:17:25.000Z</time>
      </trkpt>
      <trkpt lat="47.28483" lon="-2.36433">
        <ele>29.799999237061</ele>
        <time>2021-07-29T07:17:27.000Z</time>
      </trkpt>
      <trkpt lat="47.28496" lon="-2.3644">
        <ele>29.799999237061</ele>
        <time>2021-07-29T07:17:29.000Z</time>
      </trkpt>
      <trkpt lat="47.2851" lon="-2.36455">
        <ele>29.799999237061</ele>
        <time>2021-07-29T07:17:33.000Z</time>
      </trkpt>
      <trkpt lat="47.28516" lon="-2.36483">
        <ele>29.799999237061</ele>
        <time>2021-07-29T07:17:38.000Z</time>
      </trkpt>
      <trkpt lat="47.28515" lon="-2.36502">
        <ele>29.799999237061</ele>
        <time>2021-07-29T07:17:42.000Z</time>
      </trkpt>
      <trkpt lat="47.28512" lon="-2.36507">
        <ele>29.799999237061</ele>
        <time>2021-07-29T07:17:43.000Z</time>
      </trkpt>
      <trkpt lat="47.28506" lon="-2.36517">
        <ele>29.39999961853</ele>
        <time>2021-07-29T07:17:45.000Z</time>
      </trkpt>
      <trkpt lat="47.28502" lon="-2.36521">
        <ele>29</ele>
        <time>2021-07-29T07:17:46.000Z</time>
      </trkpt>
      <trkpt lat="47.28497" lon="-2.36527">
        <ele>28.39999961853</ele>
        <time>2021-07-29T07:17:47.000Z</time>
      </trkpt>
      <trkpt lat="47.28493" lon="-2.36532">
        <ele>28</ele>
        <time>2021-07-29T07:17:48.000Z</time>
      </trkpt>
      <trkpt lat="47.28489" lon="-2.36536">
        <ele>27.60000038147</ele>
        <time>2021-07-29T07:17:49.000Z</time>
      </trkpt>
      <trkpt lat="47.28482" lon="-2.36546">
        <ele>27.60000038147</ele>
        <time>2021-07-29T07:17:51.000Z</time>
      </trkpt>
      <trkpt lat="47.28476" lon="-2.36554">
        <ele>27.60000038147</ele>
        <time>2021-07-29T07:17:53.000Z</time>
      </trkpt>
      <trkpt lat="47.2847" lon="-2.36561">
        <ele>27.200000762939</ele>
        <time>2021-07-29T07:17:55.000Z</time>
      </trkpt>
      <trkpt lat="47.28468" lon="-2.36565">
        <ele>26.799999237061</ele>
        <time>2021-07-29T07:17:56.000Z</time>
      </trkpt>
      <trkpt lat="47.28467" lon="-2.36571">
        <ele>26.200000762939</ele>
        <time>2021-07-29T07:17:57.000Z</time>
      </trkpt>
      <trkpt lat="47.28466" lon="-2.36576">
        <ele>25.799999237061</ele>
        <time>2021-07-29T07:17:58.000Z</time>
      </trkpt>
      <trkpt lat="47.28467" lon="-2.36583">
        <ele>25.39999961853</ele>
        <time>2021-07-29T07:17:59.000Z</time>
      </trkpt>
      <trkpt lat="47.2847" lon="-2.36592">
        <ele>25.39999961853</ele>
        <time>2021-07-29T07:18:01.000Z</time>
      </trkpt>
      <trkpt lat="47.28473" lon="-2.366">
        <ele>25.39999961853</ele>
        <time>2021-07-29T07:18:05.000Z</time>
      </trkpt>
      <trkpt lat="47.2848" lon="-2.3662">
        <ele>25.39999961853</ele>
        <time>2021-07-29T07:18:11.000Z</time>
      </trkpt>
      <trkpt lat="47.28485" lon="-2.36647">
        <ele>25.39999961853</ele>
        <time>2021-07-29T07:18:17.000Z</time>
      </trkpt>
      <trkpt lat="47.28496" lon="-2.36666">
        <ele>25.39999961853</ele>
        <time>2021-07-29T07:18:22.000Z</time>
      </trkpt>
      <trkpt lat="47.28509" lon="-2.36678">
        <ele>25.39999961853</ele>
        <time>2021-07-29T07:18:27.000Z</time>
      </trkpt>
      <trkpt lat="47.28518" lon="-2.36699">
        <ele>25.39999961853</ele>
        <time>2021-07-29T07:18:31.000Z</time>
      </trkpt>
      <trkpt lat="47.28533" lon="-2.36725">
        <ele>25</ele>
        <time>2021-07-29T07:18:35.000Z</time>
      </trkpt>
      <trkpt lat="47.28536" lon="-2.36732">
        <ele>24.60000038147</ele>
        <time>2021-07-29T07:18:36.000Z</time>
      </trkpt>
      <trkpt lat="47.2854" lon="-2.36739">
        <ele>24.200000762939</ele>
        <time>2021-07-29T07:18:37.000Z</time>
      </trkpt>
      <trkpt lat="47.28543" lon="-2.36746">
        <ele>23.799999237061</ele>
        <time>2021-07-29T07:18:38.000Z</time>
      </trkpt>
      <trkpt lat="47.28547" lon="-2.36754">
        <ele>23.39999961853</ele>
        <time>2021-07-29T07:18:39.000Z</time>
      </trkpt>
      <trkpt lat="47.28559" lon="-2.36776">
        <ele>22.799999237061</ele>
        <time>2021-07-29T07:18:42.000Z</time>
      </trkpt>
      <trkpt lat="47.28563" lon="-2.36783">
        <ele>22.39999961853</ele>
        <time>2021-07-29T07:18:43.000Z</time>
      </trkpt>
      <trkpt lat="47.28567" lon="-2.3679">
        <ele>22</ele>
        <time>2021-07-29T07:18:44.000Z</time>
      </trkpt>
      <trkpt lat="47.2857" lon="-2.36797">
        <ele>21.39999961853</ele>
        <time>2021-07-29T07:18:45.000Z</time>
      </trkpt>
      <trkpt lat="47.28574" lon="-2.36804">
        <ele>21</ele>
        <time>2021-07-29T07:18:46.000Z</time>
      </trkpt>
      <trkpt lat="47.28589" lon="-2.36831">
        <ele>21</ele>
        <time>2021-07-29T07:18:50.000Z</time>
      </trkpt>
      <trkpt lat="47.28595" lon="-2.36842">
        <ele>20.60000038147</ele>
        <time>2021-07-29T07:18:52.000Z</time>
      </trkpt>
      <trkpt lat="47.28599" lon="-2.36845">
        <ele>20.200000762939</ele>
        <time>2021-07-29T07:18:53.000Z</time>
      </trkpt>
      <trkpt lat="47.28604" lon="-2.36846">
        <ele>19.799999237061</ele>
        <time>2021-07-29T07:18:54.000Z</time>
      </trkpt>
      <trkpt lat="47.28608" lon="-2.36845">
        <ele>19.39999961853</ele>
        <time>2021-07-29T07:18:55.000Z</time>
      </trkpt>
      <trkpt lat="47.28612" lon="-2.36842">
        <ele>19</ele>
        <time>2021-07-29T07:18:56.000Z</time>
      </trkpt>
      <trkpt lat="47.28615" lon="-2.36838">
        <ele>19</ele>
        <time>2021-07-29T07:18:57.000Z</time>
      </trkpt>
      <trkpt lat="47.28621" lon="-2.36831">
        <ele>19</ele>
        <time>2021-07-29T07:18:59.000Z</time>
      </trkpt>
      <trkpt lat="47.28631" lon="-2.36819">
        <ele>19</ele>
        <time>2021-07-29T07:19:02.000Z</time>
      </trkpt>
      <trkpt lat="47.28634" lon="-2.36815">
        <ele>19</ele>
        <time>2021-07-29T07:19:03.000Z</time>
      </trkpt>
      <trkpt lat="47.28648" lon="-2.36799">
        <ele>19</ele>
        <time>2021-07-29T07:19:07.000Z</time>
      </trkpt>
      <trkpt lat="47.28659" lon="-2.36794">
        <ele>19</ele>
        <time>2021-07-29T07:19:10.000Z</time>
      </trkpt>
      <trkpt lat="47.28663" lon="-2.36795">
        <ele>19.39999961853</ele>
        <time>2021-07-29T07:19:11.000Z</time>
      </trkpt>
      <trkpt lat="47.28664" lon="-2.36798">
        <ele>19.799999237061</ele>
        <time>2021-07-29T07:19:12.000Z</time>
      </trkpt>
      <trkpt lat="47.28666" lon="-2.36802">
        <ele>20.200000762939</ele>
        <time>2021-07-29T07:19:13.000Z</time>
      </trkpt>
      <trkpt lat="47.28668" lon="-2.36806">
        <ele>20.60000038147</ele>
        <time>2021-07-29T07:19:14.000Z</time>
      </trkpt>
      <trkpt lat="47.2867" lon="-2.3681">
        <ele>21</ele>
        <time>2021-07-29T07:19:15.000Z</time>
      </trkpt>
      <trkpt lat="47.28681" lon="-2.36833">
        <ele>21</ele>
        <time>2021-07-29T07:19:19.000Z</time>
      </trkpt>
      <trkpt lat="47.287" lon="-2.36873">
        <ele>21</ele>
        <time>2021-07-29T07:19:25.000Z</time>
      </trkpt>
      <trkpt lat="47.28703" lon="-2.36879">
        <ele>20.60000038147</ele>
        <time>2021-07-29T07:19:26.000Z</time>
      </trkpt>
      <trkpt lat="47.28706" lon="-2.36885">
        <ele>20.200000762939</ele>
        <time>2021-07-29T07:19:27.000Z</time>
      </trkpt>
      <trkpt lat="47.28708" lon="-2.3689">
        <ele>19.60000038147</ele>
        <time>2021-07-29T07:19:28.000Z</time>
      </trkpt>
      <trkpt lat="47.2871" lon="-2.36895">
        <ele>19.200000762939</ele>
        <time>2021-07-29T07:19:29.000Z</time>
      </trkpt>
      <trkpt lat="47.28713" lon="-2.369">
        <ele>18.799999237061</ele>
        <time>2021-07-29T07:19:30.000Z</time>
      </trkpt>
      <trkpt lat="47.28717" lon="-2.36905">
        <ele>18.39999961853</ele>
        <time>2021-07-29T07:19:31.000Z</time>
      </trkpt>
      <trkpt lat="47.28721" lon="-2.36909">
        <ele>18</ele>
        <time>2021-07-29T07:19:32.000Z</time>
      </trkpt>
      <trkpt lat="47.28725" lon="-2.36913">
        <ele>17.60000038147</ele>
        <time>2021-07-29T07:19:33.000Z</time>
      </trkpt>
      <trkpt lat="47.28729" lon="-2.36917">
        <ele>17.200000762939</ele>
        <time>2021-07-29T07:19:34.000Z</time>
      </trkpt>
      <trkpt lat="47.28733" lon="-2.36921">
        <ele>16.799999237061</ele>
        <time>2021-07-29T07:19:35.000Z</time>
      </trkpt>
      <trkpt lat="47.28745" lon="-2.36937">
        <ele>16.799999237061</ele>
        <time>2021-07-29T07:19:40.000Z</time>
      </trkpt>
      <trkpt lat="47.28747" lon="-2.3695">
        <ele>17.60000038147</ele>
        <time>2021-07-29T07:19:45.000Z</time>
      </trkpt>
      <trkpt lat="47.28748" lon="-2.36953">
        <ele>18.200000762939</ele>
        <time>2021-07-29T07:19:46.000Z</time>
      </trkpt>
      <trkpt lat="47.28748" lon="-2.36957">
        <ele>18.60000038147</ele>
        <time>2021-07-29T07:19:47.000Z</time>
      </trkpt>
      <trkpt lat="47.28748" lon="-2.3696">
        <ele>19</ele>
        <time>2021-07-29T07:19:48.000Z</time>
      </trkpt>
      <trkpt lat="47.28749" lon="-2.36962">
        <ele>19</ele>
        <time>2021-07-29T07:19:49.000Z</time>
      </trkpt>
      <trkpt lat="47.2875" lon="-2.36965">
        <ele>19.39999961853</ele>
        <time>2021-07-29T07:19:50.000Z</time>
      </trkpt>
      <trkpt lat="47.28751" lon="-2.36968">
        <ele>19.799999237061</ele>
        <time>2021-07-29T07:19:51.000Z</time>
      </trkpt>
      <trkpt lat="47.28754" lon="-2.36974">
        <ele>20.200000762939</ele>
        <time>2021-07-29T07:19:52.000Z</time>
      </trkpt>
      <trkpt lat="47.28756" lon="-2.36978">
        <ele>20.60000038147</ele>
        <time>2021-07-29T07:19:53.000Z</time>
      </trkpt>
      <trkpt lat="47.28758" lon="-2.36981">
        <ele>21</ele>
        <time>2021-07-29T07:19:54.000Z</time>
      </trkpt>
      <trkpt lat="47.28763" lon="-2.36988">
        <ele>21</ele>
        <time>2021-07-29T07:19:56.000Z</time>
      </trkpt>
      <trkpt lat="47.28778" lon="-2.37012">
        <ele>21</ele>
        <time>2021-07-29T07:20:01.000Z</time>
      </trkpt>
      <trkpt lat="47.28785" lon="-2.3703">
        <ele>21</ele>
        <time>2021-07-29T07:20:04.000Z</time>
      </trkpt>
      <trkpt lat="47.28789" lon="-2.37054">
        <ele>21</ele>
        <time>2021-07-29T07:20:07.000Z</time>
      </trkpt>
      <trkpt lat="47.2879" lon="-2.37062">
        <ele>20.60000038147</ele>
        <time>2021-07-29T07:20:08.000Z</time>
      </trkpt>
      <trkpt lat="47.28791" lon="-2.37072">
        <ele>20.200000762939</ele>
        <time>2021-07-29T07:20:09.000Z</time>
      </trkpt>
      <trkpt lat="47.28792" lon="-2.37081">
        <ele>19</ele>
        <time>2021-07-29T07:20:10.000Z</time>
      </trkpt>
      <trkpt lat="47.28794" lon="-2.37088">
        <ele>18.39999961853</ele>
        <time>2021-07-29T07:20:11.000Z</time>
      </trkpt>
      <trkpt lat="47.28796" lon="-2.37092">
        <ele>17.799999237061</ele>
        <time>2021-07-29T07:20:12.000Z</time>
      </trkpt>
      <trkpt lat="47.28799" lon="-2.37096">
        <ele>17.200000762939</ele>
        <time>2021-07-29T07:20:13.000Z</time>
      </trkpt>
      <trkpt lat="47.28802" lon="-2.37098">
        <ele>16.60000038147</ele>
        <time>2021-07-29T07:20:14.000Z</time>
      </trkpt>
      <trkpt lat="47.28806" lon="-2.371">
        <ele>16.200000762939</ele>
        <time>2021-07-29T07:20:15.000Z</time>
      </trkpt>
      <trkpt lat="47.2881" lon="-2.371">
        <ele>15.60000038147</ele>
        <time>2021-07-29T07:20:16.000Z</time>
      </trkpt>
      <trkpt lat="47.28813" lon="-2.37099">
        <ele>15.199999809265</ele>
        <time>2021-07-29T07:20:17.000Z</time>
      </trkpt>
      <trkpt lat="47.28815" lon="-2.37098">
        <ele>14.39999961853</ele>
        <time>2021-07-29T07:20:18.000Z</time>
      </trkpt>
      <trkpt lat="47.28818" lon="-2.37098">
        <ele>13.800000190735</ele>
        <time>2021-07-29T07:20:19.000Z</time>
      </trkpt>
      <trkpt lat="47.28821" lon="-2.371">
        <ele>13</ele>
        <time>2021-07-29T07:20:20.000Z</time>
      </trkpt>
      <trkpt lat="47.28822" lon="-2.37104">
        <ele>12.39999961853</ele>
        <time>2021-07-29T07:20:21.000Z</time>
      </trkpt>
      <trkpt lat="47.28823" lon="-2.37108">
        <ele>11.800000190735</ele>
        <time>2021-07-29T07:20:22.000Z</time>
      </trkpt>
      <trkpt lat="47.28823" lon="-2.37115">
        <ele>11.199999809265</ele>
        <time>2021-07-29T07:20:23.000Z</time>
      </trkpt>
      <trkpt lat="47.28822" lon="-2.37121">
        <ele>10.800000190735</ele>
        <time>2021-07-29T07:20:24.000Z</time>
      </trkpt>
      <trkpt lat="47.28822" lon="-2.37128">
        <ele>10.199999809265</ele>
        <time>2021-07-29T07:20:25.000Z</time>
      </trkpt>
      <trkpt lat="47.28822" lon="-2.37135">
        <ele>9.6000003814697</ele>
        <time>2021-07-29T07:20:26.000Z</time>
      </trkpt>
      <trkpt lat="47.28825" lon="-2.37168">
        <ele>9.6000003814697</ele>
        <time>2021-07-29T07:20:31.000Z</time>
      </trkpt>
      <trkpt lat="47.28836" lon="-2.37223">
        <ele>9.6000003814697</ele>
        <time>2021-07-29T07:20:39.000Z</time>
      </trkpt>
      <trkpt lat="47.28843" lon="-2.37237">
        <ele>9.6000003814697</ele>
        <time>2021-07-29T07:20:42.000Z</time>
      </trkpt>
      <trkpt lat="47.28847" lon="-2.37239">
        <ele>9.6000003814697</ele>
        <time>2021-07-29T07:20:43.000Z</time>
      </trkpt>
      <trkpt lat="47.2886" lon="-2.37239">
        <ele>9.6000003814697</ele>
        <time>2021-07-29T07:20:47.000Z</time>
      </trkpt>
      <trkpt lat="47.28864" lon="-2.37238">
        <ele>9.6000003814697</ele>
        <time>2021-07-29T07:20:49.000Z</time>
      </trkpt>
      <trkpt lat="47.28865" lon="-2.37238">
        <ele>9.6000003814697</ele>
        <time>2021-07-29T07:20:51.000Z</time>
      </trkpt>
      <trkpt lat="47.28866" lon="-2.37236">
        <ele>9.6000003814697</ele>
        <time>2021-07-29T07:21:13.000Z</time>
      </trkpt>
      <trkpt lat="47.28871" lon="-2.37235">
        <ele>9.6000003814697</ele>
        <time>2021-07-29T07:21:15.000Z</time>
      </trkpt>
      <trkpt lat="47.28876" lon="-2.37233">
        <ele>9.6000003814697</ele>
        <time>2021-07-29T07:21:17.000Z</time>
      </trkpt>
      <trkpt lat="47.28887" lon="-2.37228">
        <ele>9.6000003814697</ele>
        <time>2021-07-29T07:21:21.000Z</time>
      </trkpt>
      <trkpt lat="47.28907" lon="-2.37217">
        <ele>9.6000003814697</ele>
        <time>2021-07-29T07:21:28.000Z</time>
      </trkpt>
      <trkpt lat="47.28927" lon="-2.3721">
        <ele>9.6000003814697</ele>
        <time>2021-07-29T07:21:36.000Z</time>
      </trkpt>
      <trkpt lat="47.28943" lon="-2.37206">
        <ele>9.6000003814697</ele>
        <time>2021-07-29T07:21:43.000Z</time>
      </trkpt>
      <trkpt lat="47.2895" lon="-2.37206">
        <ele>9.6000003814697</ele>
        <time>2021-07-29T07:21:49.000Z</time>
      </trkpt>
      <trkpt lat="47.28953" lon="-2.37204">
        <ele>9.6000003814697</ele>
        <time>2021-07-29T07:21:53.000Z</time>
      </trkpt>
      <trkpt lat="47.28958" lon="-2.37198">
        <ele>11.60000038147</ele>
        <time>2021-07-29T07:22:19.000Z</time>
      </trkpt>
      <trkpt lat="47.2897" lon="-2.37189">
        <ele>11.60000038147</ele>
        <time>2021-07-29T07:22:24.000Z</time>
      </trkpt>
      <trkpt lat="47.28978" lon="-2.37181">
        <ele>11.60000038147</ele>
        <time>2021-07-29T07:22:27.000Z</time>
      </trkpt>
      <trkpt lat="47.28985" lon="-2.37178">
        <ele>11.60000038147</ele>
        <time>2021-07-29T07:22:29.000Z</time>
      </trkpt>
      <trkpt lat="47.28994" lon="-2.37171">
        <ele>12</ele>
        <time>2021-07-29T07:22:32.000Z</time>
      </trkpt>
      <trkpt lat="47.28996" lon="-2.37169">
        <ele>12.60000038147</ele>
        <time>2021-07-29T07:22:33.000Z</time>
      </trkpt>
      <trkpt lat="47.28999" lon="-2.37167">
        <ele>13</ele>
        <time>2021-07-29T07:22:34.000Z</time>
      </trkpt>
      <trkpt lat="47.29003" lon="-2.37167">
        <ele>13.39999961853</ele>
        <time>2021-07-29T07:22:35.000Z</time>
      </trkpt>
      <trkpt lat="47.29005" lon="-2.37169">
        <ele>13.800000190735</ele>
        <time>2021-07-29T07:22:36.000Z</time>
      </trkpt>
      <trkpt lat="47.2901" lon="-2.37177">
        <ele>13.800000190735</ele>
        <time>2021-07-29T07:22:38.000Z</time>
      </trkpt>
      <trkpt lat="47.29013" lon="-2.37181">
        <ele>14.60000038147</ele>
        <time>2021-07-29T07:22:39.000Z</time>
      </trkpt>
      <trkpt lat="47.29015" lon="-2.37185">
        <ele>15</ele>
        <time>2021-07-29T07:22:40.000Z</time>
      </trkpt>
      <trkpt lat="47.29018" lon="-2.37189">
        <ele>15.39999961853</ele>
        <time>2021-07-29T07:22:41.000Z</time>
      </trkpt>
      <trkpt lat="47.29022" lon="-2.37192">
        <ele>15.800000190735</ele>
        <time>2021-07-29T07:22:42.000Z</time>
      </trkpt>
      <trkpt lat="47.29028" lon="-2.37199">
        <ele>15.800000190735</ele>
        <time>2021-07-29T07:22:44.000Z</time>
      </trkpt>
      <trkpt lat="47.29038" lon="-2.37209">
        <ele>16.200000762939</ele>
        <time>2021-07-29T07:22:47.000Z</time>
      </trkpt>
      <trkpt lat="47.29041" lon="-2.37212">
        <ele>16.799999237061</ele>
        <time>2021-07-29T07:22:48.000Z</time>
      </trkpt>
      <trkpt lat="47.29044" lon="-2.37215">
        <ele>17.200000762939</ele>
        <time>2021-07-29T07:22:49.000Z</time>
      </trkpt>
      <trkpt lat="47.29047" lon="-2.37218">
        <ele>17.60000038147</ele>
        <time>2021-07-29T07:22:50.000Z</time>
      </trkpt>
      <trkpt lat="47.2905" lon="-2.37221">
        <ele>18</ele>
        <time>2021-07-29T07:22:51.000Z</time>
      </trkpt>
      <trkpt lat="47.29067" lon="-2.37237">
        <ele>18</ele>
        <time>2021-07-29T07:22:56.000Z</time>
      </trkpt>
      <trkpt lat="47.29087" lon="-2.37259">
        <ele>18.39999961853</ele>
        <time>2021-07-29T07:23:02.000Z</time>
      </trkpt>
      <trkpt lat="47.2909" lon="-2.37262">
        <ele>19.200000762939</ele>
        <time>2021-07-29T07:23:03.000Z</time>
      </trkpt>
      <trkpt lat="47.29093" lon="-2.37266">
        <ele>19.60000038147</ele>
        <time>2021-07-29T07:23:04.000Z</time>
      </trkpt>
      <trkpt lat="47.29097" lon="-2.37269">
        <ele>20</ele>
        <time>2021-07-29T07:23:05.000Z</time>
      </trkpt>
      <trkpt lat="47.29114" lon="-2.37284">
        <ele>20</ele>
        <time>2021-07-29T07:23:10.000Z</time>
      </trkpt>
      <trkpt lat="47.2914" lon="-2.37315">
        <ele>20</ele>
        <time>2021-07-29T07:23:18.000Z</time>
      </trkpt>
      <trkpt lat="47.29155" lon="-2.3734">
        <ele>20</ele>
        <time>2021-07-29T07:23:23.000Z</time>
      </trkpt>
      <trkpt lat="47.29157" lon="-2.37346">
        <ele>20</ele>
        <time>2021-07-29T07:23:24.000Z</time>
      </trkpt>
      <trkpt lat="47.29169" lon="-2.37375">
        <ele>20</ele>
        <time>2021-07-29T07:23:29.000Z</time>
      </trkpt>
      <trkpt lat="47.29176" lon="-2.37386">
        <ele>20</ele>
        <time>2021-07-29T07:23:31.000Z</time>
      </trkpt>
      <trkpt lat="47.29205" lon="-2.37436">
        <ele>20</ele>
        <time>2021-07-29T07:23:39.000Z</time>
      </trkpt>
      <trkpt lat="47.29232" lon="-2.37476">
        <ele>20</ele>
        <time>2021-07-29T07:23:45.000Z</time>
      </trkpt>
      <trkpt lat="47.29241" lon="-2.37489">
        <ele>19.60000038147</ele>
        <time>2021-07-29T07:23:47.000Z</time>
      </trkpt>
      <trkpt lat="47.29245" lon="-2.37496">
        <ele>19.200000762939</ele>
        <time>2021-07-29T07:23:48.000Z</time>
      </trkpt>
      <trkpt lat="47.29249" lon="-2.37502">
        <ele>18.799999237061</ele>
        <time>2021-07-29T07:23:49.000Z</time>
      </trkpt>
      <trkpt lat="47.29253" lon="-2.37506">
        <ele>18.39999961853</ele>
        <time>2021-07-29T07:23:50.000Z</time>
      </trkpt>
      <trkpt lat="47.29258" lon="-2.37511">
        <ele>18</ele>
        <time>2021-07-29T07:23:51.000Z</time>
      </trkpt>
      <trkpt lat="47.29271" lon="-2.37526">
        <ele>18</ele>
        <time>2021-07-29T07:23:54.000Z</time>
      </trkpt>
      <trkpt lat="47.29279" lon="-2.37548">
        <ele>17.60000038147</ele>
        <time>2021-07-29T07:23:57.000Z</time>
      </trkpt>
      <trkpt lat="47.2928" lon="-2.37551">
        <ele>17.200000762939</ele>
        <time>2021-07-29T07:23:58.000Z</time>
      </trkpt>
      <trkpt lat="47.29283" lon="-2.37555">
        <ele>16.799999237061</ele>
        <time>2021-07-29T07:23:59.000Z</time>
      </trkpt>
      <trkpt lat="47.29286" lon="-2.37559">
        <ele>16.39999961853</ele>
        <time>2021-07-29T07:24:00.000Z</time>
      </trkpt>
      <trkpt lat="47.29289" lon="-2.37564">
        <ele>16</ele>
        <time>2021-07-29T07:24:01.000Z</time>
      </trkpt>
      <trkpt lat="47.29292" lon="-2.37569">
        <ele>16</ele>
        <time>2021-07-29T07:24:02.000Z</time>
      </trkpt>
      <trkpt lat="47.29311" lon="-2.37597">
        <ele>16</ele>
        <time>2021-07-29T07:24:07.000Z</time>
      </trkpt>
      <trkpt lat="47.29328" lon="-2.37634">
        <ele>16</ele>
        <time>2021-07-29T07:24:13.000Z</time>
      </trkpt>
      <trkpt lat="47.29336" lon="-2.37664">
        <ele>16</ele>
        <time>2021-07-29T07:24:17.000Z</time>
      </trkpt>
      <trkpt lat="47.29337" lon="-2.3768">
        <ele>16</ele>
        <time>2021-07-29T07:24:19.000Z</time>
      </trkpt>
      <trkpt lat="47.29334" lon="-2.37708">
        <ele>16</ele>
        <time>2021-07-29T07:24:22.000Z</time>
      </trkpt>
      <trkpt lat="47.29334" lon="-2.37767">
        <ele>15.60000038147</ele>
        <time>2021-07-29T07:24:27.000Z</time>
      </trkpt>
      <trkpt lat="47.29335" lon="-2.3778">
        <ele>15</ele>
        <time>2021-07-29T07:24:28.000Z</time>
      </trkpt>
      <trkpt lat="47.29335" lon="-2.37793">
        <ele>14.60000038147</ele>
        <time>2021-07-29T07:24:29.000Z</time>
      </trkpt>
      <trkpt lat="47.29336" lon="-2.37807">
        <ele>14.199999809265</ele>
        <time>2021-07-29T07:24:30.000Z</time>
      </trkpt>
      <trkpt lat="47.29337" lon="-2.3782">
        <ele>13.60000038147</ele>
        <time>2021-07-29T07:24:31.000Z</time>
      </trkpt>
      <trkpt lat="47.29338" lon="-2.37847">
        <ele>13.199999809265</ele>
        <time>2021-07-29T07:24:33.000Z</time>
      </trkpt>
      <trkpt lat="47.2934" lon="-2.3786">
        <ele>12.800000190735</ele>
        <time>2021-07-29T07:24:34.000Z</time>
      </trkpt>
      <trkpt lat="47.29343" lon="-2.37872">
        <ele>12.39999961853</ele>
        <time>2021-07-29T07:24:35.000Z</time>
      </trkpt>
      <trkpt lat="47.29346" lon="-2.37883">
        <ele>12</ele>
        <time>2021-07-29T07:24:36.000Z</time>
      </trkpt>
      <trkpt lat="47.2935" lon="-2.37893">
        <ele>11.60000038147</ele>
        <time>2021-07-29T07:24:37.000Z</time>
      </trkpt>
      <trkpt lat="47.29358" lon="-2.37913">
        <ele>11.60000038147</ele>
        <time>2021-07-29T07:24:39.000Z</time>
      </trkpt>
      <trkpt lat="47.29362" lon="-2.37923">
        <ele>11.199999809265</ele>
        <time>2021-07-29T07:24:40.000Z</time>
      </trkpt>
      <trkpt lat="47.29365" lon="-2.37933">
        <ele>10.60000038147</ele>
        <time>2021-07-29T07:24:41.000Z</time>
      </trkpt>
      <trkpt lat="47.29368" lon="-2.37944">
        <ele>9.8000001907349</ele>
        <time>2021-07-29T07:24:42.000Z</time>
      </trkpt>
      <trkpt lat="47.29371" lon="-2.37955">
        <ele>9.1999998092651</ele>
        <time>2021-07-29T07:24:43.000Z</time>
      </trkpt>
      <trkpt lat="47.29381" lon="-2.37985">
        <ele>9.1999998092651</ele>
        <time>2021-07-29T07:24:46.000Z</time>
      </trkpt>
      <trkpt lat="47.29389" lon="-2.38005">
        <ele>8.8000001907349</ele>
        <time>2021-07-29T07:24:48.000Z</time>
      </trkpt>
      <trkpt lat="47.29392" lon="-2.38015">
        <ele>8.3999996185303</ele>
        <time>2021-07-29T07:24:49.000Z</time>
      </trkpt>
      <trkpt lat="47.29396" lon="-2.38025">
        <ele>8</ele>
        <time>2021-07-29T07:24:50.000Z</time>
      </trkpt>
      <trkpt lat="47.29399" lon="-2.38035">
        <ele>7.5999999046326</ele>
        <time>2021-07-29T07:24:51.000Z</time>
      </trkpt>
      <trkpt lat="47.29403" lon="-2.38044">
        <ele>7.1999998092651</ele>
        <time>2021-07-29T07:24:52.000Z</time>
      </trkpt>
      <trkpt lat="47.29421" lon="-2.38089">
        <ele>6.8000001907349</ele>
        <time>2021-07-29T07:24:57.000Z</time>
      </trkpt>
      <trkpt lat="47.29424" lon="-2.38097">
        <ele>6.4000000953674</ele>
        <time>2021-07-29T07:24:58.000Z</time>
      </trkpt>
      <trkpt lat="47.29427" lon="-2.38105">
        <ele>6</ele>
        <time>2021-07-29T07:24:59.000Z</time>
      </trkpt>
      <trkpt lat="47.2943" lon="-2.38112">
        <ele>5.5999999046326</ele>
        <time>2021-07-29T07:25:00.000Z</time>
      </trkpt>
      <trkpt lat="47.29433" lon="-2.3812">
        <ele>5.1999998092651</ele>
        <time>2021-07-29T07:25:01.000Z</time>
      </trkpt>
      <trkpt lat="47.29446" lon="-2.38152">
        <ele>5.1999998092651</ele>
        <time>2021-07-29T07:25:06.000Z</time>
      </trkpt>
      <trkpt lat="47.29449" lon="-2.38154">
        <ele>5.1999998092651</ele>
        <time>2021-07-29T07:25:07.000Z</time>
      </trkpt>
      <trkpt lat="47.29456" lon="-2.38153">
        <ele>5.1999998092651</ele>
        <time>2021-07-29T07:25:09.000Z</time>
      </trkpt>
      <trkpt lat="47.2947" lon="-2.38142">
        <ele>5.1999998092651</ele>
        <time>2021-07-29T07:25:13.000Z</time>
      </trkpt>
      <trkpt lat="47.29474" lon="-2.38138">
        <ele>5.1999998092651</ele>
        <time>2021-07-29T07:25:14.000Z</time>
      </trkpt>
      <trkpt lat="47.29493" lon="-2.38122">
        <ele>5.1999998092651</ele>
        <time>2021-07-29T07:25:19.000Z</time>
      </trkpt>
      <trkpt lat="47.29497" lon="-2.38122">
        <ele>5.1999998092651</ele>
        <time>2021-07-29T07:25:20.000Z</time>
      </trkpt>
      <trkpt lat="47.29507" lon="-2.38124">
        <ele>5.1999998092651</ele>
        <time>2021-07-29T07:25:22.000Z</time>
      </trkpt>
      <trkpt lat="47.29517" lon="-2.38125">
        <ele>5.1999998092651</ele>
        <time>2021-07-29T07:25:24.000Z</time>
      </trkpt>
      <trkpt lat="47.29533" lon="-2.38126">
        <ele>5.5999999046326</ele>
        <time>2021-07-29T07:25:27.000Z</time>
      </trkpt>
      <trkpt lat="47.29538" lon="-2.38126">
        <ele>6</ele>
        <time>2021-07-29T07:25:28.000Z</time>
      </trkpt>
      <trkpt lat="47.29543" lon="-2.38125">
        <ele>6.4000000953674</ele>
        <time>2021-07-29T07:25:29.000Z</time>
      </trkpt>
      <trkpt lat="47.29548" lon="-2.38125">
        <ele>6.8000001907349</ele>
        <time>2021-07-29T07:25:30.000Z</time>
      </trkpt>
      <trkpt lat="47.29553" lon="-2.38124">
        <ele>7.1999998092651</ele>
        <time>2021-07-29T07:25:31.000Z</time>
      </trkpt>
      <trkpt lat="47.29566" lon="-2.38122">
        <ele>7.1999998092651</ele>
        <time>2021-07-29T07:25:34.000Z</time>
      </trkpt>
      <trkpt lat="47.29584" lon="-2.38117">
        <ele>7.5999999046326</ele>
        <time>2021-07-29T07:25:38.000Z</time>
      </trkpt>
      <trkpt lat="47.29589" lon="-2.38116">
        <ele>8</ele>
        <time>2021-07-29T07:25:39.000Z</time>
      </trkpt>
      <trkpt lat="47.29593" lon="-2.38115">
        <ele>8.3999996185303</ele>
        <time>2021-07-29T07:25:40.000Z</time>
      </trkpt>
      <trkpt lat="47.29598" lon="-2.38114">
        <ele>8.8000001907349</ele>
        <time>2021-07-29T07:25:41.000Z</time>
      </trkpt>
      <trkpt lat="47.29602" lon="-2.38113">
        <ele>9.1999998092651</ele>
        <time>2021-07-29T07:25:42.000Z</time>
      </trkpt>
      <trkpt lat="47.29629" lon="-2.38104">
        <ele>9.1999998092651</ele>
        <time>2021-07-29T07:25:49.000Z</time>
      </trkpt>
      <trkpt lat="47.29636" lon="-2.38099">
        <ele>9.6000003814697</ele>
        <time>2021-07-29T07:25:51.000Z</time>
      </trkpt>
      <trkpt lat="47.2964" lon="-2.38098">
        <ele>10.199999809265</ele>
        <time>2021-07-29T07:25:52.000Z</time>
      </trkpt>
      <trkpt lat="47.29643" lon="-2.38096">
        <ele>10.60000038147</ele>
        <time>2021-07-29T07:25:53.000Z</time>
      </trkpt>
      <trkpt lat="47.29646" lon="-2.38094">
        <ele>11</ele>
        <time>2021-07-29T07:25:54.000Z</time>
      </trkpt>
      <trkpt lat="47.2965" lon="-2.38092">
        <ele>11.39999961853</ele>
        <time>2021-07-29T07:25:55.000Z</time>
      </trkpt>
      <trkpt lat="47.29672" lon="-2.38081">
        <ele>11.39999961853</ele>
        <time>2021-07-29T07:26:02.000Z</time>
      </trkpt>
      <trkpt lat="47.29675" lon="-2.3808">
        <ele>11.800000190735</ele>
        <time>2021-07-29T07:26:03.000Z</time>
      </trkpt>
      <trkpt lat="47.29678" lon="-2.38078">
        <ele>12.199999809265</ele>
        <time>2021-07-29T07:26:04.000Z</time>
      </trkpt>
      <trkpt lat="47.2968" lon="-2.38076">
        <ele>12.800000190735</ele>
        <time>2021-07-29T07:26:05.000Z</time>
      </trkpt>
      <trkpt lat="47.29683" lon="-2.38074">
        <ele>13.199999809265</ele>
        <time>2021-07-29T07:26:06.000Z</time>
      </trkpt>
      <trkpt lat="47.29685" lon="-2.38073">
        <ele>13.60000038147</ele>
        <time>2021-07-29T07:26:07.000Z</time>
      </trkpt>
      <trkpt lat="47.2969" lon="-2.38069">
        <ele>13.60000038147</ele>
        <time>2021-07-29T07:26:09.000Z</time>
      </trkpt>
      <trkpt lat="47.29694" lon="-2.38066">
        <ele>14</ele>
        <time>2021-07-29T07:26:11.000Z</time>
      </trkpt>
      <trkpt lat="47.29697" lon="-2.38064">
        <ele>14.60000038147</ele>
        <time>2021-07-29T07:26:12.000Z</time>
      </trkpt>
      <trkpt lat="47.29699" lon="-2.38063">
        <ele>15</ele>
        <time>2021-07-29T07:26:13.000Z</time>
      </trkpt>
      <trkpt lat="47.29701" lon="-2.38061">
        <ele>15.39999961853</ele>
        <time>2021-07-29T07:26:14.000Z</time>
      </trkpt>
      <trkpt lat="47.29703" lon="-2.38059">
        <ele>15.800000190735</ele>
        <time>2021-07-29T07:26:15.000Z</time>
      </trkpt>
      <trkpt lat="47.29704" lon="-2.38057">
        <ele>15.800000190735</ele>
        <time>2021-07-29T07:26:16.000Z</time>
      </trkpt>
      <trkpt lat="47.29709" lon="-2.38054">
        <ele>16.200000762939</ele>
        <time>2021-07-29T07:26:18.000Z</time>
      </trkpt>
      <trkpt lat="47.29711" lon="-2.38053">
        <ele>16.60000038147</ele>
        <time>2021-07-29T07:26:19.000Z</time>
      </trkpt>
      <trkpt lat="47.29713" lon="-2.38051">
        <ele>17</ele>
        <time>2021-07-29T07:26:20.000Z</time>
      </trkpt>
      <trkpt lat="47.29715" lon="-2.38049">
        <ele>17.799999237061</ele>
        <time>2021-07-29T07:26:21.000Z</time>
      </trkpt>
      <trkpt lat="47.29721" lon="-2.38044">
        <ele>18.200000762939</ele>
        <time>2021-07-29T07:26:24.000Z</time>
      </trkpt>
      <trkpt lat="47.29722" lon="-2.38043">
        <ele>18.799999237061</ele>
        <time>2021-07-29T07:26:25.000Z</time>
      </trkpt>
      <trkpt lat="47.29724" lon="-2.38041">
        <ele>19.200000762939</ele>
        <time>2021-07-29T07:26:26.000Z</time>
      </trkpt>
      <trkpt lat="47.29726" lon="-2.3804">
        <ele>19.60000038147</ele>
        <time>2021-07-29T07:26:27.000Z</time>
      </trkpt>
      <trkpt lat="47.29728" lon="-2.38039">
        <ele>20.200000762939</ele>
        <time>2021-07-29T07:26:28.000Z</time>
      </trkpt>
      <trkpt lat="47.29731" lon="-2.38032">
        <ele>20.60000038147</ele>
        <time>2021-07-29T07:26:31.000Z</time>
      </trkpt>
      <trkpt lat="47.29731" lon="-2.38029">
        <ele>21</ele>
        <time>2021-07-29T07:26:32.000Z</time>
      </trkpt>
      <trkpt lat="47.29731" lon="-2.38027">
        <ele>21.39999961853</ele>
        <time>2021-07-29T07:26:33.000Z</time>
      </trkpt>
      <trkpt lat="47.29731" lon="-2.38024">
        <ele>21.799999237061</ele>
        <time>2021-07-29T07:26:34.000Z</time>
      </trkpt>
      <trkpt lat="47.29731" lon="-2.38021">
        <ele>22.200000762939</ele>
        <time>2021-07-29T07:26:35.000Z</time>
      </trkpt>
      <trkpt lat="47.2973" lon="-2.38018">
        <ele>22.200000762939</ele>
        <time>2021-07-29T07:26:36.000Z</time>
      </trkpt>
      <trkpt lat="47.29729" lon="-2.38013">
        <ele>22.60000038147</ele>
        <time>2021-07-29T07:26:38.000Z</time>
      </trkpt>
      <trkpt lat="47.29728" lon="-2.3801">
        <ele>23</ele>
        <time>2021-07-29T07:26:39.000Z</time>
      </trkpt>
      <trkpt lat="47.29728" lon="-2.38009">
        <ele>23.60000038147</ele>
        <time>2021-07-29T07:26:40.000Z</time>
      </trkpt>
      <trkpt lat="47.29728" lon="-2.38007">
        <ele>24</ele>
        <time>2021-07-29T07:26:41.000Z</time>
      </trkpt>
      <trkpt lat="47.29728" lon="-2.38005">
        <ele>24.39999961853</ele>
        <time>2021-07-29T07:26:42.000Z</time>
      </trkpt>
      <trkpt lat="47.29728" lon="-2.37997">
        <ele>25.39999961853</ele>
        <time>2021-07-29T07:26:45.000Z</time>
      </trkpt>
      <trkpt lat="47.29728" lon="-2.37995">
        <ele>25.799999237061</ele>
        <time>2021-07-29T07:26:46.000Z</time>
      </trkpt>
      <trkpt lat="47.29728" lon="-2.37992">
        <ele>26.200000762939</ele>
        <time>2021-07-29T07:26:47.000Z</time>
      </trkpt>
      <trkpt lat="47.29729" lon="-2.37989">
        <ele>26.60000038147</ele>
        <time>2021-07-29T07:26:48.000Z</time>
      </trkpt>
      <trkpt lat="47.29733" lon="-2.37978">
        <ele>27</ele>
        <time>2021-07-29T07:26:52.000Z</time>
      </trkpt>
      <trkpt lat="47.29734" lon="-2.37975">
        <ele>27.60000038147</ele>
        <time>2021-07-29T07:26:53.000Z</time>
      </trkpt>
      <trkpt lat="47.29735" lon="-2.37973">
        <ele>28</ele>
        <time>2021-07-29T07:26:54.000Z</time>
      </trkpt>
      <trkpt lat="47.29736" lon="-2.3797">
        <ele>28.39999961853</ele>
        <time>2021-07-29T07:26:55.000Z</time>
      </trkpt>
      <trkpt lat="47.29737" lon="-2.37967">
        <ele>28.799999237061</ele>
        <time>2021-07-29T07:26:56.000Z</time>
      </trkpt>
      <trkpt lat="47.29738" lon="-2.37964">
        <ele>28.799999237061</ele>
        <time>2021-07-29T07:26:57.000Z</time>
      </trkpt>
      <trkpt lat="47.29741" lon="-2.37955">
        <ele>29.200000762939</ele>
        <time>2021-07-29T07:27:00.000Z</time>
      </trkpt>
      <trkpt lat="47.29743" lon="-2.37952">
        <ele>29.799999237061</ele>
        <time>2021-07-29T07:27:01.000Z</time>
      </trkpt>
      <trkpt lat="47.29745" lon="-2.3795">
        <ele>30.200000762939</ele>
        <time>2021-07-29T07:27:02.000Z</time>
      </trkpt>
      <trkpt lat="47.29747" lon="-2.37948">
        <ele>30.60000038147</ele>
        <time>2021-07-29T07:27:03.000Z</time>
      </trkpt>
      <trkpt lat="47.29748" lon="-2.37946">
        <ele>31</ele>
        <time>2021-07-29T07:27:04.000Z</time>
      </trkpt>
      <trkpt lat="47.2975" lon="-2.37943">
        <ele>31</ele>
        <time>2021-07-29T07:27:05.000Z</time>
      </trkpt>
      <trkpt lat="47.29761" lon="-2.3793">
        <ele>31.39999961853</ele>
        <time>2021-07-29T07:27:11.000Z</time>
      </trkpt>
      <trkpt lat="47.29764" lon="-2.37928">
        <ele>31.799999237061</ele>
        <time>2021-07-29T07:27:12.000Z</time>
      </trkpt>
      <trkpt lat="47.29766" lon="-2.37926">
        <ele>32.200000762939</ele>
        <time>2021-07-29T07:27:13.000Z</time>
      </trkpt>
      <trkpt lat="47.29769" lon="-2.37924">
        <ele>32.599998474121</ele>
        <time>2021-07-29T07:27:14.000Z</time>
      </trkpt>
      <trkpt lat="47.29771" lon="-2.37922">
        <ele>33.200000762939</ele>
        <time>2021-07-29T07:27:15.000Z</time>
      </trkpt>
      <trkpt lat="47.29782" lon="-2.37915">
        <ele>33.200000762939</ele>
        <time>2021-07-29T07:27:19.000Z</time>
      </trkpt>
      <trkpt lat="47.298" lon="-2.37902">
        <ele>33.200000762939</ele>
        <time>2021-07-29T07:27:26.000Z</time>
      </trkpt>
      <trkpt lat="47.29825" lon="-2.37886">
        <ele>33.200000762939</ele>
        <time>2021-07-29T07:27:33.000Z</time>
      </trkpt>
      <trkpt lat="47.29845" lon="-2.37866">
        <ele>33.200000762939</ele>
        <time>2021-07-29T07:27:39.000Z</time>
      </trkpt>
      <trkpt lat="47.29852" lon="-2.37855">
        <ele>33.200000762939</ele>
        <time>2021-07-29T07:27:41.000Z</time>
      </trkpt>
      <trkpt lat="47.29859" lon="-2.37838">
        <ele>33.200000762939</ele>
        <time>2021-07-29T07:27:44.000Z</time>
      </trkpt>
      <trkpt lat="47.29866" lon="-2.37821">
        <ele>33.200000762939</ele>
        <time>2021-07-29T07:27:49.000Z</time>
      </trkpt>
      <trkpt lat="47.2987" lon="-2.37815">
        <ele>33.200000762939</ele>
        <time>2021-07-29T07:27:53.000Z</time>
      </trkpt>
      <trkpt lat="47.29875" lon="-2.37815">
        <ele>33.200000762939</ele>
        <time>2021-07-29T07:27:55.000Z</time>
      </trkpt>
      <trkpt lat="47.29886" lon="-2.37823">
        <ele>33.200000762939</ele>
        <time>2021-07-29T07:28:00.000Z</time>
      </trkpt>
      <trkpt lat="47.29888" lon="-2.37827">
        <ele>33.200000762939</ele>
        <time>2021-07-29T07:28:01.000Z</time>
      </trkpt>
      <trkpt lat="47.29891" lon="-2.3783">
        <ele>32.599998474121</ele>
        <time>2021-07-29T07:28:02.000Z</time>
      </trkpt>
      <trkpt lat="47.29893" lon="-2.37833">
        <ele>32.200000762939</ele>
        <time>2021-07-29T07:28:03.000Z</time>
      </trkpt>
      <trkpt lat="47.29897" lon="-2.37838">
        <ele>31.799999237061</ele>
        <time>2021-07-29T07:28:04.000Z</time>
      </trkpt>
      <trkpt lat="47.29901" lon="-2.37843">
        <ele>31.39999961853</ele>
        <time>2021-07-29T07:28:05.000Z</time>
      </trkpt>
      <trkpt lat="47.29906" lon="-2.37848">
        <ele>31</ele>
        <time>2021-07-29T07:28:06.000Z</time>
      </trkpt>
      <trkpt lat="47.29916" lon="-2.37861">
        <ele>30.60000038147</ele>
        <time>2021-07-29T07:28:08.000Z</time>
      </trkpt>
      <trkpt lat="47.29922" lon="-2.37868">
        <ele>30.200000762939</ele>
        <time>2021-07-29T07:28:09.000Z</time>
      </trkpt>
      <trkpt lat="47.29928" lon="-2.37875">
        <ele>29.799999237061</ele>
        <time>2021-07-29T07:28:10.000Z</time>
      </trkpt>
      <trkpt lat="47.29934" lon="-2.37883">
        <ele>29.39999961853</ele>
        <time>2021-07-29T07:28:11.000Z</time>
      </trkpt>
      <trkpt lat="47.29941" lon="-2.3789">
        <ele>29</ele>
        <time>2021-07-29T07:28:12.000Z</time>
      </trkpt>
      <trkpt lat="47.29964" lon="-2.37919">
        <ele>28.60000038147</ele>
        <time>2021-07-29T07:28:16.000Z</time>
      </trkpt>
      <trkpt lat="47.2997" lon="-2.37925">
        <ele>28.200000762939</ele>
        <time>2021-07-29T07:28:17.000Z</time>
      </trkpt>
      <trkpt lat="47.29975" lon="-2.37932">
        <ele>27.799999237061</ele>
        <time>2021-07-29T07:28:18.000Z</time>
      </trkpt>
      <trkpt lat="47.29981" lon="-2.37939">
        <ele>27.39999961853</ele>
        <time>2021-07-29T07:28:19.000Z</time>
      </trkpt>
      <trkpt lat="47.29987" lon="-2.37944">
        <ele>26.799999237061</ele>
        <time>2021-07-29T07:28:20.000Z</time>
      </trkpt>
      <trkpt lat="47.29997" lon="-2.37949">
        <ele>26.799999237061</ele>
        <time>2021-07-29T07:28:22.000Z</time>
      </trkpt>
      <trkpt lat="47.30001" lon="-2.37965">
        <ele>26.799999237061</ele>
        <time>2021-07-29T07:28:25.000Z</time>
      </trkpt>
      <trkpt lat="47.29992" lon="-2.37982">
        <ele>26.799999237061</ele>
        <time>2021-07-29T07:28:28.000Z</time>
      </trkpt>
      <trkpt lat="47.29987" lon="-2.38015">
        <ele>26.799999237061</ele>
        <time>2021-07-29T07:28:32.000Z</time>
      </trkpt>
      <trkpt lat="47.29988" lon="-2.38038">
        <ele>26.799999237061</ele>
        <time>2021-07-29T07:28:35.000Z</time>
      </trkpt>
      <trkpt lat="47.29988" lon="-2.38052">
        <ele>26.799999237061</ele>
        <time>2021-07-29T07:28:37.000Z</time>
      </trkpt>
      <trkpt lat="47.29988" lon="-2.38086">
        <ele>26.799999237061</ele>
        <time>2021-07-29T07:28:42.000Z</time>
      </trkpt>
      <trkpt lat="47.29988" lon="-2.38092">
        <ele>26.799999237061</ele>
        <time>2021-07-29T07:28:43.000Z</time>
      </trkpt>
      <trkpt lat="47.29989" lon="-2.38131">
        <ele>26.799999237061</ele>
        <time>2021-07-29T07:28:50.000Z</time>
      </trkpt>
      <trkpt lat="47.29992" lon="-2.38182">
        <ele>26.799999237061</ele>
        <time>2021-07-29T07:28:59.000Z</time>
      </trkpt>
      <trkpt lat="47.29992" lon="-2.38188">
        <ele>27.39999961853</ele>
        <time>2021-07-29T07:29:00.000Z</time>
      </trkpt>
      <trkpt lat="47.29992" lon="-2.38194">
        <ele>27.799999237061</ele>
        <time>2021-07-29T07:29:01.000Z</time>
      </trkpt>
      <trkpt lat="47.29993" lon="-2.38199">
        <ele>28.200000762939</ele>
        <time>2021-07-29T07:29:02.000Z</time>
      </trkpt>
      <trkpt lat="47.29993" lon="-2.38205">
        <ele>28.60000038147</ele>
        <time>2021-07-29T07:29:03.000Z</time>
      </trkpt>
      <trkpt lat="47.29994" lon="-2.38211">
        <ele>29</ele>
        <time>2021-07-29T07:29:04.000Z</time>
      </trkpt>
      <trkpt lat="47.29998" lon="-2.38243">
        <ele>29</ele>
        <time>2021-07-29T07:29:09.000Z</time>
      </trkpt>
      <trkpt lat="47.29998" lon="-2.38286">
        <ele>29.39999961853</ele>
        <time>2021-07-29T07:29:16.000Z</time>
      </trkpt>
      <trkpt lat="47.29998" lon="-2.38293">
        <ele>29.799999237061</ele>
        <time>2021-07-29T07:29:17.000Z</time>
      </trkpt>
      <trkpt lat="47.29999" lon="-2.383">
        <ele>30.200000762939</ele>
        <time>2021-07-29T07:29:18.000Z</time>
      </trkpt>
      <trkpt lat="47.29999" lon="-2.38307">
        <ele>30.60000038147</ele>
        <time>2021-07-29T07:29:19.000Z</time>
      </trkpt>
      <trkpt lat="47.29999" lon="-2.38315">
        <ele>31.200000762939</ele>
        <time>2021-07-29T07:29:20.000Z</time>
      </trkpt>
      <trkpt lat="47.29999" lon="-2.38349">
        <ele>31.200000762939</ele>
        <time>2021-07-29T07:29:25.000Z</time>
      </trkpt>
      <trkpt lat="47.30003" lon="-2.38418">
        <ele>31.200000762939</ele>
        <time>2021-07-29T07:29:35.000Z</time>
      </trkpt>
      <trkpt lat="47.30012" lon="-2.38476">
        <ele>31.200000762939</ele>
        <time>2021-07-29T07:29:44.000Z</time>
      </trkpt>
      <trkpt lat="47.30019" lon="-2.38524">
        <ele>31.200000762939</ele>
        <time>2021-07-29T07:29:51.000Z</time>
      </trkpt>
      <trkpt lat="47.30024" lon="-2.38561">
        <ele>31.200000762939</ele>
        <time>2021-07-29T07:29:56.000Z</time>
      </trkpt>
      <trkpt lat="47.30025" lon="-2.38577">
        <ele>30.60000038147</ele>
        <time>2021-07-29T07:29:58.000Z</time>
      </trkpt>
      <trkpt lat="47.30025" lon="-2.38583">
        <ele>30.200000762939</ele>
        <time>2021-07-29T07:29:59.000Z</time>
      </trkpt>
      <trkpt lat="47.30024" lon="-2.38586">
        <ele>29.60000038147</ele>
        <time>2021-07-29T07:30:00.000Z</time>
      </trkpt>
      <trkpt lat="47.30025" lon="-2.3859">
        <ele>29.200000762939</ele>
        <time>2021-07-29T07:30:01.000Z</time>
      </trkpt>
      <trkpt lat="47.30027" lon="-2.38595">
        <ele>28.39999961853</ele>
        <time>2021-07-29T07:30:02.000Z</time>
      </trkpt>
      <trkpt lat="47.30028" lon="-2.386">
        <ele>27.799999237061</ele>
        <time>2021-07-29T07:30:03.000Z</time>
      </trkpt>
      <trkpt lat="47.30029" lon="-2.38603">
        <ele>27.39999961853</ele>
        <time>2021-07-29T07:30:04.000Z</time>
      </trkpt>
      <trkpt lat="47.3003" lon="-2.38605">
        <ele>27</ele>
        <time>2021-07-29T07:30:05.000Z</time>
      </trkpt>
      <trkpt lat="47.3003" lon="-2.38608">
        <ele>26.60000038147</ele>
        <time>2021-07-29T07:30:06.000Z</time>
      </trkpt>
      <trkpt lat="47.30029" lon="-2.38612">
        <ele>26.60000038147</ele>
        <time>2021-07-29T07:30:07.000Z</time>
      </trkpt>
      <trkpt lat="47.30025" lon="-2.38623">
        <ele>26.60000038147</ele>
        <time>2021-07-29T07:30:09.000Z</time>
      </trkpt>
      <trkpt lat="47.30027" lon="-2.38646">
        <ele>26.60000038147</ele>
        <time>2021-07-29T07:30:12.000Z</time>
      </trkpt>
      <trkpt lat="47.30028" lon="-2.38654">
        <ele>26.60000038147</ele>
        <time>2021-07-29T07:30:13.000Z</time>
      </trkpt>
      <trkpt lat="47.30031" lon="-2.38687">
        <ele>26.60000038147</ele>
        <time>2021-07-29T07:30:17.000Z</time>
      </trkpt>
      <trkpt lat="47.3003" lon="-2.38696">
        <ele>26.60000038147</ele>
        <time>2021-07-29T07:30:18.000Z</time>
      </trkpt>
      <trkpt lat="47.30029" lon="-2.38706">
        <ele>26</ele>
        <time>2021-07-29T07:30:19.000Z</time>
      </trkpt>
      <trkpt lat="47.30028" lon="-2.38716">
        <ele>25.60000038147</ele>
        <time>2021-07-29T07:30:20.000Z</time>
      </trkpt>
      <trkpt lat="47.30027" lon="-2.38727">
        <ele>25.200000762939</ele>
        <time>2021-07-29T07:30:21.000Z</time>
      </trkpt>
      <trkpt lat="47.30025" lon="-2.38737">
        <ele>24.60000038147</ele>
        <time>2021-07-29T07:30:22.000Z</time>
      </trkpt>
      <trkpt lat="47.30024" lon="-2.38748">
        <ele>24.200000762939</ele>
        <time>2021-07-29T07:30:23.000Z</time>
      </trkpt>
      <trkpt lat="47.30016" lon="-2.38794">
        <ele>23.799999237061</ele>
        <time>2021-07-29T07:30:27.000Z</time>
      </trkpt>
      <trkpt lat="47.30014" lon="-2.38806">
        <ele>23.200000762939</ele>
        <time>2021-07-29T07:30:28.000Z</time>
      </trkpt>
      <trkpt lat="47.30013" lon="-2.38819">
        <ele>22.799999237061</ele>
        <time>2021-07-29T07:30:29.000Z</time>
      </trkpt>
      <trkpt lat="47.30012" lon="-2.38831">
        <ele>22.39999961853</ele>
        <time>2021-07-29T07:30:30.000Z</time>
      </trkpt>
      <trkpt lat="47.30011" lon="-2.38843">
        <ele>21.799999237061</ele>
        <time>2021-07-29T07:30:31.000Z</time>
      </trkpt>
      <trkpt lat="47.30009" lon="-2.38855">
        <ele>21.39999961853</ele>
        <time>2021-07-29T07:30:32.000Z</time>
      </trkpt>
      <trkpt lat="47.30008" lon="-2.38867">
        <ele>21</ele>
        <time>2021-07-29T07:30:33.000Z</time>
      </trkpt>
      <trkpt lat="47.30008" lon="-2.38878">
        <ele>20.39999961853</ele>
        <time>2021-07-29T07:30:34.000Z</time>
      </trkpt>
      <trkpt lat="47.30008" lon="-2.3889">
        <ele>20</ele>
        <time>2021-07-29T07:30:35.000Z</time>
      </trkpt>
      <trkpt lat="47.30007" lon="-2.38901">
        <ele>19.39999961853</ele>
        <time>2021-07-29T07:30:36.000Z</time>
      </trkpt>
      <trkpt lat="47.30007" lon="-2.38911">
        <ele>19</ele>
        <time>2021-07-29T07:30:37.000Z</time>
      </trkpt>
      <trkpt lat="47.30007" lon="-2.38921">
        <ele>18.39999961853</ele>
        <time>2021-07-29T07:30:38.000Z</time>
      </trkpt>
      <trkpt lat="47.30006" lon="-2.3893">
        <ele>17.799999237061</ele>
        <time>2021-07-29T07:30:39.000Z</time>
      </trkpt>
      <trkpt lat="47.30005" lon="-2.38939">
        <ele>17.39999961853</ele>
        <time>2021-07-29T07:30:40.000Z</time>
      </trkpt>
      <trkpt lat="47.30004" lon="-2.38946">
        <ele>16.799999237061</ele>
        <time>2021-07-29T07:30:41.000Z</time>
      </trkpt>
      <trkpt lat="47.30004" lon="-2.38953">
        <ele>16.200000762939</ele>
        <time>2021-07-29T07:30:42.000Z</time>
      </trkpt>
      <trkpt lat="47.30005" lon="-2.3896">
        <ele>15.800000190735</ele>
        <time>2021-07-29T07:30:43.000Z</time>
      </trkpt>
      <trkpt lat="47.30006" lon="-2.38967">
        <ele>15.199999809265</ele>
        <time>2021-07-29T07:30:44.000Z</time>
      </trkpt>
      <trkpt lat="47.30009" lon="-2.38972">
        <ele>14.60000038147</ele>
        <time>2021-07-29T07:30:45.000Z</time>
      </trkpt>
      <trkpt lat="47.30013" lon="-2.38975">
        <ele>14</ele>
        <time>2021-07-29T07:30:46.000Z</time>
      </trkpt>
      <trkpt lat="47.30016" lon="-2.38977">
        <ele>13.39999961853</ele>
        <time>2021-07-29T07:30:47.000Z</time>
      </trkpt>
      <trkpt lat="47.30022" lon="-2.38977">
        <ele>13</ele>
        <time>2021-07-29T07:30:48.000Z</time>
      </trkpt>
      <trkpt lat="47.30027" lon="-2.38976">
        <ele>13</ele>
        <time>2021-07-29T07:30:49.000Z</time>
      </trkpt>
      <trkpt lat="47.30043" lon="-2.38964">
        <ele>13</ele>
        <time>2021-07-29T07:30:52.000Z</time>
      </trkpt>
      <trkpt lat="47.30047" lon="-2.3896">
        <ele>13</ele>
        <time>2021-07-29T07:30:53.000Z</time>
      </trkpt>
      <trkpt lat="47.30069" lon="-2.38937">
        <ele>13</ele>
        <time>2021-07-29T07:30:58.000Z</time>
      </trkpt>
      <trkpt lat="47.30073" lon="-2.38934">
        <ele>13</ele>
        <time>2021-07-29T07:30:59.000Z</time>
      </trkpt>
      <trkpt lat="47.30098" lon="-2.38915">
        <ele>13.39999961853</ele>
        <time>2021-07-29T07:31:05.000Z</time>
      </trkpt>
      <trkpt lat="47.30101" lon="-2.38912">
        <ele>13.800000190735</ele>
        <time>2021-07-29T07:31:06.000Z</time>
      </trkpt>
      <trkpt lat="47.30104" lon="-2.3891">
        <ele>14.199999809265</ele>
        <time>2021-07-29T07:31:07.000Z</time>
      </trkpt>
      <trkpt lat="47.30106" lon="-2.38907">
        <ele>14.800000190735</ele>
        <time>2021-07-29T07:31:08.000Z</time>
      </trkpt>
      <trkpt lat="47.30108" lon="-2.38904">
        <ele>15.199999809265</ele>
        <time>2021-07-29T07:31:09.000Z</time>
      </trkpt>
      <trkpt lat="47.30109" lon="-2.38901">
        <ele>15.199999809265</ele>
        <time>2021-07-29T07:31:10.000Z</time>
      </trkpt>
      <trkpt lat="47.30121" lon="-2.38882">
        <ele>15.199999809265</ele>
        <time>2021-07-29T07:31:15.000Z</time>
      </trkpt>
      <trkpt lat="47.30124" lon="-2.38877">
        <ele>16</ele>
        <time>2021-07-29T07:31:16.000Z</time>
      </trkpt>
      <trkpt lat="47.30126" lon="-2.38873">
        <ele>16.39999961853</ele>
        <time>2021-07-29T07:31:17.000Z</time>
      </trkpt>
      <trkpt lat="47.30129" lon="-2.38868">
        <ele>16.799999237061</ele>
        <time>2021-07-29T07:31:18.000Z</time>
      </trkpt>
      <trkpt lat="47.30131" lon="-2.38864">
        <ele>17.39999961853</ele>
        <time>2021-07-29T07:31:19.000Z</time>
      </trkpt>
      <trkpt lat="47.30137" lon="-2.38855">
        <ele>17.39999961853</ele>
        <time>2021-07-29T07:31:21.000Z</time>
      </trkpt>
      <trkpt lat="47.30151" lon="-2.38828">
        <ele>17.799999237061</ele>
        <time>2021-07-29T07:31:27.000Z</time>
      </trkpt>
      <trkpt lat="47.30154" lon="-2.38824">
        <ele>18.200000762939</ele>
        <time>2021-07-29T07:31:28.000Z</time>
      </trkpt>
      <trkpt lat="47.30156" lon="-2.3882">
        <ele>18.60000038147</ele>
        <time>2021-07-29T07:31:29.000Z</time>
      </trkpt>
      <trkpt lat="47.30159" lon="-2.38816">
        <ele>19</ele>
        <time>2021-07-29T07:31:30.000Z</time>
      </trkpt>
      <trkpt lat="47.30162" lon="-2.38812">
        <ele>19.39999961853</ele>
        <time>2021-07-29T07:31:31.000Z</time>
      </trkpt>
      <trkpt lat="47.30178" lon="-2.38794">
        <ele>19.799999237061</ele>
        <time>2021-07-29T07:31:36.000Z</time>
      </trkpt>
      <trkpt lat="47.30181" lon="-2.3879">
        <ele>20.200000762939</ele>
        <time>2021-07-29T07:31:37.000Z</time>
      </trkpt>
      <trkpt lat="47.30184" lon="-2.38786">
        <ele>20.799999237061</ele>
        <time>2021-07-29T07:31:38.000Z</time>
      </trkpt>
      <trkpt lat="47.30187" lon="-2.38783">
        <ele>21.200000762939</ele>
        <time>2021-07-29T07:31:39.000Z</time>
      </trkpt>
      <trkpt lat="47.30191" lon="-2.38779">
        <ele>21.60000038147</ele>
        <time>2021-07-29T07:31:40.000Z</time>
      </trkpt>
      <trkpt lat="47.30198" lon="-2.38774">
        <ele>22</ele>
        <time>2021-07-29T07:31:42.000Z</time>
      </trkpt>
      <trkpt lat="47.30201" lon="-2.38773">
        <ele>22.39999961853</ele>
        <time>2021-07-29T07:31:43.000Z</time>
      </trkpt>
      <trkpt lat="47.30205" lon="-2.38772">
        <ele>22.799999237061</ele>
        <time>2021-07-29T07:31:44.000Z</time>
      </trkpt>
      <trkpt lat="47.30209" lon="-2.38773">
        <ele>23.200000762939</ele>
        <time>2021-07-29T07:31:45.000Z</time>
      </trkpt>
      <trkpt lat="47.30213" lon="-2.38775">
        <ele>23.60000038147</ele>
        <time>2021-07-29T07:31:46.000Z</time>
      </trkpt>
      <trkpt lat="47.30216" lon="-2.38777">
        <ele>24</ele>
        <time>2021-07-29T07:31:47.000Z</time>
      </trkpt>
      <trkpt lat="47.3022" lon="-2.38779">
        <ele>24.39999961853</ele>
        <time>2021-07-29T07:31:48.000Z</time>
      </trkpt>
      <trkpt lat="47.30223" lon="-2.38782">
        <ele>24.799999237061</ele>
        <time>2021-07-29T07:31:49.000Z</time>
      </trkpt>
      <trkpt lat="47.30227" lon="-2.38785">
        <ele>25.200000762939</ele>
        <time>2021-07-29T07:31:50.000Z</time>
      </trkpt>
      <trkpt lat="47.3023" lon="-2.38788">
        <ele>25.60000038147</ele>
        <time>2021-07-29T07:31:51.000Z</time>
      </trkpt>
      <trkpt lat="47.30234" lon="-2.38792">
        <ele>26.200000762939</ele>
        <time>2021-07-29T07:31:52.000Z</time>
      </trkpt>
      <trkpt lat="47.30237" lon="-2.38795">
        <ele>26.60000038147</ele>
        <time>2021-07-29T07:31:53.000Z</time>
      </trkpt>
      <trkpt lat="47.3024" lon="-2.38798">
        <ele>27</ele>
        <time>2021-07-29T07:31:54.000Z</time>
      </trkpt>
      <trkpt lat="47.30243" lon="-2.38802">
        <ele>27.39999961853</ele>
        <time>2021-07-29T07:31:55.000Z</time>
      </trkpt>
      <trkpt lat="47.30245" lon="-2.38805">
        <ele>27.799999237061</ele>
        <time>2021-07-29T07:31:56.000Z</time>
      </trkpt>
      <trkpt lat="47.30248" lon="-2.3881">
        <ele>28.200000762939</ele>
        <time>2021-07-29T07:31:57.000Z</time>
      </trkpt>
      <trkpt lat="47.3025" lon="-2.38814">
        <ele>28.60000038147</ele>
        <time>2021-07-29T07:31:58.000Z</time>
      </trkpt>
      <trkpt lat="47.30253" lon="-2.3882">
        <ele>29</ele>
        <time>2021-07-29T07:31:59.000Z</time>
      </trkpt>
      <trkpt lat="47.30256" lon="-2.38825">
        <ele>29.60000038147</ele>
        <time>2021-07-29T07:32:00.000Z</time>
      </trkpt>
      <trkpt lat="47.30259" lon="-2.38829">
        <ele>30</ele>
        <time>2021-07-29T07:32:01.000Z</time>
      </trkpt>
      <trkpt lat="47.30268" lon="-2.3885">
        <ele>30.39999961853</ele>
        <time>2021-07-29T07:32:05.000Z</time>
      </trkpt>
      <trkpt lat="47.30271" lon="-2.38855">
        <ele>30.799999237061</ele>
        <time>2021-07-29T07:32:06.000Z</time>
      </trkpt>
      <trkpt lat="47.30273" lon="-2.38861">
        <ele>31.200000762939</ele>
        <time>2021-07-29T07:32:07.000Z</time>
      </trkpt>
      <trkpt lat="47.30275" lon="-2.38866">
        <ele>31.60000038147</ele>
        <time>2021-07-29T07:32:08.000Z</time>
      </trkpt>
      <trkpt lat="47.30277" lon="-2.38871">
        <ele>32</ele>
        <time>2021-07-29T07:32:09.000Z</time>
      </trkpt>
      <trkpt lat="47.30291" lon="-2.38905">
        <ele>32</ele>
        <time>2021-07-29T07:32:15.000Z</time>
      </trkpt>
      <trkpt lat="47.30306" lon="-2.38943">
        <ele>32.400001525879</ele>
        <time>2021-07-29T07:32:22.000Z</time>
      </trkpt>
      <trkpt lat="47.30308" lon="-2.38948">
        <ele>33</ele>
        <time>2021-07-29T07:32:23.000Z</time>
      </trkpt>
      <trkpt lat="47.30311" lon="-2.38953">
        <ele>33.400001525879</ele>
        <time>2021-07-29T07:32:24.000Z</time>
      </trkpt>
      <trkpt lat="47.30313" lon="-2.38957">
        <ele>33.799999237061</ele>
        <time>2021-07-29T07:32:25.000Z</time>
      </trkpt>
      <trkpt lat="47.30316" lon="-2.38961">
        <ele>34.200000762939</ele>
        <time>2021-07-29T07:32:26.000Z</time>
      </trkpt>
      <trkpt lat="47.30324" lon="-2.38975">
        <ele>34.200000762939</ele>
        <time>2021-07-29T07:32:29.000Z</time>
      </trkpt>
      <trkpt lat="47.30334" lon="-2.38989">
        <ele>34.200000762939</ele>
        <time>2021-07-29T07:32:33.000Z</time>
      </trkpt>
      <trkpt lat="47.30345" lon="-2.3902">
        <ele>34.599998474121</ele>
        <time>2021-07-29T07:32:39.000Z</time>
      </trkpt>
      <trkpt lat="47.30346" lon="-2.39025">
        <ele>35</ele>
        <time>2021-07-29T07:32:40.000Z</time>
      </trkpt>
      <trkpt lat="47.30348" lon="-2.3903">
        <ele>35.400001525879</ele>
        <time>2021-07-29T07:32:41.000Z</time>
      </trkpt>
      <trkpt lat="47.30349" lon="-2.39035">
        <ele>35.799999237061</ele>
        <time>2021-07-29T07:32:42.000Z</time>
      </trkpt>
      <trkpt lat="47.30351" lon="-2.3904">
        <ele>36.200000762939</ele>
        <time>2021-07-29T07:32:43.000Z</time>
      </trkpt>
      <trkpt lat="47.30358" lon="-2.39068">
        <ele>36.200000762939</ele>
        <time>2021-07-29T07:32:48.000Z</time>
      </trkpt>
      <trkpt lat="47.30367" lon="-2.39116">
        <ele>36.200000762939</ele>
        <time>2021-07-29T07:32:55.000Z</time>
      </trkpt>
      <trkpt lat="47.30381" lon="-2.39152">
        <ele>36.200000762939</ele>
        <time>2021-07-29T07:33:00.000Z</time>
      </trkpt>
      <trkpt lat="47.30385" lon="-2.39158">
        <ele>36.200000762939</ele>
        <time>2021-07-29T07:33:01.000Z</time>
      </trkpt>
      <trkpt lat="47.30405" lon="-2.39172">
        <ele>36.200000762939</ele>
        <time>2021-07-29T07:33:05.000Z</time>
      </trkpt>
      <trkpt lat="47.30426" lon="-2.3917">
        <ele>36.200000762939</ele>
        <time>2021-07-29T07:33:09.000Z</time>
      </trkpt>
      <trkpt lat="47.30444" lon="-2.39155">
        <ele>36.200000762939</ele>
        <time>2021-07-29T07:33:13.000Z</time>
      </trkpt>
      <trkpt lat="47.30448" lon="-2.3915">
        <ele>36.200000762939</ele>
        <time>2021-07-29T07:33:14.000Z</time>
      </trkpt>
      <trkpt lat="47.30477" lon="-2.39116">
        <ele>36.200000762939</ele>
        <time>2021-07-29T07:33:21.000Z</time>
      </trkpt>
      <trkpt lat="47.30506" lon="-2.39087">
        <ele>36.599998474121</ele>
        <time>2021-07-29T07:33:28.000Z</time>
      </trkpt>
      <trkpt lat="47.3051" lon="-2.39083">
        <ele>37</ele>
        <time>2021-07-29T07:33:29.000Z</time>
      </trkpt>
      <trkpt lat="47.30515" lon="-2.39079">
        <ele>37.400001525879</ele>
        <time>2021-07-29T07:33:30.000Z</time>
      </trkpt>
      <trkpt lat="47.3052" lon="-2.39074">
        <ele>38</ele>
        <time>2021-07-29T07:33:31.000Z</time>
      </trkpt>
      <trkpt lat="47.30524" lon="-2.3907">
        <ele>38.400001525879</ele>
        <time>2021-07-29T07:33:32.000Z</time>
      </trkpt>
      <trkpt lat="47.30533" lon="-2.39062">
        <ele>38.400001525879</ele>
        <time>2021-07-29T07:33:34.000Z</time>
      </trkpt>
      <trkpt lat="47.30566" lon="-2.39029">
        <ele>38.400001525879</ele>
        <time>2021-07-29T07:33:42.000Z</time>
      </trkpt>
      <trkpt lat="47.30573" lon="-2.3902">
        <ele>39.200000762939</ele>
        <time>2021-07-29T07:33:44.000Z</time>
      </trkpt>
      <trkpt lat="47.30576" lon="-2.39015">
        <ele>39.599998474121</ele>
        <time>2021-07-29T07:33:45.000Z</time>
      </trkpt>
      <trkpt lat="47.3058" lon="-2.3901">
        <ele>40</ele>
        <time>2021-07-29T07:33:46.000Z</time>
      </trkpt>
      <trkpt lat="47.30583" lon="-2.39004">
        <ele>40.400001525879</ele>
        <time>2021-07-29T07:33:47.000Z</time>
      </trkpt>
      <trkpt lat="47.30586" lon="-2.38999">
        <ele>40.400001525879</ele>
        <time>2021-07-29T07:33:48.000Z</time>
      </trkpt>
      <trkpt lat="47.3059" lon="-2.38995">
        <ele>40.400001525879</ele>
        <time>2021-07-29T07:33:49.000Z</time>
      </trkpt>
      <trkpt lat="47.30601" lon="-2.38982">
        <ele>40.400001525879</ele>
        <time>2021-07-29T07:33:52.000Z</time>
      </trkpt>
      <trkpt lat="47.30614" lon="-2.3897">
        <ele>40.799999237061</ele>
        <time>2021-07-29T07:33:55.000Z</time>
      </trkpt>
      <trkpt lat="47.30618" lon="-2.38966">
        <ele>41.200000762939</ele>
        <time>2021-07-29T07:33:56.000Z</time>
      </trkpt>
      <trkpt lat="47.30622" lon="-2.38962">
        <ele>41.599998474121</ele>
        <time>2021-07-29T07:33:57.000Z</time>
      </trkpt>
      <trkpt lat="47.30626" lon="-2.38958">
        <ele>42</ele>
        <time>2021-07-29T07:33:58.000Z</time>
      </trkpt>
      <trkpt lat="47.3063" lon="-2.38955">
        <ele>42.400001525879</ele>
        <time>2021-07-29T07:33:59.000Z</time>
      </trkpt>
      <trkpt lat="47.30646" lon="-2.3894">
        <ele>42.400001525879</ele>
        <time>2021-07-29T07:34:03.000Z</time>
      </trkpt>
      <trkpt lat="47.30667" lon="-2.38922">
        <ele>42.400001525879</ele>
        <time>2021-07-29T07:34:08.000Z</time>
      </trkpt>
      <trkpt lat="47.30684" lon="-2.3891">
        <ele>42.400001525879</ele>
        <time>2021-07-29T07:34:13.000Z</time>
      </trkpt>
      <trkpt lat="47.30692" lon="-2.3891">
        <ele>42.400001525879</ele>
        <time>2021-07-29T07:34:15.000Z</time>
      </trkpt>
      <trkpt lat="47.30696" lon="-2.38913">
        <ele>42.799999237061</ele>
        <time>2021-07-29T07:34:16.000Z</time>
      </trkpt>
      <trkpt lat="47.30699" lon="-2.38918">
        <ele>43.200000762939</ele>
        <time>2021-07-29T07:34:17.000Z</time>
      </trkpt>
      <trkpt lat="47.30701" lon="-2.38924">
        <ele>43.599998474121</ele>
        <time>2021-07-29T07:34:18.000Z</time>
      </trkpt>
      <trkpt lat="47.30702" lon="-2.3893">
        <ele>44.200000762939</ele>
        <time>2021-07-29T07:34:19.000Z</time>
      </trkpt>
      <trkpt lat="47.30701" lon="-2.38937">
        <ele>44.599998474121</ele>
        <time>2021-07-29T07:34:20.000Z</time>
      </trkpt>
      <trkpt lat="47.30702" lon="-2.38944">
        <ele>44.599998474121</ele>
        <time>2021-07-29T07:34:21.000Z</time>
      </trkpt>
      <trkpt lat="47.30706" lon="-2.38959">
        <ele>44.599998474121</ele>
        <time>2021-07-29T07:34:23.000Z</time>
      </trkpt>
      <trkpt lat="47.30718" lon="-2.38963">
        <ele>44.200000762939</ele>
        <time>2021-07-29T07:34:26.000Z</time>
      </trkpt>
      <trkpt lat="47.30724" lon="-2.3896">
        <ele>43.799999237061</ele>
        <time>2021-07-29T07:34:27.000Z</time>
      </trkpt>
      <trkpt lat="47.3073" lon="-2.38958">
        <ele>43.400001525879</ele>
        <time>2021-07-29T07:34:28.000Z</time>
      </trkpt>
      <trkpt lat="47.30736" lon="-2.38956">
        <ele>42.799999237061</ele>
        <time>2021-07-29T07:34:29.000Z</time>
      </trkpt>
      <trkpt lat="47.30742" lon="-2.38956">
        <ele>42.400001525879</ele>
        <time>2021-07-29T07:34:30.000Z</time>
      </trkpt>
      <trkpt lat="47.30767" lon="-2.38951">
        <ele>42.400001525879</ele>
        <time>2021-07-29T07:34:34.000Z</time>
      </trkpt>
      <trkpt lat="47.30773" lon="-2.38946">
        <ele>42.400001525879</ele>
        <time>2021-07-29T07:34:35.000Z</time>
      </trkpt>
      <trkpt lat="47.30786" lon="-2.38936">
        <ele>42</ele>
        <time>2021-07-29T07:34:37.000Z</time>
      </trkpt>
      <trkpt lat="47.30793" lon="-2.38931">
        <ele>41.599998474121</ele>
        <time>2021-07-29T07:34:38.000Z</time>
      </trkpt>
      <trkpt lat="47.308" lon="-2.38926">
        <ele>41.200000762939</ele>
        <time>2021-07-29T07:34:39.000Z</time>
      </trkpt>
      <trkpt lat="47.30807" lon="-2.3892">
        <ele>40.799999237061</ele>
        <time>2021-07-29T07:34:40.000Z</time>
      </trkpt>
      <trkpt lat="47.30813" lon="-2.38915">
        <ele>40.400001525879</ele>
        <time>2021-07-29T07:34:41.000Z</time>
      </trkpt>
      <trkpt lat="47.30836" lon="-2.38898">
        <ele>40.400001525879</ele>
        <time>2021-07-29T07:34:45.000Z</time>
      </trkpt>
      <trkpt lat="47.30852" lon="-2.38886">
        <ele>40.400001525879</ele>
        <time>2021-07-29T07:34:49.000Z</time>
      </trkpt>
      <trkpt lat="47.30858" lon="-2.38878">
        <ele>40.400001525879</ele>
        <time>2021-07-29T07:34:51.000Z</time>
      </trkpt>
      <trkpt lat="47.30864" lon="-2.38869">
        <ele>40.400001525879</ele>
        <time>2021-07-29T07:34:53.000Z</time>
      </trkpt>
      <trkpt lat="47.30866" lon="-2.38863">
        <ele>40.799999237061</ele>
        <time>2021-07-29T07:34:54.000Z</time>
      </trkpt>
      <trkpt lat="47.30868" lon="-2.38856">
        <ele>41.200000762939</ele>
        <time>2021-07-29T07:34:55.000Z</time>
      </trkpt>
      <trkpt lat="47.30871" lon="-2.3885">
        <ele>41.599998474121</ele>
        <time>2021-07-29T07:34:56.000Z</time>
      </trkpt>
      <trkpt lat="47.30875" lon="-2.38845">
        <ele>42.400001525879</ele>
        <time>2021-07-29T07:34:57.000Z</time>
      </trkpt>
      <trkpt lat="47.30883" lon="-2.3884">
        <ele>42.400001525879</ele>
        <time>2021-07-29T07:34:59.000Z</time>
      </trkpt>
      <trkpt lat="47.30896" lon="-2.38847">
        <ele>42.400001525879</ele>
        <time>2021-07-29T07:35:02.000Z</time>
      </trkpt>
      <trkpt lat="47.30904" lon="-2.38866">
        <ele>42.400001525879</ele>
        <time>2021-07-29T07:35:05.000Z</time>
      </trkpt>
      <trkpt lat="47.30909" lon="-2.3888">
        <ele>42.400001525879</ele>
        <time>2021-07-29T07:35:07.000Z</time>
      </trkpt>
      <trkpt lat="47.30916" lon="-2.38891">
        <ele>42.400001525879</ele>
        <time>2021-07-29T07:35:09.000Z</time>
      </trkpt>
      <trkpt lat="47.30927" lon="-2.38909">
        <ele>42.400001525879</ele>
        <time>2021-07-29T07:35:12.000Z</time>
      </trkpt>
      <trkpt lat="47.30932" lon="-2.38923">
        <ele>42.400001525879</ele>
        <time>2021-07-29T07:35:14.000Z</time>
      </trkpt>
      <trkpt lat="47.30931" lon="-2.38937">
        <ele>42.799999237061</ele>
        <time>2021-07-29T07:35:16.000Z</time>
      </trkpt>
      <trkpt lat="47.30929" lon="-2.38944">
        <ele>43.200000762939</ele>
        <time>2021-07-29T07:35:17.000Z</time>
      </trkpt>
      <trkpt lat="47.30926" lon="-2.3895">
        <ele>43.599998474121</ele>
        <time>2021-07-29T07:35:18.000Z</time>
      </trkpt>
      <trkpt lat="47.30922" lon="-2.38956">
        <ele>44</ele>
        <time>2021-07-29T07:35:19.000Z</time>
      </trkpt>
      <trkpt lat="47.30918" lon="-2.38963">
        <ele>44.400001525879</ele>
        <time>2021-07-29T07:35:20.000Z</time>
      </trkpt>
      <trkpt lat="47.30912" lon="-2.38976">
        <ele>44.400001525879</ele>
        <time>2021-07-29T07:35:22.000Z</time>
      </trkpt>
      <trkpt lat="47.30905" lon="-2.39006">
        <ele>44.400001525879</ele>
        <time>2021-07-29T07:35:26.000Z</time>
      </trkpt>
      <trkpt lat="47.30904" lon="-2.39014">
        <ele>44.400001525879</ele>
        <time>2021-07-29T07:35:27.000Z</time>
      </trkpt>
      <trkpt lat="47.30902" lon="-2.39069">
        <ele>44.400001525879</ele>
        <time>2021-07-29T07:35:34.000Z</time>
      </trkpt>
      <trkpt lat="47.30902" lon="-2.39078">
        <ele>44.400001525879</ele>
        <time>2021-07-29T07:35:35.000Z</time>
      </trkpt>
      <trkpt lat="47.30907" lon="-2.39101">
        <ele>44.400001525879</ele>
        <time>2021-07-29T07:35:38.000Z</time>
      </trkpt>
      <trkpt lat="47.30912" lon="-2.39117">
        <ele>44.400001525879</ele>
        <time>2021-07-29T07:35:40.000Z</time>
      </trkpt>
      <trkpt lat="47.30926" lon="-2.39156">
        <ele>44.400001525879</ele>
        <time>2021-07-29T07:35:45.000Z</time>
      </trkpt>
      <trkpt lat="47.30949" lon="-2.39208">
        <ele>44.400001525879</ele>
        <time>2021-07-29T07:35:52.000Z</time>
      </trkpt>
      <trkpt lat="47.30975" lon="-2.3927">
        <ele>44.400001525879</ele>
        <time>2021-07-29T07:36:00.000Z</time>
      </trkpt>
      <trkpt lat="47.30998" lon="-2.39336">
        <ele>44.400001525879</ele>
        <time>2021-07-29T07:36:08.000Z</time>
      </trkpt>
      <trkpt lat="47.31024" lon="-2.39412">
        <ele>44.400001525879</ele>
        <time>2021-07-29T07:36:17.000Z</time>
      </trkpt>
      <trkpt lat="47.3103" lon="-2.3943">
        <ele>44.400001525879</ele>
        <time>2021-07-29T07:36:19.000Z</time>
      </trkpt>
      <trkpt lat="47.31049" lon="-2.39485">
        <ele>44</ele>
        <time>2021-07-29T07:36:25.000Z</time>
      </trkpt>
      <trkpt lat="47.31052" lon="-2.39494">
        <ele>43.599998474121</ele>
        <time>2021-07-29T07:36:26.000Z</time>
      </trkpt>
      <trkpt lat="47.31054" lon="-2.39503">
        <ele>43.200000762939</ele>
        <time>2021-07-29T07:36:27.000Z</time>
      </trkpt>
      <trkpt lat="47.31057" lon="-2.39511">
        <ele>42.799999237061</ele>
        <time>2021-07-29T07:36:28.000Z</time>
      </trkpt>
      <trkpt lat="47.3106" lon="-2.39519">
        <ele>42.400001525879</ele>
        <time>2021-07-29T07:36:29.000Z</time>
      </trkpt>
      <trkpt lat="47.31069" lon="-2.3955">
        <ele>42.400001525879</ele>
        <time>2021-07-29T07:36:33.000Z</time>
      </trkpt>
      <trkpt lat="47.31079" lon="-2.39579">
        <ele>42.799999237061</ele>
        <time>2021-07-29T07:36:37.000Z</time>
      </trkpt>
      <trkpt lat="47.31081" lon="-2.39586">
        <ele>43.200000762939</ele>
        <time>2021-07-29T07:36:38.000Z</time>
      </trkpt>
      <trkpt lat="47.31084" lon="-2.39593">
        <ele>43.599998474121</ele>
        <time>2021-07-29T07:36:39.000Z</time>
      </trkpt>
      <trkpt lat="47.31086" lon="-2.396">
        <ele>44</ele>
        <time>2021-07-29T07:36:40.000Z</time>
      </trkpt>
      <trkpt lat="47.31088" lon="-2.39607">
        <ele>44.400001525879</ele>
        <time>2021-07-29T07:36:41.000Z</time>
      </trkpt>
      <trkpt lat="47.31091" lon="-2.39614">
        <ele>44.400001525879</ele>
        <time>2021-07-29T07:36:42.000Z</time>
      </trkpt>
      <trkpt lat="47.3111" lon="-2.39669">
        <ele>44.400001525879</ele>
        <time>2021-07-29T07:36:50.000Z</time>
      </trkpt>
      <trkpt lat="47.31129" lon="-2.39723">
        <ele>44.400001525879</ele>
        <time>2021-07-29T07:36:57.000Z</time>
      </trkpt>
      <trkpt lat="47.31151" lon="-2.39787">
        <ele>44.400001525879</ele>
        <time>2021-07-29T07:37:05.000Z</time>
      </trkpt>
      <trkpt lat="47.31156" lon="-2.39803">
        <ele>44</ele>
        <time>2021-07-29T07:37:07.000Z</time>
      </trkpt>
      <trkpt lat="47.31159" lon="-2.39811">
        <ele>43.599998474121</ele>
        <time>2021-07-29T07:37:08.000Z</time>
      </trkpt>
      <trkpt lat="47.31162" lon="-2.39819">
        <ele>43.200000762939</ele>
        <time>2021-07-29T07:37:09.000Z</time>
      </trkpt>
      <trkpt lat="47.31165" lon="-2.39827">
        <ele>42.799999237061</ele>
        <time>2021-07-29T07:37:10.000Z</time>
      </trkpt>
      <trkpt lat="47.31169" lon="-2.39834">
        <ele>42.400001525879</ele>
        <time>2021-07-29T07:37:11.000Z</time>
      </trkpt>
      <trkpt lat="47.31172" lon="-2.39841">
        <ele>42.400001525879</ele>
        <time>2021-07-29T07:37:12.000Z</time>
      </trkpt>
      <trkpt lat="47.31178" lon="-2.39856">
        <ele>42.400001525879</ele>
        <time>2021-07-29T07:37:14.000Z</time>
      </trkpt>
      <trkpt lat="47.31184" lon="-2.39879">
        <ele>42.400001525879</ele>
        <time>2021-07-29T07:37:17.000Z</time>
      </trkpt>
      <trkpt lat="47.3119" lon="-2.39895">
        <ele>42.400001525879</ele>
        <time>2021-07-29T07:37:21.000Z</time>
      </trkpt>
      <trkpt lat="47.31196" lon="-2.39912">
        <ele>41.400001525879</ele>
        <time>2021-07-29T07:37:25.000Z</time>
      </trkpt>
      <trkpt lat="47.31197" lon="-2.39916">
        <ele>41</ele>
        <time>2021-07-29T07:37:26.000Z</time>
      </trkpt>
      <trkpt lat="47.31199" lon="-2.39919">
        <ele>40.599998474121</ele>
        <time>2021-07-29T07:37:27.000Z</time>
      </trkpt>
      <trkpt lat="47.31201" lon="-2.39923">
        <ele>40</ele>
        <time>2021-07-29T07:37:28.000Z</time>
      </trkpt>
      <trkpt lat="47.3121" lon="-2.39942">
        <ele>40</ele>
        <time>2021-07-29T07:37:33.000Z</time>
      </trkpt>
      <trkpt lat="47.31216" lon="-2.39957">
        <ele>39.599998474121</ele>
        <time>2021-07-29T07:37:37.000Z</time>
      </trkpt>
      <trkpt lat="47.31218" lon="-2.3996">
        <ele>39.200000762939</ele>
        <time>2021-07-29T07:37:38.000Z</time>
      </trkpt>
      <trkpt lat="47.31219" lon="-2.39963">
        <ele>38.799999237061</ele>
        <time>2021-07-29T07:37:39.000Z</time>
      </trkpt>
      <trkpt lat="47.3122" lon="-2.39967">
        <ele>38.400001525879</ele>
        <time>2021-07-29T07:37:40.000Z</time>
      </trkpt>
      <trkpt lat="47.31221" lon="-2.3997">
        <ele>38</ele>
        <time>2021-07-29T07:37:41.000Z</time>
      </trkpt>
      <trkpt lat="47.31227" lon="-2.39986">
        <ele>38</ele>
        <time>2021-07-29T07:37:47.000Z</time>
      </trkpt>
      <trkpt lat="47.31232" lon="-2.39998">
        <ele>37.599998474121</ele>
        <time>2021-07-29T07:37:51.000Z</time>
      </trkpt>
      <trkpt lat="47.31233" lon="-2.40001">
        <ele>37.200000762939</ele>
        <time>2021-07-29T07:37:52.000Z</time>
      </trkpt>
      <trkpt lat="47.31233" lon="-2.40005">
        <ele>36.799999237061</ele>
        <time>2021-07-29T07:37:53.000Z</time>
      </trkpt>
      <trkpt lat="47.31233" lon="-2.40008">
        <ele>36.400001525879</ele>
        <time>2021-07-29T07:37:54.000Z</time>
      </trkpt>
      <trkpt lat="47.31233" lon="-2.40011">
        <ele>35.799999237061</ele>
        <time>2021-07-29T07:37:55.000Z</time>
      </trkpt>
      <trkpt lat="47.31237" lon="-2.40023">
        <ele>35.799999237061</ele>
        <time>2021-07-29T07:38:00.000Z</time>
      </trkpt>
      <trkpt lat="47.31243" lon="-2.4004">
        <ele>35.799999237061</ele>
        <time>2021-07-29T07:38:05.000Z</time>
      </trkpt>
      <trkpt lat="47.31249" lon="-2.40043">
        <ele>35.799999237061</ele>
        <time>2021-07-29T07:38:08.000Z</time>
      </trkpt>
      <trkpt lat="47.3125" lon="-2.40045">
        <ele>35.799999237061</ele>
        <time>2021-07-29T07:38:09.000Z</time>
      </trkpt>
      <trkpt lat="47.31263" lon="-2.40058">
        <ele>35.799999237061</ele>
        <time>2021-07-29T07:38:13.000Z</time>
      </trkpt>
      <trkpt lat="47.31268" lon="-2.4006">
        <ele>35.799999237061</ele>
        <time>2021-07-29T07:38:14.000Z</time>
      </trkpt>
      <trkpt lat="47.31283" lon="-2.40064">
        <ele>35.799999237061</ele>
        <time>2021-07-29T07:38:17.000Z</time>
      </trkpt>
      <trkpt lat="47.31314" lon="-2.40074">
        <ele>35.799999237061</ele>
        <time>2021-07-29T07:38:24.000Z</time>
      </trkpt>
      <trkpt lat="47.31338" lon="-2.40086">
        <ele>35.799999237061</ele>
        <time>2021-07-29T07:38:30.000Z</time>
      </trkpt>
      <trkpt lat="47.31363" lon="-2.40102">
        <ele>35.799999237061</ele>
        <time>2021-07-29T07:38:36.000Z</time>
      </trkpt>
      <trkpt lat="47.31398" lon="-2.40116">
        <ele>35.799999237061</ele>
        <time>2021-07-29T07:38:44.000Z</time>
      </trkpt>
      <trkpt lat="47.31417" lon="-2.40129">
        <ele>35.799999237061</ele>
        <time>2021-07-29T07:38:50.000Z</time>
      </trkpt>
      <trkpt lat="47.31445" lon="-2.40151">
        <ele>35.799999237061</ele>
        <time>2021-07-29T07:38:58.000Z</time>
      </trkpt>
      <trkpt lat="47.31462" lon="-2.40165">
        <ele>36.400001525879</ele>
        <time>2021-07-29T07:39:03.000Z</time>
      </trkpt>
      <trkpt lat="47.31465" lon="-2.40167">
        <ele>36.799999237061</ele>
        <time>2021-07-29T07:39:04.000Z</time>
      </trkpt>
      <trkpt lat="47.31468" lon="-2.4017">
        <ele>37.200000762939</ele>
        <time>2021-07-29T07:39:05.000Z</time>
      </trkpt>
      <trkpt lat="47.31472" lon="-2.40172">
        <ele>37.599998474121</ele>
        <time>2021-07-29T07:39:06.000Z</time>
      </trkpt>
      <trkpt lat="47.31476" lon="-2.40175">
        <ele>38</ele>
        <time>2021-07-29T07:39:07.000Z</time>
      </trkpt>
      <trkpt lat="47.31491" lon="-2.40182">
        <ele>38</ele>
        <time>2021-07-29T07:39:11.000Z</time>
      </trkpt>
      <trkpt lat="47.3152" lon="-2.40199">
        <ele>38</ele>
        <time>2021-07-29T07:39:18.000Z</time>
      </trkpt>
      <trkpt lat="47.31543" lon="-2.40214">
        <ele>38</ele>
        <time>2021-07-29T07:39:24.000Z</time>
      </trkpt>
      <trkpt lat="47.31554" lon="-2.40221">
        <ele>38</ele>
        <time>2021-07-29T07:39:27.000Z</time>
      </trkpt>
      <trkpt lat="47.31565" lon="-2.40234">
        <ele>38</ele>
        <time>2021-07-29T07:39:30.000Z</time>
      </trkpt>
      <trkpt lat="47.31579" lon="-2.4025">
        <ele>38.400001525879</ele>
        <time>2021-07-29T07:39:34.000Z</time>
      </trkpt>
      <trkpt lat="47.31582" lon="-2.40253">
        <ele>38.799999237061</ele>
        <time>2021-07-29T07:39:35.000Z</time>
      </trkpt>
      <trkpt lat="47.31586" lon="-2.40257">
        <ele>39.200000762939</ele>
        <time>2021-07-29T07:39:36.000Z</time>
      </trkpt>
      <trkpt lat="47.31589" lon="-2.4026">
        <ele>39.599998474121</ele>
        <time>2021-07-29T07:39:37.000Z</time>
      </trkpt>
      <trkpt lat="47.31593" lon="-2.40263">
        <ele>40</ele>
        <time>2021-07-29T07:39:38.000Z</time>
      </trkpt>
      <trkpt lat="47.31616" lon="-2.40279">
        <ele>40</ele>
        <time>2021-07-29T07:39:45.000Z</time>
      </trkpt>
      <trkpt lat="47.31635" lon="-2.40296">
        <ele>40</ele>
        <time>2021-07-29T07:39:51.000Z</time>
      </trkpt>
      <trkpt lat="47.31655" lon="-2.4031">
        <ele>40</ele>
        <time>2021-07-29T07:39:58.000Z</time>
      </trkpt>
      <trkpt lat="47.3167" lon="-2.40321">
        <ele>40</ele>
        <time>2021-07-29T07:40:04.000Z</time>
      </trkpt>
      <trkpt lat="47.31672" lon="-2.40324">
        <ele>40.599998474121</ele>
        <time>2021-07-29T07:40:05.000Z</time>
      </trkpt>
      <trkpt lat="47.31674" lon="-2.40327">
        <ele>41</ele>
        <time>2021-07-29T07:40:06.000Z</time>
      </trkpt>
      <trkpt lat="47.31677" lon="-2.4033">
        <ele>41.400001525879</ele>
        <time>2021-07-29T07:40:07.000Z</time>
      </trkpt>
      <trkpt lat="47.3168" lon="-2.40332">
        <ele>41.799999237061</ele>
        <time>2021-07-29T07:40:08.000Z</time>
      </trkpt>
      <trkpt lat="47.31684" lon="-2.40334">
        <ele>42.400001525879</ele>
        <time>2021-07-29T07:40:09.000Z</time>
      </trkpt>
      <trkpt lat="47.31688" lon="-2.40337">
        <ele>42.400001525879</ele>
        <time>2021-07-29T07:40:10.000Z</time>
      </trkpt>
      <trkpt lat="47.31706" lon="-2.4035">
        <ele>42.400001525879</ele>
        <time>2021-07-29T07:40:14.000Z</time>
      </trkpt>
      <trkpt lat="47.31739" lon="-2.40377">
        <ele>42.400001525879</ele>
        <time>2021-07-29T07:40:22.000Z</time>
      </trkpt>
      <trkpt lat="47.31767" lon="-2.40399">
        <ele>42.400001525879</ele>
        <time>2021-07-29T07:40:29.000Z</time>
      </trkpt>
      <trkpt lat="47.31784" lon="-2.40413">
        <ele>42.799999237061</ele>
        <time>2021-07-29T07:40:33.000Z</time>
      </trkpt>
      <trkpt lat="47.31788" lon="-2.40417">
        <ele>43.200000762939</ele>
        <time>2021-07-29T07:40:34.000Z</time>
      </trkpt>
      <trkpt lat="47.31792" lon="-2.4042">
        <ele>43.599998474121</ele>
        <time>2021-07-29T07:40:35.000Z</time>
      </trkpt>
      <trkpt lat="47.31797" lon="-2.40424">
        <ele>44</ele>
        <time>2021-07-29T07:40:36.000Z</time>
      </trkpt>
      <trkpt lat="47.31802" lon="-2.40427">
        <ele>44.400001525879</ele>
        <time>2021-07-29T07:40:37.000Z</time>
      </trkpt>
      <trkpt lat="47.31826" lon="-2.40442">
        <ele>44.400001525879</ele>
        <time>2021-07-29T07:40:42.000Z</time>
      </trkpt>
      <trkpt lat="47.31858" lon="-2.40465">
        <ele>44.400001525879</ele>
        <time>2021-07-29T07:40:49.000Z</time>
      </trkpt>
      <trkpt lat="47.31887" lon="-2.40489">
        <ele>44.400001525879</ele>
        <time>2021-07-29T07:40:55.000Z</time>
      </trkpt>
      <trkpt lat="47.31912" lon="-2.40505">
        <ele>44.799999237061</ele>
        <time>2021-07-29T07:41:00.000Z</time>
      </trkpt>
      <trkpt lat="47.31917" lon="-2.40509">
        <ele>45.200000762939</ele>
        <time>2021-07-29T07:41:01.000Z</time>
      </trkpt>
      <trkpt lat="47.31922" lon="-2.40513">
        <ele>45.599998474121</ele>
        <time>2021-07-29T07:41:02.000Z</time>
      </trkpt>
      <trkpt lat="47.31927" lon="-2.40516">
        <ele>46</ele>
        <time>2021-07-29T07:41:03.000Z</time>
      </trkpt>
      <trkpt lat="47.31932" lon="-2.40519">
        <ele>46.400001525879</ele>
        <time>2021-07-29T07:41:04.000Z</time>
      </trkpt>
      <trkpt lat="47.31951" lon="-2.4053">
        <ele>46.400001525879</ele>
        <time>2021-07-29T07:41:08.000Z</time>
      </trkpt>
      <trkpt lat="47.31978" lon="-2.40549">
        <ele>46.400001525879</ele>
        <time>2021-07-29T07:41:14.000Z</time>
      </trkpt>
      <trkpt lat="47.32003" lon="-2.40577">
        <ele>46.400001525879</ele>
        <time>2021-07-29T07:41:20.000Z</time>
      </trkpt>
      <trkpt lat="47.32021" lon="-2.40595">
        <ele>46.799999237061</ele>
        <time>2021-07-29T07:41:24.000Z</time>
      </trkpt>
      <trkpt lat="47.32025" lon="-2.40599">
        <ele>47.200000762939</ele>
        <time>2021-07-29T07:41:25.000Z</time>
      </trkpt>
      <trkpt lat="47.3203" lon="-2.40604">
        <ele>47.599998474121</ele>
        <time>2021-07-29T07:41:26.000Z</time>
      </trkpt>
      <trkpt lat="47.32035" lon="-2.40607">
        <ele>48</ele>
        <time>2021-07-29T07:41:27.000Z</time>
      </trkpt>
      <trkpt lat="47.3204" lon="-2.4061">
        <ele>48.400001525879</ele>
        <time>2021-07-29T07:41:28.000Z</time>
      </trkpt>
      <trkpt lat="47.32063" lon="-2.40628">
        <ele>48.400001525879</ele>
        <time>2021-07-29T07:41:33.000Z</time>
      </trkpt>
      <trkpt lat="47.32099" lon="-2.40664">
        <ele>48.400001525879</ele>
        <time>2021-07-29T07:41:41.000Z</time>
      </trkpt>
      <trkpt lat="47.32113" lon="-2.40676">
        <ele>48.400001525879</ele>
        <time>2021-07-29T07:41:44.000Z</time>
      </trkpt>
      <trkpt lat="47.32129" lon="-2.40695">
        <ele>48.400001525879</ele>
        <time>2021-07-29T07:41:48.000Z</time>
      </trkpt>
      <trkpt lat="47.32157" lon="-2.40727">
        <ele>48.400001525879</ele>
        <time>2021-07-29T07:41:55.000Z</time>
      </trkpt>
      <trkpt lat="47.32164" lon="-2.40738">
        <ele>48.799999237061</ele>
        <time>2021-07-29T07:41:57.000Z</time>
      </trkpt>
      <trkpt lat="47.32167" lon="-2.40743">
        <ele>49.200000762939</ele>
        <time>2021-07-29T07:41:58.000Z</time>
      </trkpt>
      <trkpt lat="47.3217" lon="-2.40748">
        <ele>49.799999237061</ele>
        <time>2021-07-29T07:41:59.000Z</time>
      </trkpt>
      <trkpt lat="47.32174" lon="-2.40752">
        <ele>50.200000762939</ele>
        <time>2021-07-29T07:42:00.000Z</time>
      </trkpt>
      <trkpt lat="47.32177" lon="-2.40757">
        <ele>50.599998474121</ele>
        <time>2021-07-29T07:42:01.000Z</time>
      </trkpt>
      <trkpt lat="47.32196" lon="-2.40782">
        <ele>50.599998474121</ele>
        <time>2021-07-29T07:42:07.000Z</time>
      </trkpt>
      <trkpt lat="47.32207" lon="-2.40798">
        <ele>50.599998474121</ele>
        <time>2021-07-29T07:42:12.000Z</time>
      </trkpt>
      <trkpt lat="47.3222" lon="-2.40819">
        <ele>50.599998474121</ele>
        <time>2021-07-29T07:42:18.000Z</time>
      </trkpt>
      <trkpt lat="47.32231" lon="-2.40834">
        <ele>50.599998474121</ele>
        <time>2021-07-29T07:42:22.000Z</time>
      </trkpt>
      <trkpt lat="47.32252" lon="-2.40867">
        <ele>50.599998474121</ele>
        <time>2021-07-29T07:42:28.000Z</time>
      </trkpt>
      <trkpt lat="47.32272" lon="-2.40902">
        <ele>50.599998474121</ele>
        <time>2021-07-29T07:42:34.000Z</time>
      </trkpt>
      <trkpt lat="47.32307" lon="-2.40967">
        <ele>50.599998474121</ele>
        <time>2021-07-29T07:42:45.000Z</time>
      </trkpt>
      <trkpt lat="47.32328" lon="-2.41006">
        <ele>50.599998474121</ele>
        <time>2021-07-29T07:42:52.000Z</time>
      </trkpt>
      <trkpt lat="47.32343" lon="-2.41038">
        <ele>51</ele>
        <time>2021-07-29T07:42:58.000Z</time>
      </trkpt>
      <trkpt lat="47.32346" lon="-2.41043">
        <ele>51.400001525879</ele>
        <time>2021-07-29T07:42:59.000Z</time>
      </trkpt>
      <trkpt lat="47.32349" lon="-2.41048">
        <ele>51.799999237061</ele>
        <time>2021-07-29T07:43:00.000Z</time>
      </trkpt>
      <trkpt lat="47.32351" lon="-2.41053">
        <ele>52.200000762939</ele>
        <time>2021-07-29T07:43:01.000Z</time>
      </trkpt>
      <trkpt lat="47.32352" lon="-2.41057">
        <ele>52.599998474121</ele>
        <time>2021-07-29T07:43:02.000Z</time>
      </trkpt>
      <trkpt lat="47.32361" lon="-2.41072">
        <ele>52.599998474121</ele>
        <time>2021-07-29T07:43:05.000Z</time>
      </trkpt>
      <trkpt lat="47.32364" lon="-2.41076">
        <ele>52.599998474121</ele>
        <time>2021-07-29T07:43:06.000Z</time>
      </trkpt>
      <trkpt lat="47.32369" lon="-2.41085">
        <ele>52.599998474121</ele>
        <time>2021-07-29T07:43:08.000Z</time>
      </trkpt>
      <trkpt lat="47.32375" lon="-2.41102">
        <ele>52.599998474121</ele>
        <time>2021-07-29T07:43:11.000Z</time>
      </trkpt>
      <trkpt lat="47.32377" lon="-2.41107">
        <ele>52.599998474121</ele>
        <time>2021-07-29T07:43:12.000Z</time>
      </trkpt>
      <trkpt lat="47.32396" lon="-2.4114">
        <ele>52.599998474121</ele>
        <time>2021-07-29T07:43:19.000Z</time>
      </trkpt>
      <trkpt lat="47.32405" lon="-2.41156">
        <ele>52.599998474121</ele>
        <time>2021-07-29T07:43:24.000Z</time>
      </trkpt>
      <trkpt lat="47.32413" lon="-2.4117">
        <ele>52.599998474121</ele>
        <time>2021-07-29T07:43:29.000Z</time>
      </trkpt>
      <trkpt lat="47.32426" lon="-2.41195">
        <ele>52.599998474121</ele>
        <time>2021-07-29T07:43:34.000Z</time>
      </trkpt>
      <trkpt lat="47.32428" lon="-2.41197">
        <ele>52.599998474121</ele>
        <time>2021-07-29T07:43:35.000Z</time>
      </trkpt>
      <trkpt lat="47.32434" lon="-2.41209">
        <ele>52.599998474121</ele>
        <time>2021-07-29T07:43:38.000Z</time>
      </trkpt>
      <trkpt lat="47.32457" lon="-2.41255">
        <ele>52.599998474121</ele>
        <time>2021-07-29T07:43:47.000Z</time>
      </trkpt>
      <trkpt lat="47.32468" lon="-2.41275">
        <ele>52.599998474121</ele>
        <time>2021-07-29T07:43:51.000Z</time>
      </trkpt>
      <trkpt lat="47.32473" lon="-2.41285">
        <ele>52.599998474121</ele>
        <time>2021-07-29T07:43:53.000Z</time>
      </trkpt>
      <trkpt lat="47.32499" lon="-2.41334">
        <ele>52.599998474121</ele>
        <time>2021-07-29T07:44:02.000Z</time>
      </trkpt>
      <trkpt lat="47.32526" lon="-2.41387">
        <ele>52.599998474121</ele>
        <time>2021-07-29T07:44:11.000Z</time>
      </trkpt>
      <trkpt lat="47.32551" lon="-2.41441">
        <ele>52.599998474121</ele>
        <time>2021-07-29T07:44:20.000Z</time>
      </trkpt>
      <trkpt lat="47.32558" lon="-2.41459">
        <ele>52.599998474121</ele>
        <time>2021-07-29T07:44:23.000Z</time>
      </trkpt>
      <trkpt lat="47.32563" lon="-2.41466">
        <ele>52.599998474121</ele>
        <time>2021-07-29T07:44:25.000Z</time>
      </trkpt>
      <trkpt lat="47.32569" lon="-2.41462">
        <ele>52.599998474121</ele>
        <time>2021-07-29T07:44:28.000Z</time>
      </trkpt>
      <trkpt lat="47.32572" lon="-2.41446">
        <ele>52.599998474121</ele>
        <time>2021-07-29T07:44:31.000Z</time>
      </trkpt>
      <trkpt lat="47.32572" lon="-2.4144">
        <ele>52.599998474121</ele>
        <time>2021-07-29T07:44:32.000Z</time>
      </trkpt>
      <trkpt lat="47.32573" lon="-2.41434">
        <ele>52.599998474121</ele>
        <time>2021-07-29T07:44:33.000Z</time>
      </trkpt>
      <trkpt lat="47.32576" lon="-2.41404">
        <ele>52.599998474121</ele>
        <time>2021-07-29T07:44:38.000Z</time>
      </trkpt>
      <trkpt lat="47.32589" lon="-2.41381">
        <ele>52.599998474121</ele>
        <time>2021-07-29T07:44:42.000Z</time>
      </trkpt>
      <trkpt lat="47.32601" lon="-2.41377">
        <ele>52.599998474121</ele>
        <time>2021-07-29T07:44:44.000Z</time>
      </trkpt>
      <trkpt lat="47.32606" lon="-2.41374">
        <ele>52.599998474121</ele>
        <time>2021-07-29T07:44:45.000Z</time>
      </trkpt>
      <trkpt lat="47.32617" lon="-2.41367">
        <ele>52.599998474121</ele>
        <time>2021-07-29T07:44:47.000Z</time>
      </trkpt>
      <trkpt lat="47.32622" lon="-2.41364">
        <ele>52.200000762939</ele>
        <time>2021-07-29T07:44:48.000Z</time>
      </trkpt>
      <trkpt lat="47.32627" lon="-2.4136">
        <ele>51.400001525879</ele>
        <time>2021-07-29T07:44:49.000Z</time>
      </trkpt>
      <trkpt lat="47.32633" lon="-2.41357">
        <ele>51</ele>
        <time>2021-07-29T07:44:50.000Z</time>
      </trkpt>
      <trkpt lat="47.32638" lon="-2.41353">
        <ele>50.400001525879</ele>
        <time>2021-07-29T07:44:51.000Z</time>
      </trkpt>
      <trkpt lat="47.32661" lon="-2.4134">
        <ele>50.400001525879</ele>
        <time>2021-07-29T07:44:55.000Z</time>
      </trkpt>
      <trkpt lat="47.32687" lon="-2.41322">
        <ele>50</ele>
        <time>2021-07-29T07:45:00.000Z</time>
      </trkpt>
      <trkpt lat="47.32692" lon="-2.41318">
        <ele>49.599998474121</ele>
        <time>2021-07-29T07:45:01.000Z</time>
      </trkpt>
      <trkpt lat="47.32696" lon="-2.41314">
        <ele>49.200000762939</ele>
        <time>2021-07-29T07:45:02.000Z</time>
      </trkpt>
      <trkpt lat="47.327" lon="-2.41312">
        <ele>48.799999237061</ele>
        <time>2021-07-29T07:45:03.000Z</time>
      </trkpt>
      <trkpt lat="47.32702" lon="-2.4131">
        <ele>48.400001525879</ele>
        <time>2021-07-29T07:45:04.000Z</time>
      </trkpt>
      <trkpt lat="47.32706" lon="-2.41305">
        <ele>48.400001525879</ele>
        <time>2021-07-29T07:45:06.000Z</time>
      </trkpt>
      <trkpt lat="47.32715" lon="-2.41288">
        <ele>48.400001525879</ele>
        <time>2021-07-29T07:45:10.000Z</time>
      </trkpt>
      <trkpt lat="47.32719" lon="-2.41284">
        <ele>48.400001525879</ele>
        <time>2021-07-29T07:45:11.000Z</time>
      </trkpt>
      <trkpt lat="47.32734" lon="-2.41283">
        <ele>48.400001525879</ele>
        <time>2021-07-29T07:45:14.000Z</time>
      </trkpt>
      <trkpt lat="47.32749" lon="-2.41281">
        <ele>48.400001525879</ele>
        <time>2021-07-29T07:45:17.000Z</time>
      </trkpt>
      <trkpt lat="47.32759" lon="-2.41278">
        <ele>48.400001525879</ele>
        <time>2021-07-29T07:45:19.000Z</time>
      </trkpt>
      <trkpt lat="47.32789" lon="-2.41271">
        <ele>48.400001525879</ele>
        <time>2021-07-29T07:45:26.000Z</time>
      </trkpt>
      <trkpt lat="47.32803" lon="-2.4127">
        <ele>48</ele>
        <time>2021-07-29T07:45:30.000Z</time>
      </trkpt>
      <trkpt lat="47.32807" lon="-2.41269">
        <ele>47.599998474121</ele>
        <time>2021-07-29T07:45:31.000Z</time>
      </trkpt>
      <trkpt lat="47.32811" lon="-2.41268">
        <ele>47.200000762939</ele>
        <time>2021-07-29T07:45:32.000Z</time>
      </trkpt>
      <trkpt lat="47.32815" lon="-2.41267">
        <ele>46.799999237061</ele>
        <time>2021-07-29T07:45:33.000Z</time>
      </trkpt>
      <trkpt lat="47.3282" lon="-2.41265">
        <ele>46.400001525879</ele>
        <time>2021-07-29T07:45:34.000Z</time>
      </trkpt>
      <trkpt lat="47.32835" lon="-2.41265">
        <ele>46.400001525879</ele>
        <time>2021-07-29T07:45:37.000Z</time>
      </trkpt>
      <trkpt lat="47.32874" lon="-2.41262">
        <ele>46.400001525879</ele>
        <time>2021-07-29T07:45:44.000Z</time>
      </trkpt>
      <trkpt lat="47.32904" lon="-2.41259">
        <ele>46.400001525879</ele>
        <time>2021-07-29T07:45:50.000Z</time>
      </trkpt>
      <trkpt lat="47.32916" lon="-2.41257">
        <ele>46.400001525879</ele>
        <time>2021-07-29T07:45:55.000Z</time>
      </trkpt>
      <trkpt lat="47.32923" lon="-2.41254">
        <ele>46.400001525879</ele>
        <time>2021-07-29T07:45:57.000Z</time>
      </trkpt>
      <trkpt lat="47.32934" lon="-2.41258">
        <ele>46.400001525879</ele>
        <time>2021-07-29T07:45:59.000Z</time>
      </trkpt>
      <trkpt lat="47.32951" lon="-2.41257">
        <ele>46.400001525879</ele>
        <time>2021-07-29T07:46:02.000Z</time>
      </trkpt>
      <trkpt lat="47.32957" lon="-2.41255">
        <ele>46.400001525879</ele>
        <time>2021-07-29T07:46:03.000Z</time>
      </trkpt>
      <trkpt lat="47.32963" lon="-2.41253">
        <ele>46.400001525879</ele>
        <time>2021-07-29T07:46:04.000Z</time>
      </trkpt>
      <trkpt lat="47.32979" lon="-2.4124">
        <ele>46.400001525879</ele>
        <time>2021-07-29T07:46:07.000Z</time>
      </trkpt>
      <trkpt lat="47.33" lon="-2.41226">
        <ele>46.400001525879</ele>
        <time>2021-07-29T07:46:11.000Z</time>
      </trkpt>
      <trkpt lat="47.33006" lon="-2.41223">
        <ele>46.400001525879</ele>
        <time>2021-07-29T07:46:12.000Z</time>
      </trkpt>
      <trkpt lat="47.33018" lon="-2.4121">
        <ele>46.400001525879</ele>
        <time>2021-07-29T07:46:14.000Z</time>
      </trkpt>
      <trkpt lat="47.33023" lon="-2.41202">
        <ele>46.400001525879</ele>
        <time>2021-07-29T07:46:15.000Z</time>
      </trkpt>
      <trkpt lat="47.33032" lon="-2.41185">
        <ele>46.400001525879</ele>
        <time>2021-07-29T07:46:17.000Z</time>
      </trkpt>
      <trkpt lat="47.3304" lon="-2.41168">
        <ele>46.400001525879</ele>
        <time>2021-07-29T07:46:19.000Z</time>
      </trkpt>
      <trkpt lat="47.33063" lon="-2.4112">
        <ele>46</ele>
        <time>2021-07-29T07:46:25.000Z</time>
      </trkpt>
      <trkpt lat="47.33066" lon="-2.41111">
        <ele>45.599998474121</ele>
        <time>2021-07-29T07:46:26.000Z</time>
      </trkpt>
      <trkpt lat="47.33069" lon="-2.41102">
        <ele>45</ele>
        <time>2021-07-29T07:46:27.000Z</time>
      </trkpt>
      <trkpt lat="47.33073" lon="-2.41093">
        <ele>44.200000762939</ele>
        <time>2021-07-29T07:46:28.000Z</time>
      </trkpt>
      <trkpt lat="47.3308" lon="-2.41074">
        <ele>44.200000762939</ele>
        <time>2021-07-29T07:46:30.000Z</time>
      </trkpt>
      <trkpt lat="47.33107" lon="-2.40997">
        <ele>44.200000762939</ele>
        <time>2021-07-29T07:46:38.000Z</time>
      </trkpt>
      <trkpt lat="47.33135" lon="-2.4093">
        <ele>44.200000762939</ele>
        <time>2021-07-29T07:46:45.000Z</time>
      </trkpt>
      <trkpt lat="47.33164" lon="-2.40881">
        <ele>44.200000762939</ele>
        <time>2021-07-29T07:46:51.000Z</time>
      </trkpt>
      <trkpt lat="47.33185" lon="-2.40849">
        <ele>43.799999237061</ele>
        <time>2021-07-29T07:46:55.000Z</time>
      </trkpt>
      <trkpt lat="47.33191" lon="-2.40841">
        <ele>43.400001525879</ele>
        <time>2021-07-29T07:46:56.000Z</time>
      </trkpt>
      <trkpt lat="47.33197" lon="-2.40833">
        <ele>43</ele>
        <time>2021-07-29T07:46:57.000Z</time>
      </trkpt>
      <trkpt lat="47.33202" lon="-2.40825">
        <ele>42.599998474121</ele>
        <time>2021-07-29T07:46:58.000Z</time>
      </trkpt>
      <trkpt lat="47.33208" lon="-2.40816">
        <ele>42.200000762939</ele>
        <time>2021-07-29T07:46:59.000Z</time>
      </trkpt>
      <trkpt lat="47.33227" lon="-2.40777">
        <ele>41.599998474121</ele>
        <time>2021-07-29T07:47:03.000Z</time>
      </trkpt>
      <trkpt lat="47.3323" lon="-2.40765">
        <ele>41.200000762939</ele>
        <time>2021-07-29T07:47:04.000Z</time>
      </trkpt>
      <trkpt lat="47.33232" lon="-2.40753">
        <ele>40.799999237061</ele>
        <time>2021-07-29T07:47:05.000Z</time>
      </trkpt>
      <trkpt lat="47.33233" lon="-2.40741">
        <ele>40.400001525879</ele>
        <time>2021-07-29T07:47:06.000Z</time>
      </trkpt>
      <trkpt lat="47.33235" lon="-2.40729">
        <ele>40</ele>
        <time>2021-07-29T07:47:07.000Z</time>
      </trkpt>
      <trkpt lat="47.33243" lon="-2.40672">
        <ele>40</ele>
        <time>2021-07-29T07:47:12.000Z</time>
      </trkpt>
      <trkpt lat="47.33253" lon="-2.4064">
        <ele>39.599998474121</ele>
        <time>2021-07-29T07:47:15.000Z</time>
      </trkpt>
      <trkpt lat="47.33256" lon="-2.40628">
        <ele>39</ele>
        <time>2021-07-29T07:47:16.000Z</time>
      </trkpt>
      <trkpt lat="47.33259" lon="-2.40617">
        <ele>38.200000762939</ele>
        <time>2021-07-29T07:47:17.000Z</time>
      </trkpt>
      <trkpt lat="47.33262" lon="-2.40606">
        <ele>37.799999237061</ele>
        <time>2021-07-29T07:47:18.000Z</time>
      </trkpt>
      <trkpt lat="47.33265" lon="-2.40595">
        <ele>37.799999237061</ele>
        <time>2021-07-29T07:47:19.000Z</time>
      </trkpt>
      <trkpt lat="47.33288" lon="-2.40527">
        <ele>37.400001525879</ele>
        <time>2021-07-29T07:47:25.000Z</time>
      </trkpt>
      <trkpt lat="47.33293" lon="-2.40518">
        <ele>37</ele>
        <time>2021-07-29T07:47:26.000Z</time>
      </trkpt>
      <trkpt lat="47.33298" lon="-2.40507">
        <ele>36.599998474121</ele>
        <time>2021-07-29T07:47:27.000Z</time>
      </trkpt>
      <trkpt lat="47.33302" lon="-2.40497">
        <ele>36.200000762939</ele>
        <time>2021-07-29T07:47:28.000Z</time>
      </trkpt>
      <trkpt lat="47.33305" lon="-2.40486">
        <ele>35.799999237061</ele>
        <time>2021-07-29T07:47:29.000Z</time>
      </trkpt>
      <trkpt lat="47.33309" lon="-2.40447">
        <ele>35.799999237061</ele>
        <time>2021-07-29T07:47:33.000Z</time>
      </trkpt>
      <trkpt lat="47.33314" lon="-2.40396">
        <ele>35.799999237061</ele>
        <time>2021-07-29T07:47:39.000Z</time>
      </trkpt>
      <trkpt lat="47.33313" lon="-2.40388">
        <ele>35.799999237061</ele>
        <time>2021-07-29T07:47:40.000Z</time>
      </trkpt>
      <trkpt lat="47.33312" lon="-2.40373">
        <ele>35.799999237061</ele>
        <time>2021-07-29T07:47:42.000Z</time>
      </trkpt>
      <trkpt lat="47.33314" lon="-2.40359">
        <ele>36.200000762939</ele>
        <time>2021-07-29T07:47:44.000Z</time>
      </trkpt>
      <trkpt lat="47.33316" lon="-2.40352">
        <ele>36.599998474121</ele>
        <time>2021-07-29T07:47:45.000Z</time>
      </trkpt>
      <trkpt lat="47.33319" lon="-2.40345">
        <ele>37</ele>
        <time>2021-07-29T07:47:46.000Z</time>
      </trkpt>
      <trkpt lat="47.33321" lon="-2.40338">
        <ele>37.400001525879</ele>
        <time>2021-07-29T07:47:47.000Z</time>
      </trkpt>
      <trkpt lat="47.33324" lon="-2.40331">
        <ele>37.799999237061</ele>
        <time>2021-07-29T07:47:48.000Z</time>
      </trkpt>
      <trkpt lat="47.33327" lon="-2.40324">
        <ele>37.799999237061</ele>
        <time>2021-07-29T07:47:49.000Z</time>
      </trkpt>
      <trkpt lat="47.3333" lon="-2.40316">
        <ele>38.400001525879</ele>
        <time>2021-07-29T07:47:50.000Z</time>
      </trkpt>
      <trkpt lat="47.33331" lon="-2.40308">
        <ele>38.799999237061</ele>
        <time>2021-07-29T07:47:51.000Z</time>
      </trkpt>
      <trkpt lat="47.33333" lon="-2.403">
        <ele>39.200000762939</ele>
        <time>2021-07-29T07:47:52.000Z</time>
      </trkpt>
      <trkpt lat="47.33334" lon="-2.40292">
        <ele>39.799999237061</ele>
        <time>2021-07-29T07:47:53.000Z</time>
      </trkpt>
      <trkpt lat="47.33335" lon="-2.40283">
        <ele>40.200000762939</ele>
        <time>2021-07-29T07:47:54.000Z</time>
      </trkpt>
      <trkpt lat="47.33341" lon="-2.40223">
        <ele>40.599998474121</ele>
        <time>2021-07-29T07:48:01.000Z</time>
      </trkpt>
      <trkpt lat="47.33342" lon="-2.40214">
        <ele>41</ele>
        <time>2021-07-29T07:48:02.000Z</time>
      </trkpt>
      <trkpt lat="47.33343" lon="-2.40206">
        <ele>41.400001525879</ele>
        <time>2021-07-29T07:48:03.000Z</time>
      </trkpt>
      <trkpt lat="47.33344" lon="-2.40197">
        <ele>41.799999237061</ele>
        <time>2021-07-29T07:48:04.000Z</time>
      </trkpt>
      <trkpt lat="47.33345" lon="-2.40188">
        <ele>42.200000762939</ele>
        <time>2021-07-29T07:48:05.000Z</time>
      </trkpt>
      <trkpt lat="47.33348" lon="-2.40161">
        <ele>42.200000762939</ele>
        <time>2021-07-29T07:48:08.000Z</time>
      </trkpt>
      <trkpt lat="47.33353" lon="-2.40104">
        <ele>42.200000762939</ele>
        <time>2021-07-29T07:48:14.000Z</time>
      </trkpt>
      <trkpt lat="47.33358" lon="-2.40048">
        <ele>42.200000762939</ele>
        <time>2021-07-29T07:48:20.000Z</time>
      </trkpt>
      <trkpt lat="47.3336" lon="-2.4004">
        <ele>42.200000762939</ele>
        <time>2021-07-29T07:48:21.000Z</time>
      </trkpt>
      <trkpt lat="47.33366" lon="-2.40023">
        <ele>42.200000762939</ele>
        <time>2021-07-29T07:48:23.000Z</time>
      </trkpt>
      <trkpt lat="47.33379" lon="-2.39999">
        <ele>42.200000762939</ele>
        <time>2021-07-29T07:48:26.000Z</time>
      </trkpt>
      <trkpt lat="47.33411" lon="-2.39952">
        <ele>42.200000762939</ele>
        <time>2021-07-29T07:48:32.000Z</time>
      </trkpt>
      <trkpt lat="47.33427" lon="-2.39928">
        <ele>41.799999237061</ele>
        <time>2021-07-29T07:48:35.000Z</time>
      </trkpt>
      <trkpt lat="47.33433" lon="-2.3992">
        <ele>41.400001525879</ele>
        <time>2021-07-29T07:48:36.000Z</time>
      </trkpt>
      <trkpt lat="47.33439" lon="-2.39912">
        <ele>40.799999237061</ele>
        <time>2021-07-29T07:48:37.000Z</time>
      </trkpt>
      <trkpt lat="47.33445" lon="-2.39904">
        <ele>40.400001525879</ele>
        <time>2021-07-29T07:48:38.000Z</time>
      </trkpt>
      <trkpt lat="47.3345" lon="-2.39896">
        <ele>40</ele>
        <time>2021-07-29T07:48:39.000Z</time>
      </trkpt>
      <trkpt lat="47.33486" lon="-2.39849">
        <ele>39.599998474121</ele>
        <time>2021-07-29T07:48:45.000Z</time>
      </trkpt>
      <trkpt lat="47.33491" lon="-2.39842">
        <ele>39.200000762939</ele>
        <time>2021-07-29T07:48:46.000Z</time>
      </trkpt>
      <trkpt lat="47.33497" lon="-2.39833">
        <ele>38.799999237061</ele>
        <time>2021-07-29T07:48:47.000Z</time>
      </trkpt>
      <trkpt lat="47.33502" lon="-2.39825">
        <ele>38.400001525879</ele>
        <time>2021-07-29T07:48:48.000Z</time>
      </trkpt>
      <trkpt lat="47.33508" lon="-2.39817">
        <ele>38</ele>
        <time>2021-07-29T07:48:49.000Z</time>
      </trkpt>
      <trkpt lat="47.33541" lon="-2.39769">
        <ele>38</ele>
        <time>2021-07-29T07:48:55.000Z</time>
      </trkpt>
      <trkpt lat="47.33554" lon="-2.39755">
        <ele>37.599998474121</ele>
        <time>2021-07-29T07:48:57.000Z</time>
      </trkpt>
      <trkpt lat="47.3356" lon="-2.39748">
        <ele>37.200000762939</ele>
        <time>2021-07-29T07:48:58.000Z</time>
      </trkpt>
      <trkpt lat="47.33567" lon="-2.39743">
        <ele>36.799999237061</ele>
        <time>2021-07-29T07:48:59.000Z</time>
      </trkpt>
      <trkpt lat="47.33574" lon="-2.39736">
        <ele>36.400001525879</ele>
        <time>2021-07-29T07:49:00.000Z</time>
      </trkpt>
      <trkpt lat="47.3358" lon="-2.39728">
        <ele>36</ele>
        <time>2021-07-29T07:49:01.000Z</time>
      </trkpt>
      <trkpt lat="47.33597" lon="-2.39701">
        <ele>36</ele>
        <time>2021-07-29T07:49:04.000Z</time>
      </trkpt>
      <trkpt lat="47.33629" lon="-2.39648">
        <ele>36</ele>
        <time>2021-07-29T07:49:10.000Z</time>
      </trkpt>
      <trkpt lat="47.33638" lon="-2.39628">
        <ele>36</ele>
        <time>2021-07-29T07:49:12.000Z</time>
      </trkpt>
      <trkpt lat="47.33648" lon="-2.39599">
        <ele>36</ele>
        <time>2021-07-29T07:49:15.000Z</time>
      </trkpt>
      <trkpt lat="47.3367" lon="-2.39535">
        <ele>36</ele>
        <time>2021-07-29T07:49:22.000Z</time>
      </trkpt>
      <trkpt lat="47.33687" lon="-2.39488">
        <ele>36.400001525879</ele>
        <time>2021-07-29T07:49:27.000Z</time>
      </trkpt>
      <trkpt lat="47.3369" lon="-2.39478">
        <ele>36.799999237061</ele>
        <time>2021-07-29T07:49:28.000Z</time>
      </trkpt>
      <trkpt lat="47.33693" lon="-2.39468">
        <ele>37.200000762939</ele>
        <time>2021-07-29T07:49:29.000Z</time>
      </trkpt>
      <trkpt lat="47.33695" lon="-2.39458">
        <ele>37.599998474121</ele>
        <time>2021-07-29T07:49:30.000Z</time>
      </trkpt>
      <trkpt lat="47.33698" lon="-2.39448">
        <ele>38</ele>
        <time>2021-07-29T07:49:31.000Z</time>
      </trkpt>
      <trkpt lat="47.33702" lon="-2.39428">
        <ele>38</ele>
        <time>2021-07-29T07:49:33.000Z</time>
      </trkpt>
      <trkpt lat="47.33705" lon="-2.39408">
        <ele>38</ele>
        <time>2021-07-29T07:49:35.000Z</time>
      </trkpt>
      <trkpt lat="47.3371" lon="-2.39355">
        <ele>38</ele>
        <time>2021-07-29T07:49:40.000Z</time>
      </trkpt>
      <trkpt lat="47.33711" lon="-2.39319">
        <ele>38</ele>
        <time>2021-07-29T07:49:44.000Z</time>
      </trkpt>
      <trkpt lat="47.33712" lon="-2.39312">
        <ele>38</ele>
        <time>2021-07-29T07:49:45.000Z</time>
      </trkpt>
      <trkpt lat="47.33716" lon="-2.39303">
        <ele>37.599998474121</ele>
        <time>2021-07-29T07:49:47.000Z</time>
      </trkpt>
      <trkpt lat="47.3372" lon="-2.39302">
        <ele>37.200000762939</ele>
        <time>2021-07-29T07:49:48.000Z</time>
      </trkpt>
      <trkpt lat="47.33723" lon="-2.39301">
        <ele>36.799999237061</ele>
        <time>2021-07-29T07:49:49.000Z</time>
      </trkpt>
      <trkpt lat="47.33727" lon="-2.39301">
        <ele>36.400001525879</ele>
        <time>2021-07-29T07:49:50.000Z</time>
      </trkpt>
      <trkpt lat="47.33731" lon="-2.39302">
        <ele>36</ele>
        <time>2021-07-29T07:49:51.000Z</time>
      </trkpt>
      <trkpt lat="47.33756" lon="-2.39301">
        <ele>36</ele>
        <time>2021-07-29T07:49:56.000Z</time>
      </trkpt>
      <trkpt lat="47.33767" lon="-2.39299">
        <ele>36</ele>
        <time>2021-07-29T07:49:58.000Z</time>
      </trkpt>
      <trkpt lat="47.33784" lon="-2.39295">
        <ele>36</ele>
        <time>2021-07-29T07:50:01.000Z</time>
      </trkpt>
      <trkpt lat="47.33822" lon="-2.39286">
        <ele>36</ele>
        <time>2021-07-29T07:50:07.000Z</time>
      </trkpt>
      <trkpt lat="47.33848" lon="-2.39284">
        <ele>35.400001525879</ele>
        <time>2021-07-29T07:50:11.000Z</time>
      </trkpt>
      <trkpt lat="47.33856" lon="-2.39283">
        <ele>35</ele>
        <time>2021-07-29T07:50:12.000Z</time>
      </trkpt>
      <trkpt lat="47.33863" lon="-2.39282">
        <ele>34.599998474121</ele>
        <time>2021-07-29T07:50:13.000Z</time>
      </trkpt>
      <trkpt lat="47.3387" lon="-2.3928">
        <ele>34.200000762939</ele>
        <time>2021-07-29T07:50:14.000Z</time>
      </trkpt>
      <trkpt lat="47.33878" lon="-2.39279">
        <ele>33.799999237061</ele>
        <time>2021-07-29T07:50:15.000Z</time>
      </trkpt>
      <trkpt lat="47.33925" lon="-2.3927">
        <ele>33.799999237061</ele>
        <time>2021-07-29T07:50:21.000Z</time>
      </trkpt>
      <trkpt lat="47.33983" lon="-2.39259">
        <ele>33.799999237061</ele>
        <time>2021-07-29T07:50:28.000Z</time>
      </trkpt>
      <trkpt lat="47.34042" lon="-2.39253">
        <ele>33.400001525879</ele>
        <time>2021-07-29T07:50:35.000Z</time>
      </trkpt>
      <trkpt lat="47.34048" lon="-2.39254">
        <ele>32.599998474121</ele>
        <time>2021-07-29T07:50:36.000Z</time>
      </trkpt>
      <trkpt lat="47.34054" lon="-2.39254">
        <ele>32.200000762939</ele>
        <time>2021-07-29T07:50:37.000Z</time>
      </trkpt>
      <trkpt lat="47.34059" lon="-2.39257">
        <ele>31.799999237061</ele>
        <time>2021-07-29T07:50:38.000Z</time>
      </trkpt>
      <trkpt lat="47.34065" lon="-2.39267">
        <ele>31.799999237061</ele>
        <time>2021-07-29T07:50:40.000Z</time>
      </trkpt>
      <trkpt lat="47.34069" lon="-2.3928">
        <ele>31.39999961853</ele>
        <time>2021-07-29T07:50:42.000Z</time>
      </trkpt>
      <trkpt lat="47.3407" lon="-2.39288">
        <ele>31</ele>
        <time>2021-07-29T07:50:43.000Z</time>
      </trkpt>
      <trkpt lat="47.3407" lon="-2.39295">
        <ele>30.60000038147</ele>
        <time>2021-07-29T07:50:44.000Z</time>
      </trkpt>
      <trkpt lat="47.34072" lon="-2.39304">
        <ele>30.200000762939</ele>
        <time>2021-07-29T07:50:45.000Z</time>
      </trkpt>
      <trkpt lat="47.34073" lon="-2.39314">
        <ele>29.799999237061</ele>
        <time>2021-07-29T07:50:46.000Z</time>
      </trkpt>
      <trkpt lat="47.34078" lon="-2.39342">
        <ele>29.799999237061</ele>
        <time>2021-07-29T07:50:49.000Z</time>
      </trkpt>
      <trkpt lat="47.34087" lon="-2.394">
        <ele>29.799999237061</ele>
        <time>2021-07-29T07:50:55.000Z</time>
      </trkpt>
      <trkpt lat="47.34092" lon="-2.3942">
        <ele>29.799999237061</ele>
        <time>2021-07-29T07:50:57.000Z</time>
      </trkpt>
      <trkpt lat="47.341" lon="-2.39432">
        <ele>29.799999237061</ele>
        <time>2021-07-29T07:50:59.000Z</time>
      </trkpt>
      <trkpt lat="47.34114" lon="-2.39428">
        <ele>29.799999237061</ele>
        <time>2021-07-29T07:51:02.000Z</time>
      </trkpt>
      <trkpt lat="47.34125" lon="-2.39421">
        <ele>30.200000762939</ele>
        <time>2021-07-29T07:51:04.000Z</time>
      </trkpt>
      <trkpt lat="47.34131" lon="-2.39417">
        <ele>30.60000038147</ele>
        <time>2021-07-29T07:51:05.000Z</time>
      </trkpt>
      <trkpt lat="47.34136" lon="-2.39413">
        <ele>31</ele>
        <time>2021-07-29T07:51:06.000Z</time>
      </trkpt>
      <trkpt lat="47.34142" lon="-2.39409">
        <ele>31.39999961853</ele>
        <time>2021-07-29T07:51:07.000Z</time>
      </trkpt>
      <trkpt lat="47.34147" lon="-2.39405">
        <ele>31.799999237061</ele>
        <time>2021-07-29T07:51:08.000Z</time>
      </trkpt>
      <trkpt lat="47.3417" lon="-2.3939">
        <ele>31.799999237061</ele>
        <time>2021-07-29T07:51:12.000Z</time>
      </trkpt>
      <trkpt lat="47.34212" lon="-2.39362">
        <ele>31.799999237061</ele>
        <time>2021-07-29T07:51:19.000Z</time>
      </trkpt>
      <trkpt lat="47.34259" lon="-2.39329">
        <ele>31.799999237061</ele>
        <time>2021-07-29T07:51:26.000Z</time>
      </trkpt>
      <trkpt lat="47.343" lon="-2.39306">
        <ele>31.799999237061</ele>
        <time>2021-07-29T07:51:32.000Z</time>
      </trkpt>
      <trkpt lat="47.34329" lon="-2.39289">
        <ele>31.39999961853</ele>
        <time>2021-07-29T07:51:36.000Z</time>
      </trkpt>
      <trkpt lat="47.34337" lon="-2.39285">
        <ele>31</ele>
        <time>2021-07-29T07:51:37.000Z</time>
      </trkpt>
      <trkpt lat="47.34344" lon="-2.39281">
        <ele>30.60000038147</ele>
        <time>2021-07-29T07:51:38.000Z</time>
      </trkpt>
      <trkpt lat="47.34352" lon="-2.39276">
        <ele>30.200000762939</ele>
        <time>2021-07-29T07:51:39.000Z</time>
      </trkpt>
      <trkpt lat="47.3436" lon="-2.39272">
        <ele>29.799999237061</ele>
        <time>2021-07-29T07:51:40.000Z</time>
      </trkpt>
      <trkpt lat="47.34402" lon="-2.39252">
        <ele>29.39999961853</ele>
        <time>2021-07-29T07:51:45.000Z</time>
      </trkpt>
      <trkpt lat="47.3441" lon="-2.39249">
        <ele>28.799999237061</ele>
        <time>2021-07-29T07:51:46.000Z</time>
      </trkpt>
      <trkpt lat="47.34419" lon="-2.39246">
        <ele>28.39999961853</ele>
        <time>2021-07-29T07:51:47.000Z</time>
      </trkpt>
      <trkpt lat="47.34428" lon="-2.39245">
        <ele>28</ele>
        <time>2021-07-29T07:51:48.000Z</time>
      </trkpt>
      <trkpt lat="47.34437" lon="-2.39242">
        <ele>27.39999961853</ele>
        <time>2021-07-29T07:51:49.000Z</time>
      </trkpt>
      <trkpt lat="47.34446" lon="-2.39239">
        <ele>27</ele>
        <time>2021-07-29T07:51:50.000Z</time>
      </trkpt>
      <trkpt lat="47.34455" lon="-2.39237">
        <ele>26.60000038147</ele>
        <time>2021-07-29T07:51:51.000Z</time>
      </trkpt>
      <trkpt lat="47.34464" lon="-2.39234">
        <ele>26</ele>
        <time>2021-07-29T07:51:52.000Z</time>
      </trkpt>
      <trkpt lat="47.34473" lon="-2.39232">
        <ele>25.60000038147</ele>
        <time>2021-07-29T07:51:53.000Z</time>
      </trkpt>
      <trkpt lat="47.34482" lon="-2.3923">
        <ele>25.200000762939</ele>
        <time>2021-07-29T07:51:54.000Z</time>
      </trkpt>
      <trkpt lat="47.34518" lon="-2.39223">
        <ele>24.799999237061</ele>
        <time>2021-07-29T07:51:58.000Z</time>
      </trkpt>
      <trkpt lat="47.34527" lon="-2.39223">
        <ele>24.200000762939</ele>
        <time>2021-07-29T07:51:59.000Z</time>
      </trkpt>
      <trkpt lat="47.34537" lon="-2.39225">
        <ele>23.799999237061</ele>
        <time>2021-07-29T07:52:00.000Z</time>
      </trkpt>
      <trkpt lat="47.34546" lon="-2.39227">
        <ele>23.39999961853</ele>
        <time>2021-07-29T07:52:01.000Z</time>
      </trkpt>
      <trkpt lat="47.34555" lon="-2.39229">
        <ele>23</ele>
        <time>2021-07-29T07:52:02.000Z</time>
      </trkpt>
      <trkpt lat="47.34565" lon="-2.39232">
        <ele>23</ele>
        <time>2021-07-29T07:52:03.000Z</time>
      </trkpt>
      <trkpt lat="47.34592" lon="-2.39246">
        <ele>22.60000038147</ele>
        <time>2021-07-29T07:52:06.000Z</time>
      </trkpt>
      <trkpt lat="47.34601" lon="-2.39251">
        <ele>22.200000762939</ele>
        <time>2021-07-29T07:52:07.000Z</time>
      </trkpt>
      <trkpt lat="47.34609" lon="-2.39257">
        <ele>21.799999237061</ele>
        <time>2021-07-29T07:52:08.000Z</time>
      </trkpt>
      <trkpt lat="47.34617" lon="-2.39263">
        <ele>21.39999961853</ele>
        <time>2021-07-29T07:52:09.000Z</time>
      </trkpt>
      <trkpt lat="47.34624" lon="-2.39269">
        <ele>21</ele>
        <time>2021-07-29T07:52:10.000Z</time>
      </trkpt>
      <trkpt lat="47.34642" lon="-2.39286">
        <ele>21</ele>
        <time>2021-07-29T07:52:13.000Z</time>
      </trkpt>
      <trkpt lat="47.34653" lon="-2.39297">
        <ele>20.60000038147</ele>
        <time>2021-07-29T07:52:16.000Z</time>
      </trkpt>
      <trkpt lat="47.34656" lon="-2.39299">
        <ele>20.200000762939</ele>
        <time>2021-07-29T07:52:17.000Z</time>
      </trkpt>
      <trkpt lat="47.34658" lon="-2.39301">
        <ele>19.60000038147</ele>
        <time>2021-07-29T07:52:18.000Z</time>
      </trkpt>
      <trkpt lat="47.34659" lon="-2.39303">
        <ele>19.200000762939</ele>
        <time>2021-07-29T07:52:19.000Z</time>
      </trkpt>
      <trkpt lat="47.3466" lon="-2.39304">
        <ele>18.799999237061</ele>
        <time>2021-07-29T07:52:20.000Z</time>
      </trkpt>
      <trkpt lat="47.34661" lon="-2.39305">
        <ele>18.799999237061</ele>
        <time>2021-07-29T07:52:21.000Z</time>
      </trkpt>
      <trkpt lat="47.34661" lon="-2.39306">
        <ele>18.799999237061</ele>
        <time>2021-07-29T07:52:23.000Z</time>
      </trkpt>
      <trkpt lat="47.3466" lon="-2.39315">
        <ele>18.799999237061</ele>
        <time>2021-07-29T07:52:55.000Z</time>
      </trkpt>
      <trkpt lat="47.34652" lon="-2.39331">
        <ele>18.799999237061</ele>
        <time>2021-07-29T07:52:59.000Z</time>
      </trkpt>
      <trkpt lat="47.34643" lon="-2.39345">
        <ele>18.799999237061</ele>
        <time>2021-07-29T07:53:02.000Z</time>
      </trkpt>
      <trkpt lat="47.34639" lon="-2.3935">
        <ele>18.799999237061</ele>
        <time>2021-07-29T07:53:03.000Z</time>
      </trkpt>
      <trkpt lat="47.34635" lon="-2.39356">
        <ele>18.799999237061</ele>
        <time>2021-07-29T07:53:04.000Z</time>
      </trkpt>
      <trkpt lat="47.34625" lon="-2.39376">
        <ele>18.799999237061</ele>
        <time>2021-07-29T07:53:07.000Z</time>
      </trkpt>
      <trkpt lat="47.34617" lon="-2.39389">
        <ele>18.799999237061</ele>
        <time>2021-07-29T07:53:09.000Z</time>
      </trkpt>
      <trkpt lat="47.34613" lon="-2.39396">
        <ele>19.200000762939</ele>
        <time>2021-07-29T07:53:10.000Z</time>
      </trkpt>
      <trkpt lat="47.34609" lon="-2.39402">
        <ele>19.60000038147</ele>
        <time>2021-07-29T07:53:11.000Z</time>
      </trkpt>
      <trkpt lat="47.34605" lon="-2.39408">
        <ele>20</ele>
        <time>2021-07-29T07:53:12.000Z</time>
      </trkpt>
      <trkpt lat="47.34601" lon="-2.39414">
        <ele>20.60000038147</ele>
        <time>2021-07-29T07:53:13.000Z</time>
      </trkpt>
      <trkpt lat="47.34598" lon="-2.3942">
        <ele>21</ele>
        <time>2021-07-29T07:53:14.000Z</time>
      </trkpt>
      <trkpt lat="47.3459" lon="-2.3943">
        <ele>21</ele>
        <time>2021-07-29T07:53:16.000Z</time>
      </trkpt>
      <trkpt lat="47.34562" lon="-2.39465">
        <ele>21</ele>
        <time>2021-07-29T07:53:23.000Z</time>
      </trkpt>
      <trkpt lat="47.34558" lon="-2.3947">
        <ele>21</ele>
        <time>2021-07-29T07:53:24.000Z</time>
      </trkpt>
      <trkpt lat="47.34553" lon="-2.39488">
        <ele>21</ele>
        <time>2021-07-29T07:53:27.000Z</time>
      </trkpt>
      <trkpt lat="47.34551" lon="-2.39496">
        <ele>21</ele>
        <time>2021-07-29T07:53:30.000Z</time>
      </trkpt>
      <trkpt lat="47.3455" lon="-2.39509">
        <ele>21.39999961853</ele>
        <time>2021-07-29T07:53:36.000Z</time>
      </trkpt>
      <trkpt lat="47.34549" lon="-2.39511">
        <ele>21.799999237061</ele>
        <time>2021-07-29T07:53:37.000Z</time>
      </trkpt>
      <trkpt lat="47.34549" lon="-2.39514">
        <ele>22.200000762939</ele>
        <time>2021-07-29T07:53:38.000Z</time>
      </trkpt>
      <trkpt lat="47.34548" lon="-2.39517">
        <ele>22.799999237061</ele>
        <time>2021-07-29T07:53:39.000Z</time>
      </trkpt>
      <trkpt lat="47.34548" lon="-2.39519">
        <ele>23.200000762939</ele>
        <time>2021-07-29T07:53:40.000Z</time>
      </trkpt>
      <trkpt lat="47.34547" lon="-2.39526">
        <ele>23.200000762939</ele>
        <time>2021-07-29T07:53:43.000Z</time>
      </trkpt>
      <trkpt lat="47.34547" lon="-2.39526">
        <ele>23.200000762939</ele>
        <time>2021-07-29T07:53:44.000Z</time>
      </trkpt>
      <trkpt lat="47.34545" lon="-2.39539">
        <ele>23.200000762939</ele>
        <time>2021-07-29T07:54:34.000Z</time>
      </trkpt>
      <trkpt lat="47.34544" lon="-2.39545">
        <ele>23.200000762939</ele>
        <time>2021-07-29T07:54:36.000Z</time>
      </trkpt>
      <trkpt lat="47.34538" lon="-2.39567">
        <ele>23.200000762939</ele>
        <time>2021-07-29T07:54:41.000Z</time>
      </trkpt>
      <trkpt lat="47.34527" lon="-2.39593">
        <ele>23.60000038147</ele>
        <time>2021-07-29T07:54:46.000Z</time>
      </trkpt>
      <trkpt lat="47.34524" lon="-2.39599">
        <ele>24</ele>
        <time>2021-07-29T07:54:47.000Z</time>
      </trkpt>
      <trkpt lat="47.34521" lon="-2.39605">
        <ele>24.39999961853</ele>
        <time>2021-07-29T07:54:48.000Z</time>
      </trkpt>
      <trkpt lat="47.34519" lon="-2.39611">
        <ele>24.799999237061</ele>
        <time>2021-07-29T07:54:49.000Z</time>
      </trkpt>
      <trkpt lat="47.34516" lon="-2.39617">
        <ele>25.200000762939</ele>
        <time>2021-07-29T07:54:50.000Z</time>
      </trkpt>
      <trkpt lat="47.34513" lon="-2.39624">
        <ele>25.200000762939</ele>
        <time>2021-07-29T07:54:51.000Z</time>
      </trkpt>
      <trkpt lat="47.34508" lon="-2.39636">
        <ele>25.200000762939</ele>
        <time>2021-07-29T07:54:53.000Z</time>
      </trkpt>
      <trkpt lat="47.34486" lon="-2.39676">
        <ele>25.200000762939</ele>
        <time>2021-07-29T07:54:59.000Z</time>
      </trkpt>
      <trkpt lat="47.34483" lon="-2.39683">
        <ele>25.200000762939</ele>
        <time>2021-07-29T07:55:00.000Z</time>
      </trkpt>
      <trkpt lat="47.34476" lon="-2.3971">
        <ele>25.200000762939</ele>
        <time>2021-07-29T07:55:03.000Z</time>
      </trkpt>
      <trkpt lat="47.34471" lon="-2.39764">
        <ele>25.200000762939</ele>
        <time>2021-07-29T07:55:09.000Z</time>
      </trkpt>
      <trkpt lat="47.34482" lon="-2.39776">
        <ele>25.200000762939</ele>
        <time>2021-07-29T07:55:12.000Z</time>
      </trkpt>
      <trkpt lat="47.34488" lon="-2.39777">
        <ele>24.799999237061</ele>
        <time>2021-07-29T07:55:13.000Z</time>
      </trkpt>
      <trkpt lat="47.34493" lon="-2.39779">
        <ele>24.39999961853</ele>
        <time>2021-07-29T07:55:14.000Z</time>
      </trkpt>
      <trkpt lat="47.34499" lon="-2.39781">
        <ele>24</ele>
        <time>2021-07-29T07:55:15.000Z</time>
      </trkpt>
      <trkpt lat="47.34503" lon="-2.39783">
        <ele>23.60000038147</ele>
        <time>2021-07-29T07:55:16.000Z</time>
      </trkpt>
      <trkpt lat="47.34508" lon="-2.39786">
        <ele>23.200000762939</ele>
        <time>2021-07-29T07:55:17.000Z</time>
      </trkpt>
      <trkpt lat="47.34535" lon="-2.3981">
        <ele>23.200000762939</ele>
        <time>2021-07-29T07:55:23.000Z</time>
      </trkpt>
      <trkpt lat="47.3457" lon="-2.39842">
        <ele>23.200000762939</ele>
        <time>2021-07-29T07:55:31.000Z</time>
      </trkpt>
      <trkpt lat="47.34575" lon="-2.39846">
        <ele>23.200000762939</ele>
        <time>2021-07-29T07:55:34.000Z</time>
      </trkpt>
      <trkpt lat="47.34589" lon="-2.39853">
        <ele>23.200000762939</ele>
        <time>2021-07-29T07:55:38.000Z</time>
      </trkpt>
      <trkpt lat="47.34606" lon="-2.39862">
        <ele>23.200000762939</ele>
        <time>2021-07-29T07:55:42.000Z</time>
      </trkpt>
      <trkpt lat="47.34613" lon="-2.39871">
        <ele>23.200000762939</ele>
        <time>2021-07-29T07:55:44.000Z</time>
      </trkpt>
      <trkpt lat="47.34616" lon="-2.39888">
        <ele>23.200000762939</ele>
        <time>2021-07-29T07:55:47.000Z</time>
      </trkpt>
      <trkpt lat="47.34615" lon="-2.39899">
        <ele>23.200000762939</ele>
        <time>2021-07-29T07:55:49.000Z</time>
      </trkpt>
      <trkpt lat="47.34612" lon="-2.39915">
        <ele>23.200000762939</ele>
        <time>2021-07-29T07:55:52.000Z</time>
      </trkpt>
      <trkpt lat="47.34605" lon="-2.39931">
        <ele>23.200000762939</ele>
        <time>2021-07-29T07:55:57.000Z</time>
      </trkpt>
      <trkpt lat="47.34602" lon="-2.39934">
        <ele>23.200000762939</ele>
        <time>2021-07-29T07:56:00.000Z</time>
      </trkpt>
      <trkpt lat="47.34595" lon="-2.39954">
        <ele>23.200000762939</ele>
        <time>2021-07-29T08:08:12.000Z</time>
      </trkpt>
      <trkpt lat="47.34596" lon="-2.39956">
        <ele>23.200000762939</ele>
        <time>2021-07-29T08:08:13.000Z</time>
      </trkpt>
      <trkpt lat="47.34594" lon="-2.39971">
        <ele>23.200000762939</ele>
        <time>2021-07-29T08:08:18.000Z</time>
      </trkpt>
      <trkpt lat="47.34592" lon="-2.39994">
        <ele>23.200000762939</ele>
        <time>2021-07-29T08:08:23.000Z</time>
      </trkpt>
      <trkpt lat="47.34603" lon="-2.40018">
        <ele>23.200000762939</ele>
        <time>2021-07-29T08:08:28.000Z</time>
      </trkpt>
      <trkpt lat="47.34624" lon="-2.40053">
        <ele>23.200000762939</ele>
        <time>2021-07-29T08:08:35.000Z</time>
      </trkpt>
      <trkpt lat="47.34654" lon="-2.40103">
        <ele>23.200000762939</ele>
        <time>2021-07-29T08:08:44.000Z</time>
      </trkpt>
      <trkpt lat="47.34666" lon="-2.40116">
        <ele>23.200000762939</ele>
        <time>2021-07-29T08:08:47.000Z</time>
      </trkpt>
      <trkpt lat="47.34673" lon="-2.40121">
        <ele>23.200000762939</ele>
        <time>2021-07-29T08:08:49.000Z</time>
      </trkpt>
      <trkpt lat="47.34681" lon="-2.40125">
        <ele>23.200000762939</ele>
        <time>2021-07-29T08:08:52.000Z</time>
      </trkpt>
      <trkpt lat="47.34684" lon="-2.40128">
        <ele>23.200000762939</ele>
        <time>2021-07-29T08:08:54.000Z</time>
      </trkpt>
      <trkpt lat="47.34687" lon="-2.4013">
        <ele>23.200000762939</ele>
        <time>2021-07-29T08:08:56.000Z</time>
      </trkpt>
      <trkpt lat="47.3469" lon="-2.40128">
        <ele>23.200000762939</ele>
        <time>2021-07-29T08:08:58.000Z</time>
      </trkpt>
      <trkpt lat="47.34695" lon="-2.40125">
        <ele>23.200000762939</ele>
        <time>2021-07-29T08:09:02.000Z</time>
      </trkpt>
      <trkpt lat="47.34696" lon="-2.40128">
        <ele>23.200000762939</ele>
        <time>2021-07-29T08:09:04.000Z</time>
      </trkpt>
      <trkpt lat="47.34692" lon="-2.40129">
        <ele>23.200000762939</ele>
        <time>2021-07-29T08:09:07.000Z</time>
      </trkpt>
      <trkpt lat="47.34682" lon="-2.40121">
        <ele>23.200000762939</ele>
        <time>2021-07-29T08:09:12.000Z</time>
      </trkpt>
      <trkpt lat="47.34673" lon="-2.40115">
        <ele>23.200000762939</ele>
        <time>2021-07-29T08:09:19.000Z</time>
      </trkpt>
      <trkpt lat="47.34671" lon="-2.40115">
        <ele>23.200000762939</ele>
        <time>2021-07-29T08:09:20.000Z</time>
      </trkpt>
      <trkpt lat="47.3467" lon="-2.4012">
        <ele>23.200000762939</ele>
        <time>2021-07-29T08:09:23.000Z</time>
      </trkpt>
      <trkpt lat="47.34677" lon="-2.40119">
        <ele>23.200000762939</ele>
        <time>2021-07-29T08:09:27.000Z</time>
      </trkpt>
      <trkpt lat="47.34678" lon="-2.40119">
        <ele>23.200000762939</ele>
        <time>2021-07-29T08:09:30.000Z</time>
      </trkpt>
      <trkpt lat="47.34682" lon="-2.40123">
        <ele>23.200000762939</ele>
        <time>2021-07-29T08:18:37.000Z</time>
      </trkpt>
      <trkpt lat="47.34683" lon="-2.40124">
        <ele>23.200000762939</ele>
        <time>2021-07-29T08:18:38.000Z</time>
      </trkpt>
      <trkpt lat="47.34694" lon="-2.40126">
        <ele>23.200000762939</ele>
        <time>2021-07-29T08:18:42.000Z</time>
      </trkpt>
      <trkpt lat="47.34699" lon="-2.40127">
        <ele>23.200000762939</ele>
        <time>2021-07-29T08:18:43.000Z</time>
      </trkpt>
      <trkpt lat="47.34704" lon="-2.40128">
        <ele>23.200000762939</ele>
        <time>2021-07-29T08:18:44.000Z</time>
      </trkpt>
      <trkpt lat="47.34718" lon="-2.40134">
        <ele>23.200000762939</ele>
        <time>2021-07-29T08:18:47.000Z</time>
      </trkpt>
      <trkpt lat="47.34738" lon="-2.40154">
        <ele>23.200000762939</ele>
        <time>2021-07-29T08:18:52.000Z</time>
      </trkpt>
      <trkpt lat="47.34742" lon="-2.40159">
        <ele>23.200000762939</ele>
        <time>2021-07-29T08:18:53.000Z</time>
      </trkpt>
      <trkpt lat="47.34756" lon="-2.4018">
        <ele>23.200000762939</ele>
        <time>2021-07-29T08:18:58.000Z</time>
      </trkpt>
      <trkpt lat="47.34771" lon="-2.40201">
        <ele>23.200000762939</ele>
        <time>2021-07-29T08:19:04.000Z</time>
      </trkpt>
      <trkpt lat="47.34785" lon="-2.4021">
        <ele>23.200000762939</ele>
        <time>2021-07-29T08:19:10.000Z</time>
      </trkpt>
      <trkpt lat="47.34791" lon="-2.40209">
        <ele>23.200000762939</ele>
        <time>2021-07-29T08:19:15.000Z</time>
      </trkpt>
      <trkpt lat="47.348" lon="-2.40216">
        <ele>23.200000762939</ele>
        <time>2021-07-29T08:19:20.000Z</time>
      </trkpt>
      <trkpt lat="47.34805" lon="-2.40226">
        <ele>22.200000762939</ele>
        <time>2021-07-29T08:19:24.000Z</time>
      </trkpt>
      <trkpt lat="47.34805" lon="-2.40226">
        <ele>21.799999237061</ele>
        <time>2021-07-29T08:19:25.000Z</time>
      </trkpt>
      <trkpt lat="47.348" lon="-2.40225">
        <ele>21</ele>
        <time>2021-07-29T08:20:43.000Z</time>
      </trkpt>
      <trkpt lat="47.34803" lon="-2.4023">
        <ele>21</ele>
        <time>2021-07-29T08:20:45.000Z</time>
      </trkpt>
      <trkpt lat="47.34812" lon="-2.4025">
        <ele>21</ele>
        <time>2021-07-29T08:20:50.000Z</time>
      </trkpt>
      <trkpt lat="47.34815" lon="-2.40256">
        <ele>21</ele>
        <time>2021-07-29T08:20:54.000Z</time>
      </trkpt>
      <trkpt lat="47.34815" lon="-2.40261">
        <ele>21</ele>
        <time>2021-07-29T08:22:41.000Z</time>
      </trkpt>
      <trkpt lat="47.34824" lon="-2.40275">
        <ele>21</ele>
        <time>2021-07-29T08:22:48.000Z</time>
      </trkpt>
      <trkpt lat="47.34834" lon="-2.40293">
        <ele>21</ele>
        <time>2021-07-29T08:22:54.000Z</time>
      </trkpt>
      <trkpt lat="47.34848" lon="-2.40321">
        <ele>21</ele>
        <time>2021-07-29T08:23:01.000Z</time>
      </trkpt>
      <trkpt lat="47.34858" lon="-2.40358">
        <ele>21</ele>
        <time>2021-07-29T08:23:07.000Z</time>
      </trkpt>
      <trkpt lat="47.34867" lon="-2.40397">
        <ele>20.60000038147</ele>
        <time>2021-07-29T08:23:13.000Z</time>
      </trkpt>
      <trkpt lat="47.34868" lon="-2.40404">
        <ele>20</ele>
        <time>2021-07-29T08:23:14.000Z</time>
      </trkpt>
      <trkpt lat="47.34869" lon="-2.40411">
        <ele>19.60000038147</ele>
        <time>2021-07-29T08:23:15.000Z</time>
      </trkpt>
      <trkpt lat="47.3487" lon="-2.40418">
        <ele>19.200000762939</ele>
        <time>2021-07-29T08:23:16.000Z</time>
      </trkpt>
      <trkpt lat="47.34871" lon="-2.40425">
        <ele>18.799999237061</ele>
        <time>2021-07-29T08:23:17.000Z</time>
      </trkpt>
      <trkpt lat="47.34877" lon="-2.40457">
        <ele>18.799999237061</ele>
        <time>2021-07-29T08:23:21.000Z</time>
      </trkpt>
      <trkpt lat="47.34883" lon="-2.40501">
        <ele>18.799999237061</ele>
        <time>2021-07-29T08:23:26.000Z</time>
      </trkpt>
      <trkpt lat="47.34887" lon="-2.4052">
        <ele>18.39999961853</ele>
        <time>2021-07-29T08:23:29.000Z</time>
      </trkpt>
      <trkpt lat="47.34888" lon="-2.4053">
        <ele>18</ele>
        <time>2021-07-29T08:23:30.000Z</time>
      </trkpt>
      <trkpt lat="47.34889" lon="-2.40539">
        <ele>17.60000038147</ele>
        <time>2021-07-29T08:23:31.000Z</time>
      </trkpt>
      <trkpt lat="47.34889" lon="-2.40547">
        <ele>17.200000762939</ele>
        <time>2021-07-29T08:23:32.000Z</time>
      </trkpt>
      <trkpt lat="47.34887" lon="-2.40554">
        <ele>16.799999237061</ele>
        <time>2021-07-29T08:23:33.000Z</time>
      </trkpt>
      <trkpt lat="47.34875" lon="-2.40574">
        <ele>16.799999237061</ele>
        <time>2021-07-29T08:23:36.000Z</time>
      </trkpt>
      <trkpt lat="47.34864" lon="-2.40586">
        <ele>16.799999237061</ele>
        <time>2021-07-29T08:23:38.000Z</time>
      </trkpt>
      <trkpt lat="47.34846" lon="-2.40609">
        <ele>16.799999237061</ele>
        <time>2021-07-29T08:23:42.000Z</time>
      </trkpt>
      <trkpt lat="47.34835" lon="-2.40639">
        <ele>16.799999237061</ele>
        <time>2021-07-29T08:23:46.000Z</time>
      </trkpt>
      <trkpt lat="47.34826" lon="-2.40675">
        <ele>16.799999237061</ele>
        <time>2021-07-29T08:23:51.000Z</time>
      </trkpt>
      <trkpt lat="47.34825" lon="-2.40682">
        <ele>16.799999237061</ele>
        <time>2021-07-29T08:23:52.000Z</time>
      </trkpt>
      <trkpt lat="47.34824" lon="-2.40689">
        <ele>16.799999237061</ele>
        <time>2021-07-29T08:23:53.000Z</time>
      </trkpt>
      <trkpt lat="47.34822" lon="-2.40717">
        <ele>16.799999237061</ele>
        <time>2021-07-29T08:23:57.000Z</time>
      </trkpt>
      <trkpt lat="47.34826" lon="-2.40753">
        <ele>16.799999237061</ele>
        <time>2021-07-29T08:24:03.000Z</time>
      </trkpt>
      <trkpt lat="47.34829" lon="-2.40764">
        <ele>16.799999237061</ele>
        <time>2021-07-29T08:24:05.000Z</time>
      </trkpt>
      <trkpt lat="47.34838" lon="-2.40776">
        <ele>16.799999237061</ele>
        <time>2021-07-29T08:24:08.000Z</time>
      </trkpt>
      <trkpt lat="47.34857" lon="-2.40777">
        <ele>16.799999237061</ele>
        <time>2021-07-29T08:24:12.000Z</time>
      </trkpt>
      <trkpt lat="47.34862" lon="-2.40777">
        <ele>17.200000762939</ele>
        <time>2021-07-29T08:24:13.000Z</time>
      </trkpt>
      <trkpt lat="47.34867" lon="-2.40776">
        <ele>17.60000038147</ele>
        <time>2021-07-29T08:24:14.000Z</time>
      </trkpt>
      <trkpt lat="47.34872" lon="-2.40776">
        <ele>18</ele>
        <time>2021-07-29T08:24:15.000Z</time>
      </trkpt>
      <trkpt lat="47.34876" lon="-2.40776">
        <ele>18.39999961853</ele>
        <time>2021-07-29T08:24:16.000Z</time>
      </trkpt>
      <trkpt lat="47.3488" lon="-2.40776">
        <ele>18.799999237061</ele>
        <time>2021-07-29T08:24:17.000Z</time>
      </trkpt>
      <trkpt lat="47.34889" lon="-2.40778">
        <ele>18.799999237061</ele>
        <time>2021-07-29T08:24:19.000Z</time>
      </trkpt>
      <trkpt lat="47.34895" lon="-2.40784">
        <ele>18.799999237061</ele>
        <time>2021-07-29T08:24:21.000Z</time>
      </trkpt>
      <trkpt lat="47.349" lon="-2.40794">
        <ele>18.799999237061</ele>
        <time>2021-07-29T08:24:23.000Z</time>
      </trkpt>
      <trkpt lat="47.34918" lon="-2.40831">
        <ele>18.799999237061</ele>
        <time>2021-07-29T08:24:30.000Z</time>
      </trkpt>
      <trkpt lat="47.34931" lon="-2.40864">
        <ele>18.799999237061</ele>
        <time>2021-07-29T08:24:35.000Z</time>
      </trkpt>
      <trkpt lat="47.34932" lon="-2.40872">
        <ele>18.799999237061</ele>
        <time>2021-07-29T08:24:36.000Z</time>
      </trkpt>
      <trkpt lat="47.34939" lon="-2.40921">
        <ele>18.799999237061</ele>
        <time>2021-07-29T08:24:42.000Z</time>
      </trkpt>
      <trkpt lat="47.3494" lon="-2.40959">
        <ele>18.799999237061</ele>
        <time>2021-07-29T08:24:47.000Z</time>
      </trkpt>
      <trkpt lat="47.34939" lon="-2.40966">
        <ele>18.799999237061</ele>
        <time>2021-07-29T08:24:48.000Z</time>
      </trkpt>
      <trkpt lat="47.34935" lon="-2.41032">
        <ele>18.799999237061</ele>
        <time>2021-07-29T08:24:56.000Z</time>
      </trkpt>
      <trkpt lat="47.34936" lon="-2.41042">
        <ele>18.799999237061</ele>
        <time>2021-07-29T08:24:57.000Z</time>
      </trkpt>
      <trkpt lat="47.34941" lon="-2.41069">
        <ele>18.799999237061</ele>
        <time>2021-07-29T08:25:00.000Z</time>
      </trkpt>
      <trkpt lat="47.34944" lon="-2.41079">
        <ele>18.799999237061</ele>
        <time>2021-07-29T08:25:01.000Z</time>
      </trkpt>
      <trkpt lat="47.34956" lon="-2.41119">
        <ele>18.799999237061</ele>
        <time>2021-07-29T08:25:05.000Z</time>
      </trkpt>
      <trkpt lat="47.34982" lon="-2.41175">
        <ele>18.799999237061</ele>
        <time>2021-07-29T08:25:11.000Z</time>
      </trkpt>
      <trkpt lat="47.35009" lon="-2.41239">
        <ele>18.799999237061</ele>
        <time>2021-07-29T08:25:18.000Z</time>
      </trkpt>
      <trkpt lat="47.35036" lon="-2.41304">
        <ele>18.799999237061</ele>
        <time>2021-07-29T08:25:25.000Z</time>
      </trkpt>
      <trkpt lat="47.35057" lon="-2.41361">
        <ele>18.799999237061</ele>
        <time>2021-07-29T08:25:31.000Z</time>
      </trkpt>
      <trkpt lat="47.35075" lon="-2.41401">
        <ele>18.799999237061</ele>
        <time>2021-07-29T08:25:36.000Z</time>
      </trkpt>
      <trkpt lat="47.35079" lon="-2.41405">
        <ele>18.39999961853</ele>
        <time>2021-07-29T08:25:37.000Z</time>
      </trkpt>
      <trkpt lat="47.35083" lon="-2.41406">
        <ele>18</ele>
        <time>2021-07-29T08:25:38.000Z</time>
      </trkpt>
      <trkpt lat="47.35087" lon="-2.41406">
        <ele>17.60000038147</ele>
        <time>2021-07-29T08:25:39.000Z</time>
      </trkpt>
      <trkpt lat="47.35091" lon="-2.41404">
        <ele>17.200000762939</ele>
        <time>2021-07-29T08:25:40.000Z</time>
      </trkpt>
      <trkpt lat="47.35095" lon="-2.414">
        <ele>16.799999237061</ele>
        <time>2021-07-29T08:25:41.000Z</time>
      </trkpt>
      <trkpt lat="47.351" lon="-2.41396">
        <ele>16.799999237061</ele>
        <time>2021-07-29T08:25:42.000Z</time>
      </trkpt>
      <trkpt lat="47.35128" lon="-2.41373">
        <ele>16.799999237061</ele>
        <time>2021-07-29T08:25:47.000Z</time>
      </trkpt>
      <trkpt lat="47.35134" lon="-2.4137">
        <ele>16.799999237061</ele>
        <time>2021-07-29T08:25:48.000Z</time>
      </trkpt>
      <trkpt lat="47.3516" lon="-2.41357">
        <ele>16.799999237061</ele>
        <time>2021-07-29T08:25:52.000Z</time>
      </trkpt>
      <trkpt lat="47.35173" lon="-2.41356">
        <ele>16.799999237061</ele>
        <time>2021-07-29T08:25:54.000Z</time>
      </trkpt>
      <trkpt lat="47.35191" lon="-2.41371">
        <ele>16.799999237061</ele>
        <time>2021-07-29T08:25:57.000Z</time>
      </trkpt>
      <trkpt lat="47.35198" lon="-2.41379">
        <ele>16.799999237061</ele>
        <time>2021-07-29T08:25:58.000Z</time>
      </trkpt>
      <trkpt lat="47.35204" lon="-2.41387">
        <ele>16.799999237061</ele>
        <time>2021-07-29T08:25:59.000Z</time>
      </trkpt>
      <trkpt lat="47.35224" lon="-2.41418">
        <ele>16.799999237061</ele>
        <time>2021-07-29T08:26:03.000Z</time>
      </trkpt>
      <trkpt lat="47.35238" lon="-2.41438">
        <ele>16.799999237061</ele>
        <time>2021-07-29T08:26:06.000Z</time>
      </trkpt>
      <trkpt lat="47.35249" lon="-2.41447">
        <ele>16.799999237061</ele>
        <time>2021-07-29T08:26:08.000Z</time>
      </trkpt>
      <trkpt lat="47.35267" lon="-2.41446">
        <ele>16.799999237061</ele>
        <time>2021-07-29T08:26:11.000Z</time>
      </trkpt>
      <trkpt lat="47.35288" lon="-2.4143">
        <ele>16.799999237061</ele>
        <time>2021-07-29T08:26:15.000Z</time>
      </trkpt>
      <trkpt lat="47.35307" lon="-2.414">
        <ele>16.799999237061</ele>
        <time>2021-07-29T08:26:19.000Z</time>
      </trkpt>
      <trkpt lat="47.35312" lon="-2.41391">
        <ele>16.799999237061</ele>
        <time>2021-07-29T08:26:20.000Z</time>
      </trkpt>
      <trkpt lat="47.35348" lon="-2.41336">
        <ele>16.799999237061</ele>
        <time>2021-07-29T08:26:27.000Z</time>
      </trkpt>
      <trkpt lat="47.35385" lon="-2.41285">
        <ele>16.799999237061</ele>
        <time>2021-07-29T08:26:34.000Z</time>
      </trkpt>
      <trkpt lat="47.35397" lon="-2.41275">
        <ele>16.799999237061</ele>
        <time>2021-07-29T08:26:36.000Z</time>
      </trkpt>
      <trkpt lat="47.35416" lon="-2.41259">
        <ele>16.799999237061</ele>
        <time>2021-07-29T08:26:39.000Z</time>
      </trkpt>
      <trkpt lat="47.35422" lon="-2.41252">
        <ele>16.799999237061</ele>
        <time>2021-07-29T08:26:40.000Z</time>
      </trkpt>
      <trkpt lat="47.35438" lon="-2.41228">
        <ele>16.799999237061</ele>
        <time>2021-07-29T08:26:43.000Z</time>
      </trkpt>
      <trkpt lat="47.3546" lon="-2.41203">
        <ele>16.799999237061</ele>
        <time>2021-07-29T08:26:47.000Z</time>
      </trkpt>
      <trkpt lat="47.35466" lon="-2.41199">
        <ele>16.799999237061</ele>
        <time>2021-07-29T08:26:48.000Z</time>
      </trkpt>
      <trkpt lat="47.35504" lon="-2.4117">
        <ele>16.799999237061</ele>
        <time>2021-07-29T08:26:54.000Z</time>
      </trkpt>
      <trkpt lat="47.35542" lon="-2.41139">
        <ele>16.799999237061</ele>
        <time>2021-07-29T08:27:00.000Z</time>
      </trkpt>
      <trkpt lat="47.35594" lon="-2.41098">
        <ele>16.799999237061</ele>
        <time>2021-07-29T08:27:08.000Z</time>
      </trkpt>
      <trkpt lat="47.35629" lon="-2.41057">
        <ele>16.799999237061</ele>
        <time>2021-07-29T08:27:14.000Z</time>
      </trkpt>
      <trkpt lat="47.35669" lon="-2.41007">
        <ele>16.799999237061</ele>
        <time>2021-07-29T08:27:21.000Z</time>
      </trkpt>
      <trkpt lat="47.35691" lon="-2.40972">
        <ele>16.799999237061</ele>
        <time>2021-07-29T08:27:26.000Z</time>
      </trkpt>
      <trkpt lat="47.35697" lon="-2.40963">
        <ele>16.799999237061</ele>
        <time>2021-07-29T08:27:28.000Z</time>
      </trkpt>
      <trkpt lat="47.35702" lon="-2.40954">
        <ele>16.799999237061</ele>
        <time>2021-07-29T08:27:30.000Z</time>
      </trkpt>
      <trkpt lat="47.35704" lon="-2.40949">
        <ele>16.39999961853</ele>
        <time>2021-07-29T08:27:31.000Z</time>
      </trkpt>
      <trkpt lat="47.35708" lon="-2.40942">
        <ele>16</ele>
        <time>2021-07-29T08:27:32.000Z</time>
      </trkpt>
      <trkpt lat="47.35712" lon="-2.40936">
        <ele>15.60000038147</ele>
        <time>2021-07-29T08:27:33.000Z</time>
      </trkpt>
      <trkpt lat="47.35716" lon="-2.4093">
        <ele>15.199999809265</ele>
        <time>2021-07-29T08:27:34.000Z</time>
      </trkpt>
      <trkpt lat="47.3572" lon="-2.40924">
        <ele>14.800000190735</ele>
        <time>2021-07-29T08:27:35.000Z</time>
      </trkpt>
      <trkpt lat="47.3575" lon="-2.40879">
        <ele>14.800000190735</ele>
        <time>2021-07-29T08:27:42.000Z</time>
      </trkpt>
      <trkpt lat="47.35782" lon="-2.40836">
        <ele>14.800000190735</ele>
        <time>2021-07-29T08:27:49.000Z</time>
      </trkpt>
      <trkpt lat="47.35816" lon="-2.40785">
        <ele>14.800000190735</ele>
        <time>2021-07-29T08:27:57.000Z</time>
      </trkpt>
      <trkpt lat="47.35847" lon="-2.40739">
        <ele>14.800000190735</ele>
        <time>2021-07-29T08:28:04.000Z</time>
      </trkpt>
      <trkpt lat="47.3585" lon="-2.40731">
        <ele>14.800000190735</ele>
        <time>2021-07-29T08:28:05.000Z</time>
      </trkpt>
      <trkpt lat="47.35856" lon="-2.40703">
        <ele>14.800000190735</ele>
        <time>2021-07-29T08:28:08.000Z</time>
      </trkpt>
      <trkpt lat="47.35857" lon="-2.40694">
        <ele>14.800000190735</ele>
        <time>2021-07-29T08:28:09.000Z</time>
      </trkpt>
      <trkpt lat="47.35859" lon="-2.40684">
        <ele>14.800000190735</ele>
        <time>2021-07-29T08:28:10.000Z</time>
      </trkpt>
      <trkpt lat="47.35868" lon="-2.40659">
        <ele>14.800000190735</ele>
        <time>2021-07-29T08:28:13.000Z</time>
      </trkpt>
      <trkpt lat="47.35876" lon="-2.40644">
        <ele>14.800000190735</ele>
        <time>2021-07-29T08:28:15.000Z</time>
      </trkpt>
      <trkpt lat="47.3589" lon="-2.40621">
        <ele>14.800000190735</ele>
        <time>2021-07-29T08:28:18.000Z</time>
      </trkpt>
      <trkpt lat="47.35921" lon="-2.40571">
        <ele>14.800000190735</ele>
        <time>2021-07-29T08:28:25.000Z</time>
      </trkpt>
      <trkpt lat="47.35947" lon="-2.40537">
        <ele>14.800000190735</ele>
        <time>2021-07-29T08:28:30.000Z</time>
      </trkpt>
      <trkpt lat="47.35952" lon="-2.40529">
        <ele>14.800000190735</ele>
        <time>2021-07-29T08:28:31.000Z</time>
      </trkpt>
      <trkpt lat="47.35993" lon="-2.40471">
        <ele>14.800000190735</ele>
        <time>2021-07-29T08:28:39.000Z</time>
      </trkpt>
      <trkpt lat="47.35998" lon="-2.40466">
        <ele>14.800000190735</ele>
        <time>2021-07-29T08:28:40.000Z</time>
      </trkpt>
      <trkpt lat="47.36014" lon="-2.40447">
        <ele>14.800000190735</ele>
        <time>2021-07-29T08:28:43.000Z</time>
      </trkpt>
      <trkpt lat="47.36018" lon="-2.4044">
        <ele>14.800000190735</ele>
        <time>2021-07-29T08:28:44.000Z</time>
      </trkpt>
      <trkpt lat="47.36026" lon="-2.40403">
        <ele>14.800000190735</ele>
        <time>2021-07-29T08:28:48.000Z</time>
      </trkpt>
      <trkpt lat="47.36027" lon="-2.40384">
        <ele>14.800000190735</ele>
        <time>2021-07-29T08:28:50.000Z</time>
      </trkpt>
      <trkpt lat="47.36029" lon="-2.40344">
        <ele>14.800000190735</ele>
        <time>2021-07-29T08:28:54.000Z</time>
      </trkpt>
      <trkpt lat="47.36031" lon="-2.40334">
        <ele>14.800000190735</ele>
        <time>2021-07-29T08:28:55.000Z</time>
      </trkpt>
      <trkpt lat="47.36039" lon="-2.40318">
        <ele>14.800000190735</ele>
        <time>2021-07-29T08:28:57.000Z</time>
      </trkpt>
      <trkpt lat="47.36059" lon="-2.40291">
        <ele>14.800000190735</ele>
        <time>2021-07-29T08:29:01.000Z</time>
      </trkpt>
      <trkpt lat="47.36065" lon="-2.40285">
        <ele>14.800000190735</ele>
        <time>2021-07-29T08:29:02.000Z</time>
      </trkpt>
      <trkpt lat="47.36101" lon="-2.40254">
        <ele>14.800000190735</ele>
        <time>2021-07-29T08:29:08.000Z</time>
      </trkpt>
      <trkpt lat="47.3612" lon="-2.40239">
        <ele>14.800000190735</ele>
        <time>2021-07-29T08:29:11.000Z</time>
      </trkpt>
      <trkpt lat="47.36132" lon="-2.4023">
        <ele>14.800000190735</ele>
        <time>2021-07-29T08:29:13.000Z</time>
      </trkpt>
      <trkpt lat="47.36173" lon="-2.40196">
        <ele>14.800000190735</ele>
        <time>2021-07-29T08:29:20.000Z</time>
      </trkpt>
      <trkpt lat="47.36184" lon="-2.40187">
        <ele>14.800000190735</ele>
        <time>2021-07-29T08:29:22.000Z</time>
      </trkpt>
      <trkpt lat="47.36196" lon="-2.4018">
        <ele>14.800000190735</ele>
        <time>2021-07-29T08:29:24.000Z</time>
      </trkpt>
      <trkpt lat="47.36239" lon="-2.40144">
        <ele>14.800000190735</ele>
        <time>2021-07-29T08:29:31.000Z</time>
      </trkpt>
      <trkpt lat="47.3627" lon="-2.40126">
        <ele>14.800000190735</ele>
        <time>2021-07-29T08:29:36.000Z</time>
      </trkpt>
      <trkpt lat="47.36277" lon="-2.40123">
        <ele>14.800000190735</ele>
        <time>2021-07-29T08:29:37.000Z</time>
      </trkpt>
      <trkpt lat="47.36316" lon="-2.40106">
        <ele>14.800000190735</ele>
        <time>2021-07-29T08:29:43.000Z</time>
      </trkpt>
      <trkpt lat="47.36355" lon="-2.40088">
        <ele>14.800000190735</ele>
        <time>2021-07-29T08:29:49.000Z</time>
      </trkpt>
      <trkpt lat="47.36361" lon="-2.40086">
        <ele>14.800000190735</ele>
        <time>2021-07-29T08:29:50.000Z</time>
      </trkpt>
      <trkpt lat="47.36388" lon="-2.40077">
        <ele>14.800000190735</ele>
        <time>2021-07-29T08:29:54.000Z</time>
      </trkpt>
      <trkpt lat="47.36431" lon="-2.40064">
        <ele>14.800000190735</ele>
        <time>2021-07-29T08:30:00.000Z</time>
      </trkpt>
      <trkpt lat="47.36452" lon="-2.40057">
        <ele>14.800000190735</ele>
        <time>2021-07-29T08:30:03.000Z</time>
      </trkpt>
      <trkpt lat="47.36466" lon="-2.40049">
        <ele>14.800000190735</ele>
        <time>2021-07-29T08:30:05.000Z</time>
      </trkpt>
      <trkpt lat="47.3648" lon="-2.40038">
        <ele>14.800000190735</ele>
        <time>2021-07-29T08:30:07.000Z</time>
      </trkpt>
      <trkpt lat="47.36501" lon="-2.40021">
        <ele>14.800000190735</ele>
        <time>2021-07-29T08:30:10.000Z</time>
      </trkpt>
      <trkpt lat="47.36541" lon="-2.39982">
        <ele>14.800000190735</ele>
        <time>2021-07-29T08:30:16.000Z</time>
      </trkpt>
      <trkpt lat="47.36582" lon="-2.39932">
        <ele>14.800000190735</ele>
        <time>2021-07-29T08:30:23.000Z</time>
      </trkpt>
      <trkpt lat="47.36587" lon="-2.39923">
        <ele>14.800000190735</ele>
        <time>2021-07-29T08:30:24.000Z</time>
      </trkpt>
      <trkpt lat="47.36596" lon="-2.39908">
        <ele>14.199999809265</ele>
        <time>2021-07-29T08:30:26.000Z</time>
      </trkpt>
      <trkpt lat="47.36597" lon="-2.39904">
        <ele>13.800000190735</ele>
        <time>2021-07-29T08:30:27.000Z</time>
      </trkpt>
      <trkpt lat="47.36596" lon="-2.39901">
        <ele>13.39999961853</ele>
        <time>2021-07-29T08:30:28.000Z</time>
      </trkpt>
      <trkpt lat="47.36596" lon="-2.39899">
        <ele>13</ele>
        <time>2021-07-29T08:30:29.000Z</time>
      </trkpt>
      <trkpt lat="47.36596" lon="-2.39899">
        <ele>12.60000038147</ele>
        <time>2021-07-29T08:30:30.000Z</time>
      </trkpt>
      <trkpt lat="47.36596" lon="-2.39898">
        <ele>12.60000038147</ele>
        <time>2021-07-29T08:30:32.000Z</time>
      </trkpt>
      <trkpt lat="47.36598" lon="-2.39898">
        <ele>12.60000038147</ele>
        <time>2021-07-29T08:30:35.000Z</time>
      </trkpt>
      <trkpt lat="47.366" lon="-2.39896">
        <ele>12.60000038147</ele>
        <time>2021-07-29T08:30:37.000Z</time>
      </trkpt>
      <trkpt lat="47.36605" lon="-2.3989">
        <ele>12.60000038147</ele>
        <time>2021-07-29T08:30:40.000Z</time>
      </trkpt>
      <trkpt lat="47.36611" lon="-2.39883">
        <ele>12.60000038147</ele>
        <time>2021-07-29T08:30:42.000Z</time>
      </trkpt>
      <trkpt lat="47.36625" lon="-2.39863">
        <ele>12.60000038147</ele>
        <time>2021-07-29T08:30:46.000Z</time>
      </trkpt>
      <trkpt lat="47.36629" lon="-2.39859">
        <ele>12.60000038147</ele>
        <time>2021-07-29T08:30:47.000Z</time>
      </trkpt>
      <trkpt lat="47.36661" lon="-2.39834">
        <ele>12.60000038147</ele>
        <time>2021-07-29T08:30:53.000Z</time>
      </trkpt>
      <trkpt lat="47.36686" lon="-2.39812">
        <ele>12.60000038147</ele>
        <time>2021-07-29T08:30:58.000Z</time>
      </trkpt>
      <trkpt lat="47.36689" lon="-2.39804">
        <ele>12.60000038147</ele>
        <time>2021-07-29T08:30:59.000Z</time>
      </trkpt>
      <trkpt lat="47.36697" lon="-2.3978">
        <ele>12.60000038147</ele>
        <time>2021-07-29T08:31:02.000Z</time>
      </trkpt>
      <trkpt lat="47.36703" lon="-2.39764">
        <ele>12.60000038147</ele>
        <time>2021-07-29T08:31:04.000Z</time>
      </trkpt>
      <trkpt lat="47.36707" lon="-2.39757">
        <ele>12.199999809265</ele>
        <time>2021-07-29T08:31:05.000Z</time>
      </trkpt>
      <trkpt lat="47.36712" lon="-2.3975">
        <ele>11.60000038147</ele>
        <time>2021-07-29T08:31:06.000Z</time>
      </trkpt>
      <trkpt lat="47.36716" lon="-2.39745">
        <ele>11.199999809265</ele>
        <time>2021-07-29T08:31:07.000Z</time>
      </trkpt>
      <trkpt lat="47.36721" lon="-2.3974">
        <ele>10.800000190735</ele>
        <time>2021-07-29T08:31:08.000Z</time>
      </trkpt>
      <trkpt lat="47.36726" lon="-2.39736">
        <ele>10.39999961853</ele>
        <time>2021-07-29T08:31:09.000Z</time>
      </trkpt>
      <trkpt lat="47.36746" lon="-2.39727">
        <ele>10.39999961853</ele>
        <time>2021-07-29T08:31:13.000Z</time>
      </trkpt>
      <trkpt lat="47.3676" lon="-2.39716">
        <ele>10.39999961853</ele>
        <time>2021-07-29T08:31:16.000Z</time>
      </trkpt>
      <trkpt lat="47.36769" lon="-2.39708">
        <ele>10.39999961853</ele>
        <time>2021-07-29T08:31:18.000Z</time>
      </trkpt>
      <trkpt lat="47.36773" lon="-2.39704">
        <ele>10.39999961853</ele>
        <time>2021-07-29T08:31:19.000Z</time>
      </trkpt>
      <trkpt lat="47.36792" lon="-2.39688">
        <ele>10.39999961853</ele>
        <time>2021-07-29T08:31:23.000Z</time>
      </trkpt>
      <trkpt lat="47.36796" lon="-2.39682">
        <ele>10.39999961853</ele>
        <time>2021-07-29T08:31:24.000Z</time>
      </trkpt>
      <trkpt lat="47.36807" lon="-2.39668">
        <ele>10.39999961853</ele>
        <time>2021-07-29T08:31:27.000Z</time>
      </trkpt>
      <trkpt lat="47.3681" lon="-2.39664">
        <ele>10.39999961853</ele>
        <time>2021-07-29T08:31:28.000Z</time>
      </trkpt>
      <trkpt lat="47.36815" lon="-2.3966">
        <ele>10.39999961853</ele>
        <time>2021-07-29T08:31:29.000Z</time>
      </trkpt>
      <trkpt lat="47.36827" lon="-2.39648">
        <ele>10.39999961853</ele>
        <time>2021-07-29T08:31:32.000Z</time>
      </trkpt>
      <trkpt lat="47.36831" lon="-2.39643">
        <ele>10.39999961853</ele>
        <time>2021-07-29T08:31:33.000Z</time>
      </trkpt>
      <trkpt lat="47.36844" lon="-2.39629">
        <ele>10.39999961853</ele>
        <time>2021-07-29T08:31:36.000Z</time>
      </trkpt>
      <trkpt lat="47.36852" lon="-2.39621">
        <ele>10.39999961853</ele>
        <time>2021-07-29T08:31:38.000Z</time>
      </trkpt>
      <trkpt lat="47.36883" lon="-2.39587">
        <ele>10.39999961853</ele>
        <time>2021-07-29T08:31:45.000Z</time>
      </trkpt>
      <trkpt lat="47.36901" lon="-2.39567">
        <ele>10.39999961853</ele>
        <time>2021-07-29T08:31:49.000Z</time>
      </trkpt>
      <trkpt lat="47.36905" lon="-2.39561">
        <ele>10.39999961853</ele>
        <time>2021-07-29T08:31:50.000Z</time>
      </trkpt>
      <trkpt lat="47.36909" lon="-2.39555">
        <ele>10.800000190735</ele>
        <time>2021-07-29T08:31:51.000Z</time>
      </trkpt>
      <trkpt lat="47.36913" lon="-2.39549">
        <ele>11.199999809265</ele>
        <time>2021-07-29T08:31:52.000Z</time>
      </trkpt>
      <trkpt lat="47.36917" lon="-2.39543">
        <ele>11.60000038147</ele>
        <time>2021-07-29T08:31:53.000Z</time>
      </trkpt>
      <trkpt lat="47.36921" lon="-2.39538">
        <ele>12</ele>
        <time>2021-07-29T08:31:54.000Z</time>
      </trkpt>
      <trkpt lat="47.36925" lon="-2.39532">
        <ele>12.39999961853</ele>
        <time>2021-07-29T08:31:55.000Z</time>
      </trkpt>
      <trkpt lat="47.36932" lon="-2.39522">
        <ele>12.39999961853</ele>
        <time>2021-07-29T08:31:57.000Z</time>
      </trkpt>
      <trkpt lat="47.36954" lon="-2.39495">
        <ele>12.39999961853</ele>
        <time>2021-07-29T08:32:03.000Z</time>
      </trkpt>
      <trkpt lat="47.36966" lon="-2.39484">
        <ele>12.39999961853</ele>
        <time>2021-07-29T08:32:06.000Z</time>
      </trkpt>
      <trkpt lat="47.36978" lon="-2.39474">
        <ele>12.39999961853</ele>
        <time>2021-07-29T08:32:09.000Z</time>
      </trkpt>
      <trkpt lat="47.36991" lon="-2.39463">
        <ele>12.800000190735</ele>
        <time>2021-07-29T08:32:12.000Z</time>
      </trkpt>
      <trkpt lat="47.36995" lon="-2.39459">
        <ele>13.199999809265</ele>
        <time>2021-07-29T08:32:13.000Z</time>
      </trkpt>
      <trkpt lat="47.36999" lon="-2.39455">
        <ele>13.60000038147</ele>
        <time>2021-07-29T08:32:14.000Z</time>
      </trkpt>
      <trkpt lat="47.37004" lon="-2.39451">
        <ele>14</ele>
        <time>2021-07-29T08:32:15.000Z</time>
      </trkpt>
      <trkpt lat="47.37008" lon="-2.39447">
        <ele>14.39999961853</ele>
        <time>2021-07-29T08:32:16.000Z</time>
      </trkpt>
      <trkpt lat="47.37012" lon="-2.39443">
        <ele>14.39999961853</ele>
        <time>2021-07-29T08:32:17.000Z</time>
      </trkpt>
      <trkpt lat="47.37042" lon="-2.3941">
        <ele>14.39999961853</ele>
        <time>2021-07-29T08:32:24.000Z</time>
      </trkpt>
      <trkpt lat="47.37065" lon="-2.39384">
        <ele>14.39999961853</ele>
        <time>2021-07-29T08:32:29.000Z</time>
      </trkpt>
      <trkpt lat="47.37085" lon="-2.39367">
        <ele>14.39999961853</ele>
        <time>2021-07-29T08:32:33.000Z</time>
      </trkpt>
      <trkpt lat="47.37101" lon="-2.39353">
        <ele>14.39999961853</ele>
        <time>2021-07-29T08:32:36.000Z</time>
      </trkpt>
      <trkpt lat="47.37137" lon="-2.39319">
        <ele>14.39999961853</ele>
        <time>2021-07-29T08:32:44.000Z</time>
      </trkpt>
      <trkpt lat="47.37145" lon="-2.39311">
        <ele>14.39999961853</ele>
        <time>2021-07-29T08:32:46.000Z</time>
      </trkpt>
      <trkpt lat="47.3716" lon="-2.39298">
        <ele>14.39999961853</ele>
        <time>2021-07-29T08:32:49.000Z</time>
      </trkpt>
      <trkpt lat="47.37189" lon="-2.39272">
        <ele>14.39999961853</ele>
        <time>2021-07-29T08:32:55.000Z</time>
      </trkpt>
      <trkpt lat="47.37193" lon="-2.39267">
        <ele>14.39999961853</ele>
        <time>2021-07-29T08:32:56.000Z</time>
      </trkpt>
      <trkpt lat="47.37216" lon="-2.39245">
        <ele>14.39999961853</ele>
        <time>2021-07-29T08:33:01.000Z</time>
      </trkpt>
      <trkpt lat="47.37247" lon="-2.39218">
        <ele>14.39999961853</ele>
        <time>2021-07-29T08:33:08.000Z</time>
      </trkpt>
      <trkpt lat="47.37272" lon="-2.39194">
        <ele>14.39999961853</ele>
        <time>2021-07-29T08:33:15.000Z</time>
      </trkpt>
      <trkpt lat="47.37291" lon="-2.39176">
        <ele>14.39999961853</ele>
        <time>2021-07-29T08:33:22.000Z</time>
      </trkpt>
      <trkpt lat="47.37302" lon="-2.39164">
        <ele>14.39999961853</ele>
        <time>2021-07-29T08:33:28.000Z</time>
      </trkpt>
      <trkpt lat="47.37305" lon="-2.39162">
        <ele>14.39999961853</ele>
        <time>2021-07-29T08:33:32.000Z</time>
      </trkpt>
      <trkpt lat="47.37309" lon="-2.39154">
        <ele>14.39999961853</ele>
        <time>2021-07-29T08:33:48.000Z</time>
      </trkpt>
      <trkpt lat="47.37308" lon="-2.39134">
        <ele>14.39999961853</ele>
        <time>2021-07-29T08:33:52.000Z</time>
      </trkpt>
      <trkpt lat="47.37307" lon="-2.3912">
        <ele>14.39999961853</ele>
        <time>2021-07-29T08:33:54.000Z</time>
      </trkpt>
      <trkpt lat="47.37305" lon="-2.3909">
        <ele>14.39999961853</ele>
        <time>2021-07-29T08:33:58.000Z</time>
      </trkpt>
      <trkpt lat="47.37302" lon="-2.39062">
        <ele>14.39999961853</ele>
        <time>2021-07-29T08:34:02.000Z</time>
      </trkpt>
      <trkpt lat="47.37301" lon="-2.39048">
        <ele>14.39999961853</ele>
        <time>2021-07-29T08:34:04.000Z</time>
      </trkpt>
      <trkpt lat="47.37295" lon="-2.39006">
        <ele>14.39999961853</ele>
        <time>2021-07-29T08:34:10.000Z</time>
      </trkpt>
      <trkpt lat="47.37294" lon="-2.38998">
        <ele>14.39999961853</ele>
        <time>2021-07-29T08:34:11.000Z</time>
      </trkpt>
      <trkpt lat="47.37292" lon="-2.38955">
        <ele>14.39999961853</ele>
        <time>2021-07-29T08:34:16.000Z</time>
      </trkpt>
      <trkpt lat="47.3728" lon="-2.38893">
        <ele>14.39999961853</ele>
        <time>2021-07-29T08:34:24.000Z</time>
      </trkpt>
      <trkpt lat="47.37268" lon="-2.38844">
        <ele>14.39999961853</ele>
        <time>2021-07-29T08:34:31.000Z</time>
      </trkpt>
      <trkpt lat="47.37252" lon="-2.38789">
        <ele>14.39999961853</ele>
        <time>2021-07-29T08:34:39.000Z</time>
      </trkpt>
      <trkpt lat="47.37235" lon="-2.38744">
        <ele>14.39999961853</ele>
        <time>2021-07-29T08:34:45.000Z</time>
      </trkpt>
      <trkpt lat="47.37215" lon="-2.3869">
        <ele>14.39999961853</ele>
        <time>2021-07-29T08:34:52.000Z</time>
      </trkpt>
      <trkpt lat="47.37196" lon="-2.38632">
        <ele>14.39999961853</ele>
        <time>2021-07-29T08:34:59.000Z</time>
      </trkpt>
      <trkpt lat="47.37169" lon="-2.38564">
        <ele>14.39999961853</ele>
        <time>2021-07-29T08:35:07.000Z</time>
      </trkpt>
      <trkpt lat="47.3715" lon="-2.38523">
        <ele>14.39999961853</ele>
        <time>2021-07-29T08:35:12.000Z</time>
      </trkpt>
      <trkpt lat="47.37145" lon="-2.38516">
        <ele>14.39999961853</ele>
        <time>2021-07-29T08:35:13.000Z</time>
      </trkpt>
      <trkpt lat="47.37126" lon="-2.38498">
        <ele>14</ele>
        <time>2021-07-29T08:35:16.000Z</time>
      </trkpt>
      <trkpt lat="47.37119" lon="-2.38493">
        <ele>13.60000038147</ele>
        <time>2021-07-29T08:35:17.000Z</time>
      </trkpt>
      <trkpt lat="47.37112" lon="-2.38488">
        <ele>13.199999809265</ele>
        <time>2021-07-29T08:35:18.000Z</time>
      </trkpt>
      <trkpt lat="47.37104" lon="-2.38485">
        <ele>12.800000190735</ele>
        <time>2021-07-29T08:35:19.000Z</time>
      </trkpt>
      <trkpt lat="47.37097" lon="-2.3848">
        <ele>12.39999961853</ele>
        <time>2021-07-29T08:35:20.000Z</time>
      </trkpt>
      <trkpt lat="47.37082" lon="-2.38472">
        <ele>12.39999961853</ele>
        <time>2021-07-29T08:35:22.000Z</time>
      </trkpt>
      <trkpt lat="47.37069" lon="-2.38465">
        <ele>12</ele>
        <time>2021-07-29T08:35:24.000Z</time>
      </trkpt>
      <trkpt lat="47.37064" lon="-2.38461">
        <ele>11.39999961853</ele>
        <time>2021-07-29T08:35:25.000Z</time>
      </trkpt>
      <trkpt lat="47.37062" lon="-2.38455">
        <ele>11</ele>
        <time>2021-07-29T08:35:26.000Z</time>
      </trkpt>
      <trkpt lat="47.37062" lon="-2.38448">
        <ele>10.60000038147</ele>
        <time>2021-07-29T08:35:27.000Z</time>
      </trkpt>
      <trkpt lat="47.37063" lon="-2.38441">
        <ele>10.199999809265</ele>
        <time>2021-07-29T08:35:28.000Z</time>
      </trkpt>
      <trkpt lat="47.37065" lon="-2.38435">
        <ele>9.8000001907349</ele>
        <time>2021-07-29T08:35:29.000Z</time>
      </trkpt>
      <trkpt lat="47.37069" lon="-2.38429">
        <ele>9.3999996185303</ele>
        <time>2021-07-29T08:35:30.000Z</time>
      </trkpt>
      <trkpt lat="47.37073" lon="-2.38422">
        <ele>9</ele>
        <time>2021-07-29T08:35:31.000Z</time>
      </trkpt>
      <trkpt lat="47.37077" lon="-2.38414">
        <ele>8.3999996185303</ele>
        <time>2021-07-29T08:35:32.000Z</time>
      </trkpt>
      <trkpt lat="47.37081" lon="-2.38408">
        <ele>8</ele>
        <time>2021-07-29T08:35:33.000Z</time>
      </trkpt>
      <trkpt lat="47.3709" lon="-2.38396">
        <ele>8</ele>
        <time>2021-07-29T08:35:35.000Z</time>
      </trkpt>
      <trkpt lat="47.37109" lon="-2.38377">
        <ele>8</ele>
        <time>2021-07-29T08:35:39.000Z</time>
      </trkpt>
      <trkpt lat="47.37119" lon="-2.38371">
        <ele>8</ele>
        <time>2021-07-29T08:35:41.000Z</time>
      </trkpt>
      <trkpt lat="47.37129" lon="-2.38366">
        <ele>8</ele>
        <time>2021-07-29T08:35:43.000Z</time>
      </trkpt>
      <trkpt lat="47.37139" lon="-2.38362">
        <ele>8.6000003814697</ele>
        <time>2021-07-29T08:35:45.000Z</time>
      </trkpt>
      <trkpt lat="47.37145" lon="-2.38362">
        <ele>9</ele>
        <time>2021-07-29T08:35:46.000Z</time>
      </trkpt>
      <trkpt lat="47.3715" lon="-2.3836">
        <ele>9.3999996185303</ele>
        <time>2021-07-29T08:35:47.000Z</time>
      </trkpt>
      <trkpt lat="47.37156" lon="-2.38357">
        <ele>9.8000001907349</ele>
        <time>2021-07-29T08:35:48.000Z</time>
      </trkpt>
      <trkpt lat="47.37161" lon="-2.38355">
        <ele>10.199999809265</ele>
        <time>2021-07-29T08:35:49.000Z</time>
      </trkpt>
      <trkpt lat="47.37177" lon="-2.38351">
        <ele>10.199999809265</ele>
        <time>2021-07-29T08:35:52.000Z</time>
      </trkpt>
      <trkpt lat="47.37183" lon="-2.38349">
        <ele>10.199999809265</ele>
        <time>2021-07-29T08:35:53.000Z</time>
      </trkpt>
      <trkpt lat="47.37189" lon="-2.38349">
        <ele>10.199999809265</ele>
        <time>2021-07-29T08:35:54.000Z</time>
      </trkpt>
      <trkpt lat="47.37211" lon="-2.38349">
        <ele>10.60000038147</ele>
        <time>2021-07-29T08:35:58.000Z</time>
      </trkpt>
      <trkpt lat="47.37217" lon="-2.38349">
        <ele>11</ele>
        <time>2021-07-29T08:35:59.000Z</time>
      </trkpt>
      <trkpt lat="47.37222" lon="-2.3835">
        <ele>11.60000038147</ele>
        <time>2021-07-29T08:36:00.000Z</time>
      </trkpt>
      <trkpt lat="47.3723" lon="-2.38348">
        <ele>12</ele>
        <time>2021-07-29T08:36:01.000Z</time>
      </trkpt>
      <trkpt lat="47.37236" lon="-2.38346">
        <ele>12.39999961853</ele>
        <time>2021-07-29T08:36:02.000Z</time>
      </trkpt>
      <trkpt lat="47.37242" lon="-2.38343">
        <ele>12.39999961853</ele>
        <time>2021-07-29T08:36:03.000Z</time>
      </trkpt>
      <trkpt lat="47.37261" lon="-2.38334">
        <ele>12.39999961853</ele>
        <time>2021-07-29T08:36:06.000Z</time>
      </trkpt>
      <trkpt lat="47.37272" lon="-2.38328">
        <ele>12.39999961853</ele>
        <time>2021-07-29T08:36:08.000Z</time>
      </trkpt>
      <trkpt lat="47.37301" lon="-2.3831">
        <ele>12.800000190735</ele>
        <time>2021-07-29T08:36:13.000Z</time>
      </trkpt>
      <trkpt lat="47.37307" lon="-2.38306">
        <ele>13.199999809265</ele>
        <time>2021-07-29T08:36:14.000Z</time>
      </trkpt>
      <trkpt lat="47.37313" lon="-2.38302">
        <ele>13.60000038147</ele>
        <time>2021-07-29T08:36:15.000Z</time>
      </trkpt>
      <trkpt lat="47.37319" lon="-2.38298">
        <ele>14</ele>
        <time>2021-07-29T08:36:16.000Z</time>
      </trkpt>
      <trkpt lat="47.37325" lon="-2.38295">
        <ele>14.39999961853</ele>
        <time>2021-07-29T08:36:17.000Z</time>
      </trkpt>
      <trkpt lat="47.37347" lon="-2.38282">
        <ele>14.39999961853</ele>
        <time>2021-07-29T08:36:21.000Z</time>
      </trkpt>
      <trkpt lat="47.37386" lon="-2.38258">
        <ele>14.39999961853</ele>
        <time>2021-07-29T08:36:28.000Z</time>
      </trkpt>
      <trkpt lat="47.37422" lon="-2.38239">
        <ele>14.39999961853</ele>
        <time>2021-07-29T08:36:34.000Z</time>
      </trkpt>
      <trkpt lat="47.37467" lon="-2.38211">
        <ele>14.39999961853</ele>
        <time>2021-07-29T08:36:41.000Z</time>
      </trkpt>
      <trkpt lat="47.37513" lon="-2.38182">
        <ele>14.39999961853</ele>
        <time>2021-07-29T08:36:48.000Z</time>
      </trkpt>
      <trkpt lat="47.37544" lon="-2.38162">
        <ele>14.39999961853</ele>
        <time>2021-07-29T08:36:53.000Z</time>
      </trkpt>
      <trkpt lat="47.37587" lon="-2.38136">
        <ele>14.39999961853</ele>
        <time>2021-07-29T08:36:59.000Z</time>
      </trkpt>
      <trkpt lat="47.37633" lon="-2.3811">
        <ele>14.39999961853</ele>
        <time>2021-07-29T08:37:05.000Z</time>
      </trkpt>
      <trkpt lat="47.37673" lon="-2.38079">
        <ele>14.39999961853</ele>
        <time>2021-07-29T08:37:11.000Z</time>
      </trkpt>
      <trkpt lat="47.37695" lon="-2.38054">
        <ele>14.39999961853</ele>
        <time>2021-07-29T08:37:16.000Z</time>
      </trkpt>
      <trkpt lat="47.37704" lon="-2.38042">
        <ele>14.39999961853</ele>
        <time>2021-07-29T08:37:20.000Z</time>
      </trkpt>
      <trkpt lat="47.37704" lon="-2.38041">
        <ele>14.39999961853</ele>
        <time>2021-07-29T08:37:22.000Z</time>
      </trkpt>
      <trkpt lat="47.37707" lon="-2.38037">
        <ele>14.39999961853</ele>
        <time>2021-07-29T08:37:26.000Z</time>
      </trkpt>
      <trkpt lat="47.37708" lon="-2.38036">
        <ele>14.39999961853</ele>
        <time>2021-07-29T08:37:27.000Z</time>
      </trkpt>
      <trkpt lat="47.37721" lon="-2.38029">
        <ele>14.39999961853</ele>
        <time>2021-07-29T08:37:31.000Z</time>
      </trkpt>
      <trkpt lat="47.37725" lon="-2.38027">
        <ele>14.39999961853</ele>
        <time>2021-07-29T08:37:32.000Z</time>
      </trkpt>
      <trkpt lat="47.37755" lon="-2.38007">
        <ele>14.39999961853</ele>
        <time>2021-07-29T08:37:39.000Z</time>
      </trkpt>
      <trkpt lat="47.37773" lon="-2.37993">
        <ele>14.800000190735</ele>
        <time>2021-07-29T08:37:43.000Z</time>
      </trkpt>
      <trkpt lat="47.37778" lon="-2.3799">
        <ele>15.199999809265</ele>
        <time>2021-07-29T08:37:44.000Z</time>
      </trkpt>
      <trkpt lat="47.37783" lon="-2.37986">
        <ele>15.60000038147</ele>
        <time>2021-07-29T08:37:45.000Z</time>
      </trkpt>
      <trkpt lat="47.37789" lon="-2.37983">
        <ele>16</ele>
        <time>2021-07-29T08:37:46.000Z</time>
      </trkpt>
      <trkpt lat="47.37794" lon="-2.3798">
        <ele>16.39999961853</ele>
        <time>2021-07-29T08:37:47.000Z</time>
      </trkpt>
      <trkpt lat="47.37815" lon="-2.37967">
        <ele>16.39999961853</ele>
        <time>2021-07-29T08:37:51.000Z</time>
      </trkpt>
      <trkpt lat="47.37846" lon="-2.37946">
        <ele>16.39999961853</ele>
        <time>2021-07-29T08:37:57.000Z</time>
      </trkpt>
      <trkpt lat="47.37868" lon="-2.3793">
        <ele>16.39999961853</ele>
        <time>2021-07-29T08:38:01.000Z</time>
      </trkpt>
      <trkpt lat="47.37879" lon="-2.37922">
        <ele>16.39999961853</ele>
        <time>2021-07-29T08:38:03.000Z</time>
      </trkpt>
      <trkpt lat="47.37896" lon="-2.37908">
        <ele>16.799999237061</ele>
        <time>2021-07-29T08:38:06.000Z</time>
      </trkpt>
      <trkpt lat="47.37902" lon="-2.37904">
        <ele>17.200000762939</ele>
        <time>2021-07-29T08:38:07.000Z</time>
      </trkpt>
      <trkpt lat="47.37908" lon="-2.37899">
        <ele>17.60000038147</ele>
        <time>2021-07-29T08:38:08.000Z</time>
      </trkpt>
      <trkpt lat="47.37914" lon="-2.37895">
        <ele>18</ele>
        <time>2021-07-29T08:38:09.000Z</time>
      </trkpt>
      <trkpt lat="47.3792" lon="-2.3789">
        <ele>18.39999961853</ele>
        <time>2021-07-29T08:38:10.000Z</time>
      </trkpt>
      <trkpt lat="47.37955" lon="-2.37864">
        <ele>18.39999961853</ele>
        <time>2021-07-29T08:38:16.000Z</time>
      </trkpt>
      <trkpt lat="47.37995" lon="-2.37832">
        <ele>18.39999961853</ele>
        <time>2021-07-29T08:38:23.000Z</time>
      </trkpt>
      <trkpt lat="47.38037" lon="-2.37801">
        <ele>18.39999961853</ele>
        <time>2021-07-29T08:38:30.000Z</time>
      </trkpt>
      <trkpt lat="47.38056" lon="-2.37786">
        <ele>18</ele>
        <time>2021-07-29T08:38:33.000Z</time>
      </trkpt>
      <trkpt lat="47.38062" lon="-2.37779">
        <ele>17.60000038147</ele>
        <time>2021-07-29T08:38:34.000Z</time>
      </trkpt>
      <trkpt lat="47.38069" lon="-2.37773">
        <ele>17.200000762939</ele>
        <time>2021-07-29T08:38:35.000Z</time>
      </trkpt>
      <trkpt lat="47.38076" lon="-2.37767">
        <ele>16.60000038147</ele>
        <time>2021-07-29T08:38:36.000Z</time>
      </trkpt>
      <trkpt lat="47.38083" lon="-2.37761">
        <ele>16.200000762939</ele>
        <time>2021-07-29T08:38:37.000Z</time>
      </trkpt>
      <trkpt lat="47.38107" lon="-2.37741">
        <ele>16.200000762939</ele>
        <time>2021-07-29T08:38:40.000Z</time>
      </trkpt>
      <trkpt lat="47.38156" lon="-2.37699">
        <ele>16.200000762939</ele>
        <time>2021-07-29T08:38:46.000Z</time>
      </trkpt>
      <trkpt lat="47.38173" lon="-2.37685">
        <ele>16.200000762939</ele>
        <time>2021-07-29T08:38:48.000Z</time>
      </trkpt>
      <trkpt lat="47.3818" lon="-2.37678">
        <ele>15.800000190735</ele>
        <time>2021-07-29T08:38:49.000Z</time>
      </trkpt>
      <trkpt lat="47.38188" lon="-2.37672">
        <ele>15.39999961853</ele>
        <time>2021-07-29T08:38:50.000Z</time>
      </trkpt>
      <trkpt lat="47.38195" lon="-2.37665">
        <ele>15</ele>
        <time>2021-07-29T08:38:51.000Z</time>
      </trkpt>
      <trkpt lat="47.38203" lon="-2.37659">
        <ele>14.60000038147</ele>
        <time>2021-07-29T08:38:52.000Z</time>
      </trkpt>
      <trkpt lat="47.38211" lon="-2.37653">
        <ele>14.199999809265</ele>
        <time>2021-07-29T08:38:53.000Z</time>
      </trkpt>
      <trkpt lat="47.38231" lon="-2.37635">
        <ele>14.199999809265</ele>
        <time>2021-07-29T08:38:56.000Z</time>
      </trkpt>
      <trkpt lat="47.38238" lon="-2.37631">
        <ele>13.800000190735</ele>
        <time>2021-07-29T08:38:57.000Z</time>
      </trkpt>
      <trkpt lat="47.38244" lon="-2.37627">
        <ele>13.39999961853</ele>
        <time>2021-07-29T08:38:58.000Z</time>
      </trkpt>
      <trkpt lat="47.38249" lon="-2.37624">
        <ele>13</ele>
        <time>2021-07-29T08:38:59.000Z</time>
      </trkpt>
      <trkpt lat="47.38255" lon="-2.37621">
        <ele>12.60000038147</ele>
        <time>2021-07-29T08:39:00.000Z</time>
      </trkpt>
      <trkpt lat="47.3826" lon="-2.37619">
        <ele>12</ele>
        <time>2021-07-29T08:39:01.000Z</time>
      </trkpt>
      <trkpt lat="47.38264" lon="-2.37618">
        <ele>11.60000038147</ele>
        <time>2021-07-29T08:39:02.000Z</time>
      </trkpt>
      <trkpt lat="47.38268" lon="-2.37618">
        <ele>11</ele>
        <time>2021-07-29T08:39:03.000Z</time>
      </trkpt>
      <trkpt lat="47.3827" lon="-2.37616">
        <ele>10.60000038147</ele>
        <time>2021-07-29T08:39:04.000Z</time>
      </trkpt>
      <trkpt lat="47.38272" lon="-2.37614">
        <ele>10</ele>
        <time>2021-07-29T08:39:05.000Z</time>
      </trkpt>
      <trkpt lat="47.38275" lon="-2.3761">
        <ele>10</ele>
        <time>2021-07-29T08:39:08.000Z</time>
      </trkpt>
      <trkpt lat="47.38277" lon="-2.3761">
        <ele>10</ele>
        <time>2021-07-29T08:39:10.000Z</time>
      </trkpt>
      <trkpt lat="47.38283" lon="-2.37607">
        <ele>10</ele>
        <time>2021-07-29T08:39:13.000Z</time>
      </trkpt>
      <trkpt lat="47.38302" lon="-2.376">
        <ele>10</ele>
        <time>2021-07-29T08:39:17.000Z</time>
      </trkpt>
      <trkpt lat="47.38307" lon="-2.37599">
        <ele>10</ele>
        <time>2021-07-29T08:39:18.000Z</time>
      </trkpt>
      <trkpt lat="47.38325" lon="-2.3759">
        <ele>9.6000003814697</ele>
        <time>2021-07-29T08:39:22.000Z</time>
      </trkpt>
      <trkpt lat="47.38329" lon="-2.37589">
        <ele>9.1999998092651</ele>
        <time>2021-07-29T08:39:23.000Z</time>
      </trkpt>
      <trkpt lat="47.38332" lon="-2.37588">
        <ele>8.6000003814697</ele>
        <time>2021-07-29T08:39:24.000Z</time>
      </trkpt>
      <trkpt lat="47.38334" lon="-2.37587">
        <ele>8.1999998092651</ele>
        <time>2021-07-29T08:39:25.000Z</time>
      </trkpt>
      <trkpt lat="47.38336" lon="-2.37586">
        <ele>7.8000001907349</ele>
        <time>2021-07-29T08:39:26.000Z</time>
      </trkpt>
      <trkpt lat="47.38339" lon="-2.37586">
        <ele>7.8000001907349</ele>
        <time>2021-07-29T08:39:27.000Z</time>
      </trkpt>
      <trkpt lat="47.38355" lon="-2.37578">
        <ele>7.8000001907349</ele>
        <time>2021-07-29T08:39:33.000Z</time>
      </trkpt>
      <trkpt lat="47.38359" lon="-2.3756">
        <ele>7.8000001907349</ele>
        <time>2021-07-29T08:39:37.000Z</time>
      </trkpt>
      <trkpt lat="47.38359" lon="-2.3755">
        <ele>7.8000001907349</ele>
        <time>2021-07-29T08:39:39.000Z</time>
      </trkpt>
      <trkpt lat="47.3836" lon="-2.3753">
        <ele>7.8000001907349</ele>
        <time>2021-07-29T08:39:43.000Z</time>
      </trkpt>
      <trkpt lat="47.38362" lon="-2.37496">
        <ele>7.4000000953674</ele>
        <time>2021-07-29T08:39:49.000Z</time>
      </trkpt>
      <trkpt lat="47.38361" lon="-2.37491">
        <ele>7</ele>
        <time>2021-07-29T08:39:50.000Z</time>
      </trkpt>
      <trkpt lat="47.3836" lon="-2.37486">
        <ele>6.5999999046326</ele>
        <time>2021-07-29T08:39:51.000Z</time>
      </trkpt>
      <trkpt lat="47.38359" lon="-2.37481">
        <ele>6.1999998092651</ele>
        <time>2021-07-29T08:39:52.000Z</time>
      </trkpt>
      <trkpt lat="47.38358" lon="-2.37476">
        <ele>5.8000001907349</ele>
        <time>2021-07-29T08:39:53.000Z</time>
      </trkpt>
      <trkpt lat="47.38354" lon="-2.37462">
        <ele>5.8000001907349</ele>
        <time>2021-07-29T08:39:56.000Z</time>
      </trkpt>
      <trkpt lat="47.38345" lon="-2.37429">
        <ele>5.8000001907349</ele>
        <time>2021-07-29T08:40:03.000Z</time>
      </trkpt>
      <trkpt lat="47.3834" lon="-2.37399">
        <ele>5.8000001907349</ele>
        <time>2021-07-29T08:40:11.000Z</time>
      </trkpt>
      <trkpt lat="47.38336" lon="-2.37384">
        <ele>5.8000001907349</ele>
        <time>2021-07-29T08:40:17.000Z</time>
      </trkpt>
      <trkpt lat="47.38339" lon="-2.37361">
        <ele>5.8000001907349</ele>
        <time>2021-07-29T08:40:24.000Z</time>
      </trkpt>
      <trkpt lat="47.38338" lon="-2.37355">
        <ele>5.8000001907349</ele>
        <time>2021-07-29T08:40:27.000Z</time>
      </trkpt>
      <trkpt lat="47.38342" lon="-2.37326">
        <ele>5.8000001907349</ele>
        <time>2021-07-29T08:40:44.000Z</time>
      </trkpt>
      <trkpt lat="47.38342" lon="-2.37319">
        <ele>5.8000001907349</ele>
        <time>2021-07-29T08:40:46.000Z</time>
      </trkpt>
      <trkpt lat="47.38342" lon="-2.37308">
        <ele>5.8000001907349</ele>
        <time>2021-07-29T08:40:49.000Z</time>
      </trkpt>
      <trkpt lat="47.38343" lon="-2.37305">
        <ele>5.8000001907349</ele>
        <time>2021-07-29T08:40:50.000Z</time>
      </trkpt>
      <trkpt lat="47.38341" lon="-2.373">
        <ele>5.8000001907349</ele>
        <time>2021-07-29T08:40:53.000Z</time>
      </trkpt>
      <trkpt lat="47.38341" lon="-2.37299">
        <ele>5.8000001907349</ele>
        <time>2021-07-29T08:40:54.000Z</time>
      </trkpt>
      <trkpt lat="47.38336" lon="-2.37283">
        <ele>5.8000001907349</ele>
        <time>2021-07-29T08:41:01.000Z</time>
      </trkpt>
      <trkpt lat="47.38323" lon="-2.37258">
        <ele>5.8000001907349</ele>
        <time>2021-07-29T08:41:08.000Z</time>
      </trkpt>
      <trkpt lat="47.38309" lon="-2.3724">
        <ele>5.8000001907349</ele>
        <time>2021-07-29T08:41:14.000Z</time>
      </trkpt>
      <trkpt lat="47.38299" lon="-2.37231">
        <ele>5.8000001907349</ele>
        <time>2021-07-29T08:41:18.000Z</time>
      </trkpt>
      <trkpt lat="47.38298" lon="-2.37229">
        <ele>5.8000001907349</ele>
        <time>2021-07-29T08:41:19.000Z</time>
      </trkpt>
      <trkpt lat="47.38294" lon="-2.3722">
        <ele>5.8000001907349</ele>
        <time>2021-07-29T08:41:24.000Z</time>
      </trkpt>
      <trkpt lat="47.38284" lon="-2.37215">
        <ele>5.8000001907349</ele>
        <time>2021-07-29T08:41:30.000Z</time>
      </trkpt>
      <trkpt lat="47.38282" lon="-2.37216">
        <ele>5.8000001907349</ele>
        <time>2021-07-29T08:41:31.000Z</time>
      </trkpt>
      <trkpt lat="47.3828" lon="-2.3722">
        <ele>5.8000001907349</ele>
        <time>2021-07-29T08:41:33.000Z</time>
      </trkpt>
      <trkpt lat="47.38277" lon="-2.37221">
        <ele>5.8000001907349</ele>
        <time>2021-07-29T08:41:35.000Z</time>
      </trkpt>
      <trkpt lat="47.38275" lon="-2.3722">
        <ele>5.8000001907349</ele>
        <time>2021-07-29T08:41:36.000Z</time>
      </trkpt>
      <trkpt lat="47.38257" lon="-2.37221">
        <ele>5.8000001907349</ele>
        <time>2021-07-29T08:41:41.000Z</time>
      </trkpt>
      <trkpt lat="47.38248" lon="-2.37214">
        <ele>5.8000001907349</ele>
        <time>2021-07-29T08:41:44.000Z</time>
      </trkpt>
      <trkpt lat="47.38246" lon="-2.37209">
        <ele>5.8000001907349</ele>
        <time>2021-07-29T08:41:45.000Z</time>
      </trkpt>
      <trkpt lat="47.38233" lon="-2.37183">
        <ele>5.8000001907349</ele>
        <time>2021-07-29T08:41:50.000Z</time>
      </trkpt>
      <trkpt lat="47.38217" lon="-2.37154">
        <ele>5.8000001907349</ele>
        <time>2021-07-29T08:41:56.000Z</time>
      </trkpt>
      <trkpt lat="47.38195" lon="-2.37112">
        <ele>5.8000001907349</ele>
        <time>2021-07-29T08:42:03.000Z</time>
      </trkpt>
      <trkpt lat="47.38188" lon="-2.37101">
        <ele>6.5999999046326</ele>
        <time>2021-07-29T08:42:05.000Z</time>
      </trkpt>
      <trkpt lat="47.38185" lon="-2.37094">
        <ele>7.1999998092651</ele>
        <time>2021-07-29T08:42:06.000Z</time>
      </trkpt>
      <trkpt lat="47.38182" lon="-2.37088">
        <ele>7.5999999046326</ele>
        <time>2021-07-29T08:42:07.000Z</time>
      </trkpt>
      <trkpt lat="47.38179" lon="-2.37081">
        <ele>8</ele>
        <time>2021-07-29T08:42:08.000Z</time>
      </trkpt>
      <trkpt lat="47.38177" lon="-2.37074">
        <ele>8</ele>
        <time>2021-07-29T08:42:09.000Z</time>
      </trkpt>
      <trkpt lat="47.38161" lon="-2.37038">
        <ele>8</ele>
        <time>2021-07-29T08:42:15.000Z</time>
      </trkpt>
      <trkpt lat="47.38157" lon="-2.37032">
        <ele>8.3999996185303</ele>
        <time>2021-07-29T08:42:16.000Z</time>
      </trkpt>
      <trkpt lat="47.38154" lon="-2.37027">
        <ele>8.8000001907349</ele>
        <time>2021-07-29T08:42:17.000Z</time>
      </trkpt>
      <trkpt lat="47.3815" lon="-2.3702">
        <ele>9.1999998092651</ele>
        <time>2021-07-29T08:42:18.000Z</time>
      </trkpt>
      <trkpt lat="47.38147" lon="-2.37014">
        <ele>9.6000003814697</ele>
        <time>2021-07-29T08:42:19.000Z</time>
      </trkpt>
      <trkpt lat="47.38145" lon="-2.37008">
        <ele>10</ele>
        <time>2021-07-29T08:42:20.000Z</time>
      </trkpt>
      <trkpt lat="47.38143" lon="-2.37003">
        <ele>10</ele>
        <time>2021-07-29T08:42:21.000Z</time>
      </trkpt>
      <trkpt lat="47.38131" lon="-2.36977">
        <ele>10</ele>
        <time>2021-07-29T08:42:26.000Z</time>
      </trkpt>
      <trkpt lat="47.38119" lon="-2.3694">
        <ele>10</ele>
        <time>2021-07-29T08:42:33.000Z</time>
      </trkpt>
      <trkpt lat="47.38107" lon="-2.36916">
        <ele>10</ele>
        <time>2021-07-29T08:42:39.000Z</time>
      </trkpt>
      <trkpt lat="47.38106" lon="-2.36912">
        <ele>10</ele>
        <time>2021-07-29T08:42:42.000Z</time>
      </trkpt>
      <trkpt lat="47.38107" lon="-2.36907">
        <ele>10</ele>
        <time>2021-07-29T08:43:55.000Z</time>
      </trkpt>
      <trkpt lat="47.38123" lon="-2.36898">
        <ele>10</ele>
        <time>2021-07-29T08:44:01.000Z</time>
      </trkpt>
      <trkpt lat="47.38151" lon="-2.3688">
        <ele>10</ele>
        <time>2021-07-29T08:44:07.000Z</time>
      </trkpt>
      <trkpt lat="47.38184" lon="-2.3686">
        <ele>10</ele>
        <time>2021-07-29T08:44:13.000Z</time>
      </trkpt>
      <trkpt lat="47.38219" lon="-2.36839">
        <ele>9.6000003814697</ele>
        <time>2021-07-29T08:44:18.000Z</time>
      </trkpt>
      <trkpt lat="47.38227" lon="-2.36835">
        <ele>9.1999998092651</ele>
        <time>2021-07-29T08:44:19.000Z</time>
      </trkpt>
      <trkpt lat="47.38234" lon="-2.3683">
        <ele>8.8000001907349</ele>
        <time>2021-07-29T08:44:20.000Z</time>
      </trkpt>
      <trkpt lat="47.38242" lon="-2.36825">
        <ele>8.3999996185303</ele>
        <time>2021-07-29T08:44:21.000Z</time>
      </trkpt>
      <trkpt lat="47.3825" lon="-2.3682">
        <ele>8</ele>
        <time>2021-07-29T08:44:22.000Z</time>
      </trkpt>
      <trkpt lat="47.38271" lon="-2.36809">
        <ele>7.5999999046326</ele>
        <time>2021-07-29T08:44:25.000Z</time>
      </trkpt>
      <trkpt lat="47.38277" lon="-2.36805">
        <ele>7.1999998092651</ele>
        <time>2021-07-29T08:44:26.000Z</time>
      </trkpt>
      <trkpt lat="47.3828" lon="-2.36804">
        <ele>6.8000001907349</ele>
        <time>2021-07-29T08:44:27.000Z</time>
      </trkpt>
      <trkpt lat="47.38283" lon="-2.36803">
        <ele>6.4000000953674</ele>
        <time>2021-07-29T08:44:28.000Z</time>
      </trkpt>
      <trkpt lat="47.38286" lon="-2.36802">
        <ele>6</ele>
        <time>2021-07-29T08:44:29.000Z</time>
      </trkpt>
      <trkpt lat="47.38289" lon="-2.36801">
        <ele>6</ele>
        <time>2021-07-29T08:44:30.000Z</time>
      </trkpt>
      <trkpt lat="47.38313" lon="-2.368">
        <ele>6</ele>
        <time>2021-07-29T08:44:37.000Z</time>
      </trkpt>
      <trkpt lat="47.3834" lon="-2.3679">
        <ele>6</ele>
        <time>2021-07-29T08:44:43.000Z</time>
      </trkpt>
      <trkpt lat="47.38349" lon="-2.36785">
        <ele>6</ele>
        <time>2021-07-29T08:44:45.000Z</time>
      </trkpt>
      <trkpt lat="47.38359" lon="-2.36769">
        <ele>6</ele>
        <time>2021-07-29T08:44:48.000Z</time>
      </trkpt>
      <trkpt lat="47.38365" lon="-2.36755">
        <ele>6</ele>
        <time>2021-07-29T08:44:50.000Z</time>
      </trkpt>
      <trkpt lat="47.38374" lon="-2.36727">
        <ele>6</ele>
        <time>2021-07-29T08:44:54.000Z</time>
      </trkpt>
      <trkpt lat="47.38376" lon="-2.3672">
        <ele>6</ele>
        <time>2021-07-29T08:44:55.000Z</time>
      </trkpt>
      <trkpt lat="47.38383" lon="-2.36685">
        <ele>6</ele>
        <time>2021-07-29T08:45:00.000Z</time>
      </trkpt>
      <trkpt lat="47.3839" lon="-2.36659">
        <ele>6</ele>
        <time>2021-07-29T08:45:04.000Z</time>
      </trkpt>
      <trkpt lat="47.38393" lon="-2.36653">
        <ele>6</ele>
        <time>2021-07-29T08:45:05.000Z</time>
      </trkpt>
      <trkpt lat="47.38397" lon="-2.3664">
        <ele>6</ele>
        <time>2021-07-29T08:45:07.000Z</time>
      </trkpt>
      <trkpt lat="47.38402" lon="-2.36627">
        <ele>6</ele>
        <time>2021-07-29T08:45:09.000Z</time>
      </trkpt>
      <trkpt lat="47.38404" lon="-2.36621">
        <ele>6</ele>
        <time>2021-07-29T08:45:10.000Z</time>
      </trkpt>
      <trkpt lat="47.38422" lon="-2.36598">
        <ele>6</ele>
        <time>2021-07-29T08:45:15.000Z</time>
      </trkpt>
      <trkpt lat="47.38447" lon="-2.36584">
        <ele>6</ele>
        <time>2021-07-29T08:45:20.000Z</time>
      </trkpt>
      <trkpt lat="47.38458" lon="-2.36578">
        <ele>6</ele>
        <time>2021-07-29T08:45:22.000Z</time>
      </trkpt>
      <trkpt lat="47.38474" lon="-2.3657">
        <ele>6</ele>
        <time>2021-07-29T08:45:25.000Z</time>
      </trkpt>
      <trkpt lat="47.38483" lon="-2.36565">
        <ele>6</ele>
        <time>2021-07-29T08:45:27.000Z</time>
      </trkpt>
      <trkpt lat="47.38496" lon="-2.36554">
        <ele>6</ele>
        <time>2021-07-29T08:45:30.000Z</time>
      </trkpt>
      <trkpt lat="47.3852" lon="-2.36524">
        <ele>6</ele>
        <time>2021-07-29T08:45:36.000Z</time>
      </trkpt>
      <trkpt lat="47.38543" lon="-2.36482">
        <ele>6</ele>
        <time>2021-07-29T08:45:43.000Z</time>
      </trkpt>
      <trkpt lat="47.38566" lon="-2.36437">
        <ele>6</ele>
        <time>2021-07-29T08:45:49.000Z</time>
      </trkpt>
      <trkpt lat="47.38592" lon="-2.36375">
        <ele>6</ele>
        <time>2021-07-29T08:45:56.000Z</time>
      </trkpt>
      <trkpt lat="47.38605" lon="-2.36336">
        <ele>6</ele>
        <time>2021-07-29T08:46:00.000Z</time>
      </trkpt>
      <trkpt lat="47.38607" lon="-2.36326">
        <ele>6</ele>
        <time>2021-07-29T08:46:01.000Z</time>
      </trkpt>
      <trkpt lat="47.38608" lon="-2.36288">
        <ele>6</ele>
        <time>2021-07-29T08:46:05.000Z</time>
      </trkpt>
      <trkpt lat="47.38598" lon="-2.36268">
        <ele>6</ele>
        <time>2021-07-29T08:46:08.000Z</time>
      </trkpt>
      <trkpt lat="47.38575" lon="-2.3626">
        <ele>6</ele>
        <time>2021-07-29T08:46:12.000Z</time>
      </trkpt>
      <trkpt lat="47.38551" lon="-2.36266">
        <ele>6</ele>
        <time>2021-07-29T08:46:16.000Z</time>
      </trkpt>
      <trkpt lat="47.38539" lon="-2.36267">
        <ele>6</ele>
        <time>2021-07-29T08:46:18.000Z</time>
      </trkpt>
      <trkpt lat="47.38521" lon="-2.36268">
        <ele>6</ele>
        <time>2021-07-29T08:46:21.000Z</time>
      </trkpt>
      <trkpt lat="47.38485" lon="-2.36264">
        <ele>6</ele>
        <time>2021-07-29T08:46:27.000Z</time>
      </trkpt>
      <trkpt lat="47.3848" lon="-2.36265">
        <ele>6</ele>
        <time>2021-07-29T08:46:28.000Z</time>
      </trkpt>
      <trkpt lat="47.38467" lon="-2.36276">
        <ele>6</ele>
        <time>2021-07-29T08:46:31.000Z</time>
      </trkpt>
      <trkpt lat="47.38459" lon="-2.36279">
        <ele>5.5999999046326</ele>
        <time>2021-07-29T08:46:33.000Z</time>
      </trkpt>
      <trkpt lat="47.38455" lon="-2.36279">
        <ele>5</ele>
        <time>2021-07-29T08:46:34.000Z</time>
      </trkpt>
      <trkpt lat="47.38451" lon="-2.36278">
        <ele>4.5999999046326</ele>
        <time>2021-07-29T08:46:35.000Z</time>
      </trkpt>
      <trkpt lat="47.38447" lon="-2.36277">
        <ele>3.7999999523163</ele>
        <time>2021-07-29T08:46:36.000Z</time>
      </trkpt>
      <trkpt lat="47.38435" lon="-2.36275">
        <ele>3.7999999523163</ele>
        <time>2021-07-29T08:46:40.000Z</time>
      </trkpt>
      <trkpt lat="47.38433" lon="-2.36273">
        <ele>3.7999999523163</ele>
        <time>2021-07-29T08:46:41.000Z</time>
      </trkpt>
      <trkpt lat="47.38427" lon="-2.36264">
        <ele>3.7999999523163</ele>
        <time>2021-07-29T08:46:44.000Z</time>
      </trkpt>
      <trkpt lat="47.38426" lon="-2.3626">
        <ele>3.7999999523163</ele>
        <time>2021-07-29T08:46:45.000Z</time>
      </trkpt>
      <trkpt lat="47.38424" lon="-2.36243">
        <ele>3.7999999523163</ele>
        <time>2021-07-29T08:46:48.000Z</time>
      </trkpt>
      <trkpt lat="47.3842" lon="-2.36236">
        <ele>3.7999999523163</ele>
        <time>2021-07-29T08:46:51.000Z</time>
      </trkpt>
      <trkpt lat="47.38417" lon="-2.36235">
        <ele>3.7999999523163</ele>
        <time>2021-07-29T08:46:52.000Z</time>
      </trkpt>
      <trkpt lat="47.38405" lon="-2.36227">
        <ele>3.7999999523163</ele>
        <time>2021-07-29T08:46:56.000Z</time>
      </trkpt>
      <trkpt lat="47.38402" lon="-2.36224">
        <ele>3.7999999523163</ele>
        <time>2021-07-29T08:46:57.000Z</time>
      </trkpt>
      <trkpt lat="47.38393" lon="-2.36215">
        <ele>3.7999999523163</ele>
        <time>2021-07-29T08:46:59.000Z</time>
      </trkpt>
      <trkpt lat="47.3838" lon="-2.36208">
        <ele>3.7999999523163</ele>
        <time>2021-07-29T08:47:02.000Z</time>
      </trkpt>
      <trkpt lat="47.38373" lon="-2.36201">
        <ele>3.7999999523163</ele>
        <time>2021-07-29T08:47:04.000Z</time>
      </trkpt>
      <trkpt lat="47.38367" lon="-2.3619">
        <ele>3.7999999523163</ele>
        <time>2021-07-29T08:47:06.000Z</time>
      </trkpt>
      <trkpt lat="47.38364" lon="-2.36177">
        <ele>3.7999999523163</ele>
        <time>2021-07-29T08:47:08.000Z</time>
      </trkpt>
      <trkpt lat="47.38358" lon="-2.36156">
        <ele>3.7999999523163</ele>
        <time>2021-07-29T08:47:11.000Z</time>
      </trkpt>
      <trkpt lat="47.38355" lon="-2.36149">
        <ele>3.7999999523163</ele>
        <time>2021-07-29T08:47:12.000Z</time>
      </trkpt>
      <trkpt lat="47.38337" lon="-2.36095">
        <ele>3.7999999523163</ele>
        <time>2021-07-29T08:47:19.000Z</time>
      </trkpt>
      <trkpt lat="47.38318" lon="-2.3605">
        <ele>3.7999999523163</ele>
        <time>2021-07-29T08:47:25.000Z</time>
      </trkpt>
      <trkpt lat="47.38311" lon="-2.36023">
        <ele>3.7999999523163</ele>
        <time>2021-07-29T08:47:28.000Z</time>
      </trkpt>
      <trkpt lat="47.38308" lon="-2.36005">
        <ele>3.7999999523163</ele>
        <time>2021-07-29T08:47:30.000Z</time>
      </trkpt>
      <trkpt lat="47.38306" lon="-2.35997">
        <ele>3.7999999523163</ele>
        <time>2021-07-29T08:47:31.000Z</time>
      </trkpt>
      <trkpt lat="47.38296" lon="-2.35957">
        <ele>3.7999999523163</ele>
        <time>2021-07-29T08:47:36.000Z</time>
      </trkpt>
      <trkpt lat="47.38293" lon="-2.35942">
        <ele>3.7999999523163</ele>
        <time>2021-07-29T08:47:38.000Z</time>
      </trkpt>
      <trkpt lat="47.38287" lon="-2.35931">
        <ele>3.7999999523163</ele>
        <time>2021-07-29T08:47:40.000Z</time>
      </trkpt>
      <trkpt lat="47.38278" lon="-2.35933">
        <ele>3.7999999523163</ele>
        <time>2021-07-29T08:47:43.000Z</time>
      </trkpt>
      <trkpt lat="47.38274" lon="-2.35935">
        <ele>3.7999999523163</ele>
        <time>2021-07-29T08:47:44.000Z</time>
      </trkpt>
      <trkpt lat="47.38252" lon="-2.35949">
        <ele>3.7999999523163</ele>
        <time>2021-07-29T08:47:49.000Z</time>
      </trkpt>
      <trkpt lat="47.38218" lon="-2.35972">
        <ele>3.7999999523163</ele>
        <time>2021-07-29T08:47:56.000Z</time>
      </trkpt>
      <trkpt lat="47.38194" lon="-2.35988">
        <ele>4.4000000953674</ele>
        <time>2021-07-29T08:48:01.000Z</time>
      </trkpt>
      <trkpt lat="47.38189" lon="-2.35991">
        <ele>4.8000001907349</ele>
        <time>2021-07-29T08:48:02.000Z</time>
      </trkpt>
      <trkpt lat="47.38184" lon="-2.35995">
        <ele>5.1999998092651</ele>
        <time>2021-07-29T08:48:03.000Z</time>
      </trkpt>
      <trkpt lat="47.38178" lon="-2.35999">
        <ele>5.5999999046326</ele>
        <time>2021-07-29T08:48:04.000Z</time>
      </trkpt>
      <trkpt lat="47.38173" lon="-2.36002">
        <ele>6</ele>
        <time>2021-07-29T08:48:05.000Z</time>
      </trkpt>
      <trkpt lat="47.38141" lon="-2.36025">
        <ele>6</ele>
        <time>2021-07-29T08:48:11.000Z</time>
      </trkpt>
      <trkpt lat="47.38109" lon="-2.36041">
        <ele>6</ele>
        <time>2021-07-29T08:48:17.000Z</time>
      </trkpt>
      <trkpt lat="47.38066" lon="-2.36055">
        <ele>6</ele>
        <time>2021-07-29T08:48:25.000Z</time>
      </trkpt>
      <trkpt lat="47.38026" lon="-2.36069">
        <ele>6</ele>
        <time>2021-07-29T08:48:32.000Z</time>
      </trkpt>
      <trkpt lat="47.37987" lon="-2.36084">
        <ele>6</ele>
        <time>2021-07-29T08:48:39.000Z</time>
      </trkpt>
      <trkpt lat="47.37952" lon="-2.36101">
        <ele>6</ele>
        <time>2021-07-29T08:48:46.000Z</time>
      </trkpt>
      <trkpt lat="47.37932" lon="-2.36111">
        <ele>6.4000000953674</ele>
        <time>2021-07-29T08:48:51.000Z</time>
      </trkpt>
      <trkpt lat="47.37928" lon="-2.36113">
        <ele>6.8000001907349</ele>
        <time>2021-07-29T08:48:52.000Z</time>
      </trkpt>
      <trkpt lat="47.37924" lon="-2.36115">
        <ele>7.1999998092651</ele>
        <time>2021-07-29T08:48:53.000Z</time>
      </trkpt>
      <trkpt lat="47.3792" lon="-2.36117">
        <ele>7.5999999046326</ele>
        <time>2021-07-29T08:48:54.000Z</time>
      </trkpt>
      <trkpt lat="47.37917" lon="-2.36118">
        <ele>8</ele>
        <time>2021-07-29T08:48:55.000Z</time>
      </trkpt>
      <trkpt lat="47.37904" lon="-2.36124">
        <ele>8</ele>
        <time>2021-07-29T08:49:00.000Z</time>
      </trkpt>
      <trkpt lat="47.37887" lon="-2.36123">
        <ele>8</ele>
        <time>2021-07-29T08:49:07.000Z</time>
      </trkpt>
      <trkpt lat="47.37869" lon="-2.36116">
        <ele>8</ele>
        <time>2021-07-29T08:49:13.000Z</time>
      </trkpt>
      <trkpt lat="47.3785" lon="-2.36107">
        <ele>8</ele>
        <time>2021-07-29T08:49:19.000Z</time>
      </trkpt>
      <trkpt lat="47.37821" lon="-2.36093">
        <ele>8</ele>
        <time>2021-07-29T08:49:26.000Z</time>
      </trkpt>
      <trkpt lat="47.37785" lon="-2.36074">
        <ele>8</ele>
        <time>2021-07-29T08:49:34.000Z</time>
      </trkpt>
      <trkpt lat="47.37755" lon="-2.36058">
        <ele>8</ele>
        <time>2021-07-29T08:49:40.000Z</time>
      </trkpt>
      <trkpt lat="47.37725" lon="-2.36037">
        <ele>8</ele>
        <time>2021-07-29T08:49:47.000Z</time>
      </trkpt>
      <trkpt lat="47.3769" lon="-2.36021">
        <ele>8</ele>
        <time>2021-07-29T08:49:54.000Z</time>
      </trkpt>
      <trkpt lat="47.37655" lon="-2.36009">
        <ele>8</ele>
        <time>2021-07-29T08:50:01.000Z</time>
      </trkpt>
      <trkpt lat="47.37645" lon="-2.36009">
        <ele>8</ele>
        <time>2021-07-29T08:50:04.000Z</time>
      </trkpt>
      <trkpt lat="47.37643" lon="-2.36013">
        <ele>8</ele>
        <time>2021-07-29T08:50:05.000Z</time>
      </trkpt>
      <trkpt lat="47.3764" lon="-2.36032">
        <ele>8</ele>
        <time>2021-07-29T08:50:08.000Z</time>
      </trkpt>
      <trkpt lat="47.37639" lon="-2.36038">
        <ele>8</ele>
        <time>2021-07-29T08:50:09.000Z</time>
      </trkpt>
      <trkpt lat="47.37627" lon="-2.3605">
        <ele>8</ele>
        <time>2021-07-29T08:50:12.000Z</time>
      </trkpt>
      <trkpt lat="47.37618" lon="-2.3605">
        <ele>8</ele>
        <time>2021-07-29T08:50:14.000Z</time>
      </trkpt>
      <trkpt lat="47.37603" lon="-2.36052">
        <ele>8</ele>
        <time>2021-07-29T08:50:17.000Z</time>
      </trkpt>
      <trkpt lat="47.37587" lon="-2.36055">
        <ele>8</ele>
        <time>2021-07-29T08:50:20.000Z</time>
      </trkpt>
      <trkpt lat="47.37569" lon="-2.3606">
        <ele>8</ele>
        <time>2021-07-29T08:50:23.000Z</time>
      </trkpt>
      <trkpt lat="47.3753" lon="-2.36073">
        <ele>8</ele>
        <time>2021-07-29T08:50:29.000Z</time>
      </trkpt>
      <trkpt lat="47.37496" lon="-2.36088">
        <ele>8</ele>
        <time>2021-07-29T08:50:35.000Z</time>
      </trkpt>
      <trkpt lat="47.37464" lon="-2.36107">
        <ele>8</ele>
        <time>2021-07-29T08:50:41.000Z</time>
      </trkpt>
      <trkpt lat="47.3744" lon="-2.36123">
        <ele>7.5999999046326</ele>
        <time>2021-07-29T08:50:45.000Z</time>
      </trkpt>
      <trkpt lat="47.37434" lon="-2.36128">
        <ele>7</ele>
        <time>2021-07-29T08:50:46.000Z</time>
      </trkpt>
      <trkpt lat="47.37428" lon="-2.36133">
        <ele>6.5999999046326</ele>
        <time>2021-07-29T08:50:47.000Z</time>
      </trkpt>
      <trkpt lat="47.37422" lon="-2.36137">
        <ele>6</ele>
        <time>2021-07-29T08:50:48.000Z</time>
      </trkpt>
      <trkpt lat="47.37417" lon="-2.3614">
        <ele>5.4000000953674</ele>
        <time>2021-07-29T08:50:49.000Z</time>
      </trkpt>
      <trkpt lat="47.37412" lon="-2.36141">
        <ele>5</ele>
        <time>2021-07-29T08:50:50.000Z</time>
      </trkpt>
      <trkpt lat="47.37408" lon="-2.36137">
        <ele>4.5999999046326</ele>
        <time>2021-07-29T08:50:51.000Z</time>
      </trkpt>
      <trkpt lat="47.37404" lon="-2.36133">
        <ele>4</ele>
        <time>2021-07-29T08:50:52.000Z</time>
      </trkpt>
      <trkpt lat="47.37399" lon="-2.36128">
        <ele>3.5999999046326</ele>
        <time>2021-07-29T08:50:53.000Z</time>
      </trkpt>
      <trkpt lat="47.37394" lon="-2.36122">
        <ele>3.2000000476837</ele>
        <time>2021-07-29T08:50:54.000Z</time>
      </trkpt>
      <trkpt lat="47.37389" lon="-2.36116">
        <ele>3.2000000476837</ele>
        <time>2021-07-29T08:50:55.000Z</time>
      </trkpt>
      <trkpt lat="47.37385" lon="-2.36111">
        <ele>3.2000000476837</ele>
        <time>2021-07-29T08:50:56.000Z</time>
      </trkpt>
      <trkpt lat="47.37377" lon="-2.3611">
        <ele>3.2000000476837</ele>
        <time>2021-07-29T08:50:58.000Z</time>
      </trkpt>
      <trkpt lat="47.37359" lon="-2.36124">
        <ele>3.2000000476837</ele>
        <time>2021-07-29T08:51:02.000Z</time>
      </trkpt>
      <trkpt lat="47.37354" lon="-2.36127">
        <ele>3.2000000476837</ele>
        <time>2021-07-29T08:51:03.000Z</time>
      </trkpt>
      <trkpt lat="47.37344" lon="-2.36128">
        <ele>3.2000000476837</ele>
        <time>2021-07-29T08:51:05.000Z</time>
      </trkpt>
      <trkpt lat="47.37331" lon="-2.36123">
        <ele>3.2000000476837</ele>
        <time>2021-07-29T08:51:08.000Z</time>
      </trkpt>
      <trkpt lat="47.37326" lon="-2.36121">
        <ele>3.2000000476837</ele>
        <time>2021-07-29T08:51:09.000Z</time>
      </trkpt>
      <trkpt lat="47.37309" lon="-2.36123">
        <ele>3.2000000476837</ele>
        <time>2021-07-29T08:51:13.000Z</time>
      </trkpt>
      <trkpt lat="47.37304" lon="-2.36124">
        <ele>3.2000000476837</ele>
        <time>2021-07-29T08:51:14.000Z</time>
      </trkpt>
      <trkpt lat="47.37299" lon="-2.36126">
        <ele>3.2000000476837</ele>
        <time>2021-07-29T08:51:15.000Z</time>
      </trkpt>
      <trkpt lat="47.3729" lon="-2.36134">
        <ele>3.2000000476837</ele>
        <time>2021-07-29T08:51:18.000Z</time>
      </trkpt>
      <trkpt lat="47.37283" lon="-2.36136">
        <ele>3.2000000476837</ele>
        <time>2021-07-29T08:51:22.000Z</time>
      </trkpt>
      <trkpt lat="47.37283" lon="-2.36136">
        <ele>3.2000000476837</ele>
        <time>2021-07-29T08:51:24.000Z</time>
      </trkpt>
      <trkpt lat="47.37279" lon="-2.36132">
        <ele>3.2000000476837</ele>
        <time>2021-07-29T08:51:28.000Z</time>
      </trkpt>
      <trkpt lat="47.37278" lon="-2.3613">
        <ele>3.2000000476837</ele>
        <time>2021-07-29T08:51:31.000Z</time>
      </trkpt>
      <trkpt lat="47.37271" lon="-2.36124">
        <ele>3.2000000476837</ele>
        <time>2021-07-29T08:51:37.000Z</time>
      </trkpt>
      <trkpt lat="47.3727" lon="-2.36123">
        <ele>2.7999999523163</ele>
        <time>2021-07-29T08:51:38.000Z</time>
      </trkpt>
      <trkpt lat="47.37269" lon="-2.36123">
        <ele>2.4000000953674</ele>
        <time>2021-07-29T08:51:39.000Z</time>
      </trkpt>
      <trkpt lat="47.37269" lon="-2.36122">
        <ele>2</ele>
        <time>2021-07-29T08:51:40.000Z</time>
      </trkpt>
      <trkpt lat="47.37268" lon="-2.36122">
        <ele>1.6000000238419</ele>
        <time>2021-07-29T08:51:41.000Z</time>
      </trkpt>
      <trkpt lat="47.37268" lon="-2.36122">
        <ele>1.2000000476837</ele>
        <time>2021-07-29T08:51:42.000Z</time>
      </trkpt>
      <trkpt lat="47.3721" lon="-2.3609">
        <ele>3.2000000476837</ele>
        <time>2021-07-29T09:04:28.000Z</time>
      </trkpt>
      <trkpt lat="47.37209" lon="-2.3609">
        <ele>3.2000000476837</ele>
        <time>2021-07-29T09:04:29.000Z</time>
      </trkpt>
      <trkpt lat="47.37204" lon="-2.36093">
        <ele>3.2000000476837</ele>
        <time>2021-07-29T09:04:34.000Z</time>
      </trkpt>
      <trkpt lat="47.37202" lon="-2.36096">
        <ele>3.2000000476837</ele>
        <time>2021-07-29T09:04:36.000Z</time>
      </trkpt>
      <trkpt lat="47.37195" lon="-2.36111">
        <ele>3.2000000476837</ele>
        <time>2021-07-29T09:04:43.000Z</time>
      </trkpt>
      <trkpt lat="47.37185" lon="-2.36134">
        <ele>3.2000000476837</ele>
        <time>2021-07-29T09:04:49.000Z</time>
      </trkpt>
      <trkpt lat="47.37178" lon="-2.36152">
        <ele>3.2000000476837</ele>
        <time>2021-07-29T09:04:53.000Z</time>
      </trkpt>
      <trkpt lat="47.37173" lon="-2.3616">
        <ele>3.2000000476837</ele>
        <time>2021-07-29T09:04:55.000Z</time>
      </trkpt>
      <trkpt lat="47.3717" lon="-2.36171">
        <ele>3.2000000476837</ele>
        <time>2021-07-29T09:04:59.000Z</time>
      </trkpt>
      <trkpt lat="47.37161" lon="-2.36186">
        <ele>3.5999999046326</ele>
        <time>2021-07-29T09:05:04.000Z</time>
      </trkpt>
      <trkpt lat="47.37159" lon="-2.3619">
        <ele>4</ele>
        <time>2021-07-29T09:05:05.000Z</time>
      </trkpt>
      <trkpt lat="47.37158" lon="-2.36192">
        <ele>4.4000000953674</ele>
        <time>2021-07-29T09:05:06.000Z</time>
      </trkpt>
      <trkpt lat="47.37157" lon="-2.36195">
        <ele>4.8000001907349</ele>
        <time>2021-07-29T09:05:07.000Z</time>
      </trkpt>
      <trkpt lat="47.37156" lon="-2.36197">
        <ele>5.1999998092651</ele>
        <time>2021-07-29T09:05:08.000Z</time>
      </trkpt>
      <trkpt lat="47.37154" lon="-2.36199">
        <ele>5.1999998092651</ele>
        <time>2021-07-29T09:05:10.000Z</time>
      </trkpt>
      <trkpt lat="47.37154" lon="-2.36198">
        <ele>5.1999998092651</ele>
        <time>2021-07-29T09:05:11.000Z</time>
      </trkpt>
      <trkpt lat="47.37153" lon="-2.36201">
        <ele>5.1999998092651</ele>
        <time>2021-07-29T09:05:33.000Z</time>
      </trkpt>
      <trkpt lat="47.37151" lon="-2.36207">
        <ele>5.1999998092651</ele>
        <time>2021-07-29T09:05:35.000Z</time>
      </trkpt>
      <trkpt lat="47.37141" lon="-2.36226">
        <ele>5.1999998092651</ele>
        <time>2021-07-29T09:05:39.000Z</time>
      </trkpt>
      <trkpt lat="47.37136" lon="-2.36238">
        <ele>5.1999998092651</ele>
        <time>2021-07-29T09:05:41.000Z</time>
      </trkpt>
      <trkpt lat="47.37128" lon="-2.36256">
        <ele>5.5999999046326</ele>
        <time>2021-07-29T09:05:44.000Z</time>
      </trkpt>
      <trkpt lat="47.37125" lon="-2.36261">
        <ele>6</ele>
        <time>2021-07-29T09:05:45.000Z</time>
      </trkpt>
      <trkpt lat="47.37121" lon="-2.36267">
        <ele>6.4000000953674</ele>
        <time>2021-07-29T09:05:46.000Z</time>
      </trkpt>
      <trkpt lat="47.37118" lon="-2.36273">
        <ele>6.8000001907349</ele>
        <time>2021-07-29T09:05:47.000Z</time>
      </trkpt>
      <trkpt lat="47.37116" lon="-2.36279">
        <ele>7.1999998092651</ele>
        <time>2021-07-29T09:05:48.000Z</time>
      </trkpt>
      <trkpt lat="47.37097" lon="-2.3632">
        <ele>7.1999998092651</ele>
        <time>2021-07-29T09:05:55.000Z</time>
      </trkpt>
      <trkpt lat="47.3708" lon="-2.36354">
        <ele>7.1999998092651</ele>
        <time>2021-07-29T09:06:01.000Z</time>
      </trkpt>
      <trkpt lat="47.37076" lon="-2.36358">
        <ele>7.1999998092651</ele>
        <time>2021-07-29T09:06:02.000Z</time>
      </trkpt>
      <trkpt lat="47.37059" lon="-2.36366">
        <ele>7.1999998092651</ele>
        <time>2021-07-29T09:06:06.000Z</time>
      </trkpt>
      <trkpt lat="47.37056" lon="-2.36366">
        <ele>7.1999998092651</ele>
        <time>2021-07-29T09:06:07.000Z</time>
      </trkpt>
      <trkpt lat="47.37044" lon="-2.36367">
        <ele>7.1999998092651</ele>
        <time>2021-07-29T09:06:10.000Z</time>
      </trkpt>
      <trkpt lat="47.37039" lon="-2.36367">
        <ele>7.1999998092651</ele>
        <time>2021-07-29T09:06:11.000Z</time>
      </trkpt>
      <trkpt lat="47.37035" lon="-2.36368">
        <ele>7.1999998092651</ele>
        <time>2021-07-29T09:06:12.000Z</time>
      </trkpt>
      <trkpt lat="47.3702" lon="-2.36369">
        <ele>7.1999998092651</ele>
        <time>2021-07-29T09:06:15.000Z</time>
      </trkpt>
      <trkpt lat="47.3701" lon="-2.36368">
        <ele>7.1999998092651</ele>
        <time>2021-07-29T09:06:17.000Z</time>
      </trkpt>
      <trkpt lat="47.36976" lon="-2.3637">
        <ele>7.1999998092651</ele>
        <time>2021-07-29T09:06:24.000Z</time>
      </trkpt>
      <trkpt lat="47.36971" lon="-2.3637">
        <ele>7.1999998092651</ele>
        <time>2021-07-29T09:06:25.000Z</time>
      </trkpt>
      <trkpt lat="47.36942" lon="-2.36368">
        <ele>7.1999998092651</ele>
        <time>2021-07-29T09:06:31.000Z</time>
      </trkpt>
      <trkpt lat="47.36906" lon="-2.36369">
        <ele>7.1999998092651</ele>
        <time>2021-07-29T09:06:39.000Z</time>
      </trkpt>
      <trkpt lat="47.36883" lon="-2.36369">
        <ele>7.1999998092651</ele>
        <time>2021-07-29T09:06:44.000Z</time>
      </trkpt>
      <trkpt lat="47.36878" lon="-2.36369">
        <ele>7.1999998092651</ele>
        <time>2021-07-29T09:06:45.000Z</time>
      </trkpt>
      <trkpt lat="47.36874" lon="-2.3637">
        <ele>7.1999998092651</ele>
        <time>2021-07-29T09:06:46.000Z</time>
      </trkpt>
      <trkpt lat="47.36859" lon="-2.36368">
        <ele>7.1999998092651</ele>
        <time>2021-07-29T09:06:49.000Z</time>
      </trkpt>
      <trkpt lat="47.36827" lon="-2.36369">
        <ele>7.1999998092651</ele>
        <time>2021-07-29T09:06:56.000Z</time>
      </trkpt>
      <trkpt lat="47.368" lon="-2.3637">
        <ele>7.1999998092651</ele>
        <time>2021-07-29T09:07:02.000Z</time>
      </trkpt>
      <trkpt lat="47.36796" lon="-2.36369">
        <ele>7.1999998092651</ele>
        <time>2021-07-29T09:07:03.000Z</time>
      </trkpt>
      <trkpt lat="47.36786" lon="-2.3637">
        <ele>7.1999998092651</ele>
        <time>2021-07-29T09:07:06.000Z</time>
      </trkpt>
      <trkpt lat="47.36777" lon="-2.3637">
        <ele>7.1999998092651</ele>
        <time>2021-07-29T09:07:09.000Z</time>
      </trkpt>
      <trkpt lat="47.36762" lon="-2.36368">
        <ele>7.1999998092651</ele>
        <time>2021-07-29T09:07:15.000Z</time>
      </trkpt>
      <trkpt lat="47.36759" lon="-2.36369">
        <ele>7.1999998092651</ele>
        <time>2021-07-29T09:07:19.000Z</time>
      </trkpt>
      <trkpt lat="47.36757" lon="-2.3637">
        <ele>7.1999998092651</ele>
        <time>2021-07-29T09:08:12.000Z</time>
      </trkpt>
      <trkpt lat="47.36753" lon="-2.36371">
        <ele>7.1999998092651</ele>
        <time>2021-07-29T09:08:15.000Z</time>
      </trkpt>
      <trkpt lat="47.36747" lon="-2.36381">
        <ele>7.1999998092651</ele>
        <time>2021-07-29T09:08:18.000Z</time>
      </trkpt>
      <trkpt lat="47.36742" lon="-2.36387">
        <ele>7.5999999046326</ele>
        <time>2021-07-29T09:08:20.000Z</time>
      </trkpt>
      <trkpt lat="47.36739" lon="-2.36391">
        <ele>8</ele>
        <time>2021-07-29T09:08:21.000Z</time>
      </trkpt>
      <trkpt lat="47.36736" lon="-2.36395">
        <ele>8.3999996185303</ele>
        <time>2021-07-29T09:08:22.000Z</time>
      </trkpt>
      <trkpt lat="47.36734" lon="-2.36399">
        <ele>8.8000001907349</ele>
        <time>2021-07-29T09:08:23.000Z</time>
      </trkpt>
      <trkpt lat="47.36731" lon="-2.36403">
        <ele>9.1999998092651</ele>
        <time>2021-07-29T09:08:24.000Z</time>
      </trkpt>
      <trkpt lat="47.36712" lon="-2.3643">
        <ele>9.1999998092651</ele>
        <time>2021-07-29T09:08:30.000Z</time>
      </trkpt>
      <trkpt lat="47.36708" lon="-2.36434">
        <ele>9.1999998092651</ele>
        <time>2021-07-29T09:08:31.000Z</time>
      </trkpt>
      <trkpt lat="47.36678" lon="-2.36461">
        <ele>9.1999998092651</ele>
        <time>2021-07-29T09:08:38.000Z</time>
      </trkpt>
      <trkpt lat="47.36665" lon="-2.3647">
        <ele>9.8000001907349</ele>
        <time>2021-07-29T09:08:41.000Z</time>
      </trkpt>
      <trkpt lat="47.3666" lon="-2.36473">
        <ele>10.199999809265</ele>
        <time>2021-07-29T09:08:42.000Z</time>
      </trkpt>
      <trkpt lat="47.36656" lon="-2.36476">
        <ele>11</ele>
        <time>2021-07-29T09:08:43.000Z</time>
      </trkpt>
      <trkpt lat="47.36651" lon="-2.36478">
        <ele>11.39999961853</ele>
        <time>2021-07-29T09:08:44.000Z</time>
      </trkpt>
      <trkpt lat="47.36642" lon="-2.36484">
        <ele>11.39999961853</ele>
        <time>2021-07-29T09:08:46.000Z</time>
      </trkpt>
      <trkpt lat="47.36611" lon="-2.36502">
        <ele>11.39999961853</ele>
        <time>2021-07-29T09:08:53.000Z</time>
      </trkpt>
      <trkpt lat="47.36603" lon="-2.36507">
        <ele>12</ele>
        <time>2021-07-29T09:08:55.000Z</time>
      </trkpt>
      <trkpt lat="47.36599" lon="-2.36509">
        <ele>12.39999961853</ele>
        <time>2021-07-29T09:08:56.000Z</time>
      </trkpt>
      <trkpt lat="47.36595" lon="-2.36511">
        <ele>12.800000190735</ele>
        <time>2021-07-29T09:08:57.000Z</time>
      </trkpt>
      <trkpt lat="47.36591" lon="-2.36512">
        <ele>13.199999809265</ele>
        <time>2021-07-29T09:08:58.000Z</time>
      </trkpt>
      <trkpt lat="47.36588" lon="-2.36514">
        <ele>13.60000038147</ele>
        <time>2021-07-29T09:08:59.000Z</time>
      </trkpt>
      <trkpt lat="47.36584" lon="-2.36515">
        <ele>13.60000038147</ele>
        <time>2021-07-29T09:09:00.000Z</time>
      </trkpt>
      <trkpt lat="47.36571" lon="-2.36514">
        <ele>13.60000038147</ele>
        <time>2021-07-29T09:09:04.000Z</time>
      </trkpt>
      <trkpt lat="47.36569" lon="-2.36509">
        <ele>13.60000038147</ele>
        <time>2021-07-29T09:09:05.000Z</time>
      </trkpt>
      <trkpt lat="47.36564" lon="-2.36499">
        <ele>13.60000038147</ele>
        <time>2021-07-29T09:09:07.000Z</time>
      </trkpt>
      <trkpt lat="47.36548" lon="-2.36459">
        <ele>13.60000038147</ele>
        <time>2021-07-29T09:09:15.000Z</time>
      </trkpt>
      <trkpt lat="47.36534" lon="-2.36423">
        <ele>13.60000038147</ele>
        <time>2021-07-29T09:09:21.000Z</time>
      </trkpt>
      <trkpt lat="47.36532" lon="-2.36416">
        <ele>13.60000038147</ele>
        <time>2021-07-29T09:09:22.000Z</time>
      </trkpt>
      <trkpt lat="47.36522" lon="-2.36382">
        <ele>13.60000038147</ele>
        <time>2021-07-29T09:09:27.000Z</time>
      </trkpt>
      <trkpt lat="47.3651" lon="-2.36342">
        <ele>13.60000038147</ele>
        <time>2021-07-29T09:09:33.000Z</time>
      </trkpt>
      <trkpt lat="47.36503" lon="-2.36322">
        <ele>13.60000038147</ele>
        <time>2021-07-29T09:09:36.000Z</time>
      </trkpt>
      <trkpt lat="47.36501" lon="-2.36316">
        <ele>13.60000038147</ele>
        <time>2021-07-29T09:09:37.000Z</time>
      </trkpt>
      <trkpt lat="47.36495" lon="-2.36299">
        <ele>13.60000038147</ele>
        <time>2021-07-29T09:09:40.000Z</time>
      </trkpt>
      <trkpt lat="47.36484" lon="-2.36263">
        <ele>13.60000038147</ele>
        <time>2021-07-29T09:09:47.000Z</time>
      </trkpt>
      <trkpt lat="47.36473" lon="-2.36229">
        <ele>13.60000038147</ele>
        <time>2021-07-29T09:09:55.000Z</time>
      </trkpt>
      <trkpt lat="47.36471" lon="-2.36223">
        <ele>14</ele>
        <time>2021-07-29T09:09:57.000Z</time>
      </trkpt>
      <trkpt lat="47.3647" lon="-2.36218">
        <ele>14.39999961853</ele>
        <time>2021-07-29T09:09:58.000Z</time>
      </trkpt>
      <trkpt lat="47.36469" lon="-2.36213">
        <ele>14.800000190735</ele>
        <time>2021-07-29T09:09:59.000Z</time>
      </trkpt>
      <trkpt lat="47.36467" lon="-2.36208">
        <ele>15.199999809265</ele>
        <time>2021-07-29T09:10:00.000Z</time>
      </trkpt>
      <trkpt lat="47.36465" lon="-2.36203">
        <ele>15.800000190735</ele>
        <time>2021-07-29T09:10:01.000Z</time>
      </trkpt>
      <trkpt lat="47.36462" lon="-2.36191">
        <ele>15.800000190735</ele>
        <time>2021-07-29T09:10:04.000Z</time>
      </trkpt>
      <trkpt lat="47.36452" lon="-2.3616">
        <ele>15.800000190735</ele>
        <time>2021-07-29T09:10:12.000Z</time>
      </trkpt>
      <trkpt lat="47.36444" lon="-2.36138">
        <ele>15.800000190735</ele>
        <time>2021-07-29T09:10:19.000Z</time>
      </trkpt>
      <trkpt lat="47.36439" lon="-2.36114">
        <ele>15.800000190735</ele>
        <time>2021-07-29T09:10:25.000Z</time>
      </trkpt>
      <trkpt lat="47.36436" lon="-2.36101">
        <ele>15.800000190735</ele>
        <time>2021-07-29T09:10:28.000Z</time>
      </trkpt>
      <trkpt lat="47.3644" lon="-2.36092">
        <ele>15.800000190735</ele>
        <time>2021-07-29T09:10:30.000Z</time>
      </trkpt>
      <trkpt lat="47.36458" lon="-2.36058">
        <ele>15.800000190735</ele>
        <time>2021-07-29T09:10:36.000Z</time>
      </trkpt>
      <trkpt lat="47.3647" lon="-2.36037">
        <ele>15.800000190735</ele>
        <time>2021-07-29T09:10:39.000Z</time>
      </trkpt>
      <trkpt lat="47.3648" lon="-2.36024">
        <ele>15.800000190735</ele>
        <time>2021-07-29T09:10:41.000Z</time>
      </trkpt>
      <trkpt lat="47.36514" lon="-2.35983">
        <ele>14.800000190735</ele>
        <time>2021-07-29T09:10:47.000Z</time>
      </trkpt>
      <trkpt lat="47.3652" lon="-2.35976">
        <ele>14.39999961853</ele>
        <time>2021-07-29T09:10:48.000Z</time>
      </trkpt>
      <trkpt lat="47.36526" lon="-2.35969">
        <ele>14</ele>
        <time>2021-07-29T09:10:49.000Z</time>
      </trkpt>
      <trkpt lat="47.36531" lon="-2.35962">
        <ele>13.60000038147</ele>
        <time>2021-07-29T09:10:50.000Z</time>
      </trkpt>
      <trkpt lat="47.36553" lon="-2.35932">
        <ele>13.60000038147</ele>
        <time>2021-07-29T09:10:54.000Z</time>
      </trkpt>
      <trkpt lat="47.36581" lon="-2.35891">
        <ele>13.60000038147</ele>
        <time>2021-07-29T09:10:59.000Z</time>
      </trkpt>
      <trkpt lat="47.36584" lon="-2.35882">
        <ele>13.199999809265</ele>
        <time>2021-07-29T09:11:00.000Z</time>
      </trkpt>
      <trkpt lat="47.36585" lon="-2.35873">
        <ele>12.800000190735</ele>
        <time>2021-07-29T09:11:01.000Z</time>
      </trkpt>
      <trkpt lat="47.36585" lon="-2.35863">
        <ele>12.39999961853</ele>
        <time>2021-07-29T09:11:02.000Z</time>
      </trkpt>
      <trkpt lat="47.36583" lon="-2.35854">
        <ele>12</ele>
        <time>2021-07-29T09:11:03.000Z</time>
      </trkpt>
      <trkpt lat="47.36581" lon="-2.35844">
        <ele>11.60000038147</ele>
        <time>2021-07-29T09:11:04.000Z</time>
      </trkpt>
      <trkpt lat="47.36579" lon="-2.35833">
        <ele>11.60000038147</ele>
        <time>2021-07-29T09:11:05.000Z</time>
      </trkpt>
      <trkpt lat="47.36565" lon="-2.3577">
        <ele>11.60000038147</ele>
        <time>2021-07-29T09:11:11.000Z</time>
      </trkpt>
      <trkpt lat="47.36539" lon="-2.35697">
        <ele>11.60000038147</ele>
        <time>2021-07-29T09:11:18.000Z</time>
      </trkpt>
      <trkpt lat="47.36535" lon="-2.35687">
        <ele>11.60000038147</ele>
        <time>2021-07-29T09:11:19.000Z</time>
      </trkpt>
      <trkpt lat="47.36508" lon="-2.35607">
        <ele>11.60000038147</ele>
        <time>2021-07-29T09:11:27.000Z</time>
      </trkpt>
      <trkpt lat="47.36505" lon="-2.35597">
        <ele>11.60000038147</ele>
        <time>2021-07-29T09:11:28.000Z</time>
      </trkpt>
      <trkpt lat="47.36484" lon="-2.35536">
        <ele>11.60000038147</ele>
        <time>2021-07-29T09:11:35.000Z</time>
      </trkpt>
      <trkpt lat="47.36479" lon="-2.35521">
        <ele>11.60000038147</ele>
        <time>2021-07-29T09:11:37.000Z</time>
      </trkpt>
      <trkpt lat="47.3648" lon="-2.35505">
        <ele>11.60000038147</ele>
        <time>2021-07-29T09:11:39.000Z</time>
      </trkpt>
      <trkpt lat="47.36492" lon="-2.35484">
        <ele>11.60000038147</ele>
        <time>2021-07-29T09:11:42.000Z</time>
      </trkpt>
      <trkpt lat="47.365" lon="-2.3547">
        <ele>11</ele>
        <time>2021-07-29T09:11:44.000Z</time>
      </trkpt>
      <trkpt lat="47.36505" lon="-2.35463">
        <ele>10.60000038147</ele>
        <time>2021-07-29T09:11:45.000Z</time>
      </trkpt>
      <trkpt lat="47.36509" lon="-2.35456">
        <ele>10.199999809265</ele>
        <time>2021-07-29T09:11:46.000Z</time>
      </trkpt>
      <trkpt lat="47.36514" lon="-2.35449">
        <ele>9.8000001907349</ele>
        <time>2021-07-29T09:11:47.000Z</time>
      </trkpt>
      <trkpt lat="47.36518" lon="-2.35441">
        <ele>9.1999998092651</ele>
        <time>2021-07-29T09:11:48.000Z</time>
      </trkpt>
      <trkpt lat="47.3654" lon="-2.35403">
        <ele>9.1999998092651</ele>
        <time>2021-07-29T09:11:53.000Z</time>
      </trkpt>
      <trkpt lat="47.36563" lon="-2.35366">
        <ele>9.1999998092651</ele>
        <time>2021-07-29T09:11:58.000Z</time>
      </trkpt>
      <trkpt lat="47.36595" lon="-2.35312">
        <ele>9.1999998092651</ele>
        <time>2021-07-29T09:12:05.000Z</time>
      </trkpt>
      <trkpt lat="47.36618" lon="-2.35275">
        <ele>9.1999998092651</ele>
        <time>2021-07-29T09:12:10.000Z</time>
      </trkpt>
      <trkpt lat="47.36633" lon="-2.35251">
        <ele>8.8000001907349</ele>
        <time>2021-07-29T09:12:14.000Z</time>
      </trkpt>
      <trkpt lat="47.36636" lon="-2.35245">
        <ele>8.3999996185303</ele>
        <time>2021-07-29T09:12:15.000Z</time>
      </trkpt>
      <trkpt lat="47.36639" lon="-2.35239">
        <ele>8</ele>
        <time>2021-07-29T09:12:16.000Z</time>
      </trkpt>
      <trkpt lat="47.3664" lon="-2.35231">
        <ele>7.5999999046326</ele>
        <time>2021-07-29T09:12:17.000Z</time>
      </trkpt>
      <trkpt lat="47.36639" lon="-2.35224">
        <ele>7.1999998092651</ele>
        <time>2021-07-29T09:12:18.000Z</time>
      </trkpt>
      <trkpt lat="47.36628" lon="-2.35203">
        <ele>7.1999998092651</ele>
        <time>2021-07-29T09:12:21.000Z</time>
      </trkpt>
      <trkpt lat="47.36597" lon="-2.35152">
        <ele>7.1999998092651</ele>
        <time>2021-07-29T09:12:28.000Z</time>
      </trkpt>
      <trkpt lat="47.36585" lon="-2.35132">
        <ele>7.1999998092651</ele>
        <time>2021-07-29T09:12:31.000Z</time>
      </trkpt>
      <trkpt lat="47.36577" lon="-2.35119">
        <ele>7.1999998092651</ele>
        <time>2021-07-29T09:12:33.000Z</time>
      </trkpt>
      <trkpt lat="47.36551" lon="-2.35076">
        <ele>7.1999998092651</ele>
        <time>2021-07-29T09:12:40.000Z</time>
      </trkpt>
      <trkpt lat="47.36535" lon="-2.35049">
        <ele>7.1999998092651</ele>
        <time>2021-07-29T09:12:45.000Z</time>
      </trkpt>
      <trkpt lat="47.36531" lon="-2.35044">
        <ele>7.5999999046326</ele>
        <time>2021-07-29T09:12:46.000Z</time>
      </trkpt>
      <trkpt lat="47.36527" lon="-2.35038">
        <ele>8.1999998092651</ele>
        <time>2021-07-29T09:12:47.000Z</time>
      </trkpt>
      <trkpt lat="47.36524" lon="-2.35033">
        <ele>8.6000003814697</ele>
        <time>2021-07-29T09:12:48.000Z</time>
      </trkpt>
      <trkpt lat="47.3652" lon="-2.35028">
        <ele>9</ele>
        <time>2021-07-29T09:12:49.000Z</time>
      </trkpt>
      <trkpt lat="47.36517" lon="-2.35023">
        <ele>9.3999996185303</ele>
        <time>2021-07-29T09:12:50.000Z</time>
      </trkpt>
      <trkpt lat="47.36511" lon="-2.35013">
        <ele>9.3999996185303</ele>
        <time>2021-07-29T09:12:52.000Z</time>
      </trkpt>
      <trkpt lat="47.365" lon="-2.34993">
        <ele>9.3999996185303</ele>
        <time>2021-07-29T09:12:58.000Z</time>
      </trkpt>
      <trkpt lat="47.36495" lon="-2.34988">
        <ele>9.3999996185303</ele>
        <time>2021-07-29T09:13:02.000Z</time>
      </trkpt>
      <trkpt lat="47.36493" lon="-2.34989">
        <ele>9.3999996185303</ele>
        <time>2021-07-29T09:13:03.000Z</time>
      </trkpt>
      <trkpt lat="47.36493" lon="-2.34996">
        <ele>9.3999996185303</ele>
        <time>2021-07-29T09:13:07.000Z</time>
      </trkpt>
      <trkpt lat="47.365" lon="-2.3501">
        <ele>9.3999996185303</ele>
        <time>2021-07-29T09:13:11.000Z</time>
      </trkpt>
      <trkpt lat="47.36516" lon="-2.35035">
        <ele>9.3999996185303</ele>
        <time>2021-07-29T09:13:17.000Z</time>
      </trkpt>
      <trkpt lat="47.36523" lon="-2.35049">
        <ele>9.3999996185303</ele>
        <time>2021-07-29T09:13:21.000Z</time>
      </trkpt>
      <trkpt lat="47.36535" lon="-2.35066">
        <ele>9.3999996185303</ele>
        <time>2021-07-29T09:13:26.000Z</time>
      </trkpt>
      <trkpt lat="47.3655" lon="-2.35088">
        <ele>9.3999996185303</ele>
        <time>2021-07-29T09:13:32.000Z</time>
      </trkpt>
      <trkpt lat="47.36544" lon="-2.35094">
        <ele>9.3999996185303</ele>
        <time>2021-07-29T09:13:35.000Z</time>
      </trkpt>
      <trkpt lat="47.36537" lon="-2.35095">
        <ele>9.3999996185303</ele>
        <time>2021-07-29T09:13:37.000Z</time>
      </trkpt>
      <trkpt lat="47.36524" lon="-2.35098">
        <ele>9.3999996185303</ele>
        <time>2021-07-29T09:13:40.000Z</time>
      </trkpt>
      <trkpt lat="47.36505" lon="-2.35104">
        <ele>9.3999996185303</ele>
        <time>2021-07-29T09:13:45.000Z</time>
      </trkpt>
      <trkpt lat="47.3649" lon="-2.35101">
        <ele>9.3999996185303</ele>
        <time>2021-07-29T09:13:49.000Z</time>
      </trkpt>
      <trkpt lat="47.36453" lon="-2.35082">
        <ele>9.3999996185303</ele>
        <time>2021-07-29T09:13:58.000Z</time>
      </trkpt>
      <trkpt lat="47.36434" lon="-2.35074">
        <ele>9.3999996185303</ele>
        <time>2021-07-29T09:14:05.000Z</time>
      </trkpt>
      <trkpt lat="47.36428" lon="-2.35069">
        <ele>9.3999996185303</ele>
        <time>2021-07-29T09:14:09.000Z</time>
      </trkpt>
      <trkpt lat="47.36412" lon="-2.35073">
        <ele>9.3999996185303</ele>
        <time>2021-07-29T09:14:53.000Z</time>
      </trkpt>
      <trkpt lat="47.36409" lon="-2.35076">
        <ele>9.3999996185303</ele>
        <time>2021-07-29T09:14:58.000Z</time>
      </trkpt>
      <trkpt lat="47.36398" lon="-2.35078">
        <ele>9.3999996185303</ele>
        <time>2021-07-29T09:15:05.000Z</time>
      </trkpt>
      <trkpt lat="47.3639" lon="-2.35069">
        <ele>9.3999996185303</ele>
        <time>2021-07-29T09:15:10.000Z</time>
      </trkpt>
      <trkpt lat="47.36384" lon="-2.35053">
        <ele>9.3999996185303</ele>
        <time>2021-07-29T09:15:16.000Z</time>
      </trkpt>
      <trkpt lat="47.36382" lon="-2.35038">
        <ele>9.3999996185303</ele>
        <time>2021-07-29T09:15:22.000Z</time>
      </trkpt>
      <trkpt lat="47.36378" lon="-2.35028">
        <ele>9.3999996185303</ele>
        <time>2021-07-29T09:15:28.000Z</time>
      </trkpt>
      <trkpt lat="47.36379" lon="-2.35026">
        <ele>9.3999996185303</ele>
        <time>2021-07-29T09:15:30.000Z</time>
      </trkpt>
      <trkpt lat="47.36381" lon="-2.35027">
        <ele>9.3999996185303</ele>
        <time>2021-07-29T09:15:32.000Z</time>
      </trkpt>
      <trkpt lat="47.36377" lon="-2.35034">
        <ele>9.3999996185303</ele>
        <time>2021-07-29T09:15:36.000Z</time>
      </trkpt>
      <trkpt lat="47.36361" lon="-2.35032">
        <ele>9.3999996185303</ele>
        <time>2021-07-29T09:15:41.000Z</time>
      </trkpt>
      <trkpt lat="47.36342" lon="-2.35026">
        <ele>9.3999996185303</ele>
        <time>2021-07-29T09:15:47.000Z</time>
      </trkpt>
      <trkpt lat="47.36336" lon="-2.35023">
        <ele>9.3999996185303</ele>
        <time>2021-07-29T09:15:51.000Z</time>
      </trkpt>
      <trkpt lat="47.36334" lon="-2.35025">
        <ele>9.3999996185303</ele>
        <time>2021-07-29T09:16:08.000Z</time>
      </trkpt>
      <trkpt lat="47.36332" lon="-2.35025">
        <ele>9.3999996185303</ele>
        <time>2021-07-29T09:16:09.000Z</time>
      </trkpt>
      <trkpt lat="47.36327" lon="-2.35028">
        <ele>9.3999996185303</ele>
        <time>2021-07-29T09:16:12.000Z</time>
      </trkpt>
      <trkpt lat="47.36321" lon="-2.35029">
        <ele>9.3999996185303</ele>
        <time>2021-07-29T09:16:15.000Z</time>
      </trkpt>
      <trkpt lat="47.36319" lon="-2.35028">
        <ele>9.3999996185303</ele>
        <time>2021-07-29T09:16:16.000Z</time>
      </trkpt>
      <trkpt lat="47.36314" lon="-2.35021">
        <ele>9.3999996185303</ele>
        <time>2021-07-29T09:16:20.000Z</time>
      </trkpt>
      <trkpt lat="47.36306" lon="-2.35012">
        <ele>9.3999996185303</ele>
        <time>2021-07-29T09:16:26.000Z</time>
      </trkpt>
      <trkpt lat="47.36305" lon="-2.35012">
        <ele>9.3999996185303</ele>
        <time>2021-07-29T09:16:27.000Z</time>
      </trkpt>
      <trkpt lat="47.36303" lon="-2.3501">
        <ele>9.3999996185303</ele>
        <time>2021-07-29T09:16:38.000Z</time>
      </trkpt>
      <trkpt lat="47.36298" lon="-2.35007">
        <ele>9.3999996185303</ele>
        <time>2021-07-29T09:16:40.000Z</time>
      </trkpt>
      <trkpt lat="47.3629" lon="-2.34986">
        <ele>9.3999996185303</ele>
        <time>2021-07-29T09:16:44.000Z</time>
      </trkpt>
      <trkpt lat="47.36285" lon="-2.34954">
        <ele>9.8000001907349</ele>
        <time>2021-07-29T09:16:49.000Z</time>
      </trkpt>
      <trkpt lat="47.36284" lon="-2.34948">
        <ele>10.199999809265</ele>
        <time>2021-07-29T09:16:50.000Z</time>
      </trkpt>
      <trkpt lat="47.36283" lon="-2.34941">
        <ele>10.60000038147</ele>
        <time>2021-07-29T09:16:51.000Z</time>
      </trkpt>
      <trkpt lat="47.36281" lon="-2.34936">
        <ele>11</ele>
        <time>2021-07-29T09:16:52.000Z</time>
      </trkpt>
      <trkpt lat="47.36277" lon="-2.34932">
        <ele>11.39999961853</ele>
        <time>2021-07-29T09:16:53.000Z</time>
      </trkpt>
      <trkpt lat="47.36273" lon="-2.34933">
        <ele>11.39999961853</ele>
        <time>2021-07-29T09:16:54.000Z</time>
      </trkpt>
      <trkpt lat="47.36264" lon="-2.34948">
        <ele>11.39999961853</ele>
        <time>2021-07-29T09:16:57.000Z</time>
      </trkpt>
      <trkpt lat="47.36262" lon="-2.34954">
        <ele>11.39999961853</ele>
        <time>2021-07-29T09:16:58.000Z</time>
      </trkpt>
      <trkpt lat="47.36251" lon="-2.34977">
        <ele>11.39999961853</ele>
        <time>2021-07-29T09:17:02.000Z</time>
      </trkpt>
      <trkpt lat="47.36244" lon="-2.34995">
        <ele>11.39999961853</ele>
        <time>2021-07-29T09:17:05.000Z</time>
      </trkpt>
      <trkpt lat="47.36225" lon="-2.35034">
        <ele>11.39999961853</ele>
        <time>2021-07-29T09:17:11.000Z</time>
      </trkpt>
      <trkpt lat="47.36199" lon="-2.35067">
        <ele>11.39999961853</ele>
        <time>2021-07-29T09:17:17.000Z</time>
      </trkpt>
      <trkpt lat="47.36165" lon="-2.35102">
        <ele>11.39999961853</ele>
        <time>2021-07-29T09:17:24.000Z</time>
      </trkpt>
      <trkpt lat="47.36131" lon="-2.35139">
        <ele>11.39999961853</ele>
        <time>2021-07-29T09:17:31.000Z</time>
      </trkpt>
      <trkpt lat="47.36115" lon="-2.3516">
        <ele>11.39999961853</ele>
        <time>2021-07-29T09:17:35.000Z</time>
      </trkpt>
      <trkpt lat="47.36108" lon="-2.35169">
        <ele>11.39999961853</ele>
        <time>2021-07-29T09:17:37.000Z</time>
      </trkpt>
      <trkpt lat="47.36104" lon="-2.35172">
        <ele>11.39999961853</ele>
        <time>2021-07-29T09:17:38.000Z</time>
      </trkpt>
      <trkpt lat="47.36095" lon="-2.35173">
        <ele>11.39999961853</ele>
        <time>2021-07-29T09:17:40.000Z</time>
      </trkpt>
      <trkpt lat="47.36091" lon="-2.35162">
        <ele>11.39999961853</ele>
        <time>2021-07-29T09:17:42.000Z</time>
      </trkpt>
      <trkpt lat="47.36092" lon="-2.35134">
        <ele>11.39999961853</ele>
        <time>2021-07-29T09:17:46.000Z</time>
      </trkpt>
      <trkpt lat="47.36095" lon="-2.3509">
        <ele>11.39999961853</ele>
        <time>2021-07-29T09:17:52.000Z</time>
      </trkpt>
      <trkpt lat="47.36098" lon="-2.35043">
        <ele>11.39999961853</ele>
        <time>2021-07-29T09:17:59.000Z</time>
      </trkpt>
      <trkpt lat="47.36096" lon="-2.34993">
        <ele>11.39999961853</ele>
        <time>2021-07-29T09:18:06.000Z</time>
      </trkpt>
      <trkpt lat="47.36089" lon="-2.3495">
        <ele>11.39999961853</ele>
        <time>2021-07-29T09:18:12.000Z</time>
      </trkpt>
      <trkpt lat="47.36088" lon="-2.34936">
        <ele>11.39999961853</ele>
        <time>2021-07-29T09:18:14.000Z</time>
      </trkpt>
      <trkpt lat="47.36087" lon="-2.3491">
        <ele>11.39999961853</ele>
        <time>2021-07-29T09:18:18.000Z</time>
      </trkpt>
      <trkpt lat="47.36086" lon="-2.34885">
        <ele>11.39999961853</ele>
        <time>2021-07-29T09:18:22.000Z</time>
      </trkpt>
      <trkpt lat="47.36084" lon="-2.34879">
        <ele>11.39999961853</ele>
        <time>2021-07-29T09:18:23.000Z</time>
      </trkpt>
      <trkpt lat="47.36071" lon="-2.34871">
        <ele>11.39999961853</ele>
        <time>2021-07-29T09:18:26.000Z</time>
      </trkpt>
      <trkpt lat="47.3606" lon="-2.34872">
        <ele>11.39999961853</ele>
        <time>2021-07-29T09:18:28.000Z</time>
      </trkpt>
      <trkpt lat="47.36048" lon="-2.34871">
        <ele>11.39999961853</ele>
        <time>2021-07-29T09:18:30.000Z</time>
      </trkpt>
      <trkpt lat="47.36026" lon="-2.3487">
        <ele>11.800000190735</ele>
        <time>2021-07-29T09:18:34.000Z</time>
      </trkpt>
      <trkpt lat="47.3602" lon="-2.34869">
        <ele>12.60000038147</ele>
        <time>2021-07-29T09:18:35.000Z</time>
      </trkpt>
      <trkpt lat="47.36015" lon="-2.34869">
        <ele>13</ele>
        <time>2021-07-29T09:18:36.000Z</time>
      </trkpt>
      <trkpt lat="47.36009" lon="-2.34868">
        <ele>13.39999961853</ele>
        <time>2021-07-29T09:18:37.000Z</time>
      </trkpt>
      <trkpt lat="47.35993" lon="-2.34867">
        <ele>13.39999961853</ele>
        <time>2021-07-29T09:18:40.000Z</time>
      </trkpt>
      <trkpt lat="47.3595" lon="-2.34863">
        <ele>13.39999961853</ele>
        <time>2021-07-29T09:18:48.000Z</time>
      </trkpt>
      <trkpt lat="47.35928" lon="-2.34858">
        <ele>13.39999961853</ele>
        <time>2021-07-29T09:18:52.000Z</time>
      </trkpt>
      <trkpt lat="47.35922" lon="-2.34854">
        <ele>13.39999961853</ele>
        <time>2021-07-29T09:18:53.000Z</time>
      </trkpt>
      <trkpt lat="47.3591" lon="-2.34834">
        <ele>13.39999961853</ele>
        <time>2021-07-29T09:18:56.000Z</time>
      </trkpt>
      <trkpt lat="47.35901" lon="-2.34813">
        <ele>13.39999961853</ele>
        <time>2021-07-29T09:18:59.000Z</time>
      </trkpt>
      <trkpt lat="47.35892" lon="-2.34791">
        <ele>13.39999961853</ele>
        <time>2021-07-29T09:19:02.000Z</time>
      </trkpt>
      <trkpt lat="47.35869" lon="-2.34736">
        <ele>13.39999961853</ele>
        <time>2021-07-29T09:19:10.000Z</time>
      </trkpt>
      <trkpt lat="47.35847" lon="-2.34682">
        <ele>13.39999961853</ele>
        <time>2021-07-29T09:19:18.000Z</time>
      </trkpt>
      <trkpt lat="47.35827" lon="-2.34637">
        <ele>13.39999961853</ele>
        <time>2021-07-29T09:19:24.000Z</time>
      </trkpt>
      <trkpt lat="47.35808" lon="-2.34593">
        <ele>13.39999961853</ele>
        <time>2021-07-29T09:19:30.000Z</time>
      </trkpt>
      <trkpt lat="47.35803" lon="-2.34579">
        <ele>13.39999961853</ele>
        <time>2021-07-29T09:19:32.000Z</time>
      </trkpt>
      <trkpt lat="47.35798" lon="-2.34554">
        <ele>13.39999961853</ele>
        <time>2021-07-29T09:19:35.000Z</time>
      </trkpt>
      <trkpt lat="47.35791" lon="-2.34497">
        <ele>13.39999961853</ele>
        <time>2021-07-29T09:19:41.000Z</time>
      </trkpt>
      <trkpt lat="47.35782" lon="-2.34428">
        <ele>13.39999961853</ele>
        <time>2021-07-29T09:19:48.000Z</time>
      </trkpt>
      <trkpt lat="47.35776" lon="-2.34372">
        <ele>13.39999961853</ele>
        <time>2021-07-29T09:19:54.000Z</time>
      </trkpt>
      <trkpt lat="47.3577" lon="-2.3433">
        <ele>13.800000190735</ele>
        <time>2021-07-29T09:19:59.000Z</time>
      </trkpt>
      <trkpt lat="47.35769" lon="-2.34322">
        <ele>14.199999809265</ele>
        <time>2021-07-29T09:20:00.000Z</time>
      </trkpt>
      <trkpt lat="47.35768" lon="-2.34315">
        <ele>14.60000038147</ele>
        <time>2021-07-29T09:20:01.000Z</time>
      </trkpt>
      <trkpt lat="47.35767" lon="-2.34307">
        <ele>15</ele>
        <time>2021-07-29T09:20:02.000Z</time>
      </trkpt>
      <trkpt lat="47.35766" lon="-2.343">
        <ele>15.60000038147</ele>
        <time>2021-07-29T09:20:03.000Z</time>
      </trkpt>
      <trkpt lat="47.35765" lon="-2.3427">
        <ele>15.60000038147</ele>
        <time>2021-07-29T09:20:07.000Z</time>
      </trkpt>
      <trkpt lat="47.35766" lon="-2.34235">
        <ele>16</ele>
        <time>2021-07-29T09:20:12.000Z</time>
      </trkpt>
      <trkpt lat="47.35766" lon="-2.34229">
        <ele>16.39999961853</ele>
        <time>2021-07-29T09:20:13.000Z</time>
      </trkpt>
      <trkpt lat="47.35766" lon="-2.34223">
        <ele>16.799999237061</ele>
        <time>2021-07-29T09:20:14.000Z</time>
      </trkpt>
      <trkpt lat="47.35766" lon="-2.34218">
        <ele>17.60000038147</ele>
        <time>2021-07-29T09:20:15.000Z</time>
      </trkpt>
      <trkpt lat="47.35765" lon="-2.34208">
        <ele>17.60000038147</ele>
        <time>2021-07-29T09:20:17.000Z</time>
      </trkpt>
      <trkpt lat="47.35762" lon="-2.34205">
        <ele>17.60000038147</ele>
        <time>2021-07-29T09:20:18.000Z</time>
      </trkpt>
      <trkpt lat="47.3575" lon="-2.34204">
        <ele>17.60000038147</ele>
        <time>2021-07-29T09:20:21.000Z</time>
      </trkpt>
      <trkpt lat="47.35723" lon="-2.34211">
        <ele>17.60000038147</ele>
        <time>2021-07-29T09:20:26.000Z</time>
      </trkpt>
      <trkpt lat="47.35711" lon="-2.34212">
        <ele>17.60000038147</ele>
        <time>2021-07-29T09:20:28.000Z</time>
      </trkpt>
      <trkpt lat="47.35698" lon="-2.3421">
        <ele>17.60000038147</ele>
        <time>2021-07-29T09:20:30.000Z</time>
      </trkpt>
      <trkpt lat="47.35655" lon="-2.342">
        <ele>17.60000038147</ele>
        <time>2021-07-29T09:20:36.000Z</time>
      </trkpt>
      <trkpt lat="47.35648" lon="-2.34198">
        <ele>17.200000762939</ele>
        <time>2021-07-29T09:20:37.000Z</time>
      </trkpt>
      <trkpt lat="47.3564" lon="-2.34197">
        <ele>16.799999237061</ele>
        <time>2021-07-29T09:20:38.000Z</time>
      </trkpt>
      <trkpt lat="47.35633" lon="-2.34195">
        <ele>16</ele>
        <time>2021-07-29T09:20:39.000Z</time>
      </trkpt>
      <trkpt lat="47.35626" lon="-2.34192">
        <ele>15.60000038147</ele>
        <time>2021-07-29T09:20:40.000Z</time>
      </trkpt>
      <trkpt lat="47.35604" lon="-2.34188">
        <ele>15.60000038147</ele>
        <time>2021-07-29T09:20:43.000Z</time>
      </trkpt>
      <trkpt lat="47.35584" lon="-2.34186">
        <ele>15.60000038147</ele>
        <time>2021-07-29T09:20:46.000Z</time>
      </trkpt>
      <trkpt lat="47.35578" lon="-2.34184">
        <ele>15.199999809265</ele>
        <time>2021-07-29T09:20:47.000Z</time>
      </trkpt>
      <trkpt lat="47.35573" lon="-2.34186">
        <ele>14.800000190735</ele>
        <time>2021-07-29T09:20:48.000Z</time>
      </trkpt>
      <trkpt lat="47.35569" lon="-2.3419">
        <ele>14.199999809265</ele>
        <time>2021-07-29T09:20:49.000Z</time>
      </trkpt>
      <trkpt lat="47.35566" lon="-2.34196">
        <ele>13.800000190735</ele>
        <time>2021-07-29T09:20:50.000Z</time>
      </trkpt>
      <trkpt lat="47.35565" lon="-2.34205">
        <ele>13.39999961853</ele>
        <time>2021-07-29T09:20:51.000Z</time>
      </trkpt>
      <trkpt lat="47.35564" lon="-2.34222">
        <ele>13.39999961853</ele>
        <time>2021-07-29T09:20:53.000Z</time>
      </trkpt>
      <trkpt lat="47.35563" lon="-2.3425">
        <ele>13.39999961853</ele>
        <time>2021-07-29T09:20:56.000Z</time>
      </trkpt>
      <trkpt lat="47.35561" lon="-2.34287">
        <ele>13</ele>
        <time>2021-07-29T09:21:00.000Z</time>
      </trkpt>
      <trkpt lat="47.3556" lon="-2.34296">
        <ele>12.60000038147</ele>
        <time>2021-07-29T09:21:01.000Z</time>
      </trkpt>
      <trkpt lat="47.35559" lon="-2.34306">
        <ele>12.199999809265</ele>
        <time>2021-07-29T09:21:02.000Z</time>
      </trkpt>
      <trkpt lat="47.35558" lon="-2.34316">
        <ele>11.800000190735</ele>
        <time>2021-07-29T09:21:03.000Z</time>
      </trkpt>
      <trkpt lat="47.35557" lon="-2.34326">
        <ele>11.39999961853</ele>
        <time>2021-07-29T09:21:04.000Z</time>
      </trkpt>
      <trkpt lat="47.35546" lon="-2.34392">
        <ele>11.39999961853</ele>
        <time>2021-07-29T09:21:11.000Z</time>
      </trkpt>
      <trkpt lat="47.35533" lon="-2.34461">
        <ele>11.39999961853</ele>
        <time>2021-07-29T09:21:18.000Z</time>
      </trkpt>
      <trkpt lat="47.35527" lon="-2.34507">
        <ele>11</ele>
        <time>2021-07-29T09:21:22.000Z</time>
      </trkpt>
      <trkpt lat="47.35525" lon="-2.34519">
        <ele>10.39999961853</ele>
        <time>2021-07-29T09:21:23.000Z</time>
      </trkpt>
      <trkpt lat="47.35522" lon="-2.3453">
        <ele>10</ele>
        <time>2021-07-29T09:21:24.000Z</time>
      </trkpt>
      <trkpt lat="47.35519" lon="-2.34541">
        <ele>9.3999996185303</ele>
        <time>2021-07-29T09:21:25.000Z</time>
      </trkpt>
      <trkpt lat="47.35515" lon="-2.34552">
        <ele>9</ele>
        <time>2021-07-29T09:21:26.000Z</time>
      </trkpt>
      <trkpt lat="47.35503" lon="-2.3458">
        <ele>9</ele>
        <time>2021-07-29T09:21:29.000Z</time>
      </trkpt>
      <trkpt lat="47.35478" lon="-2.34631">
        <ele>9</ele>
        <time>2021-07-29T09:21:35.000Z</time>
      </trkpt>
      <trkpt lat="47.35471" lon="-2.34648">
        <ele>9</ele>
        <time>2021-07-29T09:21:37.000Z</time>
      </trkpt>
      <trkpt lat="47.35461" lon="-2.34671">
        <ele>9</ele>
        <time>2021-07-29T09:21:40.000Z</time>
      </trkpt>
      <trkpt lat="47.35451" lon="-2.34701">
        <ele>9</ele>
        <time>2021-07-29T09:21:44.000Z</time>
      </trkpt>
      <trkpt lat="47.35449" lon="-2.34707">
        <ele>9</ele>
        <time>2021-07-29T09:21:45.000Z</time>
      </trkpt>
      <trkpt lat="47.35441" lon="-2.34708">
        <ele>9</ele>
        <time>2021-07-29T09:21:47.000Z</time>
      </trkpt>
      <trkpt lat="47.35434" lon="-2.34697">
        <ele>9</ele>
        <time>2021-07-29T09:21:50.000Z</time>
      </trkpt>
      <trkpt lat="47.35428" lon="-2.34689">
        <ele>9.3999996185303</ele>
        <time>2021-07-29T09:21:52.000Z</time>
      </trkpt>
      <trkpt lat="47.35425" lon="-2.34683">
        <ele>10.199999809265</ele>
        <time>2021-07-29T09:21:53.000Z</time>
      </trkpt>
      <trkpt lat="47.35421" lon="-2.34677">
        <ele>10.60000038147</ele>
        <time>2021-07-29T09:21:54.000Z</time>
      </trkpt>
      <trkpt lat="47.35418" lon="-2.3467">
        <ele>11</ele>
        <time>2021-07-29T09:21:55.000Z</time>
      </trkpt>
      <trkpt lat="47.35405" lon="-2.34628">
        <ele>11</ele>
        <time>2021-07-29T09:22:00.000Z</time>
      </trkpt>
      <trkpt lat="47.35381" lon="-2.34565">
        <ele>11</ele>
        <time>2021-07-29T09:22:07.000Z</time>
      </trkpt>
      <trkpt lat="47.35351" lon="-2.34507">
        <ele>11</ele>
        <time>2021-07-29T09:22:14.000Z</time>
      </trkpt>
      <trkpt lat="47.35321" lon="-2.3448">
        <ele>11</ele>
        <time>2021-07-29T09:22:19.000Z</time>
      </trkpt>
      <trkpt lat="47.35302" lon="-2.3447">
        <ele>10.60000038147</ele>
        <time>2021-07-29T09:22:22.000Z</time>
      </trkpt>
      <trkpt lat="47.35295" lon="-2.34468">
        <ele>10.199999809265</ele>
        <time>2021-07-29T09:22:23.000Z</time>
      </trkpt>
      <trkpt lat="47.35288" lon="-2.34467">
        <ele>9.8000001907349</ele>
        <time>2021-07-29T09:22:24.000Z</time>
      </trkpt>
      <trkpt lat="47.35281" lon="-2.34469">
        <ele>9.3999996185303</ele>
        <time>2021-07-29T09:22:25.000Z</time>
      </trkpt>
      <trkpt lat="47.35273" lon="-2.34472">
        <ele>9</ele>
        <time>2021-07-29T09:22:26.000Z</time>
      </trkpt>
      <trkpt lat="47.35265" lon="-2.34475">
        <ele>9</ele>
        <time>2021-07-29T09:22:27.000Z</time>
      </trkpt>
      <trkpt lat="47.35223" lon="-2.34495">
        <ele>9</ele>
        <time>2021-07-29T09:22:33.000Z</time>
      </trkpt>
      <trkpt lat="47.35169" lon="-2.34518">
        <ele>9</ele>
        <time>2021-07-29T09:22:41.000Z</time>
      </trkpt>
      <trkpt lat="47.35134" lon="-2.34532">
        <ele>9.6000003814697</ele>
        <time>2021-07-29T09:22:47.000Z</time>
      </trkpt>
      <trkpt lat="47.35127" lon="-2.34534">
        <ele>10</ele>
        <time>2021-07-29T09:22:48.000Z</time>
      </trkpt>
      <trkpt lat="47.35121" lon="-2.34536">
        <ele>10.39999961853</ele>
        <time>2021-07-29T09:22:49.000Z</time>
      </trkpt>
      <trkpt lat="47.35115" lon="-2.34539">
        <ele>11</ele>
        <time>2021-07-29T09:22:50.000Z</time>
      </trkpt>
      <trkpt lat="47.3511" lon="-2.34541">
        <ele>11.39999961853</ele>
        <time>2021-07-29T09:22:51.000Z</time>
      </trkpt>
      <trkpt lat="47.35104" lon="-2.34543">
        <ele>11.39999961853</ele>
        <time>2021-07-29T09:22:52.000Z</time>
      </trkpt>
      <trkpt lat="47.35092" lon="-2.34547">
        <ele>11.39999961853</ele>
        <time>2021-07-29T09:22:56.000Z</time>
      </trkpt>
      <trkpt lat="47.35085" lon="-2.34548">
        <ele>11.39999961853</ele>
        <time>2021-07-29T09:23:01.000Z</time>
      </trkpt>
      <trkpt lat="47.35083" lon="-2.34544">
        <ele>11.39999961853</ele>
        <time>2021-07-29T09:23:04.000Z</time>
      </trkpt>
      <trkpt lat="47.35083" lon="-2.34538">
        <ele>11.39999961853</ele>
        <time>2021-07-29T09:23:07.000Z</time>
      </trkpt>
      <trkpt lat="47.35077" lon="-2.34524">
        <ele>11.39999961853</ele>
        <time>2021-07-29T09:23:12.000Z</time>
      </trkpt>
      <trkpt lat="47.35076" lon="-2.34521">
        <ele>11</ele>
        <time>2021-07-29T09:23:13.000Z</time>
      </trkpt>
      <trkpt lat="47.35074" lon="-2.34518">
        <ele>10.60000038147</ele>
        <time>2021-07-29T09:23:14.000Z</time>
      </trkpt>
      <trkpt lat="47.35073" lon="-2.34516">
        <ele>10.199999809265</ele>
        <time>2021-07-29T09:23:15.000Z</time>
      </trkpt>
      <trkpt lat="47.35073" lon="-2.34515">
        <ele>9.6000003814697</ele>
        <time>2021-07-29T09:23:16.000Z</time>
      </trkpt>
      <trkpt lat="47.35072" lon="-2.34514">
        <ele>9.1999998092651</ele>
        <time>2021-07-29T09:23:17.000Z</time>
      </trkpt>
      <trkpt lat="47.35067" lon="-2.34505">
        <ele>8.8000001907349</ele>
        <time>2021-07-29T09:23:23.000Z</time>
      </trkpt>
      <trkpt lat="47.35067" lon="-2.34504">
        <ele>8.3999996185303</ele>
        <time>2021-07-29T09:23:24.000Z</time>
      </trkpt>
      <trkpt lat="47.35066" lon="-2.34504">
        <ele>8</ele>
        <time>2021-07-29T09:23:25.000Z</time>
      </trkpt>
      <trkpt lat="47.35041" lon="-2.34494">
        <ele>5.1999998092651</ele>
        <time>2021-07-29T09:26:02.000Z</time>
      </trkpt>
      <trkpt lat="47.35039" lon="-2.34491">
        <ele>5.1999998092651</ele>
        <time>2021-07-29T09:26:04.000Z</time>
      </trkpt>
      <trkpt lat="47.3503" lon="-2.34478">
        <ele>5.1999998092651</ele>
        <time>2021-07-29T09:26:09.000Z</time>
      </trkpt>
      <trkpt lat="47.3502" lon="-2.34474">
        <ele>5.1999998092651</ele>
        <time>2021-07-29T09:26:14.000Z</time>
      </trkpt>
      <trkpt lat="47.35017" lon="-2.34472">
        <ele>5.5999999046326</ele>
        <time>2021-07-29T09:26:15.000Z</time>
      </trkpt>
      <trkpt lat="47.35015" lon="-2.3447">
        <ele>6</ele>
        <time>2021-07-29T09:26:16.000Z</time>
      </trkpt>
      <trkpt lat="47.35013" lon="-2.34467">
        <ele>6.5999999046326</ele>
        <time>2021-07-29T09:26:17.000Z</time>
      </trkpt>
      <trkpt lat="47.35011" lon="-2.34462">
        <ele>7</ele>
        <time>2021-07-29T09:26:18.000Z</time>
      </trkpt>
      <trkpt lat="47.3501" lon="-2.34458">
        <ele>7.4000000953674</ele>
        <time>2021-07-29T09:26:19.000Z</time>
      </trkpt>
      <trkpt lat="47.35007" lon="-2.34449">
        <ele>7.8000001907349</ele>
        <time>2021-07-29T09:26:21.000Z</time>
      </trkpt>
      <trkpt lat="47.35005" lon="-2.34444">
        <ele>8.3999996185303</ele>
        <time>2021-07-29T09:26:22.000Z</time>
      </trkpt>
      <trkpt lat="47.35004" lon="-2.3444">
        <ele>8.8000001907349</ele>
        <time>2021-07-29T09:26:23.000Z</time>
      </trkpt>
      <trkpt lat="47.35003" lon="-2.34435">
        <ele>9.1999998092651</ele>
        <time>2021-07-29T09:26:24.000Z</time>
      </trkpt>
      <trkpt lat="47.35002" lon="-2.3443">
        <ele>9.6000003814697</ele>
        <time>2021-07-29T09:26:25.000Z</time>
      </trkpt>
      <trkpt lat="47.34997" lon="-2.34409">
        <ele>9.6000003814697</ele>
        <time>2021-07-29T09:26:30.000Z</time>
      </trkpt>
      <trkpt lat="47.34994" lon="-2.34399">
        <ele>10</ele>
        <time>2021-07-29T09:26:33.000Z</time>
      </trkpt>
      <trkpt lat="47.34993" lon="-2.34396">
        <ele>10.39999961853</ele>
        <time>2021-07-29T09:26:34.000Z</time>
      </trkpt>
      <trkpt lat="47.34991" lon="-2.34392">
        <ele>10.800000190735</ele>
        <time>2021-07-29T09:26:35.000Z</time>
      </trkpt>
      <trkpt lat="47.3499" lon="-2.34388">
        <ele>11.39999961853</ele>
        <time>2021-07-29T09:26:36.000Z</time>
      </trkpt>
      <trkpt lat="47.34989" lon="-2.34384">
        <ele>11.800000190735</ele>
        <time>2021-07-29T09:26:37.000Z</time>
      </trkpt>
      <trkpt lat="47.34983" lon="-2.34375">
        <ele>11.800000190735</ele>
        <time>2021-07-29T09:26:40.000Z</time>
      </trkpt>
      <trkpt lat="47.34968" lon="-2.34352">
        <ele>11.800000190735</ele>
        <time>2021-07-29T09:26:48.000Z</time>
      </trkpt>
      <trkpt lat="47.34966" lon="-2.34346">
        <ele>12.199999809265</ele>
        <time>2021-07-29T09:26:50.000Z</time>
      </trkpt>
      <trkpt lat="47.34965" lon="-2.34343">
        <ele>13</ele>
        <time>2021-07-29T09:26:51.000Z</time>
      </trkpt>
      <trkpt lat="47.34964" lon="-2.3434">
        <ele>13.39999961853</ele>
        <time>2021-07-29T09:26:52.000Z</time>
      </trkpt>
      <trkpt lat="47.34962" lon="-2.34338">
        <ele>14</ele>
        <time>2021-07-29T09:26:53.000Z</time>
      </trkpt>
      <trkpt lat="47.3496" lon="-2.34333">
        <ele>14</ele>
        <time>2021-07-29T09:26:55.000Z</time>
      </trkpt>
      <trkpt lat="47.34953" lon="-2.34318">
        <ele>14</ele>
        <time>2021-07-29T09:27:01.000Z</time>
      </trkpt>
      <trkpt lat="47.34952" lon="-2.34315">
        <ele>14.39999961853</ele>
        <time>2021-07-29T09:27:02.000Z</time>
      </trkpt>
      <trkpt lat="47.34951" lon="-2.34313">
        <ele>14.800000190735</ele>
        <time>2021-07-29T09:27:03.000Z</time>
      </trkpt>
      <trkpt lat="47.3495" lon="-2.3431">
        <ele>15.199999809265</ele>
        <time>2021-07-29T09:27:04.000Z</time>
      </trkpt>
      <trkpt lat="47.34949" lon="-2.34307">
        <ele>15.60000038147</ele>
        <time>2021-07-29T09:27:05.000Z</time>
      </trkpt>
      <trkpt lat="47.34948" lon="-2.34305">
        <ele>16.200000762939</ele>
        <time>2021-07-29T09:27:06.000Z</time>
      </trkpt>
      <trkpt lat="47.34941" lon="-2.3428">
        <ele>17</ele>
        <time>2021-07-29T09:27:15.000Z</time>
      </trkpt>
      <trkpt lat="47.34941" lon="-2.34277">
        <ele>17.39999961853</ele>
        <time>2021-07-29T09:27:16.000Z</time>
      </trkpt>
      <trkpt lat="47.3494" lon="-2.34275">
        <ele>17.799999237061</ele>
        <time>2021-07-29T09:27:17.000Z</time>
      </trkpt>
      <trkpt lat="47.34939" lon="-2.34273">
        <ele>18.200000762939</ele>
        <time>2021-07-29T09:27:18.000Z</time>
      </trkpt>
      <trkpt lat="47.34935" lon="-2.34265">
        <ele>18.200000762939</ele>
        <time>2021-07-29T09:27:22.000Z</time>
      </trkpt>
      <trkpt lat="47.34929" lon="-2.34249">
        <ele>18.200000762939</ele>
        <time>2021-07-29T09:27:29.000Z</time>
      </trkpt>
      <trkpt lat="47.34926" lon="-2.34241">
        <ele>18.60000038147</ele>
        <time>2021-07-29T09:27:34.000Z</time>
      </trkpt>
      <trkpt lat="47.34925" lon="-2.3424">
        <ele>19</ele>
        <time>2021-07-29T09:27:35.000Z</time>
      </trkpt>
      <trkpt lat="47.34924" lon="-2.34239">
        <ele>19.39999961853</ele>
        <time>2021-07-29T09:27:36.000Z</time>
      </trkpt>
      <trkpt lat="47.34924" lon="-2.34239">
        <ele>19.799999237061</ele>
        <time>2021-07-29T09:27:37.000Z</time>
      </trkpt>
      <trkpt lat="47.34923" lon="-2.34238">
        <ele>20.200000762939</ele>
        <time>2021-07-29T09:27:38.000Z</time>
      </trkpt>
      <trkpt lat="47.34923" lon="-2.34238">
        <ele>20.200000762939</ele>
        <time>2021-07-29T09:27:39.000Z</time>
      </trkpt>
      <trkpt lat="47.34917" lon="-2.34221">
        <ele>22.39999961853</ele>
        <time>2021-07-29T09:28:02.000Z</time>
      </trkpt>
      <trkpt lat="47.34916" lon="-2.34217">
        <ele>22.39999961853</ele>
        <time>2021-07-29T09:28:03.000Z</time>
      </trkpt>
      <trkpt lat="47.34906" lon="-2.3421">
        <ele>22.39999961853</ele>
        <time>2021-07-29T09:28:08.000Z</time>
      </trkpt>
      <trkpt lat="47.34896" lon="-2.34206">
        <ele>22.39999961853</ele>
        <time>2021-07-29T09:28:15.000Z</time>
      </trkpt>
      <trkpt lat="47.3489" lon="-2.34203">
        <ele>22.799999237061</ele>
        <time>2021-07-29T09:28:20.000Z</time>
      </trkpt>
      <trkpt lat="47.34889" lon="-2.34203">
        <ele>23.200000762939</ele>
        <time>2021-07-29T09:28:21.000Z</time>
      </trkpt>
      <trkpt lat="47.3489" lon="-2.34203">
        <ele>23.799999237061</ele>
        <time>2021-07-29T09:28:22.000Z</time>
      </trkpt>
      <trkpt lat="47.3489" lon="-2.34203">
        <ele>24.200000762939</ele>
        <time>2021-07-29T09:28:23.000Z</time>
      </trkpt>
      <trkpt lat="47.34887" lon="-2.34209">
        <ele>24.60000038147</ele>
        <time>2021-07-29T09:29:02.000Z</time>
      </trkpt>
      <trkpt lat="47.34885" lon="-2.34209">
        <ele>24.60000038147</ele>
        <time>2021-07-29T09:29:03.000Z</time>
      </trkpt>
      <trkpt lat="47.34879" lon="-2.34211">
        <ele>24.60000038147</ele>
        <time>2021-07-29T09:29:06.000Z</time>
      </trkpt>
      <trkpt lat="47.34878" lon="-2.34213">
        <ele>24.60000038147</ele>
        <time>2021-07-29T09:29:07.000Z</time>
      </trkpt>
      <trkpt lat="47.34877" lon="-2.34215">
        <ele>24.60000038147</ele>
        <time>2021-07-29T09:29:08.000Z</time>
      </trkpt>
      <trkpt lat="47.34874" lon="-2.34219">
        <ele>24.60000038147</ele>
        <time>2021-07-29T09:29:12.000Z</time>
      </trkpt>
      <trkpt lat="47.34873" lon="-2.34221">
        <ele>24.60000038147</ele>
        <time>2021-07-29T09:29:13.000Z</time>
      </trkpt>
      <trkpt lat="47.3487" lon="-2.34228">
        <ele>24.200000762939</ele>
        <time>2021-07-29T09:29:17.000Z</time>
      </trkpt>
      <trkpt lat="47.34869" lon="-2.34228">
        <ele>23.799999237061</ele>
        <time>2021-07-29T09:29:18.000Z</time>
      </trkpt>
      <trkpt lat="47.34868" lon="-2.3423">
        <ele>23.39999961853</ele>
        <time>2021-07-29T09:29:19.000Z</time>
      </trkpt>
      <trkpt lat="47.34868" lon="-2.3423">
        <ele>23</ele>
        <time>2021-07-29T09:29:20.000Z</time>
      </trkpt>
      <trkpt lat="47.34867" lon="-2.34231">
        <ele>22.60000038147</ele>
        <time>2021-07-29T09:29:21.000Z</time>
      </trkpt>
      <trkpt lat="47.34862" lon="-2.34235">
        <ele>22.60000038147</ele>
        <time>2021-07-29T09:29:26.000Z</time>
      </trkpt>
      <trkpt lat="47.34859" lon="-2.3424">
        <ele>22.60000038147</ele>
        <time>2021-07-29T09:29:31.000Z</time>
      </trkpt>
      <trkpt lat="47.34859" lon="-2.34242">
        <ele>22.60000038147</ele>
        <time>2021-07-29T09:29:32.000Z</time>
      </trkpt>
      <trkpt lat="47.34858" lon="-2.34247">
        <ele>22</ele>
        <time>2021-07-29T09:29:34.000Z</time>
      </trkpt>
      <trkpt lat="47.34857" lon="-2.34251">
        <ele>21.60000038147</ele>
        <time>2021-07-29T09:29:35.000Z</time>
      </trkpt>
      <trkpt lat="47.34856" lon="-2.34255">
        <ele>21.200000762939</ele>
        <time>2021-07-29T09:29:36.000Z</time>
      </trkpt>
      <trkpt lat="47.34854" lon="-2.34261">
        <ele>20.799999237061</ele>
        <time>2021-07-29T09:29:37.000Z</time>
      </trkpt>
      <trkpt lat="47.34853" lon="-2.34265">
        <ele>20.39999961853</ele>
        <time>2021-07-29T09:29:38.000Z</time>
      </trkpt>
      <trkpt lat="47.34852" lon="-2.34276">
        <ele>20.39999961853</ele>
        <time>2021-07-29T09:29:40.000Z</time>
      </trkpt>
      <trkpt lat="47.34855" lon="-2.34293">
        <ele>20.39999961853</ele>
        <time>2021-07-29T09:29:45.000Z</time>
      </trkpt>
      <trkpt lat="47.34856" lon="-2.34296">
        <ele>20</ele>
        <time>2021-07-29T09:29:46.000Z</time>
      </trkpt>
      <trkpt lat="47.34856" lon="-2.34301">
        <ele>19.60000038147</ele>
        <time>2021-07-29T09:29:47.000Z</time>
      </trkpt>
      <trkpt lat="47.34856" lon="-2.34305">
        <ele>19.200000762939</ele>
        <time>2021-07-29T09:29:48.000Z</time>
      </trkpt>
      <trkpt lat="47.34857" lon="-2.3431">
        <ele>18.799999237061</ele>
        <time>2021-07-29T09:29:49.000Z</time>
      </trkpt>
      <trkpt lat="47.34857" lon="-2.34315">
        <ele>18.39999961853</ele>
        <time>2021-07-29T09:29:50.000Z</time>
      </trkpt>
      <trkpt lat="47.3486" lon="-2.34344">
        <ele>18.39999961853</ele>
        <time>2021-07-29T09:29:55.000Z</time>
      </trkpt>
      <trkpt lat="47.34862" lon="-2.34353">
        <ele>18.39999961853</ele>
        <time>2021-07-29T09:29:57.000Z</time>
      </trkpt>
      <trkpt lat="47.34859" lon="-2.3436">
        <ele>18.39999961853</ele>
        <time>2021-07-29T09:29:59.000Z</time>
      </trkpt>
      <trkpt lat="47.34849" lon="-2.34368">
        <ele>18.39999961853</ele>
        <time>2021-07-29T09:30:02.000Z</time>
      </trkpt>
      <trkpt lat="47.3484" lon="-2.34371">
        <ele>18.39999961853</ele>
        <time>2021-07-29T09:30:04.000Z</time>
      </trkpt>
      <trkpt lat="47.34815" lon="-2.34379">
        <ele>18.39999961853</ele>
        <time>2021-07-29T09:30:09.000Z</time>
      </trkpt>
      <trkpt lat="47.34801" lon="-2.34381">
        <ele>18</ele>
        <time>2021-07-29T09:30:12.000Z</time>
      </trkpt>
      <trkpt lat="47.34797" lon="-2.34381">
        <ele>17.60000038147</ele>
        <time>2021-07-29T09:30:13.000Z</time>
      </trkpt>
      <trkpt lat="47.34793" lon="-2.34382">
        <ele>17.200000762939</ele>
        <time>2021-07-29T09:30:14.000Z</time>
      </trkpt>
      <trkpt lat="47.34789" lon="-2.34385">
        <ele>16.799999237061</ele>
        <time>2021-07-29T09:30:15.000Z</time>
      </trkpt>
      <trkpt lat="47.34786" lon="-2.34386">
        <ele>16.39999961853</ele>
        <time>2021-07-29T09:30:16.000Z</time>
      </trkpt>
      <trkpt lat="47.34783" lon="-2.34389">
        <ele>16.39999961853</ele>
        <time>2021-07-29T09:30:17.000Z</time>
      </trkpt>
      <trkpt lat="47.3478" lon="-2.34398">
        <ele>16.39999961853</ele>
        <time>2021-07-29T09:30:19.000Z</time>
      </trkpt>
      <trkpt lat="47.34772" lon="-2.34415">
        <ele>16.39999961853</ele>
        <time>2021-07-29T09:30:23.000Z</time>
      </trkpt>
      <trkpt lat="47.34758" lon="-2.34443">
        <ele>16.39999961853</ele>
        <time>2021-07-29T09:30:29.000Z</time>
      </trkpt>
      <trkpt lat="47.34756" lon="-2.34448">
        <ele>16</ele>
        <time>2021-07-29T09:30:30.000Z</time>
      </trkpt>
      <trkpt lat="47.34754" lon="-2.34453">
        <ele>15.60000038147</ele>
        <time>2021-07-29T09:30:31.000Z</time>
      </trkpt>
      <trkpt lat="47.34753" lon="-2.34457">
        <ele>14.60000038147</ele>
        <time>2021-07-29T09:30:32.000Z</time>
      </trkpt>
      <trkpt lat="47.34751" lon="-2.34461">
        <ele>14.199999809265</ele>
        <time>2021-07-29T09:30:33.000Z</time>
      </trkpt>
      <trkpt lat="47.3475" lon="-2.34465">
        <ele>14.199999809265</ele>
        <time>2021-07-29T09:30:34.000Z</time>
      </trkpt>
      <trkpt lat="47.34747" lon="-2.34477">
        <ele>14.199999809265</ele>
        <time>2021-07-29T09:30:38.000Z</time>
      </trkpt>
      <trkpt lat="47.34745" lon="-2.34479">
        <ele>14.199999809265</ele>
        <time>2021-07-29T09:30:39.000Z</time>
      </trkpt>
      <trkpt lat="47.34732" lon="-2.34487">
        <ele>14.199999809265</ele>
        <time>2021-07-29T09:30:43.000Z</time>
      </trkpt>
      <trkpt lat="47.34711" lon="-2.34496">
        <ele>14.199999809265</ele>
        <time>2021-07-29T09:30:49.000Z</time>
      </trkpt>
      <trkpt lat="47.3469" lon="-2.34505">
        <ele>14.199999809265</ele>
        <time>2021-07-29T09:30:55.000Z</time>
      </trkpt>
      <trkpt lat="47.3467" lon="-2.34512">
        <ele>14.199999809265</ele>
        <time>2021-07-29T09:31:01.000Z</time>
      </trkpt>
      <trkpt lat="47.34647" lon="-2.34519">
        <ele>14.199999809265</ele>
        <time>2021-07-29T09:31:09.000Z</time>
      </trkpt>
      <trkpt lat="47.34628" lon="-2.34524">
        <ele>14.199999809265</ele>
        <time>2021-07-29T09:31:15.000Z</time>
      </trkpt>
      <trkpt lat="47.34622" lon="-2.34526">
        <ele>14.60000038147</ele>
        <time>2021-07-29T09:31:17.000Z</time>
      </trkpt>
      <trkpt lat="47.34619" lon="-2.34527">
        <ele>15</ele>
        <time>2021-07-29T09:31:18.000Z</time>
      </trkpt>
      <trkpt lat="47.34616" lon="-2.34527">
        <ele>15.39999961853</ele>
        <time>2021-07-29T09:31:19.000Z</time>
      </trkpt>
      <trkpt lat="47.34613" lon="-2.34529">
        <ele>15.800000190735</ele>
        <time>2021-07-29T09:31:20.000Z</time>
      </trkpt>
      <trkpt lat="47.34611" lon="-2.34532">
        <ele>16.39999961853</ele>
        <time>2021-07-29T09:31:21.000Z</time>
      </trkpt>
      <trkpt lat="47.34612" lon="-2.34545">
        <ele>16.39999961853</ele>
        <time>2021-07-29T09:31:24.000Z</time>
      </trkpt>
      <trkpt lat="47.34612" lon="-2.34551">
        <ele>16.39999961853</ele>
        <time>2021-07-29T09:31:25.000Z</time>
      </trkpt>
      <trkpt lat="47.34613" lon="-2.34558">
        <ele>16.39999961853</ele>
        <time>2021-07-29T09:31:26.000Z</time>
      </trkpt>
      <trkpt lat="47.34615" lon="-2.34572">
        <ele>16.39999961853</ele>
        <time>2021-07-29T09:31:28.000Z</time>
      </trkpt>
      <trkpt lat="47.34624" lon="-2.34625">
        <ele>16.39999961853</ele>
        <time>2021-07-29T09:31:34.000Z</time>
      </trkpt>
      <trkpt lat="47.34634" lon="-2.34677">
        <ele>16.39999961853</ele>
        <time>2021-07-29T09:31:39.000Z</time>
      </trkpt>
      <trkpt lat="47.34637" lon="-2.34699">
        <ele>15.800000190735</ele>
        <time>2021-07-29T09:31:41.000Z</time>
      </trkpt>
      <trkpt lat="47.34638" lon="-2.3471">
        <ele>15.39999961853</ele>
        <time>2021-07-29T09:31:42.000Z</time>
      </trkpt>
      <trkpt lat="47.34639" lon="-2.34721">
        <ele>15</ele>
        <time>2021-07-29T09:31:43.000Z</time>
      </trkpt>
      <trkpt lat="47.34639" lon="-2.34733">
        <ele>14.39999961853</ele>
        <time>2021-07-29T09:31:44.000Z</time>
      </trkpt>
      <trkpt lat="47.34638" lon="-2.34744">
        <ele>14</ele>
        <time>2021-07-29T09:31:45.000Z</time>
      </trkpt>
      <trkpt lat="47.34632" lon="-2.34774">
        <ele>14</ele>
        <time>2021-07-29T09:31:48.000Z</time>
      </trkpt>
      <trkpt lat="47.34629" lon="-2.34784">
        <ele>14</ele>
        <time>2021-07-29T09:31:49.000Z</time>
      </trkpt>
      <trkpt lat="47.34606" lon="-2.34836">
        <ele>14</ele>
        <time>2021-07-29T09:31:55.000Z</time>
      </trkpt>
      <trkpt lat="47.34583" lon="-2.34889">
        <ele>14</ele>
        <time>2021-07-29T09:32:02.000Z</time>
      </trkpt>
      <trkpt lat="47.34577" lon="-2.34909">
        <ele>14</ele>
        <time>2021-07-29T09:32:05.000Z</time>
      </trkpt>
      <trkpt lat="47.34578" lon="-2.34915">
        <ele>14</ele>
        <time>2021-07-29T09:32:06.000Z</time>
      </trkpt>
      <trkpt lat="47.34584" lon="-2.34932">
        <ele>14</ele>
        <time>2021-07-29T09:32:09.000Z</time>
      </trkpt>
      <trkpt lat="47.34586" lon="-2.34937">
        <ele>14</ele>
        <time>2021-07-29T09:32:10.000Z</time>
      </trkpt>
      <trkpt lat="47.346" lon="-2.34961">
        <ele>14</ele>
        <time>2021-07-29T09:32:15.000Z</time>
      </trkpt>
      <trkpt lat="47.34617" lon="-2.34986">
        <ele>14</ele>
        <time>2021-07-29T09:32:21.000Z</time>
      </trkpt>
      <trkpt lat="47.34634" lon="-2.35012">
        <ele>14</ele>
        <time>2021-07-29T09:32:27.000Z</time>
      </trkpt>
      <trkpt lat="47.34642" lon="-2.35024">
        <ele>13.60000038147</ele>
        <time>2021-07-29T09:32:30.000Z</time>
      </trkpt>
      <trkpt lat="47.34644" lon="-2.35027">
        <ele>13.199999809265</ele>
        <time>2021-07-29T09:32:31.000Z</time>
      </trkpt>
      <trkpt lat="47.34647" lon="-2.35028">
        <ele>12.800000190735</ele>
        <time>2021-07-29T09:32:32.000Z</time>
      </trkpt>
      <trkpt lat="47.3465" lon="-2.35029">
        <ele>12.39999961853</ele>
        <time>2021-07-29T09:32:33.000Z</time>
      </trkpt>
      <trkpt lat="47.34653" lon="-2.3503">
        <ele>12</ele>
        <time>2021-07-29T09:32:34.000Z</time>
      </trkpt>
      <trkpt lat="47.34667" lon="-2.35031">
        <ele>12</ele>
        <time>2021-07-29T09:32:39.000Z</time>
      </trkpt>
      <trkpt lat="47.3468" lon="-2.35038">
        <ele>12</ele>
        <time>2021-07-29T09:32:44.000Z</time>
      </trkpt>
      <trkpt lat="47.34697" lon="-2.3506">
        <ele>12</ele>
        <time>2021-07-29T09:32:50.000Z</time>
      </trkpt>
      <trkpt lat="47.34718" lon="-2.35086">
        <ele>12</ele>
        <time>2021-07-29T09:32:56.000Z</time>
      </trkpt>
      <trkpt lat="47.34732" lon="-2.35115">
        <ele>12</ele>
        <time>2021-07-29T09:33:01.000Z</time>
      </trkpt>
      <trkpt lat="47.34743" lon="-2.35129">
        <ele>12</ele>
        <time>2021-07-29T09:33:05.000Z</time>
      </trkpt>
      <trkpt lat="47.34746" lon="-2.35136">
        <ele>12</ele>
        <time>2021-07-29T09:33:06.000Z</time>
      </trkpt>
      <trkpt lat="47.34753" lon="-2.35154">
        <ele>12</ele>
        <time>2021-07-29T09:33:09.000Z</time>
      </trkpt>
      <trkpt lat="47.34757" lon="-2.35166">
        <ele>12</ele>
        <time>2021-07-29T09:33:11.000Z</time>
      </trkpt>
      <trkpt lat="47.34757" lon="-2.35172">
        <ele>12</ele>
        <time>2021-07-29T09:33:12.000Z</time>
      </trkpt>
      <trkpt lat="47.34758" lon="-2.35187">
        <ele>12</ele>
        <time>2021-07-29T09:33:14.000Z</time>
      </trkpt>
      <trkpt lat="47.34757" lon="-2.35204">
        <ele>12</ele>
        <time>2021-07-29T09:33:17.000Z</time>
      </trkpt>
      <trkpt lat="47.34759" lon="-2.35222">
        <ele>12</ele>
        <time>2021-07-29T09:33:20.000Z</time>
      </trkpt>
      <trkpt lat="47.34756" lon="-2.35235">
        <ele>12</ele>
        <time>2021-07-29T09:33:22.000Z</time>
      </trkpt>
      <trkpt lat="47.34754" lon="-2.35249">
        <ele>12</ele>
        <time>2021-07-29T09:33:24.000Z</time>
      </trkpt>
      <trkpt lat="47.3475" lon="-2.35267">
        <ele>12</ele>
        <time>2021-07-29T09:33:27.000Z</time>
      </trkpt>
      <trkpt lat="47.34743" lon="-2.3529">
        <ele>12</ele>
        <time>2021-07-29T09:33:32.000Z</time>
      </trkpt>
      <trkpt lat="47.34735" lon="-2.35305">
        <ele>12.39999961853</ele>
        <time>2021-07-29T09:33:36.000Z</time>
      </trkpt>
      <trkpt lat="47.34733" lon="-2.3531">
        <ele>12.800000190735</ele>
        <time>2021-07-29T09:33:37.000Z</time>
      </trkpt>
      <trkpt lat="47.34732" lon="-2.35315">
        <ele>13.199999809265</ele>
        <time>2021-07-29T09:33:38.000Z</time>
      </trkpt>
      <trkpt lat="47.34731" lon="-2.3532">
        <ele>13.60000038147</ele>
        <time>2021-07-29T09:33:39.000Z</time>
      </trkpt>
      <trkpt lat="47.3473" lon="-2.35324">
        <ele>14</ele>
        <time>2021-07-29T09:33:40.000Z</time>
      </trkpt>
      <trkpt lat="47.34728" lon="-2.35338">
        <ele>14</ele>
        <time>2021-07-29T09:33:43.000Z</time>
      </trkpt>
      <trkpt lat="47.34728" lon="-2.35351">
        <ele>14</ele>
        <time>2021-07-29T09:33:47.000Z</time>
      </trkpt>
      <trkpt lat="47.34727" lon="-2.35356">
        <ele>14</ele>
        <time>2021-07-29T09:33:48.000Z</time>
      </trkpt>
      <trkpt lat="47.34723" lon="-2.35364">
        <ele>14</ele>
        <time>2021-07-29T09:33:51.000Z</time>
      </trkpt>
      <trkpt lat="47.34716" lon="-2.35378">
        <ele>14</ele>
        <time>2021-07-29T09:33:55.000Z</time>
      </trkpt>
      <trkpt lat="47.34711" lon="-2.35384">
        <ele>14</ele>
        <time>2021-07-29T09:33:57.000Z</time>
      </trkpt>
      <trkpt lat="47.34695" lon="-2.35396">
        <ele>14</ele>
        <time>2021-07-29T09:34:02.000Z</time>
      </trkpt>
      <trkpt lat="47.34676" lon="-2.35401">
        <ele>14</ele>
        <time>2021-07-29T09:34:07.000Z</time>
      </trkpt>
      <trkpt lat="47.34663" lon="-2.35405">
        <ele>14</ele>
        <time>2021-07-29T09:34:12.000Z</time>
      </trkpt>
      <trkpt lat="47.34655" lon="-2.35406">
        <ele>14</ele>
        <time>2021-07-29T09:34:17.000Z</time>
      </trkpt>
      <trkpt lat="47.34654" lon="-2.35406">
        <ele>14</ele>
        <time>2021-07-29T09:34:18.000Z</time>
      </trkpt>
      <trkpt lat="47.34651" lon="-2.35403">
        <ele>12</ele>
        <time>2021-07-29T09:34:40.000Z</time>
      </trkpt>
      <trkpt lat="47.34645" lon="-2.35398">
        <ele>12</ele>
        <time>2021-07-29T09:34:42.000Z</time>
      </trkpt>
      <trkpt lat="47.34625" lon="-2.3539">
        <ele>12</ele>
        <time>2021-07-29T09:34:47.000Z</time>
      </trkpt>
      <trkpt lat="47.34608" lon="-2.3539">
        <ele>12</ele>
        <time>2021-07-29T09:34:52.000Z</time>
      </trkpt>
      <trkpt lat="47.34586" lon="-2.35381">
        <ele>12</ele>
        <time>2021-07-29T09:34:58.000Z</time>
      </trkpt>
      <trkpt lat="47.34575" lon="-2.35371">
        <ele>12.39999961853</ele>
        <time>2021-07-29T09:35:02.000Z</time>
      </trkpt>
      <trkpt lat="47.34572" lon="-2.3537">
        <ele>12.800000190735</ele>
        <time>2021-07-29T09:35:03.000Z</time>
      </trkpt>
      <trkpt lat="47.34568" lon="-2.35369">
        <ele>13.60000038147</ele>
        <time>2021-07-29T09:35:04.000Z</time>
      </trkpt>
      <trkpt lat="47.34564" lon="-2.35367">
        <ele>14</ele>
        <time>2021-07-29T09:35:05.000Z</time>
      </trkpt>
      <trkpt lat="47.34556" lon="-2.35364">
        <ele>14</ele>
        <time>2021-07-29T09:35:07.000Z</time>
      </trkpt>
      <trkpt lat="47.34546" lon="-2.35362">
        <ele>14</ele>
        <time>2021-07-29T09:35:09.000Z</time>
      </trkpt>
      <trkpt lat="47.34537" lon="-2.35362">
        <ele>14</ele>
        <time>2021-07-29T09:35:11.000Z</time>
      </trkpt>
      <trkpt lat="47.34524" lon="-2.35363">
        <ele>14</ele>
        <time>2021-07-29T09:35:14.000Z</time>
      </trkpt>
      <trkpt lat="47.34513" lon="-2.35368">
        <ele>14</ele>
        <time>2021-07-29T09:35:17.000Z</time>
      </trkpt>
      <trkpt lat="47.34509" lon="-2.35371">
        <ele>14</ele>
        <time>2021-07-29T09:35:18.000Z</time>
      </trkpt>
      <trkpt lat="47.34493" lon="-2.35388">
        <ele>14</ele>
        <time>2021-07-29T09:35:23.000Z</time>
      </trkpt>
      <trkpt lat="47.3449" lon="-2.3539">
        <ele>13.60000038147</ele>
        <time>2021-07-29T09:35:24.000Z</time>
      </trkpt>
      <trkpt lat="47.34487" lon="-2.35392">
        <ele>13.199999809265</ele>
        <time>2021-07-29T09:35:25.000Z</time>
      </trkpt>
      <trkpt lat="47.34485" lon="-2.35395">
        <ele>12.800000190735</ele>
        <time>2021-07-29T09:35:26.000Z</time>
      </trkpt>
      <trkpt lat="47.34482" lon="-2.35397">
        <ele>12.39999961853</ele>
        <time>2021-07-29T09:35:27.000Z</time>
      </trkpt>
      <trkpt lat="47.34479" lon="-2.35399">
        <ele>12</ele>
        <time>2021-07-29T09:35:28.000Z</time>
      </trkpt>
      <trkpt lat="47.34473" lon="-2.35405">
        <ele>12</ele>
        <time>2021-07-29T09:35:30.000Z</time>
      </trkpt>
      <trkpt lat="47.34466" lon="-2.35406">
        <ele>12</ele>
        <time>2021-07-29T09:35:33.000Z</time>
      </trkpt>
      <trkpt lat="47.34464" lon="-2.35404">
        <ele>12</ele>
        <time>2021-07-29T09:35:34.000Z</time>
      </trkpt>
      <trkpt lat="47.34452" lon="-2.35402">
        <ele>12</ele>
        <time>2021-07-29T09:35:39.000Z</time>
      </trkpt>
      <trkpt lat="47.34438" lon="-2.35398">
        <ele>12</ele>
        <time>2021-07-29T09:35:44.000Z</time>
      </trkpt>
      <trkpt lat="47.34436" lon="-2.354">
        <ele>12</ele>
        <time>2021-07-29T09:35:45.000Z</time>
      </trkpt>
      <trkpt lat="47.34428" lon="-2.35405">
        <ele>12</ele>
        <time>2021-07-29T09:35:48.000Z</time>
      </trkpt>
      <trkpt lat="47.34426" lon="-2.35409">
        <ele>12</ele>
        <time>2021-07-29T09:35:49.000Z</time>
      </trkpt>
      <trkpt lat="47.34423" lon="-2.35421">
        <ele>12</ele>
        <time>2021-07-29T09:35:51.000Z</time>
      </trkpt>
      <trkpt lat="47.34411" lon="-2.35457">
        <ele>12</ele>
        <time>2021-07-29T09:35:56.000Z</time>
      </trkpt>
      <trkpt lat="47.34407" lon="-2.35464">
        <ele>12</ele>
        <time>2021-07-29T09:35:57.000Z</time>
      </trkpt>
      <trkpt lat="47.34388" lon="-2.35497">
        <ele>12</ele>
        <time>2021-07-29T09:36:02.000Z</time>
      </trkpt>
      <trkpt lat="47.34354" lon="-2.35547">
        <ele>12</ele>
        <time>2021-07-29T09:36:10.000Z</time>
      </trkpt>
      <trkpt lat="47.34321" lon="-2.35592">
        <ele>12</ele>
        <time>2021-07-29T09:36:17.000Z</time>
      </trkpt>
      <trkpt lat="47.34282" lon="-2.35647">
        <ele>12</ele>
        <time>2021-07-29T09:36:25.000Z</time>
      </trkpt>
      <trkpt lat="47.34273" lon="-2.3566">
        <ele>12.39999961853</ele>
        <time>2021-07-29T09:36:27.000Z</time>
      </trkpt>
      <trkpt lat="47.34269" lon="-2.35667">
        <ele>12.800000190735</ele>
        <time>2021-07-29T09:36:28.000Z</time>
      </trkpt>
      <trkpt lat="47.34264" lon="-2.35673">
        <ele>13.199999809265</ele>
        <time>2021-07-29T09:36:29.000Z</time>
      </trkpt>
      <trkpt lat="47.34259" lon="-2.35678">
        <ele>13.60000038147</ele>
        <time>2021-07-29T09:36:30.000Z</time>
      </trkpt>
      <trkpt lat="47.34253" lon="-2.35682">
        <ele>14</ele>
        <time>2021-07-29T09:36:31.000Z</time>
      </trkpt>
      <trkpt lat="47.34242" lon="-2.3569">
        <ele>14</ele>
        <time>2021-07-29T09:36:33.000Z</time>
      </trkpt>
      <trkpt lat="47.34225" lon="-2.35697">
        <ele>14</ele>
        <time>2021-07-29T09:36:36.000Z</time>
      </trkpt>
      <trkpt lat="47.34206" lon="-2.357">
        <ele>14.39999961853</ele>
        <time>2021-07-29T09:36:40.000Z</time>
      </trkpt>
      <trkpt lat="47.34202" lon="-2.35698">
        <ele>15</ele>
        <time>2021-07-29T09:36:41.000Z</time>
      </trkpt>
      <trkpt lat="47.34199" lon="-2.35695">
        <ele>15.39999961853</ele>
        <time>2021-07-29T09:36:42.000Z</time>
      </trkpt>
      <trkpt lat="47.34195" lon="-2.35692">
        <ele>16.200000762939</ele>
        <time>2021-07-29T09:36:43.000Z</time>
      </trkpt>
      <trkpt lat="47.34192" lon="-2.35688">
        <ele>16.799999237061</ele>
        <time>2021-07-29T09:36:44.000Z</time>
      </trkpt>
      <trkpt lat="47.34188" lon="-2.35683">
        <ele>17.200000762939</ele>
        <time>2021-07-29T09:36:45.000Z</time>
      </trkpt>
      <trkpt lat="47.34185" lon="-2.35678">
        <ele>17.60000038147</ele>
        <time>2021-07-29T09:36:46.000Z</time>
      </trkpt>
      <trkpt lat="47.34183" lon="-2.35673">
        <ele>18.200000762939</ele>
        <time>2021-07-29T09:36:47.000Z</time>
      </trkpt>
      <trkpt lat="47.3418" lon="-2.35668">
        <ele>18.60000038147</ele>
        <time>2021-07-29T09:36:48.000Z</time>
      </trkpt>
      <trkpt lat="47.34173" lon="-2.35656">
        <ele>18.60000038147</ele>
        <time>2021-07-29T09:36:50.000Z</time>
      </trkpt>
      <trkpt lat="47.34169" lon="-2.35651">
        <ele>19</ele>
        <time>2021-07-29T09:36:51.000Z</time>
      </trkpt>
      <trkpt lat="47.34165" lon="-2.35646">
        <ele>19.39999961853</ele>
        <time>2021-07-29T09:36:52.000Z</time>
      </trkpt>
      <trkpt lat="47.34161" lon="-2.3564">
        <ele>19.799999237061</ele>
        <time>2021-07-29T09:36:53.000Z</time>
      </trkpt>
      <trkpt lat="47.34157" lon="-2.35635">
        <ele>20.200000762939</ele>
        <time>2021-07-29T09:36:54.000Z</time>
      </trkpt>
      <trkpt lat="47.34154" lon="-2.3563">
        <ele>20.60000038147</ele>
        <time>2021-07-29T09:36:55.000Z</time>
      </trkpt>
      <trkpt lat="47.34151" lon="-2.35624">
        <ele>20.60000038147</ele>
        <time>2021-07-29T09:36:56.000Z</time>
      </trkpt>
      <trkpt lat="47.34132" lon="-2.35581">
        <ele>20.60000038147</ele>
        <time>2021-07-29T09:37:02.000Z</time>
      </trkpt>
      <trkpt lat="47.34112" lon="-2.35519">
        <ele>20.60000038147</ele>
        <time>2021-07-29T09:37:09.000Z</time>
      </trkpt>
      <trkpt lat="47.3409" lon="-2.3546">
        <ele>20.60000038147</ele>
        <time>2021-07-29T09:37:16.000Z</time>
      </trkpt>
      <trkpt lat="47.34078" lon="-2.35427">
        <ele>20.60000038147</ele>
        <time>2021-07-29T09:37:20.000Z</time>
      </trkpt>
      <trkpt lat="47.34072" lon="-2.35409">
        <ele>20.60000038147</ele>
        <time>2021-07-29T09:37:22.000Z</time>
      </trkpt>
      <trkpt lat="47.34065" lon="-2.35393">
        <ele>20.60000038147</ele>
        <time>2021-07-29T09:37:24.000Z</time>
      </trkpt>
      <trkpt lat="47.34054" lon="-2.35371">
        <ele>20.60000038147</ele>
        <time>2021-07-29T09:37:27.000Z</time>
      </trkpt>
      <trkpt lat="47.34046" lon="-2.35357">
        <ele>21</ele>
        <time>2021-07-29T09:37:29.000Z</time>
      </trkpt>
      <trkpt lat="47.34042" lon="-2.35352">
        <ele>21.39999961853</ele>
        <time>2021-07-29T09:37:30.000Z</time>
      </trkpt>
      <trkpt lat="47.34038" lon="-2.35346">
        <ele>22.39999961853</ele>
        <time>2021-07-29T09:37:31.000Z</time>
      </trkpt>
      <trkpt lat="47.34033" lon="-2.3534">
        <ele>22.799999237061</ele>
        <time>2021-07-29T09:37:32.000Z</time>
      </trkpt>
      <trkpt lat="47.34028" lon="-2.35336">
        <ele>22.799999237061</ele>
        <time>2021-07-29T09:37:33.000Z</time>
      </trkpt>
      <trkpt lat="47.33992" lon="-2.35302">
        <ele>22.799999237061</ele>
        <time>2021-07-29T09:37:40.000Z</time>
      </trkpt>
      <trkpt lat="47.33965" lon="-2.35275">
        <ele>23.200000762939</ele>
        <time>2021-07-29T09:37:46.000Z</time>
      </trkpt>
      <trkpt lat="47.33961" lon="-2.3527">
        <ele>23.60000038147</ele>
        <time>2021-07-29T09:37:47.000Z</time>
      </trkpt>
      <trkpt lat="47.33958" lon="-2.35265">
        <ele>24</ele>
        <time>2021-07-29T09:37:48.000Z</time>
      </trkpt>
      <trkpt lat="47.33955" lon="-2.35259">
        <ele>24.39999961853</ele>
        <time>2021-07-29T09:37:49.000Z</time>
      </trkpt>
      <trkpt lat="47.33952" lon="-2.35254">
        <ele>24.799999237061</ele>
        <time>2021-07-29T09:37:50.000Z</time>
      </trkpt>
      <trkpt lat="47.33949" lon="-2.35247">
        <ele>24.799999237061</ele>
        <time>2021-07-29T09:37:51.000Z</time>
      </trkpt>
      <trkpt lat="47.33944" lon="-2.35234">
        <ele>25.200000762939</ele>
        <time>2021-07-29T09:37:53.000Z</time>
      </trkpt>
      <trkpt lat="47.33942" lon="-2.35228">
        <ele>25.60000038147</ele>
        <time>2021-07-29T09:37:54.000Z</time>
      </trkpt>
      <trkpt lat="47.33939" lon="-2.35221">
        <ele>26</ele>
        <time>2021-07-29T09:37:55.000Z</time>
      </trkpt>
      <trkpt lat="47.33936" lon="-2.35215">
        <ele>26.799999237061</ele>
        <time>2021-07-29T09:37:56.000Z</time>
      </trkpt>
      <trkpt lat="47.33933" lon="-2.35208">
        <ele>26.799999237061</ele>
        <time>2021-07-29T09:37:57.000Z</time>
      </trkpt>
      <trkpt lat="47.33925" lon="-2.35196">
        <ele>26.799999237061</ele>
        <time>2021-07-29T09:37:59.000Z</time>
      </trkpt>
      <trkpt lat="47.33913" lon="-2.35182">
        <ele>26.799999237061</ele>
        <time>2021-07-29T09:38:02.000Z</time>
      </trkpt>
      <trkpt lat="47.33877" lon="-2.35151">
        <ele>26.799999237061</ele>
        <time>2021-07-29T09:38:09.000Z</time>
      </trkpt>
      <trkpt lat="47.33839" lon="-2.35119">
        <ele>26.799999237061</ele>
        <time>2021-07-29T09:38:16.000Z</time>
      </trkpt>
      <trkpt lat="47.33791" lon="-2.35089">
        <ele>26.799999237061</ele>
        <time>2021-07-29T09:38:23.000Z</time>
      </trkpt>
      <trkpt lat="47.33748" lon="-2.35063">
        <ele>26.799999237061</ele>
        <time>2021-07-29T09:38:29.000Z</time>
      </trkpt>
      <trkpt lat="47.33718" lon="-2.3503">
        <ele>26.799999237061</ele>
        <time>2021-07-29T09:38:34.000Z</time>
      </trkpt>
      <trkpt lat="47.33687" lon="-2.34983">
        <ele>26.799999237061</ele>
        <time>2021-07-29T09:38:40.000Z</time>
      </trkpt>
      <trkpt lat="47.33657" lon="-2.34939">
        <ele>26.799999237061</ele>
        <time>2021-07-29T09:38:46.000Z</time>
      </trkpt>
      <trkpt lat="47.33625" lon="-2.34898">
        <ele>26.799999237061</ele>
        <time>2021-07-29T09:38:53.000Z</time>
      </trkpt>
      <trkpt lat="47.33598" lon="-2.34863">
        <ele>26.799999237061</ele>
        <time>2021-07-29T09:38:59.000Z</time>
      </trkpt>
      <trkpt lat="47.33569" lon="-2.34825">
        <ele>26.799999237061</ele>
        <time>2021-07-29T09:39:05.000Z</time>
      </trkpt>
      <trkpt lat="47.33538" lon="-2.34785">
        <ele>26.799999237061</ele>
        <time>2021-07-29T09:39:12.000Z</time>
      </trkpt>
      <trkpt lat="47.33523" lon="-2.34767">
        <ele>27.200000762939</ele>
        <time>2021-07-29T09:39:15.000Z</time>
      </trkpt>
      <trkpt lat="47.33517" lon="-2.3476">
        <ele>27.60000038147</ele>
        <time>2021-07-29T09:39:16.000Z</time>
      </trkpt>
      <trkpt lat="47.33512" lon="-2.34753">
        <ele>28</ele>
        <time>2021-07-29T09:39:17.000Z</time>
      </trkpt>
      <trkpt lat="47.33506" lon="-2.34745">
        <ele>28.39999961853</ele>
        <time>2021-07-29T09:39:18.000Z</time>
      </trkpt>
      <trkpt lat="47.33501" lon="-2.34737">
        <ele>28.799999237061</ele>
        <time>2021-07-29T09:39:19.000Z</time>
      </trkpt>
      <trkpt lat="47.33478" lon="-2.34705">
        <ele>28.799999237061</ele>
        <time>2021-07-29T09:39:23.000Z</time>
      </trkpt>
      <trkpt lat="47.33451" lon="-2.34658">
        <ele>28.39999961853</ele>
        <time>2021-07-29T09:39:28.000Z</time>
      </trkpt>
      <trkpt lat="47.33445" lon="-2.34649">
        <ele>28</ele>
        <time>2021-07-29T09:39:29.000Z</time>
      </trkpt>
      <trkpt lat="47.3344" lon="-2.34641">
        <ele>27.60000038147</ele>
        <time>2021-07-29T09:39:30.000Z</time>
      </trkpt>
      <trkpt lat="47.33434" lon="-2.3463">
        <ele>27.200000762939</ele>
        <time>2021-07-29T09:39:31.000Z</time>
      </trkpt>
      <trkpt lat="47.3343" lon="-2.34619">
        <ele>26.60000038147</ele>
        <time>2021-07-29T09:39:32.000Z</time>
      </trkpt>
      <trkpt lat="47.33419" lon="-2.34596">
        <ele>26.60000038147</ele>
        <time>2021-07-29T09:39:34.000Z</time>
      </trkpt>
      <trkpt lat="47.33408" lon="-2.34575">
        <ele>26.200000762939</ele>
        <time>2021-07-29T09:39:36.000Z</time>
      </trkpt>
      <trkpt lat="47.33403" lon="-2.34564">
        <ele>25.799999237061</ele>
        <time>2021-07-29T09:39:37.000Z</time>
      </trkpt>
      <trkpt lat="47.33398" lon="-2.34553">
        <ele>25.39999961853</ele>
        <time>2021-07-29T09:39:38.000Z</time>
      </trkpt>
      <trkpt lat="47.33392" lon="-2.34543">
        <ele>25</ele>
        <time>2021-07-29T09:39:39.000Z</time>
      </trkpt>
      <trkpt lat="47.33387" lon="-2.34533">
        <ele>24.60000038147</ele>
        <time>2021-07-29T09:39:40.000Z</time>
      </trkpt>
      <trkpt lat="47.33366" lon="-2.3449">
        <ele>24.60000038147</ele>
        <time>2021-07-29T09:39:45.000Z</time>
      </trkpt>
      <trkpt lat="47.33362" lon="-2.34487">
        <ele>24.200000762939</ele>
        <time>2021-07-29T09:39:46.000Z</time>
      </trkpt>
      <trkpt lat="47.33357" lon="-2.34488">
        <ele>23.799999237061</ele>
        <time>2021-07-29T09:39:47.000Z</time>
      </trkpt>
      <trkpt lat="47.33354" lon="-2.34491">
        <ele>23.39999961853</ele>
        <time>2021-07-29T09:39:48.000Z</time>
      </trkpt>
      <trkpt lat="47.33351" lon="-2.34497">
        <ele>22.799999237061</ele>
        <time>2021-07-29T09:39:49.000Z</time>
      </trkpt>
      <trkpt lat="47.33349" lon="-2.34502">
        <ele>22.39999961853</ele>
        <time>2021-07-29T09:39:50.000Z</time>
      </trkpt>
      <trkpt lat="47.33345" lon="-2.34508">
        <ele>22.39999961853</ele>
        <time>2021-07-29T09:39:51.000Z</time>
      </trkpt>
      <trkpt lat="47.33342" lon="-2.34515">
        <ele>22.39999961853</ele>
        <time>2021-07-29T09:39:52.000Z</time>
      </trkpt>
      <trkpt lat="47.33339" lon="-2.34522">
        <ele>22.39999961853</ele>
        <time>2021-07-29T09:39:53.000Z</time>
      </trkpt>
      <trkpt lat="47.33337" lon="-2.34538">
        <ele>22.39999961853</ele>
        <time>2021-07-29T09:39:55.000Z</time>
      </trkpt>
      <trkpt lat="47.33329" lon="-2.34568">
        <ele>22</ele>
        <time>2021-07-29T09:40:00.000Z</time>
      </trkpt>
      <trkpt lat="47.33327" lon="-2.3457">
        <ele>21.60000038147</ele>
        <time>2021-07-29T09:40:01.000Z</time>
      </trkpt>
      <trkpt lat="47.33325" lon="-2.34574">
        <ele>21.200000762939</ele>
        <time>2021-07-29T09:40:02.000Z</time>
      </trkpt>
      <trkpt lat="47.33323" lon="-2.34577">
        <ele>20.60000038147</ele>
        <time>2021-07-29T09:40:03.000Z</time>
      </trkpt>
      <trkpt lat="47.33323" lon="-2.3458">
        <ele>20.200000762939</ele>
        <time>2021-07-29T09:40:04.000Z</time>
      </trkpt>
      <trkpt lat="47.33316" lon="-2.34607">
        <ele>20.200000762939</ele>
        <time>2021-07-29T09:40:10.000Z</time>
      </trkpt>
      <trkpt lat="47.33306" lon="-2.34626">
        <ele>20.200000762939</ele>
        <time>2021-07-29T09:40:14.000Z</time>
      </trkpt>
      <trkpt lat="47.33296" lon="-2.34653">
        <ele>20.200000762939</ele>
        <time>2021-07-29T09:40:20.000Z</time>
      </trkpt>
      <trkpt lat="47.33285" lon="-2.34683">
        <ele>20.200000762939</ele>
        <time>2021-07-29T09:40:27.000Z</time>
      </trkpt>
      <trkpt lat="47.33276" lon="-2.34711">
        <ele>20.200000762939</ele>
        <time>2021-07-29T09:40:32.000Z</time>
      </trkpt>
      <trkpt lat="47.33265" lon="-2.34736">
        <ele>20.200000762939</ele>
        <time>2021-07-29T09:40:37.000Z</time>
      </trkpt>
      <trkpt lat="47.33259" lon="-2.34761">
        <ele>20.200000762939</ele>
        <time>2021-07-29T09:40:41.000Z</time>
      </trkpt>
      <trkpt lat="47.33245" lon="-2.34799">
        <ele>20.200000762939</ele>
        <time>2021-07-29T09:40:48.000Z</time>
      </trkpt>
      <trkpt lat="47.33231" lon="-2.34832">
        <ele>20.60000038147</ele>
        <time>2021-07-29T09:40:54.000Z</time>
      </trkpt>
      <trkpt lat="47.33229" lon="-2.34838">
        <ele>21</ele>
        <time>2021-07-29T09:40:55.000Z</time>
      </trkpt>
      <trkpt lat="47.33226" lon="-2.34844">
        <ele>21.39999961853</ele>
        <time>2021-07-29T09:40:56.000Z</time>
      </trkpt>
      <trkpt lat="47.33224" lon="-2.3485">
        <ele>21.799999237061</ele>
        <time>2021-07-29T09:40:57.000Z</time>
      </trkpt>
      <trkpt lat="47.33221" lon="-2.34854">
        <ele>22.200000762939</ele>
        <time>2021-07-29T09:40:58.000Z</time>
      </trkpt>
      <trkpt lat="47.33216" lon="-2.34863">
        <ele>22.200000762939</ele>
        <time>2021-07-29T09:41:00.000Z</time>
      </trkpt>
      <trkpt lat="47.33204" lon="-2.34889">
        <ele>22.200000762939</ele>
        <time>2021-07-29T09:41:05.000Z</time>
      </trkpt>
      <trkpt lat="47.33194" lon="-2.34914">
        <ele>22.200000762939</ele>
        <time>2021-07-29T09:41:10.000Z</time>
      </trkpt>
      <trkpt lat="47.33177" lon="-2.34954">
        <ele>22.200000762939</ele>
        <time>2021-07-29T09:41:17.000Z</time>
      </trkpt>
      <trkpt lat="47.33167" lon="-2.34982">
        <ele>22.200000762939</ele>
        <time>2021-07-29T09:41:22.000Z</time>
      </trkpt>
      <trkpt lat="47.33162" lon="-2.34991">
        <ele>22.799999237061</ele>
        <time>2021-07-29T09:41:24.000Z</time>
      </trkpt>
      <trkpt lat="47.33158" lon="-2.34996">
        <ele>23.200000762939</ele>
        <time>2021-07-29T09:41:25.000Z</time>
      </trkpt>
      <trkpt lat="47.33153" lon="-2.35002">
        <ele>23.60000038147</ele>
        <time>2021-07-29T09:41:26.000Z</time>
      </trkpt>
      <trkpt lat="47.3315" lon="-2.35007">
        <ele>24</ele>
        <time>2021-07-29T09:41:27.000Z</time>
      </trkpt>
      <trkpt lat="47.33147" lon="-2.35011">
        <ele>24.39999961853</ele>
        <time>2021-07-29T09:41:28.000Z</time>
      </trkpt>
      <trkpt lat="47.33138" lon="-2.35029">
        <ele>24.39999961853</ele>
        <time>2021-07-29T09:41:31.000Z</time>
      </trkpt>
      <trkpt lat="47.33132" lon="-2.35039">
        <ele>24.39999961853</ele>
        <time>2021-07-29T09:41:33.000Z</time>
      </trkpt>
      <trkpt lat="47.33113" lon="-2.35066">
        <ele>24.39999961853</ele>
        <time>2021-07-29T09:41:39.000Z</time>
      </trkpt>
      <trkpt lat="47.33104" lon="-2.35082">
        <ele>24.39999961853</ele>
        <time>2021-07-29T09:41:42.000Z</time>
      </trkpt>
      <trkpt lat="47.33098" lon="-2.35091">
        <ele>24.39999961853</ele>
        <time>2021-07-29T09:41:44.000Z</time>
      </trkpt>
      <trkpt lat="47.3309" lon="-2.351">
        <ele>24.39999961853</ele>
        <time>2021-07-29T09:41:46.000Z</time>
      </trkpt>
      <trkpt lat="47.33084" lon="-2.35108">
        <ele>24.39999961853</ele>
        <time>2021-07-29T09:41:48.000Z</time>
      </trkpt>
      <trkpt lat="47.33081" lon="-2.35113">
        <ele>24.39999961853</ele>
        <time>2021-07-29T09:41:49.000Z</time>
      </trkpt>
      <trkpt lat="47.33078" lon="-2.35117">
        <ele>24.799999237061</ele>
        <time>2021-07-29T09:41:50.000Z</time>
      </trkpt>
      <trkpt lat="47.33075" lon="-2.35122">
        <ele>25.200000762939</ele>
        <time>2021-07-29T09:41:51.000Z</time>
      </trkpt>
      <trkpt lat="47.33073" lon="-2.35125">
        <ele>25.60000038147</ele>
        <time>2021-07-29T09:41:52.000Z</time>
      </trkpt>
      <trkpt lat="47.33071" lon="-2.35129">
        <ele>26</ele>
        <time>2021-07-29T09:41:53.000Z</time>
      </trkpt>
      <trkpt lat="47.33068" lon="-2.35132">
        <ele>26.39999961853</ele>
        <time>2021-07-29T09:41:54.000Z</time>
      </trkpt>
      <trkpt lat="47.33057" lon="-2.35151">
        <ele>26.39999961853</ele>
        <time>2021-07-29T09:41:58.000Z</time>
      </trkpt>
      <trkpt lat="47.33055" lon="-2.35157">
        <ele>26.39999961853</ele>
        <time>2021-07-29T09:41:59.000Z</time>
      </trkpt>
      <trkpt lat="47.33049" lon="-2.35173">
        <ele>26.39999961853</ele>
        <time>2021-07-29T09:42:02.000Z</time>
      </trkpt>
      <trkpt lat="47.33043" lon="-2.35179">
        <ele>26.39999961853</ele>
        <time>2021-07-29T09:42:04.000Z</time>
      </trkpt>
      <trkpt lat="47.33034" lon="-2.35181">
        <ele>26.39999961853</ele>
        <time>2021-07-29T09:42:08.000Z</time>
      </trkpt>
      <trkpt lat="47.33029" lon="-2.35179">
        <ele>26.39999961853</ele>
        <time>2021-07-29T09:42:10.000Z</time>
      </trkpt>
      <trkpt lat="47.33029" lon="-2.35179">
        <ele>26.39999961853</ele>
        <time>2021-07-29T09:42:12.000Z</time>
      </trkpt>
      <trkpt lat="47.33026" lon="-2.35172">
        <ele>26.39999961853</ele>
        <time>2021-07-29T09:42:57.000Z</time>
      </trkpt>
      <trkpt lat="47.33021" lon="-2.35148">
        <ele>26.39999961853</ele>
        <time>2021-07-29T09:43:03.000Z</time>
      </trkpt>
      <trkpt lat="47.33018" lon="-2.35127">
        <ele>26.39999961853</ele>
        <time>2021-07-29T09:43:08.000Z</time>
      </trkpt>
      <trkpt lat="47.33016" lon="-2.35123">
        <ele>26.39999961853</ele>
        <time>2021-07-29T09:43:09.000Z</time>
      </trkpt>
      <trkpt lat="47.33014" lon="-2.35099">
        <ele>26.39999961853</ele>
        <time>2021-07-29T09:43:14.000Z</time>
      </trkpt>
      <trkpt lat="47.33008" lon="-2.35066">
        <ele>26.39999961853</ele>
        <time>2021-07-29T09:43:19.000Z</time>
      </trkpt>
      <trkpt lat="47.33005" lon="-2.35047">
        <ele>26</ele>
        <time>2021-07-29T09:43:23.000Z</time>
      </trkpt>
      <trkpt lat="47.33004" lon="-2.35043">
        <ele>25.60000038147</ele>
        <time>2021-07-29T09:43:24.000Z</time>
      </trkpt>
      <trkpt lat="47.33003" lon="-2.35038">
        <ele>25.200000762939</ele>
        <time>2021-07-29T09:43:25.000Z</time>
      </trkpt>
      <trkpt lat="47.33002" lon="-2.35033">
        <ele>24.799999237061</ele>
        <time>2021-07-29T09:43:26.000Z</time>
      </trkpt>
      <trkpt lat="47.33002" lon="-2.35029">
        <ele>24.39999961853</ele>
        <time>2021-07-29T09:43:27.000Z</time>
      </trkpt>
      <trkpt lat="47.33001" lon="-2.35024">
        <ele>24.39999961853</ele>
        <time>2021-07-29T09:43:29.000Z</time>
      </trkpt>
      <trkpt lat="47.33" lon="-2.35019">
        <ele>24.39999961853</ele>
        <time>2021-07-29T09:43:31.000Z</time>
      </trkpt>
      <trkpt lat="47.32999" lon="-2.35015">
        <ele>24.39999961853</ele>
        <time>2021-07-29T09:43:33.000Z</time>
      </trkpt>
      <trkpt lat="47.32998" lon="-2.35013">
        <ele>24.39999961853</ele>
        <time>2021-07-29T09:43:34.000Z</time>
      </trkpt>
      <trkpt lat="47.32988" lon="-2.34995">
        <ele>24.39999961853</ele>
        <time>2021-07-29T09:43:39.000Z</time>
      </trkpt>
      <trkpt lat="47.32975" lon="-2.34965">
        <ele>24.39999961853</ele>
        <time>2021-07-29T09:43:45.000Z</time>
      </trkpt>
      <trkpt lat="47.32969" lon="-2.34934">
        <ele>24.39999961853</ele>
        <time>2021-07-29T09:43:50.000Z</time>
      </trkpt>
      <trkpt lat="47.32958" lon="-2.34909">
        <ele>24.39999961853</ele>
        <time>2021-07-29T09:43:54.000Z</time>
      </trkpt>
      <trkpt lat="47.32954" lon="-2.34896">
        <ele>24.39999961853</ele>
        <time>2021-07-29T09:43:56.000Z</time>
      </trkpt>
      <trkpt lat="47.32935" lon="-2.34851">
        <ele>24.39999961853</ele>
        <time>2021-07-29T09:44:03.000Z</time>
      </trkpt>
      <trkpt lat="47.32924" lon="-2.34822">
        <ele>23.60000038147</ele>
        <time>2021-07-29T09:44:07.000Z</time>
      </trkpt>
      <trkpt lat="47.32921" lon="-2.34816">
        <ele>23.200000762939</ele>
        <time>2021-07-29T09:44:08.000Z</time>
      </trkpt>
      <trkpt lat="47.32919" lon="-2.34811">
        <ele>22.799999237061</ele>
        <time>2021-07-29T09:44:09.000Z</time>
      </trkpt>
      <trkpt lat="47.32917" lon="-2.34806">
        <ele>22.39999961853</ele>
        <time>2021-07-29T09:44:10.000Z</time>
      </trkpt>
      <trkpt lat="47.32904" lon="-2.34789">
        <ele>22.39999961853</ele>
        <time>2021-07-29T09:44:15.000Z</time>
      </trkpt>
      <trkpt lat="47.329" lon="-2.34791">
        <ele>22.39999961853</ele>
        <time>2021-07-29T09:44:16.000Z</time>
      </trkpt>
      <trkpt lat="47.32892" lon="-2.34795">
        <ele>22.39999961853</ele>
        <time>2021-07-29T09:44:18.000Z</time>
      </trkpt>
      <trkpt lat="47.32881" lon="-2.34801">
        <ele>22.39999961853</ele>
        <time>2021-07-29T09:44:20.000Z</time>
      </trkpt>
      <trkpt lat="47.32873" lon="-2.34809">
        <ele>22.39999961853</ele>
        <time>2021-07-29T09:44:22.000Z</time>
      </trkpt>
      <trkpt lat="47.32841" lon="-2.34829">
        <ele>22.39999961853</ele>
        <time>2021-07-29T09:44:29.000Z</time>
      </trkpt>
      <trkpt lat="47.32831" lon="-2.34835">
        <ele>22.39999961853</ele>
        <time>2021-07-29T09:44:31.000Z</time>
      </trkpt>
      <trkpt lat="47.32805" lon="-2.34853">
        <ele>22.39999961853</ele>
        <time>2021-07-29T09:44:36.000Z</time>
      </trkpt>
      <trkpt lat="47.32774" lon="-2.34873">
        <ele>22.39999961853</ele>
        <time>2021-07-29T09:44:42.000Z</time>
      </trkpt>
      <trkpt lat="47.32769" lon="-2.34877">
        <ele>22.39999961853</ele>
        <time>2021-07-29T09:44:43.000Z</time>
      </trkpt>
      <trkpt lat="47.3276" lon="-2.34885">
        <ele>22.799999237061</ele>
        <time>2021-07-29T09:44:45.000Z</time>
      </trkpt>
      <trkpt lat="47.32755" lon="-2.34888">
        <ele>23.200000762939</ele>
        <time>2021-07-29T09:44:46.000Z</time>
      </trkpt>
      <trkpt lat="47.32751" lon="-2.34892">
        <ele>23.60000038147</ele>
        <time>2021-07-29T09:44:47.000Z</time>
      </trkpt>
      <trkpt lat="47.32746" lon="-2.34895">
        <ele>24</ele>
        <time>2021-07-29T09:44:48.000Z</time>
      </trkpt>
      <trkpt lat="47.32741" lon="-2.34899">
        <ele>24.39999961853</ele>
        <time>2021-07-29T09:44:49.000Z</time>
      </trkpt>
      <trkpt lat="47.32708" lon="-2.34923">
        <ele>24.39999961853</ele>
        <time>2021-07-29T09:44:56.000Z</time>
      </trkpt>
      <trkpt lat="47.32688" lon="-2.34939">
        <ele>24.39999961853</ele>
        <time>2021-07-29T09:45:01.000Z</time>
      </trkpt>
      <trkpt lat="47.32674" lon="-2.34949">
        <ele>24.39999961853</ele>
        <time>2021-07-29T09:45:06.000Z</time>
      </trkpt>
      <trkpt lat="47.32665" lon="-2.34955">
        <ele>24.39999961853</ele>
        <time>2021-07-29T09:45:11.000Z</time>
      </trkpt>
      <trkpt lat="47.32656" lon="-2.34958">
        <ele>24.39999961853</ele>
        <time>2021-07-29T09:45:16.000Z</time>
      </trkpt>
      <trkpt lat="47.32637" lon="-2.34972">
        <ele>24.39999961853</ele>
        <time>2021-07-29T09:45:21.000Z</time>
      </trkpt>
      <trkpt lat="47.32609" lon="-2.34986">
        <ele>24.39999961853</ele>
        <time>2021-07-29T09:45:27.000Z</time>
      </trkpt>
      <trkpt lat="47.32604" lon="-2.34989">
        <ele>24.39999961853</ele>
        <time>2021-07-29T09:45:28.000Z</time>
      </trkpt>
      <trkpt lat="47.326" lon="-2.34992">
        <ele>24.799999237061</ele>
        <time>2021-07-29T09:45:29.000Z</time>
      </trkpt>
      <trkpt lat="47.32595" lon="-2.34995">
        <ele>25.200000762939</ele>
        <time>2021-07-29T09:45:30.000Z</time>
      </trkpt>
      <trkpt lat="47.3259" lon="-2.34998">
        <ele>25.60000038147</ele>
        <time>2021-07-29T09:45:31.000Z</time>
      </trkpt>
      <trkpt lat="47.32585" lon="-2.35001">
        <ele>26</ele>
        <time>2021-07-29T09:45:32.000Z</time>
      </trkpt>
      <trkpt lat="47.3258" lon="-2.35004">
        <ele>26.39999961853</ele>
        <time>2021-07-29T09:45:33.000Z</time>
      </trkpt>
      <trkpt lat="47.32574" lon="-2.35006">
        <ele>26.39999961853</ele>
        <time>2021-07-29T09:45:34.000Z</time>
      </trkpt>
      <trkpt lat="47.32557" lon="-2.35013">
        <ele>26.39999961853</ele>
        <time>2021-07-29T09:45:37.000Z</time>
      </trkpt>
      <trkpt lat="47.32524" lon="-2.35024">
        <ele>26.39999961853</ele>
        <time>2021-07-29T09:45:43.000Z</time>
      </trkpt>
      <trkpt lat="47.32502" lon="-2.3503">
        <ele>26.799999237061</ele>
        <time>2021-07-29T09:45:47.000Z</time>
      </trkpt>
      <trkpt lat="47.32497" lon="-2.35031">
        <ele>27.200000762939</ele>
        <time>2021-07-29T09:45:48.000Z</time>
      </trkpt>
      <trkpt lat="47.32492" lon="-2.35033">
        <ele>27.60000038147</ele>
        <time>2021-07-29T09:45:49.000Z</time>
      </trkpt>
      <trkpt lat="47.32486" lon="-2.35034">
        <ele>28</ele>
        <time>2021-07-29T09:45:50.000Z</time>
      </trkpt>
      <trkpt lat="47.3248" lon="-2.35036">
        <ele>28.39999961853</ele>
        <time>2021-07-29T09:45:51.000Z</time>
      </trkpt>
      <trkpt lat="47.32458" lon="-2.35045">
        <ele>28.39999961853</ele>
        <time>2021-07-29T09:45:55.000Z</time>
      </trkpt>
      <trkpt lat="47.32417" lon="-2.35052">
        <ele>28.39999961853</ele>
        <time>2021-07-29T09:46:02.000Z</time>
      </trkpt>
      <trkpt lat="47.3238" lon="-2.35054">
        <ele>28.39999961853</ele>
        <time>2021-07-29T09:46:08.000Z</time>
      </trkpt>
      <trkpt lat="47.3234" lon="-2.35053">
        <ele>28.39999961853</ele>
        <time>2021-07-29T09:46:14.000Z</time>
      </trkpt>
      <trkpt lat="47.32326" lon="-2.35052">
        <ele>28.39999961853</ele>
        <time>2021-07-29T09:46:16.000Z</time>
      </trkpt>
      <trkpt lat="47.32313" lon="-2.35052">
        <ele>28.39999961853</ele>
        <time>2021-07-29T09:46:18.000Z</time>
      </trkpt>
      <trkpt lat="47.32306" lon="-2.35052">
        <ele>28.39999961853</ele>
        <time>2021-07-29T09:46:19.000Z</time>
      </trkpt>
      <trkpt lat="47.32278" lon="-2.35049">
        <ele>28.39999961853</ele>
        <time>2021-07-29T09:46:23.000Z</time>
      </trkpt>
      <trkpt lat="47.32237" lon="-2.3505">
        <ele>28.39999961853</ele>
        <time>2021-07-29T09:46:29.000Z</time>
      </trkpt>
      <trkpt lat="47.3223" lon="-2.35051">
        <ele>28</ele>
        <time>2021-07-29T09:46:30.000Z</time>
      </trkpt>
      <trkpt lat="47.32224" lon="-2.35052">
        <ele>27.60000038147</ele>
        <time>2021-07-29T09:46:31.000Z</time>
      </trkpt>
      <trkpt lat="47.32217" lon="-2.35052">
        <ele>27</ele>
        <time>2021-07-29T09:46:32.000Z</time>
      </trkpt>
      <trkpt lat="47.3221" lon="-2.35053">
        <ele>26.60000038147</ele>
        <time>2021-07-29T09:46:33.000Z</time>
      </trkpt>
      <trkpt lat="47.32203" lon="-2.35055">
        <ele>26.200000762939</ele>
        <time>2021-07-29T09:46:34.000Z</time>
      </trkpt>
      <trkpt lat="47.32171" lon="-2.3506">
        <ele>26.200000762939</ele>
        <time>2021-07-29T09:46:39.000Z</time>
      </trkpt>
      <trkpt lat="47.32134" lon="-2.35063">
        <ele>26.200000762939</ele>
        <time>2021-07-29T09:46:44.000Z</time>
      </trkpt>
      <trkpt lat="47.32113" lon="-2.35064">
        <ele>26.200000762939</ele>
        <time>2021-07-29T09:46:47.000Z</time>
      </trkpt>
      <trkpt lat="47.32093" lon="-2.35064">
        <ele>26.200000762939</ele>
        <time>2021-07-29T09:46:50.000Z</time>
      </trkpt>
      <trkpt lat="47.32081" lon="-2.35063">
        <ele>25.799999237061</ele>
        <time>2021-07-29T09:46:52.000Z</time>
      </trkpt>
      <trkpt lat="47.32075" lon="-2.35063">
        <ele>25.39999961853</ele>
        <time>2021-07-29T09:46:53.000Z</time>
      </trkpt>
      <trkpt lat="47.32069" lon="-2.35063">
        <ele>25</ele>
        <time>2021-07-29T09:46:54.000Z</time>
      </trkpt>
      <trkpt lat="47.32063" lon="-2.35063">
        <ele>24.60000038147</ele>
        <time>2021-07-29T09:46:55.000Z</time>
      </trkpt>
      <trkpt lat="47.32057" lon="-2.35063">
        <ele>24.200000762939</ele>
        <time>2021-07-29T09:46:56.000Z</time>
      </trkpt>
      <trkpt lat="47.32051" lon="-2.35062">
        <ele>24.200000762939</ele>
        <time>2021-07-29T09:46:57.000Z</time>
      </trkpt>
      <trkpt lat="47.32041" lon="-2.35062">
        <ele>24.200000762939</ele>
        <time>2021-07-29T09:46:59.000Z</time>
      </trkpt>
      <trkpt lat="47.32035" lon="-2.35068">
        <ele>24.200000762939</ele>
        <time>2021-07-29T09:47:01.000Z</time>
      </trkpt>
      <trkpt lat="47.32036" lon="-2.35079">
        <ele>24.200000762939</ele>
        <time>2021-07-29T09:47:03.000Z</time>
      </trkpt>
      <trkpt lat="47.32037" lon="-2.35086">
        <ele>24.200000762939</ele>
        <time>2021-07-29T09:47:04.000Z</time>
      </trkpt>
      <trkpt lat="47.3204" lon="-2.351">
        <ele>24.200000762939</ele>
        <time>2021-07-29T09:47:06.000Z</time>
      </trkpt>
      <trkpt lat="47.32038" lon="-2.35121">
        <ele>24.200000762939</ele>
        <time>2021-07-29T09:47:09.000Z</time>
      </trkpt>
      <trkpt lat="47.32027" lon="-2.35136">
        <ele>24.200000762939</ele>
        <time>2021-07-29T09:47:12.000Z</time>
      </trkpt>
      <trkpt lat="47.31994" lon="-2.35165">
        <ele>24.200000762939</ele>
        <time>2021-07-29T09:47:19.000Z</time>
      </trkpt>
      <trkpt lat="47.31976" lon="-2.35182">
        <ele>24.200000762939</ele>
        <time>2021-07-29T09:47:23.000Z</time>
      </trkpt>
      <trkpt lat="47.31969" lon="-2.3519">
        <ele>24.200000762939</ele>
        <time>2021-07-29T09:47:25.000Z</time>
      </trkpt>
      <trkpt lat="47.31965" lon="-2.35193">
        <ele>24.200000762939</ele>
        <time>2021-07-29T09:47:26.000Z</time>
      </trkpt>
      <trkpt lat="47.31946" lon="-2.3521">
        <ele>24.200000762939</ele>
        <time>2021-07-29T09:47:30.000Z</time>
      </trkpt>
      <trkpt lat="47.31942" lon="-2.35215">
        <ele>24.200000762939</ele>
        <time>2021-07-29T09:47:31.000Z</time>
      </trkpt>
      <trkpt lat="47.3191" lon="-2.35246">
        <ele>24.200000762939</ele>
        <time>2021-07-29T09:47:37.000Z</time>
      </trkpt>
      <trkpt lat="47.31882" lon="-2.35273">
        <ele>24.200000762939</ele>
        <time>2021-07-29T09:47:43.000Z</time>
      </trkpt>
      <trkpt lat="47.31871" lon="-2.35281">
        <ele>24.60000038147</ele>
        <time>2021-07-29T09:47:45.000Z</time>
      </trkpt>
      <trkpt lat="47.31866" lon="-2.35285">
        <ele>25</ele>
        <time>2021-07-29T09:47:46.000Z</time>
      </trkpt>
      <trkpt lat="47.31862" lon="-2.35289">
        <ele>25.39999961853</ele>
        <time>2021-07-29T09:47:47.000Z</time>
      </trkpt>
      <trkpt lat="47.31856" lon="-2.35293">
        <ele>25.799999237061</ele>
        <time>2021-07-29T09:47:48.000Z</time>
      </trkpt>
      <trkpt lat="47.3185" lon="-2.35296">
        <ele>26.200000762939</ele>
        <time>2021-07-29T09:47:49.000Z</time>
      </trkpt>
      <trkpt lat="47.31818" lon="-2.35317">
        <ele>26.200000762939</ele>
        <time>2021-07-29T09:47:55.000Z</time>
      </trkpt>
      <trkpt lat="47.31809" lon="-2.35323">
        <ele>26.60000038147</ele>
        <time>2021-07-29T09:47:57.000Z</time>
      </trkpt>
      <trkpt lat="47.31804" lon="-2.35326">
        <ele>27</ele>
        <time>2021-07-29T09:47:58.000Z</time>
      </trkpt>
      <trkpt lat="47.318" lon="-2.35329">
        <ele>27.39999961853</ele>
        <time>2021-07-29T09:47:59.000Z</time>
      </trkpt>
      <trkpt lat="47.31796" lon="-2.35331">
        <ele>27.799999237061</ele>
        <time>2021-07-29T09:48:00.000Z</time>
      </trkpt>
      <trkpt lat="47.31791" lon="-2.35334">
        <ele>28.200000762939</ele>
        <time>2021-07-29T09:48:01.000Z</time>
      </trkpt>
      <trkpt lat="47.31781" lon="-2.3534">
        <ele>28.200000762939</ele>
        <time>2021-07-29T09:48:03.000Z</time>
      </trkpt>
      <trkpt lat="47.3177" lon="-2.35349">
        <ele>28.200000762939</ele>
        <time>2021-07-29T09:48:06.000Z</time>
      </trkpt>
      <trkpt lat="47.3176" lon="-2.35364">
        <ele>28.200000762939</ele>
        <time>2021-07-29T09:48:10.000Z</time>
      </trkpt>
      <trkpt lat="47.3176" lon="-2.35368">
        <ele>28.200000762939</ele>
        <time>2021-07-29T09:48:11.000Z</time>
      </trkpt>
      <trkpt lat="47.31765" lon="-2.35381">
        <ele>28.200000762939</ele>
        <time>2021-07-29T09:48:14.000Z</time>
      </trkpt>
      <trkpt lat="47.3177" lon="-2.35391">
        <ele>28.200000762939</ele>
        <time>2021-07-29T09:48:16.000Z</time>
      </trkpt>
      <trkpt lat="47.3178" lon="-2.35408">
        <ele>28.200000762939</ele>
        <time>2021-07-29T09:48:19.000Z</time>
      </trkpt>
      <trkpt lat="47.31791" lon="-2.35426">
        <ele>28.200000762939</ele>
        <time>2021-07-29T09:48:23.000Z</time>
      </trkpt>
      <trkpt lat="47.31799" lon="-2.35437">
        <ele>28.200000762939</ele>
        <time>2021-07-29T09:48:28.000Z</time>
      </trkpt>
      <trkpt lat="47.31804" lon="-2.35446">
        <ele>28.200000762939</ele>
        <time>2021-07-29T09:48:34.000Z</time>
      </trkpt>
      <trkpt lat="47.31806" lon="-2.3545">
        <ele>27.799999237061</ele>
        <time>2021-07-29T09:48:38.000Z</time>
      </trkpt>
      <trkpt lat="47.31806" lon="-2.35451">
        <ele>27</ele>
        <time>2021-07-29T09:48:39.000Z</time>
      </trkpt>
      <trkpt lat="47.31807" lon="-2.35452">
        <ele>26.39999961853</ele>
        <time>2021-07-29T09:48:40.000Z</time>
      </trkpt>
      <trkpt lat="47.31807" lon="-2.35453">
        <ele>26</ele>
        <time>2021-07-29T09:48:41.000Z</time>
      </trkpt>
      <trkpt lat="47.3181" lon="-2.35461">
        <ele>26</ele>
        <time>2021-07-29T09:48:48.000Z</time>
      </trkpt>
      <trkpt lat="47.31811" lon="-2.35467">
        <ele>26</ele>
        <time>2021-07-29T09:48:51.000Z</time>
      </trkpt>
      <trkpt lat="47.31813" lon="-2.35469">
        <ele>26</ele>
        <time>2021-07-29T09:48:52.000Z</time>
      </trkpt>
      <trkpt lat="47.31818" lon="-2.35479">
        <ele>26</ele>
        <time>2021-07-29T09:48:56.000Z</time>
      </trkpt>
      <trkpt lat="47.31822" lon="-2.35484">
        <ele>26</ele>
        <time>2021-07-29T09:48:58.000Z</time>
      </trkpt>
      <trkpt lat="47.3183" lon="-2.35494">
        <ele>26</ele>
        <time>2021-07-29T09:49:01.000Z</time>
      </trkpt>
      <trkpt lat="47.31841" lon="-2.3552">
        <ele>26</ele>
        <time>2021-07-29T09:49:06.000Z</time>
      </trkpt>
      <trkpt lat="47.31837" lon="-2.35535">
        <ele>26</ele>
        <time>2021-07-29T09:49:10.000Z</time>
      </trkpt>
      <trkpt lat="47.31832" lon="-2.3554">
        <ele>26</ele>
        <time>2021-07-29T09:49:12.000Z</time>
      </trkpt>
      <trkpt lat="47.31826" lon="-2.35547">
        <ele>26</ele>
        <time>2021-07-29T09:49:14.000Z</time>
      </trkpt>
      <trkpt lat="47.31815" lon="-2.35566">
        <ele>26</ele>
        <time>2021-07-29T09:49:18.000Z</time>
      </trkpt>
      <trkpt lat="47.31814" lon="-2.35572">
        <ele>26</ele>
        <time>2021-07-29T09:49:19.000Z</time>
      </trkpt>
      <trkpt lat="47.31801" lon="-2.35602">
        <ele>26</ele>
        <time>2021-07-29T09:49:24.000Z</time>
      </trkpt>
      <trkpt lat="47.31788" lon="-2.35638">
        <ele>26</ele>
        <time>2021-07-29T09:49:29.000Z</time>
      </trkpt>
      <trkpt lat="47.31786" lon="-2.35657">
        <ele>26.39999961853</ele>
        <time>2021-07-29T09:49:32.000Z</time>
      </trkpt>
      <trkpt lat="47.31786" lon="-2.35663">
        <ele>26.799999237061</ele>
        <time>2021-07-29T09:49:33.000Z</time>
      </trkpt>
      <trkpt lat="47.31786" lon="-2.35669">
        <ele>27.39999961853</ele>
        <time>2021-07-29T09:49:34.000Z</time>
      </trkpt>
      <trkpt lat="47.31786" lon="-2.35676">
        <ele>27.799999237061</ele>
        <time>2021-07-29T09:49:35.000Z</time>
      </trkpt>
      <trkpt lat="47.31786" lon="-2.35682">
        <ele>28.200000762939</ele>
        <time>2021-07-29T09:49:36.000Z</time>
      </trkpt>
      <trkpt lat="47.31786" lon="-2.35712">
        <ele>28.200000762939</ele>
        <time>2021-07-29T09:49:41.000Z</time>
      </trkpt>
      <trkpt lat="47.31787" lon="-2.35723">
        <ele>28.60000038147</ele>
        <time>2021-07-29T09:49:43.000Z</time>
      </trkpt>
      <trkpt lat="47.31786" lon="-2.35729">
        <ele>29</ele>
        <time>2021-07-29T09:49:44.000Z</time>
      </trkpt>
      <trkpt lat="47.31786" lon="-2.35735">
        <ele>29.39999961853</ele>
        <time>2021-07-29T09:49:45.000Z</time>
      </trkpt>
      <trkpt lat="47.31786" lon="-2.35742">
        <ele>30</ele>
        <time>2021-07-29T09:49:46.000Z</time>
      </trkpt>
      <trkpt lat="47.31786" lon="-2.35749">
        <ele>30.39999961853</ele>
        <time>2021-07-29T09:49:47.000Z</time>
      </trkpt>
      <trkpt lat="47.31786" lon="-2.35756">
        <ele>30.39999961853</ele>
        <time>2021-07-29T09:49:48.000Z</time>
      </trkpt>
      <trkpt lat="47.31788" lon="-2.35782">
        <ele>30.39999961853</ele>
        <time>2021-07-29T09:49:51.000Z</time>
      </trkpt>
      <trkpt lat="47.31789" lon="-2.3579">
        <ele>30.39999961853</ele>
        <time>2021-07-29T09:49:52.000Z</time>
      </trkpt>
      <trkpt lat="47.31792" lon="-2.35798">
        <ele>30.39999961853</ele>
        <time>2021-07-29T09:49:53.000Z</time>
      </trkpt>
      <trkpt lat="47.31803" lon="-2.35815">
        <ele>30.39999961853</ele>
        <time>2021-07-29T09:49:56.000Z</time>
      </trkpt>
      <trkpt lat="47.3182" lon="-2.3584">
        <ele>30.39999961853</ele>
        <time>2021-07-29T09:50:02.000Z</time>
      </trkpt>
      <trkpt lat="47.31825" lon="-2.35865">
        <ele>30.39999961853</ele>
        <time>2021-07-29T09:50:07.000Z</time>
      </trkpt>
      <trkpt lat="47.31822" lon="-2.35875">
        <ele>30.39999961853</ele>
        <time>2021-07-29T09:50:09.000Z</time>
      </trkpt>
      <trkpt lat="47.31819" lon="-2.35879">
        <ele>30.39999961853</ele>
        <time>2021-07-29T09:50:10.000Z</time>
      </trkpt>
      <trkpt lat="47.31806" lon="-2.35887">
        <ele>30.39999961853</ele>
        <time>2021-07-29T09:50:13.000Z</time>
      </trkpt>
      <trkpt lat="47.31792" lon="-2.35894">
        <ele>30.39999961853</ele>
        <time>2021-07-29T09:50:16.000Z</time>
      </trkpt>
      <trkpt lat="47.31783" lon="-2.35901">
        <ele>30.39999961853</ele>
        <time>2021-07-29T09:50:18.000Z</time>
      </trkpt>
      <trkpt lat="47.31769" lon="-2.35909">
        <ele>30.39999961853</ele>
        <time>2021-07-29T09:50:21.000Z</time>
      </trkpt>
      <trkpt lat="47.3175" lon="-2.3592">
        <ele>30.799999237061</ele>
        <time>2021-07-29T09:50:25.000Z</time>
      </trkpt>
      <trkpt lat="47.31745" lon="-2.35922">
        <ele>31.200000762939</ele>
        <time>2021-07-29T09:50:26.000Z</time>
      </trkpt>
      <trkpt lat="47.31741" lon="-2.35925">
        <ele>31.60000038147</ele>
        <time>2021-07-29T09:50:27.000Z</time>
      </trkpt>
      <trkpt lat="47.31736" lon="-2.35928">
        <ele>32</ele>
        <time>2021-07-29T09:50:28.000Z</time>
      </trkpt>
      <trkpt lat="47.31732" lon="-2.35931">
        <ele>32.400001525879</ele>
        <time>2021-07-29T09:50:29.000Z</time>
      </trkpt>
      <trkpt lat="47.31705" lon="-2.35946">
        <ele>32.400001525879</ele>
        <time>2021-07-29T09:50:35.000Z</time>
      </trkpt>
      <trkpt lat="47.3169" lon="-2.35952">
        <ele>32.799999237061</ele>
        <time>2021-07-29T09:50:38.000Z</time>
      </trkpt>
      <trkpt lat="47.31686" lon="-2.35955">
        <ele>33.200000762939</ele>
        <time>2021-07-29T09:50:39.000Z</time>
      </trkpt>
      <trkpt lat="47.31681" lon="-2.35958">
        <ele>33.599998474121</ele>
        <time>2021-07-29T09:50:40.000Z</time>
      </trkpt>
      <trkpt lat="47.31677" lon="-2.35961">
        <ele>34</ele>
        <time>2021-07-29T09:50:41.000Z</time>
      </trkpt>
      <trkpt lat="47.31672" lon="-2.35963">
        <ele>34.400001525879</ele>
        <time>2021-07-29T09:50:42.000Z</time>
      </trkpt>
      <trkpt lat="47.3165" lon="-2.35977">
        <ele>34.400001525879</ele>
        <time>2021-07-29T09:50:47.000Z</time>
      </trkpt>
      <trkpt lat="47.31635" lon="-2.35992">
        <ele>34.400001525879</ele>
        <time>2021-07-29T09:50:51.000Z</time>
      </trkpt>
      <trkpt lat="47.31631" lon="-2.35996">
        <ele>34.400001525879</ele>
        <time>2021-07-29T09:50:52.000Z</time>
      </trkpt>
      <trkpt lat="47.31608" lon="-2.36022">
        <ele>34.799999237061</ele>
        <time>2021-07-29T09:50:58.000Z</time>
      </trkpt>
      <trkpt lat="47.31604" lon="-2.36027">
        <ele>35.400001525879</ele>
        <time>2021-07-29T09:50:59.000Z</time>
      </trkpt>
      <trkpt lat="47.316" lon="-2.36031">
        <ele>35.799999237061</ele>
        <time>2021-07-29T09:51:00.000Z</time>
      </trkpt>
      <trkpt lat="47.31596" lon="-2.36035">
        <ele>36.200000762939</ele>
        <time>2021-07-29T09:51:01.000Z</time>
      </trkpt>
      <trkpt lat="47.31592" lon="-2.36039">
        <ele>36.599998474121</ele>
        <time>2021-07-29T09:51:02.000Z</time>
      </trkpt>
      <trkpt lat="47.31581" lon="-2.3605">
        <ele>36.599998474121</ele>
        <time>2021-07-29T09:51:05.000Z</time>
      </trkpt>
      <trkpt lat="47.31557" lon="-2.36074">
        <ele>36.599998474121</ele>
        <time>2021-07-29T09:51:11.000Z</time>
      </trkpt>
      <trkpt lat="47.31553" lon="-2.36078">
        <ele>36.599998474121</ele>
        <time>2021-07-29T09:51:12.000Z</time>
      </trkpt>
      <trkpt lat="47.31537" lon="-2.36097">
        <ele>36.599998474121</ele>
        <time>2021-07-29T09:51:16.000Z</time>
      </trkpt>
      <trkpt lat="47.3152" lon="-2.36115">
        <ele>37</ele>
        <time>2021-07-29T09:51:20.000Z</time>
      </trkpt>
      <trkpt lat="47.31516" lon="-2.36119">
        <ele>37.400001525879</ele>
        <time>2021-07-29T09:51:21.000Z</time>
      </trkpt>
      <trkpt lat="47.31512" lon="-2.36124">
        <ele>37.799999237061</ele>
        <time>2021-07-29T09:51:22.000Z</time>
      </trkpt>
      <trkpt lat="47.31508" lon="-2.36129">
        <ele>38.200000762939</ele>
        <time>2021-07-29T09:51:23.000Z</time>
      </trkpt>
      <trkpt lat="47.31504" lon="-2.36134">
        <ele>38.599998474121</ele>
        <time>2021-07-29T09:51:24.000Z</time>
      </trkpt>
      <trkpt lat="47.315" lon="-2.36139">
        <ele>38.599998474121</ele>
        <time>2021-07-29T09:51:25.000Z</time>
      </trkpt>
      <trkpt lat="47.31489" lon="-2.3615">
        <ele>38.599998474121</ele>
        <time>2021-07-29T09:51:28.000Z</time>
      </trkpt>
      <trkpt lat="47.31483" lon="-2.36156">
        <ele>38.599998474121</ele>
        <time>2021-07-29T09:51:30.000Z</time>
      </trkpt>
      <trkpt lat="47.31474" lon="-2.36167">
        <ele>38.599998474121</ele>
        <time>2021-07-29T09:51:34.000Z</time>
      </trkpt>
      <trkpt lat="47.31464" lon="-2.36177">
        <ele>38.599998474121</ele>
        <time>2021-07-29T09:51:39.000Z</time>
      </trkpt>
      <trkpt lat="47.31462" lon="-2.36178">
        <ele>38.599998474121</ele>
        <time>2021-07-29T09:51:42.000Z</time>
      </trkpt>
      <trkpt lat="47.31461" lon="-2.36174">
        <ele>38.599998474121</ele>
        <time>2021-07-29T09:52:27.000Z</time>
      </trkpt>
      <trkpt lat="47.31456" lon="-2.36157">
        <ele>38.599998474121</ele>
        <time>2021-07-29T09:52:31.000Z</time>
      </trkpt>
      <trkpt lat="47.31447" lon="-2.36125">
        <ele>38.599998474121</ele>
        <time>2021-07-29T09:52:37.000Z</time>
      </trkpt>
      <trkpt lat="47.31435" lon="-2.36097">
        <ele>38.599998474121</ele>
        <time>2021-07-29T09:52:42.000Z</time>
      </trkpt>
      <trkpt lat="47.31432" lon="-2.36084">
        <ele>38.599998474121</ele>
        <time>2021-07-29T09:52:44.000Z</time>
      </trkpt>
      <trkpt lat="47.31421" lon="-2.3605">
        <ele>38.599998474121</ele>
        <time>2021-07-29T09:52:49.000Z</time>
      </trkpt>
      <trkpt lat="47.31419" lon="-2.36043">
        <ele>38.599998474121</ele>
        <time>2021-07-29T09:52:50.000Z</time>
      </trkpt>
      <trkpt lat="47.31414" lon="-2.36028">
        <ele>38.200000762939</ele>
        <time>2021-07-29T09:52:52.000Z</time>
      </trkpt>
      <trkpt lat="47.31411" lon="-2.3602">
        <ele>37.799999237061</ele>
        <time>2021-07-29T09:52:53.000Z</time>
      </trkpt>
      <trkpt lat="47.31408" lon="-2.36013">
        <ele>37.400001525879</ele>
        <time>2021-07-29T09:52:54.000Z</time>
      </trkpt>
      <trkpt lat="47.31405" lon="-2.36005">
        <ele>37</ele>
        <time>2021-07-29T09:52:55.000Z</time>
      </trkpt>
      <trkpt lat="47.31402" lon="-2.35998">
        <ele>36.599998474121</ele>
        <time>2021-07-29T09:52:56.000Z</time>
      </trkpt>
      <trkpt lat="47.31391" lon="-2.35964">
        <ele>36.599998474121</ele>
        <time>2021-07-29T09:53:00.000Z</time>
      </trkpt>
      <trkpt lat="47.31383" lon="-2.35949">
        <ele>36.200000762939</ele>
        <time>2021-07-29T09:53:02.000Z</time>
      </trkpt>
      <trkpt lat="47.31379" lon="-2.35941">
        <ele>35.799999237061</ele>
        <time>2021-07-29T09:53:03.000Z</time>
      </trkpt>
      <trkpt lat="47.31375" lon="-2.35934">
        <ele>35.400001525879</ele>
        <time>2021-07-29T09:53:04.000Z</time>
      </trkpt>
      <trkpt lat="47.31371" lon="-2.35927">
        <ele>35</ele>
        <time>2021-07-29T09:53:05.000Z</time>
      </trkpt>
      <trkpt lat="47.31368" lon="-2.3592">
        <ele>34.599998474121</ele>
        <time>2021-07-29T09:53:06.000Z</time>
      </trkpt>
      <trkpt lat="47.31353" lon="-2.35888">
        <ele>34.599998474121</ele>
        <time>2021-07-29T09:53:11.000Z</time>
      </trkpt>
      <trkpt lat="47.3134" lon="-2.35856">
        <ele>34.599998474121</ele>
        <time>2021-07-29T09:53:16.000Z</time>
      </trkpt>
      <trkpt lat="47.3134" lon="-2.35848">
        <ele>34.599998474121</ele>
        <time>2021-07-29T09:53:17.000Z</time>
      </trkpt>
      <trkpt lat="47.31333" lon="-2.35792">
        <ele>34.599998474121</ele>
        <time>2021-07-29T09:53:24.000Z</time>
      </trkpt>
      <trkpt lat="47.31333" lon="-2.35784">
        <ele>35</ele>
        <time>2021-07-29T09:53:25.000Z</time>
      </trkpt>
      <trkpt lat="47.31332" lon="-2.35775">
        <ele>35.400001525879</ele>
        <time>2021-07-29T09:53:26.000Z</time>
      </trkpt>
      <trkpt lat="47.31331" lon="-2.35767">
        <ele>35.799999237061</ele>
        <time>2021-07-29T09:53:27.000Z</time>
      </trkpt>
      <trkpt lat="47.31331" lon="-2.35758">
        <ele>36.400001525879</ele>
        <time>2021-07-29T09:53:28.000Z</time>
      </trkpt>
      <trkpt lat="47.31331" lon="-2.3575">
        <ele>36.799999237061</ele>
        <time>2021-07-29T09:53:29.000Z</time>
      </trkpt>
      <trkpt lat="47.31331" lon="-2.35741">
        <ele>36.799999237061</ele>
        <time>2021-07-29T09:53:30.000Z</time>
      </trkpt>
      <trkpt lat="47.31331" lon="-2.35678">
        <ele>36.799999237061</ele>
        <time>2021-07-29T09:53:37.000Z</time>
      </trkpt>
      <trkpt lat="47.31329" lon="-2.35613">
        <ele>36.799999237061</ele>
        <time>2021-07-29T09:53:44.000Z</time>
      </trkpt>
      <trkpt lat="47.31328" lon="-2.35554">
        <ele>36.799999237061</ele>
        <time>2021-07-29T09:53:50.000Z</time>
      </trkpt>
      <trkpt lat="47.3133" lon="-2.35543">
        <ele>36.799999237061</ele>
        <time>2021-07-29T09:53:51.000Z</time>
      </trkpt>
      <trkpt lat="47.31332" lon="-2.35495">
        <ele>36.799999237061</ele>
        <time>2021-07-29T09:53:56.000Z</time>
      </trkpt>
      <trkpt lat="47.31332" lon="-2.35425">
        <ele>36.799999237061</ele>
        <time>2021-07-29T09:54:03.000Z</time>
      </trkpt>
      <trkpt lat="47.31335" lon="-2.35357">
        <ele>36.799999237061</ele>
        <time>2021-07-29T09:54:10.000Z</time>
      </trkpt>
      <trkpt lat="47.31338" lon="-2.35285">
        <ele>36.799999237061</ele>
        <time>2021-07-29T09:54:17.000Z</time>
      </trkpt>
      <trkpt lat="47.31338" lon="-2.35274">
        <ele>36.799999237061</ele>
        <time>2021-07-29T09:54:18.000Z</time>
      </trkpt>
      <trkpt lat="47.31338" lon="-2.35222">
        <ele>36.799999237061</ele>
        <time>2021-07-29T09:54:23.000Z</time>
      </trkpt>
      <trkpt lat="47.31343" lon="-2.35139">
        <ele>36.799999237061</ele>
        <time>2021-07-29T09:54:31.000Z</time>
      </trkpt>
      <trkpt lat="47.31343" lon="-2.35107">
        <ele>36.400001525879</ele>
        <time>2021-07-29T09:54:34.000Z</time>
      </trkpt>
      <trkpt lat="47.31343" lon="-2.35096">
        <ele>36</ele>
        <time>2021-07-29T09:54:35.000Z</time>
      </trkpt>
      <trkpt lat="47.31343" lon="-2.35086">
        <ele>35.599998474121</ele>
        <time>2021-07-29T09:54:36.000Z</time>
      </trkpt>
      <trkpt lat="47.31344" lon="-2.35074">
        <ele>35.200000762939</ele>
        <time>2021-07-29T09:54:37.000Z</time>
      </trkpt>
      <trkpt lat="47.31344" lon="-2.35064">
        <ele>34.799999237061</ele>
        <time>2021-07-29T09:54:38.000Z</time>
      </trkpt>
      <trkpt lat="47.31345" lon="-2.35053">
        <ele>34.799999237061</ele>
        <time>2021-07-29T09:54:39.000Z</time>
      </trkpt>
      <trkpt lat="47.31342" lon="-2.35002">
        <ele>34.799999237061</ele>
        <time>2021-07-29T09:54:44.000Z</time>
      </trkpt>
      <trkpt lat="47.3134" lon="-2.34993">
        <ele>34.799999237061</ele>
        <time>2021-07-29T09:54:45.000Z</time>
      </trkpt>
      <trkpt lat="47.31326" lon="-2.34934">
        <ele>34.799999237061</ele>
        <time>2021-07-29T09:54:51.000Z</time>
      </trkpt>
      <trkpt lat="47.31307" lon="-2.34871">
        <ele>34.799999237061</ele>
        <time>2021-07-29T09:54:58.000Z</time>
      </trkpt>
      <trkpt lat="47.31302" lon="-2.34853">
        <ele>34.799999237061</ele>
        <time>2021-07-29T09:55:00.000Z</time>
      </trkpt>
      <trkpt lat="47.31296" lon="-2.34825">
        <ele>34.799999237061</ele>
        <time>2021-07-29T09:55:03.000Z</time>
      </trkpt>
      <trkpt lat="47.31287" lon="-2.34774">
        <ele>34.799999237061</ele>
        <time>2021-07-29T09:55:09.000Z</time>
      </trkpt>
      <trkpt lat="47.31285" lon="-2.34766">
        <ele>34.799999237061</ele>
        <time>2021-07-29T09:55:10.000Z</time>
      </trkpt>
      <trkpt lat="47.31281" lon="-2.34734">
        <ele>34.799999237061</ele>
        <time>2021-07-29T09:55:14.000Z</time>
      </trkpt>
      <trkpt lat="47.31274" lon="-2.34704">
        <ele>34.799999237061</ele>
        <time>2021-07-29T09:55:18.000Z</time>
      </trkpt>
      <trkpt lat="47.31275" lon="-2.34698">
        <ele>34.799999237061</ele>
        <time>2021-07-29T09:55:19.000Z</time>
      </trkpt>
      <trkpt lat="47.31288" lon="-2.34671">
        <ele>34.799999237061</ele>
        <time>2021-07-29T09:55:23.000Z</time>
      </trkpt>
      <trkpt lat="47.31291" lon="-2.34643">
        <ele>34.799999237061</ele>
        <time>2021-07-29T09:55:26.000Z</time>
      </trkpt>
      <trkpt lat="47.3129" lon="-2.34632">
        <ele>34.799999237061</ele>
        <time>2021-07-29T09:55:27.000Z</time>
      </trkpt>
      <trkpt lat="47.31286" lon="-2.34586">
        <ele>34.799999237061</ele>
        <time>2021-07-29T09:55:31.000Z</time>
      </trkpt>
      <trkpt lat="47.31283" lon="-2.34563">
        <ele>34.200000762939</ele>
        <time>2021-07-29T09:55:33.000Z</time>
      </trkpt>
      <trkpt lat="47.31282" lon="-2.34551">
        <ele>33.799999237061</ele>
        <time>2021-07-29T09:55:34.000Z</time>
      </trkpt>
      <trkpt lat="47.31281" lon="-2.34539">
        <ele>33.400001525879</ele>
        <time>2021-07-29T09:55:35.000Z</time>
      </trkpt>
      <trkpt lat="47.3128" lon="-2.34528">
        <ele>32.599998474121</ele>
        <time>2021-07-29T09:55:36.000Z</time>
      </trkpt>
      <trkpt lat="47.31277" lon="-2.34504">
        <ele>32.599998474121</ele>
        <time>2021-07-29T09:55:38.000Z</time>
      </trkpt>
      <trkpt lat="47.31274" lon="-2.34481">
        <ele>32.200000762939</ele>
        <time>2021-07-29T09:55:40.000Z</time>
      </trkpt>
      <trkpt lat="47.31273" lon="-2.3447">
        <ele>31.799999237061</ele>
        <time>2021-07-29T09:55:41.000Z</time>
      </trkpt>
      <trkpt lat="47.31272" lon="-2.34458">
        <ele>31.39999961853</ele>
        <time>2021-07-29T09:55:42.000Z</time>
      </trkpt>
      <trkpt lat="47.3127" lon="-2.34446">
        <ele>31</ele>
        <time>2021-07-29T09:55:43.000Z</time>
      </trkpt>
      <trkpt lat="47.31268" lon="-2.34433">
        <ele>30.60000038147</ele>
        <time>2021-07-29T09:55:44.000Z</time>
      </trkpt>
      <trkpt lat="47.31267" lon="-2.34421">
        <ele>30.60000038147</ele>
        <time>2021-07-29T09:55:45.000Z</time>
      </trkpt>
      <trkpt lat="47.31265" lon="-2.34396">
        <ele>30</ele>
        <time>2021-07-29T09:55:47.000Z</time>
      </trkpt>
      <trkpt lat="47.31263" lon="-2.34383">
        <ele>29.60000038147</ele>
        <time>2021-07-29T09:55:48.000Z</time>
      </trkpt>
      <trkpt lat="47.31259" lon="-2.34371">
        <ele>29.200000762939</ele>
        <time>2021-07-29T09:55:49.000Z</time>
      </trkpt>
      <trkpt lat="47.31256" lon="-2.3436">
        <ele>28.799999237061</ele>
        <time>2021-07-29T09:55:50.000Z</time>
      </trkpt>
      <trkpt lat="47.31251" lon="-2.34349">
        <ele>28.200000762939</ele>
        <time>2021-07-29T09:55:51.000Z</time>
      </trkpt>
      <trkpt lat="47.31243" lon="-2.34333">
        <ele>28.200000762939</ele>
        <time>2021-07-29T09:55:53.000Z</time>
      </trkpt>
      <trkpt lat="47.31238" lon="-2.34326">
        <ele>27.799999237061</ele>
        <time>2021-07-29T09:55:54.000Z</time>
      </trkpt>
      <trkpt lat="47.31232" lon="-2.34321">
        <ele>27.39999961853</ele>
        <time>2021-07-29T09:55:55.000Z</time>
      </trkpt>
      <trkpt lat="47.31222" lon="-2.34316">
        <ele>27</ele>
        <time>2021-07-29T09:55:56.000Z</time>
      </trkpt>
      <trkpt lat="47.31211" lon="-2.3431">
        <ele>26.60000038147</ele>
        <time>2021-07-29T09:55:57.000Z</time>
      </trkpt>
      <trkpt lat="47.31202" lon="-2.34303">
        <ele>26.200000762939</ele>
        <time>2021-07-29T09:55:58.000Z</time>
      </trkpt>
      <trkpt lat="47.31184" lon="-2.34274">
        <ele>26.200000762939</ele>
        <time>2021-07-29T09:56:01.000Z</time>
      </trkpt>
      <trkpt lat="47.31152" lon="-2.34218">
        <ele>26.200000762939</ele>
        <time>2021-07-29T09:56:07.000Z</time>
      </trkpt>
      <trkpt lat="47.31127" lon="-2.34173">
        <ele>26.200000762939</ele>
        <time>2021-07-29T09:56:13.000Z</time>
      </trkpt>
      <trkpt lat="47.31119" lon="-2.34161">
        <ele>26.200000762939</ele>
        <time>2021-07-29T09:56:15.000Z</time>
      </trkpt>
      <trkpt lat="47.31107" lon="-2.34142">
        <ele>26.60000038147</ele>
        <time>2021-07-29T09:56:18.000Z</time>
      </trkpt>
      <trkpt lat="47.31104" lon="-2.34135">
        <ele>27</ele>
        <time>2021-07-29T09:56:19.000Z</time>
      </trkpt>
      <trkpt lat="47.311" lon="-2.34129">
        <ele>27.60000038147</ele>
        <time>2021-07-29T09:56:20.000Z</time>
      </trkpt>
      <trkpt lat="47.31096" lon="-2.34122">
        <ele>28</ele>
        <time>2021-07-29T09:56:21.000Z</time>
      </trkpt>
      <trkpt lat="47.31092" lon="-2.34116">
        <ele>28.39999961853</ele>
        <time>2021-07-29T09:56:22.000Z</time>
      </trkpt>
      <trkpt lat="47.31089" lon="-2.34109">
        <ele>28.39999961853</ele>
        <time>2021-07-29T09:56:23.000Z</time>
      </trkpt>
      <trkpt lat="47.31082" lon="-2.34094">
        <ele>28.799999237061</ele>
        <time>2021-07-29T09:56:25.000Z</time>
      </trkpt>
      <trkpt lat="47.3108" lon="-2.34087">
        <ele>29.799999237061</ele>
        <time>2021-07-29T09:56:26.000Z</time>
      </trkpt>
      <trkpt lat="47.31077" lon="-2.34079">
        <ele>30.200000762939</ele>
        <time>2021-07-29T09:56:27.000Z</time>
      </trkpt>
      <trkpt lat="47.31074" lon="-2.34071">
        <ele>30.60000038147</ele>
        <time>2021-07-29T09:56:28.000Z</time>
      </trkpt>
      <trkpt lat="47.31072" lon="-2.34063">
        <ele>30.60000038147</ele>
        <time>2021-07-29T09:56:29.000Z</time>
      </trkpt>
      <trkpt lat="47.31066" lon="-2.34028">
        <ele>31</ele>
        <time>2021-07-29T09:56:33.000Z</time>
      </trkpt>
      <trkpt lat="47.31065" lon="-2.34019">
        <ele>31.39999961853</ele>
        <time>2021-07-29T09:56:34.000Z</time>
      </trkpt>
      <trkpt lat="47.31064" lon="-2.3401">
        <ele>31.799999237061</ele>
        <time>2021-07-29T09:56:35.000Z</time>
      </trkpt>
      <trkpt lat="47.31063" lon="-2.34001">
        <ele>32.200000762939</ele>
        <time>2021-07-29T09:56:36.000Z</time>
      </trkpt>
      <trkpt lat="47.31063" lon="-2.33992">
        <ele>32.599998474121</ele>
        <time>2021-07-29T09:56:37.000Z</time>
      </trkpt>
      <trkpt lat="47.31062" lon="-2.33965">
        <ele>32.599998474121</ele>
        <time>2021-07-29T09:56:40.000Z</time>
      </trkpt>
      <trkpt lat="47.31062" lon="-2.33956">
        <ele>32.599998474121</ele>
        <time>2021-07-29T09:56:41.000Z</time>
      </trkpt>
      <trkpt lat="47.31055" lon="-2.33943">
        <ele>32.599998474121</ele>
        <time>2021-07-29T09:56:43.000Z</time>
      </trkpt>
      <trkpt lat="47.31039" lon="-2.33942">
        <ele>32.599998474121</ele>
        <time>2021-07-29T09:56:46.000Z</time>
      </trkpt>
      <trkpt lat="47.31033" lon="-2.33944">
        <ele>32.599998474121</ele>
        <time>2021-07-29T09:56:47.000Z</time>
      </trkpt>
      <trkpt lat="47.3101" lon="-2.33951">
        <ele>32.599998474121</ele>
        <time>2021-07-29T09:56:51.000Z</time>
      </trkpt>
      <trkpt lat="47.30999" lon="-2.33953">
        <ele>32.599998474121</ele>
        <time>2021-07-29T09:56:53.000Z</time>
      </trkpt>
      <trkpt lat="47.30978" lon="-2.33955">
        <ele>33</ele>
        <time>2021-07-29T09:56:57.000Z</time>
      </trkpt>
      <trkpt lat="47.30973" lon="-2.33955">
        <ele>33.400001525879</ele>
        <time>2021-07-29T09:56:58.000Z</time>
      </trkpt>
      <trkpt lat="47.30968" lon="-2.33955">
        <ele>34</ele>
        <time>2021-07-29T09:56:59.000Z</time>
      </trkpt>
      <trkpt lat="47.30962" lon="-2.33954">
        <ele>34.400001525879</ele>
        <time>2021-07-29T09:57:00.000Z</time>
      </trkpt>
      <trkpt lat="47.30957" lon="-2.33953">
        <ele>34.799999237061</ele>
        <time>2021-07-29T09:57:01.000Z</time>
      </trkpt>
      <trkpt lat="47.30918" lon="-2.33947">
        <ele>34.799999237061</ele>
        <time>2021-07-29T09:57:08.000Z</time>
      </trkpt>
      <trkpt lat="47.30881" lon="-2.33949">
        <ele>34.799999237061</ele>
        <time>2021-07-29T09:57:15.000Z</time>
      </trkpt>
      <trkpt lat="47.30876" lon="-2.3395">
        <ele>34.799999237061</ele>
        <time>2021-07-29T09:57:16.000Z</time>
      </trkpt>
      <trkpt lat="47.30839" lon="-2.33957">
        <ele>34.799999237061</ele>
        <time>2021-07-29T09:57:23.000Z</time>
      </trkpt>
      <trkpt lat="47.30802" lon="-2.33965">
        <ele>34.799999237061</ele>
        <time>2021-07-29T09:57:30.000Z</time>
      </trkpt>
      <trkpt lat="47.30788" lon="-2.3397">
        <ele>34.799999237061</ele>
        <time>2021-07-29T09:57:33.000Z</time>
      </trkpt>
      <trkpt lat="47.30782" lon="-2.3398">
        <ele>34.799999237061</ele>
        <time>2021-07-29T09:57:35.000Z</time>
      </trkpt>
      <trkpt lat="47.30779" lon="-2.33999">
        <ele>34.799999237061</ele>
        <time>2021-07-29T09:57:38.000Z</time>
      </trkpt>
      <trkpt lat="47.30778" lon="-2.34005">
        <ele>34.799999237061</ele>
        <time>2021-07-29T09:57:39.000Z</time>
      </trkpt>
      <trkpt lat="47.30777" lon="-2.34018">
        <ele>34.799999237061</ele>
        <time>2021-07-29T09:57:41.000Z</time>
      </trkpt>
      <trkpt lat="47.30777" lon="-2.34039">
        <ele>34.799999237061</ele>
        <time>2021-07-29T09:57:44.000Z</time>
      </trkpt>
      <trkpt lat="47.30778" lon="-2.34045">
        <ele>34.799999237061</ele>
        <time>2021-07-29T09:57:45.000Z</time>
      </trkpt>
      <trkpt lat="47.30777" lon="-2.34059">
        <ele>34.799999237061</ele>
        <time>2021-07-29T09:57:47.000Z</time>
      </trkpt>
      <trkpt lat="47.30777" lon="-2.34073">
        <ele>34.799999237061</ele>
        <time>2021-07-29T09:57:49.000Z</time>
      </trkpt>
      <trkpt lat="47.30776" lon="-2.34086">
        <ele>34.799999237061</ele>
        <time>2021-07-29T09:57:51.000Z</time>
      </trkpt>
      <trkpt lat="47.30774" lon="-2.34129">
        <ele>34.799999237061</ele>
        <time>2021-07-29T09:57:57.000Z</time>
      </trkpt>
      <trkpt lat="47.3077" lon="-2.3418">
        <ele>35.599998474121</ele>
        <time>2021-07-29T09:58:04.000Z</time>
      </trkpt>
      <trkpt lat="47.3077" lon="-2.34187">
        <ele>36</ele>
        <time>2021-07-29T09:58:05.000Z</time>
      </trkpt>
      <trkpt lat="47.3077" lon="-2.34194">
        <ele>36.400001525879</ele>
        <time>2021-07-29T09:58:06.000Z</time>
      </trkpt>
      <trkpt lat="47.30769" lon="-2.34201">
        <ele>36.799999237061</ele>
        <time>2021-07-29T09:58:07.000Z</time>
      </trkpt>
      <trkpt lat="47.30763" lon="-2.34213">
        <ele>36.799999237061</ele>
        <time>2021-07-29T09:58:09.000Z</time>
      </trkpt>
      <trkpt lat="47.30752" lon="-2.34216">
        <ele>36.799999237061</ele>
        <time>2021-07-29T09:58:11.000Z</time>
      </trkpt>
      <trkpt lat="47.30748" lon="-2.34217">
        <ele>36.799999237061</ele>
        <time>2021-07-29T09:58:12.000Z</time>
      </trkpt>
      <trkpt lat="47.30735" lon="-2.34221">
        <ele>36.799999237061</ele>
        <time>2021-07-29T09:58:15.000Z</time>
      </trkpt>
      <trkpt lat="47.3073" lon="-2.34229">
        <ele>36.799999237061</ele>
        <time>2021-07-29T09:58:17.000Z</time>
      </trkpt>
      <trkpt lat="47.30728" lon="-2.34255">
        <ele>36.799999237061</ele>
        <time>2021-07-29T09:58:21.000Z</time>
      </trkpt>
      <trkpt lat="47.30719" lon="-2.34282">
        <ele>36.799999237061</ele>
        <time>2021-07-29T09:58:25.000Z</time>
      </trkpt>
      <trkpt lat="47.3071" lon="-2.34302">
        <ele>36.799999237061</ele>
        <time>2021-07-29T09:58:28.000Z</time>
      </trkpt>
      <trkpt lat="47.30704" lon="-2.34314">
        <ele>36.799999237061</ele>
        <time>2021-07-29T09:58:30.000Z</time>
      </trkpt>
      <trkpt lat="47.30686" lon="-2.34353">
        <ele>36.799999237061</ele>
        <time>2021-07-29T09:58:36.000Z</time>
      </trkpt>
      <trkpt lat="47.30683" lon="-2.3436">
        <ele>36.799999237061</ele>
        <time>2021-07-29T09:58:37.000Z</time>
      </trkpt>
      <trkpt lat="47.30673" lon="-2.34376">
        <ele>36.799999237061</ele>
        <time>2021-07-29T09:58:40.000Z</time>
      </trkpt>
      <trkpt lat="47.30665" lon="-2.34385">
        <ele>36.799999237061</ele>
        <time>2021-07-29T09:58:42.000Z</time>
      </trkpt>
      <trkpt lat="47.30658" lon="-2.34393">
        <ele>36.799999237061</ele>
        <time>2021-07-29T09:58:44.000Z</time>
      </trkpt>
      <trkpt lat="47.30647" lon="-2.34408">
        <ele>36.799999237061</ele>
        <time>2021-07-29T09:58:47.000Z</time>
      </trkpt>
      <trkpt lat="47.30643" lon="-2.34413">
        <ele>36.799999237061</ele>
        <time>2021-07-29T09:58:48.000Z</time>
      </trkpt>
      <trkpt lat="47.30622" lon="-2.34441">
        <ele>36.799999237061</ele>
        <time>2021-07-29T09:58:53.000Z</time>
      </trkpt>
      <trkpt lat="47.30615" lon="-2.34454">
        <ele>36.799999237061</ele>
        <time>2021-07-29T09:58:55.000Z</time>
      </trkpt>
      <trkpt lat="47.30604" lon="-2.34476">
        <ele>36.799999237061</ele>
        <time>2021-07-29T09:58:58.000Z</time>
      </trkpt>
      <trkpt lat="47.30585" lon="-2.34513">
        <ele>36.799999237061</ele>
        <time>2021-07-29T09:59:03.000Z</time>
      </trkpt>
      <trkpt lat="47.30564" lon="-2.34551">
        <ele>36.799999237061</ele>
        <time>2021-07-29T09:59:08.000Z</time>
      </trkpt>
      <trkpt lat="47.30541" lon="-2.34587">
        <ele>36.799999237061</ele>
        <time>2021-07-29T09:59:13.000Z</time>
      </trkpt>
      <trkpt lat="47.30526" lon="-2.34602">
        <ele>36.799999237061</ele>
        <time>2021-07-29T09:59:16.000Z</time>
      </trkpt>
      <trkpt lat="47.30521" lon="-2.34607">
        <ele>36.799999237061</ele>
        <time>2021-07-29T09:59:17.000Z</time>
      </trkpt>
      <trkpt lat="47.30503" lon="-2.34638">
        <ele>36.799999237061</ele>
        <time>2021-07-29T09:59:22.000Z</time>
      </trkpt>
      <trkpt lat="47.30495" lon="-2.3465">
        <ele>36.799999237061</ele>
        <time>2021-07-29T09:59:24.000Z</time>
      </trkpt>
      <trkpt lat="47.30479" lon="-2.34667">
        <ele>36.799999237061</ele>
        <time>2021-07-29T09:59:27.000Z</time>
      </trkpt>
      <trkpt lat="47.30473" lon="-2.34673">
        <ele>36.799999237061</ele>
        <time>2021-07-29T09:59:28.000Z</time>
      </trkpt>
      <trkpt lat="47.30468" lon="-2.34679">
        <ele>36.799999237061</ele>
        <time>2021-07-29T09:59:29.000Z</time>
      </trkpt>
      <trkpt lat="47.30446" lon="-2.34698">
        <ele>36.799999237061</ele>
        <time>2021-07-29T09:59:33.000Z</time>
      </trkpt>
      <trkpt lat="47.30441" lon="-2.34704">
        <ele>36.799999237061</ele>
        <time>2021-07-29T09:59:34.000Z</time>
      </trkpt>
      <trkpt lat="47.30421" lon="-2.34723">
        <ele>36.799999237061</ele>
        <time>2021-07-29T09:59:38.000Z</time>
      </trkpt>
      <trkpt lat="47.30388" lon="-2.34747">
        <ele>36.799999237061</ele>
        <time>2021-07-29T09:59:44.000Z</time>
      </trkpt>
      <trkpt lat="47.30356" lon="-2.34768">
        <ele>36.799999237061</ele>
        <time>2021-07-29T09:59:50.000Z</time>
      </trkpt>
      <trkpt lat="47.30345" lon="-2.34777">
        <ele>36.799999237061</ele>
        <time>2021-07-29T09:59:52.000Z</time>
      </trkpt>
      <trkpt lat="47.30337" lon="-2.34788">
        <ele>36.799999237061</ele>
        <time>2021-07-29T09:59:54.000Z</time>
      </trkpt>
      <trkpt lat="47.3033" lon="-2.34802">
        <ele>36.799999237061</ele>
        <time>2021-07-29T09:59:56.000Z</time>
      </trkpt>
      <trkpt lat="47.30322" lon="-2.34817">
        <ele>36.799999237061</ele>
        <time>2021-07-29T09:59:58.000Z</time>
      </trkpt>
      <trkpt lat="47.30317" lon="-2.34823">
        <ele>36.799999237061</ele>
        <time>2021-07-29T09:59:59.000Z</time>
      </trkpt>
      <trkpt lat="47.30297" lon="-2.34846">
        <ele>36.799999237061</ele>
        <time>2021-07-29T10:00:03.000Z</time>
      </trkpt>
      <trkpt lat="47.3028" lon="-2.34857">
        <ele>36.799999237061</ele>
        <time>2021-07-29T10:00:06.000Z</time>
      </trkpt>
      <trkpt lat="47.30245" lon="-2.34877">
        <ele>36.799999237061</ele>
        <time>2021-07-29T10:00:12.000Z</time>
      </trkpt>
      <trkpt lat="47.30233" lon="-2.34886">
        <ele>36.799999237061</ele>
        <time>2021-07-29T10:00:14.000Z</time>
      </trkpt>
      <trkpt lat="47.30222" lon="-2.34896">
        <ele>36.799999237061</ele>
        <time>2021-07-29T10:00:16.000Z</time>
      </trkpt>
      <trkpt lat="47.30217" lon="-2.34901">
        <ele>36.799999237061</ele>
        <time>2021-07-29T10:00:17.000Z</time>
      </trkpt>
      <trkpt lat="47.3021" lon="-2.34924">
        <ele>36.799999237061</ele>
        <time>2021-07-29T10:00:20.000Z</time>
      </trkpt>
      <trkpt lat="47.30209" lon="-2.34942">
        <ele>36.400001525879</ele>
        <time>2021-07-29T10:00:22.000Z</time>
      </trkpt>
      <trkpt lat="47.30209" lon="-2.34951">
        <ele>36</ele>
        <time>2021-07-29T10:00:23.000Z</time>
      </trkpt>
      <trkpt lat="47.30209" lon="-2.3496">
        <ele>35.599998474121</ele>
        <time>2021-07-29T10:00:24.000Z</time>
      </trkpt>
      <trkpt lat="47.30208" lon="-2.34969">
        <ele>35.200000762939</ele>
        <time>2021-07-29T10:00:25.000Z</time>
      </trkpt>
      <trkpt lat="47.30208" lon="-2.34978">
        <ele>34.799999237061</ele>
        <time>2021-07-29T10:00:26.000Z</time>
      </trkpt>
      <trkpt lat="47.30209" lon="-2.35029">
        <ele>34.799999237061</ele>
        <time>2021-07-29T10:00:31.000Z</time>
      </trkpt>
      <trkpt lat="47.30209" lon="-2.35079">
        <ele>34.799999237061</ele>
        <time>2021-07-29T10:00:36.000Z</time>
      </trkpt>
      <trkpt lat="47.30209" lon="-2.35098">
        <ele>34.400001525879</ele>
        <time>2021-07-29T10:00:38.000Z</time>
      </trkpt>
      <trkpt lat="47.30209" lon="-2.35108">
        <ele>34</ele>
        <time>2021-07-29T10:00:39.000Z</time>
      </trkpt>
      <trkpt lat="47.30208" lon="-2.35118">
        <ele>33.400001525879</ele>
        <time>2021-07-29T10:00:40.000Z</time>
      </trkpt>
      <trkpt lat="47.30207" lon="-2.35128">
        <ele>33</ele>
        <time>2021-07-29T10:00:41.000Z</time>
      </trkpt>
      <trkpt lat="47.30208" lon="-2.35139">
        <ele>32.599998474121</ele>
        <time>2021-07-29T10:00:42.000Z</time>
      </trkpt>
      <trkpt lat="47.30208" lon="-2.35157">
        <ele>32.599998474121</ele>
        <time>2021-07-29T10:00:44.000Z</time>
      </trkpt>
      <trkpt lat="47.30201" lon="-2.35167">
        <ele>32.599998474121</ele>
        <time>2021-07-29T10:00:46.000Z</time>
      </trkpt>
      <trkpt lat="47.30197" lon="-2.35169">
        <ele>32.200000762939</ele>
        <time>2021-07-29T10:00:47.000Z</time>
      </trkpt>
      <trkpt lat="47.30193" lon="-2.3517">
        <ele>31.799999237061</ele>
        <time>2021-07-29T10:00:48.000Z</time>
      </trkpt>
      <trkpt lat="47.30189" lon="-2.35171">
        <ele>31.200000762939</ele>
        <time>2021-07-29T10:00:49.000Z</time>
      </trkpt>
      <trkpt lat="47.30184" lon="-2.35173">
        <ele>30.799999237061</ele>
        <time>2021-07-29T10:00:50.000Z</time>
      </trkpt>
      <trkpt lat="47.3018" lon="-2.35174">
        <ele>30.39999961853</ele>
        <time>2021-07-29T10:00:51.000Z</time>
      </trkpt>
      <trkpt lat="47.30164" lon="-2.35183">
        <ele>30.39999961853</ele>
        <time>2021-07-29T10:00:55.000Z</time>
      </trkpt>
      <trkpt lat="47.30155" lon="-2.35192">
        <ele>30.39999961853</ele>
        <time>2021-07-29T10:00:59.000Z</time>
      </trkpt>
      <trkpt lat="47.3014" lon="-2.35193">
        <ele>30.39999961853</ele>
        <time>2021-07-29T10:01:04.000Z</time>
      </trkpt>
      <trkpt lat="47.30136" lon="-2.35194">
        <ele>30.39999961853</ele>
        <time>2021-07-29T10:01:05.000Z</time>
      </trkpt>
      <trkpt lat="47.30119" lon="-2.35202">
        <ele>30.39999961853</ele>
        <time>2021-07-29T10:01:08.000Z</time>
      </trkpt>
      <trkpt lat="47.30108" lon="-2.35207">
        <ele>30.39999961853</ele>
        <time>2021-07-29T10:01:10.000Z</time>
      </trkpt>
      <trkpt lat="47.30096" lon="-2.35212">
        <ele>30.39999961853</ele>
        <time>2021-07-29T10:01:12.000Z</time>
      </trkpt>
      <trkpt lat="47.30084" lon="-2.35216">
        <ele>30.39999961853</ele>
        <time>2021-07-29T10:01:14.000Z</time>
      </trkpt>
      <trkpt lat="47.30078" lon="-2.35219">
        <ele>30.39999961853</ele>
        <time>2021-07-29T10:01:15.000Z</time>
      </trkpt>
      <trkpt lat="47.30072" lon="-2.35223">
        <ele>30.39999961853</ele>
        <time>2021-07-29T10:01:16.000Z</time>
      </trkpt>
      <trkpt lat="47.30043" lon="-2.35238">
        <ele>30.39999961853</ele>
        <time>2021-07-29T10:01:21.000Z</time>
      </trkpt>
      <trkpt lat="47.30032" lon="-2.35245">
        <ele>30.39999961853</ele>
        <time>2021-07-29T10:01:24.000Z</time>
      </trkpt>
      <trkpt lat="47.30027" lon="-2.35246">
        <ele>30.39999961853</ele>
        <time>2021-07-29T10:01:27.000Z</time>
      </trkpt>
      <trkpt lat="47.30025" lon="-2.35246">
        <ele>30</ele>
        <time>2021-07-29T10:01:28.000Z</time>
      </trkpt>
      <trkpt lat="47.30023" lon="-2.35248">
        <ele>29.60000038147</ele>
        <time>2021-07-29T10:01:29.000Z</time>
      </trkpt>
      <trkpt lat="47.30021" lon="-2.3525">
        <ele>29.200000762939</ele>
        <time>2021-07-29T10:01:30.000Z</time>
      </trkpt>
      <trkpt lat="47.30018" lon="-2.35252">
        <ele>28.799999237061</ele>
        <time>2021-07-29T10:01:31.000Z</time>
      </trkpt>
      <trkpt lat="47.30015" lon="-2.35254">
        <ele>28.39999961853</ele>
        <time>2021-07-29T10:01:32.000Z</time>
      </trkpt>
      <trkpt lat="47.30006" lon="-2.35259">
        <ele>28.39999961853</ele>
        <time>2021-07-29T10:01:37.000Z</time>
      </trkpt>
      <trkpt lat="47.30004" lon="-2.3526">
        <ele>28.39999961853</ele>
        <time>2021-07-29T10:01:39.000Z</time>
      </trkpt>
      <trkpt lat="47.30002" lon="-2.35261">
        <ele>28.39999961853</ele>
        <time>2021-07-29T10:04:19.000Z</time>
      </trkpt>
      <trkpt lat="47.29991" lon="-2.35272">
        <ele>28.39999961853</ele>
        <time>2021-07-29T10:04:24.000Z</time>
      </trkpt>
      <trkpt lat="47.29975" lon="-2.35291">
        <ele>28.39999961853</ele>
        <time>2021-07-29T10:04:29.000Z</time>
      </trkpt>
      <trkpt lat="47.29962" lon="-2.35309">
        <ele>28.39999961853</ele>
        <time>2021-07-29T10:04:33.000Z</time>
      </trkpt>
      <trkpt lat="47.29956" lon="-2.35319">
        <ele>28.39999961853</ele>
        <time>2021-07-29T10:04:35.000Z</time>
      </trkpt>
      <trkpt lat="47.29924" lon="-2.35359">
        <ele>28.799999237061</ele>
        <time>2021-07-29T10:04:44.000Z</time>
      </trkpt>
      <trkpt lat="47.2992" lon="-2.35363">
        <ele>29.200000762939</ele>
        <time>2021-07-29T10:04:45.000Z</time>
      </trkpt>
      <trkpt lat="47.29917" lon="-2.35367">
        <ele>29.60000038147</ele>
        <time>2021-07-29T10:04:46.000Z</time>
      </trkpt>
      <trkpt lat="47.29913" lon="-2.35372">
        <ele>30.200000762939</ele>
        <time>2021-07-29T10:04:47.000Z</time>
      </trkpt>
      <trkpt lat="47.2991" lon="-2.35376">
        <ele>30.60000038147</ele>
        <time>2021-07-29T10:04:48.000Z</time>
      </trkpt>
      <trkpt lat="47.29902" lon="-2.35384">
        <ele>30.60000038147</ele>
        <time>2021-07-29T10:04:50.000Z</time>
      </trkpt>
      <trkpt lat="47.29869" lon="-2.3542">
        <ele>30.60000038147</ele>
        <time>2021-07-29T10:04:59.000Z</time>
      </trkpt>
      <trkpt lat="47.29842" lon="-2.35448">
        <ele>30.60000038147</ele>
        <time>2021-07-29T10:05:06.000Z</time>
      </trkpt>
      <trkpt lat="47.29835" lon="-2.35458">
        <ele>30.60000038147</ele>
        <time>2021-07-29T10:05:08.000Z</time>
      </trkpt>
      <trkpt lat="47.29831" lon="-2.35472">
        <ele>30.60000038147</ele>
        <time>2021-07-29T10:05:10.000Z</time>
      </trkpt>
      <trkpt lat="47.29833" lon="-2.35499">
        <ele>30.60000038147</ele>
        <time>2021-07-29T10:05:14.000Z</time>
      </trkpt>
      <trkpt lat="47.29835" lon="-2.35505">
        <ele>30.60000038147</ele>
        <time>2021-07-29T10:05:15.000Z</time>
      </trkpt>
      <trkpt lat="47.29841" lon="-2.35524">
        <ele>31</ele>
        <time>2021-07-29T10:05:18.000Z</time>
      </trkpt>
      <trkpt lat="47.29843" lon="-2.3553">
        <ele>31.39999961853</ele>
        <time>2021-07-29T10:05:19.000Z</time>
      </trkpt>
      <trkpt lat="47.29845" lon="-2.35537">
        <ele>31.799999237061</ele>
        <time>2021-07-29T10:05:20.000Z</time>
      </trkpt>
      <trkpt lat="47.29847" lon="-2.35543">
        <ele>32.200000762939</ele>
        <time>2021-07-29T10:05:21.000Z</time>
      </trkpt>
      <trkpt lat="47.29849" lon="-2.35549">
        <ele>32.599998474121</ele>
        <time>2021-07-29T10:05:22.000Z</time>
      </trkpt>
      <trkpt lat="47.29863" lon="-2.35599">
        <ele>32.599998474121</ele>
        <time>2021-07-29T10:05:30.000Z</time>
      </trkpt>
      <trkpt lat="47.29872" lon="-2.35631">
        <ele>32.599998474121</ele>
        <time>2021-07-29T10:05:35.000Z</time>
      </trkpt>
      <trkpt lat="47.29874" lon="-2.35644">
        <ele>32.599998474121</ele>
        <time>2021-07-29T10:05:37.000Z</time>
      </trkpt>
      <trkpt lat="47.29875" lon="-2.35651">
        <ele>33</ele>
        <time>2021-07-29T10:05:38.000Z</time>
      </trkpt>
      <trkpt lat="47.29876" lon="-2.35657">
        <ele>33.400001525879</ele>
        <time>2021-07-29T10:05:39.000Z</time>
      </trkpt>
      <trkpt lat="47.29877" lon="-2.35664">
        <ele>33.799999237061</ele>
        <time>2021-07-29T10:05:40.000Z</time>
      </trkpt>
      <trkpt lat="47.29878" lon="-2.35671">
        <ele>34.400001525879</ele>
        <time>2021-07-29T10:05:41.000Z</time>
      </trkpt>
      <trkpt lat="47.29879" lon="-2.35677">
        <ele>34.799999237061</ele>
        <time>2021-07-29T10:05:42.000Z</time>
      </trkpt>
      <trkpt lat="47.29883" lon="-2.35691">
        <ele>34.799999237061</ele>
        <time>2021-07-29T10:05:44.000Z</time>
      </trkpt>
      <trkpt lat="47.29895" lon="-2.35738">
        <ele>34.799999237061</ele>
        <time>2021-07-29T10:05:52.000Z</time>
      </trkpt>
      <trkpt lat="47.29898" lon="-2.35747">
        <ele>34.799999237061</ele>
        <time>2021-07-29T10:05:55.000Z</time>
      </trkpt>
      <trkpt lat="47.29899" lon="-2.35749">
        <ele>34.799999237061</ele>
        <time>2021-07-29T10:05:56.000Z</time>
      </trkpt>
      <trkpt lat="47.29899" lon="-2.3575">
        <ele>34.799999237061</ele>
        <time>2021-07-29T10:05:58.000Z</time>
      </trkpt>
      <trkpt lat="47.299" lon="-2.35754">
        <ele>34.799999237061</ele>
        <time>2021-07-29T10:06:11.000Z</time>
      </trkpt>
      <trkpt lat="47.29899" lon="-2.35757">
        <ele>34.799999237061</ele>
        <time>2021-07-29T10:06:12.000Z</time>
      </trkpt>
      <trkpt lat="47.29891" lon="-2.35764">
        <ele>34.799999237061</ele>
        <time>2021-07-29T10:06:15.000Z</time>
      </trkpt>
      <trkpt lat="47.29863" lon="-2.35777">
        <ele>34.799999237061</ele>
        <time>2021-07-29T10:06:23.000Z</time>
      </trkpt>
      <trkpt lat="47.29843" lon="-2.35784">
        <ele>34.799999237061</ele>
        <time>2021-07-29T10:06:29.000Z</time>
      </trkpt>
      <trkpt lat="47.29817" lon="-2.35793">
        <ele>35.200000762939</ele>
        <time>2021-07-29T10:06:36.000Z</time>
      </trkpt>
      <trkpt lat="47.29814" lon="-2.35794">
        <ele>35.599998474121</ele>
        <time>2021-07-29T10:06:37.000Z</time>
      </trkpt>
      <trkpt lat="47.2981" lon="-2.35795">
        <ele>36</ele>
        <time>2021-07-29T10:06:38.000Z</time>
      </trkpt>
      <trkpt lat="47.29806" lon="-2.35796">
        <ele>36.400001525879</ele>
        <time>2021-07-29T10:06:39.000Z</time>
      </trkpt>
      <trkpt lat="47.29802" lon="-2.35797">
        <ele>36.799999237061</ele>
        <time>2021-07-29T10:06:40.000Z</time>
      </trkpt>
      <trkpt lat="47.2978" lon="-2.35805">
        <ele>36.799999237061</ele>
        <time>2021-07-29T10:06:45.000Z</time>
      </trkpt>
      <trkpt lat="47.29745" lon="-2.35818">
        <ele>36.799999237061</ele>
        <time>2021-07-29T10:06:53.000Z</time>
      </trkpt>
      <trkpt lat="47.29711" lon="-2.35837">
        <ele>36.799999237061</ele>
        <time>2021-07-29T10:06:59.000Z</time>
      </trkpt>
      <trkpt lat="47.29706" lon="-2.35843">
        <ele>36.799999237061</ele>
        <time>2021-07-29T10:07:00.000Z</time>
      </trkpt>
      <trkpt lat="47.29691" lon="-2.35851">
        <ele>36.799999237061</ele>
        <time>2021-07-29T10:07:03.000Z</time>
      </trkpt>
      <trkpt lat="47.29677" lon="-2.35859">
        <ele>36.200000762939</ele>
        <time>2021-07-29T10:07:06.000Z</time>
      </trkpt>
      <trkpt lat="47.29674" lon="-2.3586">
        <ele>35.799999237061</ele>
        <time>2021-07-29T10:07:07.000Z</time>
      </trkpt>
      <trkpt lat="47.29673" lon="-2.35861">
        <ele>34.799999237061</ele>
        <time>2021-07-29T10:07:08.000Z</time>
      </trkpt>
      <trkpt lat="47.29671" lon="-2.35862">
        <ele>34.400001525879</ele>
        <time>2021-07-29T10:07:09.000Z</time>
      </trkpt>
      <trkpt lat="47.29671" lon="-2.35861">
        <ele>34.400001525879</ele>
        <time>2021-07-29T10:07:11.000Z</time>
      </trkpt>
      <trkpt lat="47.29666" lon="-2.35864">
        <ele>34.400001525879</ele>
        <time>2021-07-29T10:09:24.000Z</time>
      </trkpt>
      <trkpt lat="47.29653" lon="-2.3587">
        <ele>34.400001525879</ele>
        <time>2021-07-29T10:09:29.000Z</time>
      </trkpt>
      <trkpt lat="47.29628" lon="-2.35882">
        <ele>34.400001525879</ele>
        <time>2021-07-29T10:09:35.000Z</time>
      </trkpt>
      <trkpt lat="47.296" lon="-2.35897">
        <ele>34.400001525879</ele>
        <time>2021-07-29T10:09:42.000Z</time>
      </trkpt>
      <trkpt lat="47.29569" lon="-2.35916">
        <ele>34.400001525879</ele>
        <time>2021-07-29T10:09:49.000Z</time>
      </trkpt>
      <trkpt lat="47.29538" lon="-2.35933">
        <ele>34.400001525879</ele>
        <time>2021-07-29T10:09:56.000Z</time>
      </trkpt>
      <trkpt lat="47.29518" lon="-2.3594">
        <ele>34.400001525879</ele>
        <time>2021-07-29T10:10:01.000Z</time>
      </trkpt>
      <trkpt lat="47.29514" lon="-2.35939">
        <ele>34.400001525879</ele>
        <time>2021-07-29T10:10:02.000Z</time>
      </trkpt>
      <trkpt lat="47.29504" lon="-2.35925">
        <ele>34.400001525879</ele>
        <time>2021-07-29T10:10:05.000Z</time>
      </trkpt>
      <trkpt lat="47.29501" lon="-2.35913">
        <ele>34.400001525879</ele>
        <time>2021-07-29T10:10:07.000Z</time>
      </trkpt>
      <trkpt lat="47.29491" lon="-2.35897">
        <ele>34.400001525879</ele>
        <time>2021-07-29T10:10:11.000Z</time>
      </trkpt>
      <trkpt lat="47.29476" lon="-2.35898">
        <ele>34.400001525879</ele>
        <time>2021-07-29T10:10:15.000Z</time>
      </trkpt>
      <trkpt lat="47.29454" lon="-2.359">
        <ele>34.400001525879</ele>
        <time>2021-07-29T10:10:21.000Z</time>
      </trkpt>
      <trkpt lat="47.2945" lon="-2.35902">
        <ele>34.400001525879</ele>
        <time>2021-07-29T10:10:23.000Z</time>
      </trkpt>
      <trkpt lat="47.29445" lon="-2.35911">
        <ele>34.400001525879</ele>
        <time>2021-07-29T10:10:25.000Z</time>
      </trkpt>
      <trkpt lat="47.29436" lon="-2.35911">
        <ele>34.400001525879</ele>
        <time>2021-07-29T10:10:28.000Z</time>
      </trkpt>
      <trkpt lat="47.29432" lon="-2.35902">
        <ele>34.400001525879</ele>
        <time>2021-07-29T10:10:30.000Z</time>
      </trkpt>
      <trkpt lat="47.2943" lon="-2.35898">
        <ele>34.400001525879</ele>
        <time>2021-07-29T10:10:31.000Z</time>
      </trkpt>
      <trkpt lat="47.29414" lon="-2.35878">
        <ele>34.400001525879</ele>
        <time>2021-07-29T10:10:36.000Z</time>
      </trkpt>
      <trkpt lat="47.29406" lon="-2.3587">
        <ele>34.400001525879</ele>
        <time>2021-07-29T10:10:38.000Z</time>
      </trkpt>
      <trkpt lat="47.29399" lon="-2.35862">
        <ele>34.400001525879</ele>
        <time>2021-07-29T10:10:40.000Z</time>
      </trkpt>
      <trkpt lat="47.29396" lon="-2.35858">
        <ele>34.400001525879</ele>
        <time>2021-07-29T10:10:41.000Z</time>
      </trkpt>
      <trkpt lat="47.29366" lon="-2.35828">
        <ele>34.400001525879</ele>
        <time>2021-07-29T10:10:48.000Z</time>
      </trkpt>
      <trkpt lat="47.29356" lon="-2.35821">
        <ele>34.400001525879</ele>
        <time>2021-07-29T10:10:50.000Z</time>
      </trkpt>
      <trkpt lat="47.29342" lon="-2.35809">
        <ele>34.400001525879</ele>
        <time>2021-07-29T10:10:53.000Z</time>
      </trkpt>
      <trkpt lat="47.29337" lon="-2.35805">
        <ele>34.400001525879</ele>
        <time>2021-07-29T10:10:54.000Z</time>
      </trkpt>
      <trkpt lat="47.29309" lon="-2.35781">
        <ele>34.400001525879</ele>
        <time>2021-07-29T10:11:00.000Z</time>
      </trkpt>
      <trkpt lat="47.29276" lon="-2.35752">
        <ele>34.400001525879</ele>
        <time>2021-07-29T10:11:07.000Z</time>
      </trkpt>
      <trkpt lat="47.29252" lon="-2.35736">
        <ele>34.400001525879</ele>
        <time>2021-07-29T10:11:12.000Z</time>
      </trkpt>
      <trkpt lat="47.29248" lon="-2.3574">
        <ele>34.400001525879</ele>
        <time>2021-07-29T10:11:13.000Z</time>
      </trkpt>
      <trkpt lat="47.29239" lon="-2.3576">
        <ele>34.400001525879</ele>
        <time>2021-07-29T10:11:16.000Z</time>
      </trkpt>
      <trkpt lat="47.29221" lon="-2.35781">
        <ele>34.400001525879</ele>
        <time>2021-07-29T10:11:20.000Z</time>
      </trkpt>
      <trkpt lat="47.29186" lon="-2.35811">
        <ele>34.400001525879</ele>
        <time>2021-07-29T10:11:27.000Z</time>
      </trkpt>
      <trkpt lat="47.29181" lon="-2.35814">
        <ele>34.400001525879</ele>
        <time>2021-07-29T10:11:28.000Z</time>
      </trkpt>
      <trkpt lat="47.29156" lon="-2.35831">
        <ele>34.400001525879</ele>
        <time>2021-07-29T10:11:33.000Z</time>
      </trkpt>
      <trkpt lat="47.29129" lon="-2.35858">
        <ele>34.400001525879</ele>
        <time>2021-07-29T10:11:39.000Z</time>
      </trkpt>
      <trkpt lat="47.29087" lon="-2.35906">
        <ele>34.400001525879</ele>
        <time>2021-07-29T10:11:48.000Z</time>
      </trkpt>
      <trkpt lat="47.29046" lon="-2.35954">
        <ele>34.400001525879</ele>
        <time>2021-07-29T10:11:57.000Z</time>
      </trkpt>
      <trkpt lat="47.2901" lon="-2.35992">
        <ele>34.400001525879</ele>
        <time>2021-07-29T10:12:05.000Z</time>
      </trkpt>
      <trkpt lat="47.28973" lon="-2.36028">
        <ele>34.400001525879</ele>
        <time>2021-07-29T10:12:12.000Z</time>
      </trkpt>
      <trkpt lat="47.28938" lon="-2.36056">
        <ele>34.400001525879</ele>
        <time>2021-07-29T10:12:18.000Z</time>
      </trkpt>
      <trkpt lat="47.28896" lon="-2.36089">
        <ele>34.400001525879</ele>
        <time>2021-07-29T10:12:25.000Z</time>
      </trkpt>
      <trkpt lat="47.28852" lon="-2.36132">
        <ele>34.400001525879</ele>
        <time>2021-07-29T10:12:33.000Z</time>
      </trkpt>
      <trkpt lat="47.28842" lon="-2.36144">
        <ele>34.400001525879</ele>
        <time>2021-07-29T10:12:35.000Z</time>
      </trkpt>
      <trkpt lat="47.28828" lon="-2.36166">
        <ele>34.400001525879</ele>
        <time>2021-07-29T10:12:38.000Z</time>
      </trkpt>
      <trkpt lat="47.28818" lon="-2.36178">
        <ele>34.400001525879</ele>
        <time>2021-07-29T10:12:40.000Z</time>
      </trkpt>
      <trkpt lat="47.28802" lon="-2.3619">
        <ele>34.400001525879</ele>
        <time>2021-07-29T10:12:43.000Z</time>
      </trkpt>
      <trkpt lat="47.28779" lon="-2.36205">
        <ele>34.400001525879</ele>
        <time>2021-07-29T10:12:48.000Z</time>
      </trkpt>
      <trkpt lat="47.28761" lon="-2.36221">
        <ele>34.400001525879</ele>
        <time>2021-07-29T10:12:54.000Z</time>
      </trkpt>
      <trkpt lat="47.28752" lon="-2.36224">
        <ele>34.400001525879</ele>
        <time>2021-07-29T10:12:59.000Z</time>
      </trkpt>
      <trkpt lat="47.28743" lon="-2.3623">
        <ele>34.400001525879</ele>
        <time>2021-07-29T10:13:05.000Z</time>
      </trkpt>
      <trkpt lat="47.28732" lon="-2.36241">
        <ele>34.400001525879</ele>
        <time>2021-07-29T10:13:11.000Z</time>
      </trkpt>
      <trkpt lat="47.28723" lon="-2.36255">
        <ele>34.400001525879</ele>
        <time>2021-07-29T10:13:16.000Z</time>
      </trkpt>
      <trkpt lat="47.28709" lon="-2.36272">
        <ele>34.799999237061</ele>
        <time>2021-07-29T10:13:22.000Z</time>
      </trkpt>
      <trkpt lat="47.28706" lon="-2.36274">
        <ele>35.200000762939</ele>
        <time>2021-07-29T10:13:23.000Z</time>
      </trkpt>
      <trkpt lat="47.28703" lon="-2.36275">
        <ele>35.599998474121</ele>
        <time>2021-07-29T10:13:24.000Z</time>
      </trkpt>
      <trkpt lat="47.28699" lon="-2.36276">
        <ele>36.200000762939</ele>
        <time>2021-07-29T10:13:25.000Z</time>
      </trkpt>
      <trkpt lat="47.28695" lon="-2.36276">
        <ele>36.599998474121</ele>
        <time>2021-07-29T10:13:26.000Z</time>
      </trkpt>
      <trkpt lat="47.28686" lon="-2.36278">
        <ele>36.599998474121</ele>
        <time>2021-07-29T10:13:28.000Z</time>
      </trkpt>
      <trkpt lat="47.28675" lon="-2.36271">
        <ele>37</ele>
        <time>2021-07-29T10:13:32.000Z</time>
      </trkpt>
      <trkpt lat="47.28674" lon="-2.36267">
        <ele>37.400001525879</ele>
        <time>2021-07-29T10:13:33.000Z</time>
      </trkpt>
      <trkpt lat="47.28673" lon="-2.36263">
        <ele>37.799999237061</ele>
        <time>2021-07-29T10:13:34.000Z</time>
      </trkpt>
      <trkpt lat="47.28673" lon="-2.36258">
        <ele>38.200000762939</ele>
        <time>2021-07-29T10:13:35.000Z</time>
      </trkpt>
      <trkpt lat="47.28674" lon="-2.36252">
        <ele>38.599998474121</ele>
        <time>2021-07-29T10:13:36.000Z</time>
      </trkpt>
      <trkpt lat="47.28675" lon="-2.36218">
        <ele>38.599998474121</ele>
        <time>2021-07-29T10:13:42.000Z</time>
      </trkpt>
      <trkpt lat="47.28674" lon="-2.36207">
        <ele>39</ele>
        <time>2021-07-29T10:13:44.000Z</time>
      </trkpt>
      <trkpt lat="47.28673" lon="-2.36201">
        <ele>39.400001525879</ele>
        <time>2021-07-29T10:13:45.000Z</time>
      </trkpt>
      <trkpt lat="47.28671" lon="-2.36196">
        <ele>39.799999237061</ele>
        <time>2021-07-29T10:13:46.000Z</time>
      </trkpt>
      <trkpt lat="47.28669" lon="-2.36191">
        <ele>40.200000762939</ele>
        <time>2021-07-29T10:13:47.000Z</time>
      </trkpt>
      <trkpt lat="47.28666" lon="-2.36186">
        <ele>40.799999237061</ele>
        <time>2021-07-29T10:13:48.000Z</time>
      </trkpt>
      <trkpt lat="47.28655" lon="-2.36175">
        <ele>40.799999237061</ele>
        <time>2021-07-29T10:13:51.000Z</time>
      </trkpt>
      <trkpt lat="47.2864" lon="-2.36157">
        <ele>40.799999237061</ele>
        <time>2021-07-29T10:13:56.000Z</time>
      </trkpt>
      <trkpt lat="47.28635" lon="-2.36151">
        <ele>41.200000762939</ele>
        <time>2021-07-29T10:13:58.000Z</time>
      </trkpt>
      <trkpt lat="47.28632" lon="-2.36146">
        <ele>41.599998474121</ele>
        <time>2021-07-29T10:13:59.000Z</time>
      </trkpt>
      <trkpt lat="47.28629" lon="-2.36143">
        <ele>42</ele>
        <time>2021-07-29T10:14:00.000Z</time>
      </trkpt>
      <trkpt lat="47.28626" lon="-2.36141">
        <ele>42.599998474121</ele>
        <time>2021-07-29T10:14:01.000Z</time>
      </trkpt>
      <trkpt lat="47.28622" lon="-2.36143">
        <ele>43</ele>
        <time>2021-07-29T10:14:02.000Z</time>
      </trkpt>
      <trkpt lat="47.28617" lon="-2.36146">
        <ele>43</ele>
        <time>2021-07-29T10:14:04.000Z</time>
      </trkpt>
      <trkpt lat="47.28612" lon="-2.36153">
        <ele>43</ele>
        <time>2021-07-29T10:14:06.000Z</time>
      </trkpt>
      <trkpt lat="47.28604" lon="-2.36156">
        <ele>43</ele>
        <time>2021-07-29T10:14:08.000Z</time>
      </trkpt>
      <trkpt lat="47.28585" lon="-2.3615">
        <ele>43</ele>
        <time>2021-07-29T10:14:13.000Z</time>
      </trkpt>
      <trkpt lat="47.28571" lon="-2.36151">
        <ele>43</ele>
        <time>2021-07-29T10:14:17.000Z</time>
      </trkpt>
      <trkpt lat="47.28566" lon="-2.36153">
        <ele>43</ele>
        <time>2021-07-29T10:14:18.000Z</time>
      </trkpt>
      <trkpt lat="47.28562" lon="-2.36156">
        <ele>43</ele>
        <time>2021-07-29T10:14:19.000Z</time>
      </trkpt>
      <trkpt lat="47.2855" lon="-2.36157">
        <ele>42.400001525879</ele>
        <time>2021-07-29T10:14:22.000Z</time>
      </trkpt>
      <trkpt lat="47.28547" lon="-2.36154">
        <ele>42</ele>
        <time>2021-07-29T10:14:23.000Z</time>
      </trkpt>
      <trkpt lat="47.28544" lon="-2.36151">
        <ele>41.400001525879</ele>
        <time>2021-07-29T10:14:24.000Z</time>
      </trkpt>
      <trkpt lat="47.28541" lon="-2.36148">
        <ele>41</ele>
        <time>2021-07-29T10:14:25.000Z</time>
      </trkpt>
      <trkpt lat="47.2854" lon="-2.36141">
        <ele>40.400001525879</ele>
        <time>2021-07-29T10:14:26.000Z</time>
      </trkpt>
      <trkpt lat="47.28536" lon="-2.36118">
        <ele>40.400001525879</ele>
        <time>2021-07-29T10:14:29.000Z</time>
      </trkpt>
      <trkpt lat="47.28534" lon="-2.36104">
        <ele>40.400001525879</ele>
        <time>2021-07-29T10:14:31.000Z</time>
      </trkpt>
      <trkpt lat="47.28524" lon="-2.36075">
        <ele>40.400001525879</ele>
        <time>2021-07-29T10:14:36.000Z</time>
      </trkpt>
      <trkpt lat="47.28522" lon="-2.36069">
        <ele>40.400001525879</ele>
        <time>2021-07-29T10:14:37.000Z</time>
      </trkpt>
      <trkpt lat="47.28508" lon="-2.36047">
        <ele>40.400001525879</ele>
        <time>2021-07-29T10:14:41.000Z</time>
      </trkpt>
      <trkpt lat="47.28485" lon="-2.36031">
        <ele>40.400001525879</ele>
        <time>2021-07-29T10:14:46.000Z</time>
      </trkpt>
      <trkpt lat="47.28475" lon="-2.36025">
        <ele>40.400001525879</ele>
        <time>2021-07-29T10:14:48.000Z</time>
      </trkpt>
      <trkpt lat="47.28462" lon="-2.3601">
        <ele>40.400001525879</ele>
        <time>2021-07-29T10:14:51.000Z</time>
      </trkpt>
      <trkpt lat="47.28454" lon="-2.35996">
        <ele>40.400001525879</ele>
        <time>2021-07-29T10:14:54.000Z</time>
      </trkpt>
      <trkpt lat="47.28441" lon="-2.35992">
        <ele>40.400001525879</ele>
        <time>2021-07-29T10:14:58.000Z</time>
      </trkpt>
      <trkpt lat="47.28431" lon="-2.36002">
        <ele>40.400001525879</ele>
        <time>2021-07-29T10:15:01.000Z</time>
      </trkpt>
      <trkpt lat="47.28427" lon="-2.36006">
        <ele>40.400001525879</ele>
        <time>2021-07-29T10:15:02.000Z</time>
      </trkpt>
      <trkpt lat="47.28419" lon="-2.36013">
        <ele>40.400001525879</ele>
        <time>2021-07-29T10:15:04.000Z</time>
      </trkpt>
      <trkpt lat="47.28408" lon="-2.3602">
        <ele>40.400001525879</ele>
        <time>2021-07-29T10:15:07.000Z</time>
      </trkpt>
      <trkpt lat="47.28393" lon="-2.36022">
        <ele>40.400001525879</ele>
        <time>2021-07-29T10:15:10.000Z</time>
      </trkpt>
      <trkpt lat="47.28387" lon="-2.36022">
        <ele>40</ele>
        <time>2021-07-29T10:15:11.000Z</time>
      </trkpt>
      <trkpt lat="47.28379" lon="-2.36023">
        <ele>39.599998474121</ele>
        <time>2021-07-29T10:15:12.000Z</time>
      </trkpt>
      <trkpt lat="47.28372" lon="-2.36024">
        <ele>39.200000762939</ele>
        <time>2021-07-29T10:15:13.000Z</time>
      </trkpt>
      <trkpt lat="47.28364" lon="-2.36026">
        <ele>38.599998474121</ele>
        <time>2021-07-29T10:15:14.000Z</time>
      </trkpt>
      <trkpt lat="47.28355" lon="-2.3603">
        <ele>38</ele>
        <time>2021-07-29T10:15:15.000Z</time>
      </trkpt>
      <trkpt lat="47.28347" lon="-2.36035">
        <ele>37.400001525879</ele>
        <time>2021-07-29T10:15:16.000Z</time>
      </trkpt>
      <trkpt lat="47.28339" lon="-2.36042">
        <ele>36.799999237061</ele>
        <time>2021-07-29T10:15:17.000Z</time>
      </trkpt>
      <trkpt lat="47.28332" lon="-2.36048">
        <ele>36.200000762939</ele>
        <time>2021-07-29T10:15:18.000Z</time>
      </trkpt>
      <trkpt lat="47.28326" lon="-2.36053">
        <ele>35.599998474121</ele>
        <time>2021-07-29T10:15:19.000Z</time>
      </trkpt>
      <trkpt lat="47.2832" lon="-2.36053">
        <ele>35.200000762939</ele>
        <time>2021-07-29T10:15:20.000Z</time>
      </trkpt>
      <trkpt lat="47.28315" lon="-2.36052">
        <ele>34.200000762939</ele>
        <time>2021-07-29T10:15:21.000Z</time>
      </trkpt>
      <trkpt lat="47.28309" lon="-2.36052">
        <ele>33.799999237061</ele>
        <time>2021-07-29T10:15:22.000Z</time>
      </trkpt>
      <trkpt lat="47.28304" lon="-2.36051">
        <ele>33.400001525879</ele>
        <time>2021-07-29T10:15:23.000Z</time>
      </trkpt>
      <trkpt lat="47.28298" lon="-2.36049">
        <ele>32.799999237061</ele>
        <time>2021-07-29T10:15:24.000Z</time>
      </trkpt>
      <trkpt lat="47.28294" lon="-2.36046">
        <ele>32.400001525879</ele>
        <time>2021-07-29T10:15:25.000Z</time>
      </trkpt>
      <trkpt lat="47.28289" lon="-2.36041">
        <ele>32</ele>
        <time>2021-07-29T10:15:26.000Z</time>
      </trkpt>
      <trkpt lat="47.28285" lon="-2.36037">
        <ele>31.39999961853</ele>
        <time>2021-07-29T10:15:27.000Z</time>
      </trkpt>
      <trkpt lat="47.28282" lon="-2.36032">
        <ele>30.799999237061</ele>
        <time>2021-07-29T10:15:28.000Z</time>
      </trkpt>
      <trkpt lat="47.2828" lon="-2.36027">
        <ele>30</ele>
        <time>2021-07-29T10:15:29.000Z</time>
      </trkpt>
      <trkpt lat="47.28279" lon="-2.36023">
        <ele>29.200000762939</ele>
        <time>2021-07-29T10:15:30.000Z</time>
      </trkpt>
      <trkpt lat="47.28279" lon="-2.36019">
        <ele>28.39999961853</ele>
        <time>2021-07-29T10:15:31.000Z</time>
      </trkpt>
      <trkpt lat="47.28278" lon="-2.36011">
        <ele>27.60000038147</ele>
        <time>2021-07-29T10:15:32.000Z</time>
      </trkpt>
      <trkpt lat="47.28278" lon="-2.36004">
        <ele>26.60000038147</ele>
        <time>2021-07-29T10:15:33.000Z</time>
      </trkpt>
      <trkpt lat="47.28279" lon="-2.35997">
        <ele>25.799999237061</ele>
        <time>2021-07-29T10:15:34.000Z</time>
      </trkpt>
      <trkpt lat="47.28279" lon="-2.3599">
        <ele>25</ele>
        <time>2021-07-29T10:15:35.000Z</time>
      </trkpt>
      <trkpt lat="47.28279" lon="-2.35984">
        <ele>24.200000762939</ele>
        <time>2021-07-29T10:15:36.000Z</time>
      </trkpt>
      <trkpt lat="47.28278" lon="-2.35978">
        <ele>23.39999961853</ele>
        <time>2021-07-29T10:15:37.000Z</time>
      </trkpt>
      <trkpt lat="47.28273" lon="-2.35966">
        <ele>23.39999961853</ele>
        <time>2021-07-29T10:15:39.000Z</time>
      </trkpt>
      <trkpt lat="47.28261" lon="-2.35934">
        <ele>23.39999961853</ele>
        <time>2021-07-29T10:15:44.000Z</time>
      </trkpt>
      <trkpt lat="47.28259" lon="-2.35929">
        <ele>23.39999961853</ele>
        <time>2021-07-29T10:15:45.000Z</time>
      </trkpt>
      <trkpt lat="47.28248" lon="-2.35912">
        <ele>23.39999961853</ele>
        <time>2021-07-29T10:15:49.000Z</time>
      </trkpt>
      <trkpt lat="47.28244" lon="-2.35912">
        <ele>23.39999961853</ele>
        <time>2021-07-29T10:15:50.000Z</time>
      </trkpt>
      <trkpt lat="47.28236" lon="-2.3591">
        <ele>23.39999961853</ele>
        <time>2021-07-29T10:15:52.000Z</time>
      </trkpt>
      <trkpt lat="47.28225" lon="-2.35907">
        <ele>23.39999961853</ele>
        <time>2021-07-29T10:15:54.000Z</time>
      </trkpt>
      <trkpt lat="47.2822" lon="-2.35904">
        <ele>23.39999961853</ele>
        <time>2021-07-29T10:15:55.000Z</time>
      </trkpt>
      <trkpt lat="47.28201" lon="-2.35892">
        <ele>23.39999961853</ele>
        <time>2021-07-29T10:15:59.000Z</time>
      </trkpt>
      <trkpt lat="47.28195" lon="-2.35883">
        <ele>23.39999961853</ele>
        <time>2021-07-29T10:16:01.000Z</time>
      </trkpt>
      <trkpt lat="47.28187" lon="-2.35858">
        <ele>23.39999961853</ele>
        <time>2021-07-29T10:16:05.000Z</time>
      </trkpt>
      <trkpt lat="47.28178" lon="-2.35846">
        <ele>23.39999961853</ele>
        <time>2021-07-29T10:16:08.000Z</time>
      </trkpt>
      <trkpt lat="47.28173" lon="-2.3584">
        <ele>23.39999961853</ele>
        <time>2021-07-29T10:16:10.000Z</time>
      </trkpt>
      <trkpt lat="47.28156" lon="-2.35821">
        <ele>23.39999961853</ele>
        <time>2021-07-29T10:16:15.000Z</time>
      </trkpt>
      <trkpt lat="47.28151" lon="-2.35809">
        <ele>23.39999961853</ele>
        <time>2021-07-29T10:16:17.000Z</time>
      </trkpt>
      <trkpt lat="47.28147" lon="-2.35797">
        <ele>23.39999961853</ele>
        <time>2021-07-29T10:16:19.000Z</time>
      </trkpt>
      <trkpt lat="47.2814" lon="-2.35768">
        <ele>23.39999961853</ele>
        <time>2021-07-29T10:16:23.000Z</time>
      </trkpt>
      <trkpt lat="47.28133" lon="-2.3576">
        <ele>23.39999961853</ele>
        <time>2021-07-29T10:16:25.000Z</time>
      </trkpt>
      <trkpt lat="47.28128" lon="-2.35757">
        <ele>23.39999961853</ele>
        <time>2021-07-29T10:16:26.000Z</time>
      </trkpt>
      <trkpt lat="47.28124" lon="-2.35757">
        <ele>23</ele>
        <time>2021-07-29T10:16:27.000Z</time>
      </trkpt>
      <trkpt lat="47.28119" lon="-2.35759">
        <ele>22.60000038147</ele>
        <time>2021-07-29T10:16:28.000Z</time>
      </trkpt>
      <trkpt lat="47.28116" lon="-2.35762">
        <ele>22.200000762939</ele>
        <time>2021-07-29T10:16:29.000Z</time>
      </trkpt>
      <trkpt lat="47.28114" lon="-2.35766">
        <ele>21.799999237061</ele>
        <time>2021-07-29T10:16:30.000Z</time>
      </trkpt>
      <trkpt lat="47.28112" lon="-2.35769">
        <ele>21.39999961853</ele>
        <time>2021-07-29T10:16:31.000Z</time>
      </trkpt>
      <trkpt lat="47.28112" lon="-2.35768">
        <ele>21.39999961853</ele>
        <time>2021-07-29T10:16:32.000Z</time>
      </trkpt>
      <trkpt lat="47.28108" lon="-2.35781">
        <ele>21.39999961853</ele>
        <time>2021-07-29T10:16:37.000Z</time>
      </trkpt>
      <trkpt lat="47.281" lon="-2.35801">
        <ele>21.39999961853</ele>
        <time>2021-07-29T10:16:43.000Z</time>
      </trkpt>
      <trkpt lat="47.2809" lon="-2.35794">
        <ele>21.39999961853</ele>
        <time>2021-07-29T10:16:46.000Z</time>
      </trkpt>
      <trkpt lat="47.28091" lon="-2.35781">
        <ele>21.39999961853</ele>
        <time>2021-07-29T10:16:49.000Z</time>
      </trkpt>
      <trkpt lat="47.28094" lon="-2.35756">
        <ele>21.799999237061</ele>
        <time>2021-07-29T10:16:55.000Z</time>
      </trkpt>
      <trkpt lat="47.28094" lon="-2.3575">
        <ele>22.200000762939</ele>
        <time>2021-07-29T10:16:56.000Z</time>
      </trkpt>
      <trkpt lat="47.28093" lon="-2.35745">
        <ele>22.60000038147</ele>
        <time>2021-07-29T10:16:57.000Z</time>
      </trkpt>
      <trkpt lat="47.28094" lon="-2.35741">
        <ele>23</ele>
        <time>2021-07-29T10:16:58.000Z</time>
      </trkpt>
      <trkpt lat="47.28094" lon="-2.35736">
        <ele>23.39999961853</ele>
        <time>2021-07-29T10:16:59.000Z</time>
      </trkpt>
      <trkpt lat="47.28094" lon="-2.35732">
        <ele>23.39999961853</ele>
        <time>2021-07-29T10:17:00.000Z</time>
      </trkpt>
      <trkpt lat="47.28096" lon="-2.35724">
        <ele>23.799999237061</ele>
        <time>2021-07-29T10:17:02.000Z</time>
      </trkpt>
      <trkpt lat="47.28096" lon="-2.3572">
        <ele>24.200000762939</ele>
        <time>2021-07-29T10:17:03.000Z</time>
      </trkpt>
      <trkpt lat="47.28097" lon="-2.35715">
        <ele>24.60000038147</ele>
        <time>2021-07-29T10:17:04.000Z</time>
      </trkpt>
      <trkpt lat="47.28097" lon="-2.35711">
        <ele>25</ele>
        <time>2021-07-29T10:17:05.000Z</time>
      </trkpt>
      <trkpt lat="47.28096" lon="-2.35706">
        <ele>25.60000038147</ele>
        <time>2021-07-29T10:17:06.000Z</time>
      </trkpt>
      <trkpt lat="47.28093" lon="-2.35683">
        <ele>25.60000038147</ele>
        <time>2021-07-29T10:17:11.000Z</time>
      </trkpt>
      <trkpt lat="47.28086" lon="-2.35655">
        <ele>25</ele>
        <time>2021-07-29T10:17:15.000Z</time>
      </trkpt>
      <trkpt lat="47.28084" lon="-2.35649">
        <ele>24.60000038147</ele>
        <time>2021-07-29T10:17:16.000Z</time>
      </trkpt>
      <trkpt lat="47.28083" lon="-2.35643">
        <ele>24.200000762939</ele>
        <time>2021-07-29T10:17:17.000Z</time>
      </trkpt>
      <trkpt lat="47.28081" lon="-2.35636">
        <ele>23.799999237061</ele>
        <time>2021-07-29T10:17:18.000Z</time>
      </trkpt>
      <trkpt lat="47.2808" lon="-2.35627">
        <ele>23.39999961853</ele>
        <time>2021-07-29T10:17:19.000Z</time>
      </trkpt>
      <trkpt lat="47.28078" lon="-2.3562">
        <ele>22.799999237061</ele>
        <time>2021-07-29T10:17:20.000Z</time>
      </trkpt>
      <trkpt lat="47.28077" lon="-2.35612">
        <ele>22.39999961853</ele>
        <time>2021-07-29T10:17:21.000Z</time>
      </trkpt>
      <trkpt lat="47.28075" lon="-2.35605">
        <ele>22</ele>
        <time>2021-07-29T10:17:22.000Z</time>
      </trkpt>
      <trkpt lat="47.28073" lon="-2.35598">
        <ele>21.60000038147</ele>
        <time>2021-07-29T10:17:23.000Z</time>
      </trkpt>
      <trkpt lat="47.28071" lon="-2.35595">
        <ele>21</ele>
        <time>2021-07-29T10:17:24.000Z</time>
      </trkpt>
      <trkpt lat="47.28066" lon="-2.35592">
        <ele>20.60000038147</ele>
        <time>2021-07-29T10:17:26.000Z</time>
      </trkpt>
      <trkpt lat="47.28062" lon="-2.35593">
        <ele>20.200000762939</ele>
        <time>2021-07-29T10:17:27.000Z</time>
      </trkpt>
      <trkpt lat="47.2806" lon="-2.35592">
        <ele>19.799999237061</ele>
        <time>2021-07-29T10:17:28.000Z</time>
      </trkpt>
      <trkpt lat="47.2806" lon="-2.3559">
        <ele>19.39999961853</ele>
        <time>2021-07-29T10:17:29.000Z</time>
      </trkpt>
      <trkpt lat="47.2806" lon="-2.35589">
        <ele>19</ele>
        <time>2021-07-29T10:17:30.000Z</time>
      </trkpt>
      <trkpt lat="47.28054" lon="-2.35581">
        <ele>15.60000038147</ele>
        <time>2021-07-29T10:29:09.000Z</time>
      </trkpt>
      <trkpt lat="47.2805" lon="-2.3558">
        <ele>15.60000038147</ele>
        <time>2021-07-29T10:29:11.000Z</time>
      </trkpt>
      <trkpt lat="47.28037" lon="-2.35574">
        <ele>15.60000038147</ele>
        <time>2021-07-29T10:29:16.000Z</time>
      </trkpt>
      <trkpt lat="47.28028" lon="-2.35566">
        <ele>15.60000038147</ele>
        <time>2021-07-29T10:29:19.000Z</time>
      </trkpt>
      <trkpt lat="47.28025" lon="-2.35565">
        <ele>15.60000038147</ele>
        <time>2021-07-29T10:29:20.000Z</time>
      </trkpt>
      <trkpt lat="47.28006" lon="-2.3557">
        <ele>15.60000038147</ele>
        <time>2021-07-29T10:29:25.000Z</time>
      </trkpt>
      <trkpt lat="47.27978" lon="-2.3558">
        <ele>15.60000038147</ele>
        <time>2021-07-29T10:29:32.000Z</time>
      </trkpt>
      <trkpt lat="47.27957" lon="-2.35583">
        <ele>15.60000038147</ele>
        <time>2021-07-29T10:29:37.000Z</time>
      </trkpt>
      <trkpt lat="47.27953" lon="-2.35583">
        <ele>15.60000038147</ele>
        <time>2021-07-29T10:29:38.000Z</time>
      </trkpt>
      <trkpt lat="47.27923" lon="-2.35591">
        <ele>15.60000038147</ele>
        <time>2021-07-29T10:29:44.000Z</time>
      </trkpt>
      <trkpt lat="47.27891" lon="-2.35599">
        <ele>15.60000038147</ele>
        <time>2021-07-29T10:29:50.000Z</time>
      </trkpt>
      <trkpt lat="47.27873" lon="-2.35604">
        <ele>15.199999809265</ele>
        <time>2021-07-29T10:29:53.000Z</time>
      </trkpt>
      <trkpt lat="47.27867" lon="-2.35606">
        <ele>14.800000190735</ele>
        <time>2021-07-29T10:29:54.000Z</time>
      </trkpt>
      <trkpt lat="47.27861" lon="-2.35608">
        <ele>14.39999961853</ele>
        <time>2021-07-29T10:29:55.000Z</time>
      </trkpt>
      <trkpt lat="47.27855" lon="-2.35609">
        <ele>13.800000190735</ele>
        <time>2021-07-29T10:29:56.000Z</time>
      </trkpt>
      <trkpt lat="47.27848" lon="-2.35611">
        <ele>13.39999961853</ele>
        <time>2021-07-29T10:29:57.000Z</time>
      </trkpt>
      <trkpt lat="47.27802" lon="-2.35623">
        <ele>13.39999961853</ele>
        <time>2021-07-29T10:30:04.000Z</time>
      </trkpt>
      <trkpt lat="47.27783" lon="-2.35631">
        <ele>13.39999961853</ele>
        <time>2021-07-29T10:30:07.000Z</time>
      </trkpt>
      <trkpt lat="47.27772" lon="-2.35641">
        <ele>13.39999961853</ele>
        <time>2021-07-29T10:30:09.000Z</time>
      </trkpt>
      <trkpt lat="47.27762" lon="-2.35651">
        <ele>13.39999961853</ele>
        <time>2021-07-29T10:30:11.000Z</time>
      </trkpt>
      <trkpt lat="47.27748" lon="-2.3567">
        <ele>13.39999961853</ele>
        <time>2021-07-29T10:30:14.000Z</time>
      </trkpt>
      <trkpt lat="47.27744" lon="-2.35676">
        <ele>13</ele>
        <time>2021-07-29T10:30:15.000Z</time>
      </trkpt>
      <trkpt lat="47.2774" lon="-2.35683">
        <ele>12.199999809265</ele>
        <time>2021-07-29T10:30:16.000Z</time>
      </trkpt>
      <trkpt lat="47.27736" lon="-2.3569">
        <ele>11.800000190735</ele>
        <time>2021-07-29T10:30:17.000Z</time>
      </trkpt>
      <trkpt lat="47.27731" lon="-2.35696">
        <ele>11.39999961853</ele>
        <time>2021-07-29T10:30:18.000Z</time>
      </trkpt>
      <trkpt lat="47.27722" lon="-2.35709">
        <ele>11.39999961853</ele>
        <time>2021-07-29T10:30:20.000Z</time>
      </trkpt>
      <trkpt lat="47.27695" lon="-2.35733">
        <ele>11.39999961853</ele>
        <time>2021-07-29T10:30:25.000Z</time>
      </trkpt>
      <trkpt lat="47.2769" lon="-2.35739">
        <ele>10.800000190735</ele>
        <time>2021-07-29T10:30:26.000Z</time>
      </trkpt>
      <trkpt lat="47.27685" lon="-2.35745">
        <ele>10.39999961853</ele>
        <time>2021-07-29T10:30:27.000Z</time>
      </trkpt>
      <trkpt lat="47.27681" lon="-2.35748">
        <ele>9.8000001907349</ele>
        <time>2021-07-29T10:30:28.000Z</time>
      </trkpt>
      <trkpt lat="47.27676" lon="-2.35748">
        <ele>9.3999996185303</ele>
        <time>2021-07-29T10:30:29.000Z</time>
      </trkpt>
      <trkpt lat="47.27671" lon="-2.35745">
        <ele>8.8000001907349</ele>
        <time>2021-07-29T10:30:30.000Z</time>
      </trkpt>
      <trkpt lat="47.27667" lon="-2.35739">
        <ele>8.8000001907349</ele>
        <time>2021-07-29T10:30:31.000Z</time>
      </trkpt>
      <trkpt lat="47.27663" lon="-2.35733">
        <ele>8.3999996185303</ele>
        <time>2021-07-29T10:30:32.000Z</time>
      </trkpt>
      <trkpt lat="47.27659" lon="-2.35728">
        <ele>8</ele>
        <time>2021-07-29T10:30:33.000Z</time>
      </trkpt>
      <trkpt lat="47.27654" lon="-2.35724">
        <ele>7.4000000953674</ele>
        <time>2021-07-29T10:30:34.000Z</time>
      </trkpt>
      <trkpt lat="47.27649" lon="-2.35722">
        <ele>7</ele>
        <time>2021-07-29T10:30:35.000Z</time>
      </trkpt>
      <trkpt lat="47.27644" lon="-2.3572">
        <ele>6.5999999046326</ele>
        <time>2021-07-29T10:30:36.000Z</time>
      </trkpt>
      <trkpt lat="47.27638" lon="-2.35719">
        <ele>6.5999999046326</ele>
        <time>2021-07-29T10:30:37.000Z</time>
      </trkpt>
      <trkpt lat="47.27621" lon="-2.35716">
        <ele>6.5999999046326</ele>
        <time>2021-07-29T10:30:40.000Z</time>
      </trkpt>
      <trkpt lat="47.27577" lon="-2.35704">
        <ele>6.5999999046326</ele>
        <time>2021-07-29T10:30:47.000Z</time>
      </trkpt>
      <trkpt lat="47.27533" lon="-2.35693">
        <ele>6.5999999046326</ele>
        <time>2021-07-29T10:30:54.000Z</time>
      </trkpt>
      <trkpt lat="47.27506" lon="-2.35686">
        <ele>6.5999999046326</ele>
        <time>2021-07-29T10:30:58.000Z</time>
      </trkpt>
      <trkpt lat="47.27493" lon="-2.35683">
        <ele>6.5999999046326</ele>
        <time>2021-07-29T10:31:00.000Z</time>
      </trkpt>
      <trkpt lat="47.27486" lon="-2.35682">
        <ele>6.1999998092651</ele>
        <time>2021-07-29T10:31:01.000Z</time>
      </trkpt>
      <trkpt lat="47.2748" lon="-2.35681">
        <ele>5.5999999046326</ele>
        <time>2021-07-29T10:31:02.000Z</time>
      </trkpt>
      <trkpt lat="47.27473" lon="-2.3568">
        <ele>5.1999998092651</ele>
        <time>2021-07-29T10:31:03.000Z</time>
      </trkpt>
      <trkpt lat="47.27467" lon="-2.35678">
        <ele>4.8000001907349</ele>
        <time>2021-07-29T10:31:04.000Z</time>
      </trkpt>
      <trkpt lat="47.27461" lon="-2.35677">
        <ele>4.4000000953674</ele>
        <time>2021-07-29T10:31:05.000Z</time>
      </trkpt>
      <trkpt lat="47.27456" lon="-2.35676">
        <ele>4.4000000953674</ele>
        <time>2021-07-29T10:31:06.000Z</time>
      </trkpt>
      <trkpt lat="47.27428" lon="-2.3567">
        <ele>4.4000000953674</ele>
        <time>2021-07-29T10:31:11.000Z</time>
      </trkpt>
      <trkpt lat="47.2742" lon="-2.35666">
        <ele>4</ele>
        <time>2021-07-29T10:31:14.000Z</time>
      </trkpt>
      <trkpt lat="47.27418" lon="-2.35665">
        <ele>3.5999999046326</ele>
        <time>2021-07-29T10:31:15.000Z</time>
      </trkpt>
      <trkpt lat="47.27415" lon="-2.35666">
        <ele>3.2000000476837</ele>
        <time>2021-07-29T10:31:16.000Z</time>
      </trkpt>
      <trkpt lat="47.27412" lon="-2.35666">
        <ele>2.7999999523163</ele>
        <time>2021-07-29T10:31:17.000Z</time>
      </trkpt>
      <trkpt lat="47.27408" lon="-2.35666">
        <ele>2.4000000953674</ele>
        <time>2021-07-29T10:31:18.000Z</time>
      </trkpt>
      <trkpt lat="47.27404" lon="-2.35667">
        <ele>2.4000000953674</ele>
        <time>2021-07-29T10:31:19.000Z</time>
      </trkpt>
      <trkpt lat="47.274" lon="-2.35669">
        <ele>2.4000000953674</ele>
        <time>2021-07-29T10:31:20.000Z</time>
      </trkpt>
      <trkpt lat="47.27391" lon="-2.35674">
        <ele>2.4000000953674</ele>
        <time>2021-07-29T10:31:22.000Z</time>
      </trkpt>
      <trkpt lat="47.27378" lon="-2.35684">
        <ele>2.4000000953674</ele>
        <time>2021-07-29T10:31:25.000Z</time>
      </trkpt>
      <trkpt lat="47.27374" lon="-2.35687">
        <ele>2.4000000953674</ele>
        <time>2021-07-29T10:31:26.000Z</time>
      </trkpt>
      <trkpt lat="47.27343" lon="-2.35709">
        <ele>2.4000000953674</ele>
        <time>2021-07-29T10:31:33.000Z</time>
      </trkpt>
      <trkpt lat="47.27335" lon="-2.35716">
        <ele>2.4000000953674</ele>
        <time>2021-07-29T10:31:35.000Z</time>
      </trkpt>
      <trkpt lat="47.27326" lon="-2.35727">
        <ele>2.4000000953674</ele>
        <time>2021-07-29T10:31:38.000Z</time>
      </trkpt>
      <trkpt lat="47.27313" lon="-2.35739">
        <ele>2.4000000953674</ele>
        <time>2021-07-29T10:31:43.000Z</time>
      </trkpt>
      <trkpt lat="47.27304" lon="-2.35724">
        <ele>2.4000000953674</ele>
        <time>2021-07-29T10:31:46.000Z</time>
      </trkpt>
      <trkpt lat="47.273" lon="-2.35711">
        <ele>2.4000000953674</ele>
        <time>2021-07-29T10:31:48.000Z</time>
      </trkpt>
      <trkpt lat="47.27297" lon="-2.35705">
        <ele>2.4000000953674</ele>
        <time>2021-07-29T10:31:49.000Z</time>
      </trkpt>
      <trkpt lat="47.27291" lon="-2.35694">
        <ele>2.4000000953674</ele>
        <time>2021-07-29T10:31:51.000Z</time>
      </trkpt>
      <trkpt lat="47.27272" lon="-2.35652">
        <ele>2.4000000953674</ele>
        <time>2021-07-29T10:31:58.000Z</time>
      </trkpt>
      <trkpt lat="47.27247" lon="-2.35597">
        <ele>2.4000000953674</ele>
        <time>2021-07-29T10:32:07.000Z</time>
      </trkpt>
      <trkpt lat="47.2722" lon="-2.35537">
        <ele>2.4000000953674</ele>
        <time>2021-07-29T10:32:17.000Z</time>
      </trkpt>
      <trkpt lat="47.27197" lon="-2.35488">
        <ele>2.4000000953674</ele>
        <time>2021-07-29T10:32:25.000Z</time>
      </trkpt>
      <trkpt lat="47.27165" lon="-2.35426">
        <ele>2.4000000953674</ele>
        <time>2021-07-29T10:32:35.000Z</time>
      </trkpt>
      <trkpt lat="47.27139" lon="-2.35375">
        <ele>2.4000000953674</ele>
        <time>2021-07-29T10:32:44.000Z</time>
      </trkpt>
      <trkpt lat="47.27132" lon="-2.35359">
        <ele>2.4000000953674</ele>
        <time>2021-07-29T10:32:47.000Z</time>
      </trkpt>
      <trkpt lat="47.27122" lon="-2.35345">
        <ele>2.4000000953674</ele>
        <time>2021-07-29T10:32:50.000Z</time>
      </trkpt>
      <trkpt lat="47.27102" lon="-2.35312">
        <ele>2.4000000953674</ele>
        <time>2021-07-29T10:32:57.000Z</time>
      </trkpt>
      <trkpt lat="47.27079" lon="-2.35277">
        <ele>2.4000000953674</ele>
        <time>2021-07-29T10:33:04.000Z</time>
      </trkpt>
      <trkpt lat="47.2705" lon="-2.3523">
        <ele>2.4000000953674</ele>
        <time>2021-07-29T10:33:13.000Z</time>
      </trkpt>
      <trkpt lat="47.2702" lon="-2.35181">
        <ele>2.4000000953674</ele>
        <time>2021-07-29T10:33:22.000Z</time>
      </trkpt>
      <trkpt lat="47.26993" lon="-2.3514">
        <ele>2.4000000953674</ele>
        <time>2021-07-29T10:33:30.000Z</time>
      </trkpt>
      <trkpt lat="47.2697" lon="-2.35105">
        <ele>2.4000000953674</ele>
        <time>2021-07-29T10:33:37.000Z</time>
      </trkpt>
      <trkpt lat="47.26943" lon="-2.35064">
        <ele>2.4000000953674</ele>
        <time>2021-07-29T10:33:45.000Z</time>
      </trkpt>
      <trkpt lat="47.26915" lon="-2.35024">
        <ele>2.4000000953674</ele>
        <time>2021-07-29T10:33:53.000Z</time>
      </trkpt>
      <trkpt lat="47.26888" lon="-2.34983">
        <ele>2.4000000953674</ele>
        <time>2021-07-29T10:34:01.000Z</time>
      </trkpt>
      <trkpt lat="47.26863" lon="-2.34945">
        <ele>2.4000000953674</ele>
        <time>2021-07-29T10:34:09.000Z</time>
      </trkpt>
      <trkpt lat="47.2686" lon="-2.3494">
        <ele>2.4000000953674</ele>
        <time>2021-07-29T10:34:10.000Z</time>
      </trkpt>
      <trkpt lat="47.26834" lon="-2.34901">
        <ele>2.4000000953674</ele>
        <time>2021-07-29T10:34:18.000Z</time>
      </trkpt>
      <trkpt lat="47.26805" lon="-2.34862">
        <ele>2.4000000953674</ele>
        <time>2021-07-29T10:34:26.000Z</time>
      </trkpt>
      <trkpt lat="47.26778" lon="-2.34825">
        <ele>2.4000000953674</ele>
        <time>2021-07-29T10:34:33.000Z</time>
      </trkpt>
      <trkpt lat="47.26776" lon="-2.34823">
        <ele>2.4000000953674</ele>
        <time>2021-07-29T10:34:36.000Z</time>
      </trkpt>
      <trkpt lat="47.26774" lon="-2.3482">
        <ele>2.4000000953674</ele>
        <time>2021-07-29T10:34:43.000Z</time>
      </trkpt>
      <trkpt lat="47.26763" lon="-2.34806">
        <ele>2.4000000953674</ele>
        <time>2021-07-29T10:34:47.000Z</time>
      </trkpt>
      <trkpt lat="47.26751" lon="-2.34787">
        <ele>2.4000000953674</ele>
        <time>2021-07-29T10:34:52.000Z</time>
      </trkpt>
      <trkpt lat="47.26731" lon="-2.34761">
        <ele>2.4000000953674</ele>
        <time>2021-07-29T10:34:57.000Z</time>
      </trkpt>
      <trkpt lat="47.267" lon="-2.34724">
        <ele>2.4000000953674</ele>
        <time>2021-07-29T10:35:04.000Z</time>
      </trkpt>
      <trkpt lat="47.26666" lon="-2.34682">
        <ele>2.4000000953674</ele>
        <time>2021-07-29T10:35:12.000Z</time>
      </trkpt>
      <trkpt lat="47.26657" lon="-2.34672">
        <ele>2.4000000953674</ele>
        <time>2021-07-29T10:35:14.000Z</time>
      </trkpt>
      <trkpt lat="47.26636" lon="-2.34645">
        <ele>2.4000000953674</ele>
        <time>2021-07-29T10:35:19.000Z</time>
      </trkpt>
      <trkpt lat="47.26606" lon="-2.34607">
        <ele>2.4000000953674</ele>
        <time>2021-07-29T10:35:26.000Z</time>
      </trkpt>
      <trkpt lat="47.26563" lon="-2.34559">
        <ele>2.4000000953674</ele>
        <time>2021-07-29T10:35:35.000Z</time>
      </trkpt>
      <trkpt lat="47.26531" lon="-2.34528">
        <ele>2.4000000953674</ele>
        <time>2021-07-29T10:35:42.000Z</time>
      </trkpt>
      <trkpt lat="47.26496" lon="-2.34502">
        <ele>2.4000000953674</ele>
        <time>2021-07-29T10:35:49.000Z</time>
      </trkpt>
      <trkpt lat="47.26457" lon="-2.34475">
        <ele>2.4000000953674</ele>
        <time>2021-07-29T10:35:57.000Z</time>
      </trkpt>
      <trkpt lat="47.26414" lon="-2.34443">
        <ele>2.4000000953674</ele>
        <time>2021-07-29T10:36:06.000Z</time>
      </trkpt>
      <trkpt lat="47.26404" lon="-2.34435">
        <ele>2.4000000953674</ele>
        <time>2021-07-29T10:36:08.000Z</time>
      </trkpt>
      <trkpt lat="47.26383" lon="-2.34421">
        <ele>2.4000000953674</ele>
        <time>2021-07-29T10:36:12.000Z</time>
      </trkpt>
      <trkpt lat="47.26356" lon="-2.34397">
        <ele>2.4000000953674</ele>
        <time>2021-07-29T10:36:19.000Z</time>
      </trkpt>
      <trkpt lat="47.26344" lon="-2.34382">
        <ele>2.4000000953674</ele>
        <time>2021-07-29T10:36:23.000Z</time>
      </trkpt>
      <trkpt lat="47.26334" lon="-2.34376">
        <ele>2.4000000953674</ele>
        <time>2021-07-29T10:36:26.000Z</time>
      </trkpt>
      <trkpt lat="47.26322" lon="-2.34373">
        <ele>2.4000000953674</ele>
        <time>2021-07-29T10:36:29.000Z</time>
      </trkpt>
      <trkpt lat="47.26313" lon="-2.34357">
        <ele>2.4000000953674</ele>
        <time>2021-07-29T10:36:32.000Z</time>
      </trkpt>
      <trkpt lat="47.26302" lon="-2.34344">
        <ele>2.4000000953674</ele>
        <time>2021-07-29T10:36:35.000Z</time>
      </trkpt>
      <trkpt lat="47.26293" lon="-2.34335">
        <ele>2.4000000953674</ele>
        <time>2021-07-29T10:36:37.000Z</time>
      </trkpt>
      <trkpt lat="47.26254" lon="-2.34294">
        <ele>2.4000000953674</ele>
        <time>2021-07-29T10:36:46.000Z</time>
      </trkpt>
      <trkpt lat="47.26223" lon="-2.34261">
        <ele>2.4000000953674</ele>
        <time>2021-07-29T10:36:53.000Z</time>
      </trkpt>
      <trkpt lat="47.26178" lon="-2.34215">
        <ele>2.4000000953674</ele>
        <time>2021-07-29T10:37:03.000Z</time>
      </trkpt>
      <trkpt lat="47.26174" lon="-2.34211">
        <ele>2.4000000953674</ele>
        <time>2021-07-29T10:37:04.000Z</time>
      </trkpt>
      <trkpt lat="47.26148" lon="-2.34187">
        <ele>2.4000000953674</ele>
        <time>2021-07-29T10:37:10.000Z</time>
      </trkpt>
      <trkpt lat="47.26144" lon="-2.34185">
        <ele>2.4000000953674</ele>
        <time>2021-07-29T10:37:11.000Z</time>
      </trkpt>
      <trkpt lat="47.2613" lon="-2.3418">
        <ele>2.4000000953674</ele>
        <time>2021-07-29T10:37:14.000Z</time>
      </trkpt>
      <trkpt lat="47.26126" lon="-2.34175">
        <ele>2.4000000953674</ele>
        <time>2021-07-29T10:37:15.000Z</time>
      </trkpt>
      <trkpt lat="47.26118" lon="-2.34165">
        <ele>2.4000000953674</ele>
        <time>2021-07-29T10:37:17.000Z</time>
      </trkpt>
      <trkpt lat="47.26112" lon="-2.34162">
        <ele>2.4000000953674</ele>
        <time>2021-07-29T10:37:19.000Z</time>
      </trkpt>
      <trkpt lat="47.26097" lon="-2.34152">
        <ele>2.4000000953674</ele>
        <time>2021-07-29T10:37:24.000Z</time>
      </trkpt>
      <trkpt lat="47.26092" lon="-2.34149">
        <ele>2.4000000953674</ele>
        <time>2021-07-29T10:37:25.000Z</time>
      </trkpt>
      <trkpt lat="47.26075" lon="-2.3414">
        <ele>2.4000000953674</ele>
        <time>2021-07-29T10:37:28.000Z</time>
      </trkpt>
      <trkpt lat="47.26021" lon="-2.34114">
        <ele>2.4000000953674</ele>
        <time>2021-07-29T10:37:37.000Z</time>
      </trkpt>
      <trkpt lat="47.26014" lon="-2.34111">
        <ele>2.4000000953674</ele>
        <time>2021-07-29T10:37:38.000Z</time>
      </trkpt>
      <trkpt lat="47.25961" lon="-2.34086">
        <ele>2.4000000953674</ele>
        <time>2021-07-29T10:37:47.000Z</time>
      </trkpt>
      <trkpt lat="47.25926" lon="-2.34072">
        <ele>2.4000000953674</ele>
        <time>2021-07-29T10:37:53.000Z</time>
      </trkpt>
      <trkpt lat="47.25913" lon="-2.34069">
        <ele>2.4000000953674</ele>
        <time>2021-07-29T10:37:55.000Z</time>
      </trkpt>
      <trkpt lat="47.25903" lon="-2.3406">
        <ele>2.4000000953674</ele>
        <time>2021-07-29T10:37:57.000Z</time>
      </trkpt>
      <trkpt lat="47.25898" lon="-2.34042">
        <ele>2.4000000953674</ele>
        <time>2021-07-29T10:37:59.000Z</time>
      </trkpt>
      <trkpt lat="47.25904" lon="-2.34016">
        <ele>2</ele>
        <time>2021-07-29T10:38:02.000Z</time>
      </trkpt>
      <trkpt lat="47.25906" lon="-2.34007">
        <ele>1.6000000238419</ele>
        <time>2021-07-29T10:38:03.000Z</time>
      </trkpt>
      <trkpt lat="47.25908" lon="-2.33998">
        <ele>1.2000000476837</ele>
        <time>2021-07-29T10:38:04.000Z</time>
      </trkpt>
      <trkpt lat="47.25911" lon="-2.33989">
        <ele>0.80000001192093</ele>
        <time>2021-07-29T10:38:05.000Z</time>
      </trkpt>
      <trkpt lat="47.25913" lon="-2.3398">
        <ele>0.40000000596046</ele>
        <time>2021-07-29T10:38:06.000Z</time>
      </trkpt>
      <trkpt lat="47.25916" lon="-2.33972">
        <ele>0.40000000596046</ele>
        <time>2021-07-29T10:38:07.000Z</time>
      </trkpt>
      <trkpt lat="47.25938" lon="-2.33926">
        <ele>0.40000000596046</ele>
        <time>2021-07-29T10:38:13.000Z</time>
      </trkpt>
      <trkpt lat="47.25945" lon="-2.33917">
        <ele>0.40000000596046</ele>
        <time>2021-07-29T10:38:16.000Z</time>
      </trkpt>
      <trkpt lat="47.25948" lon="-2.33894">
        <ele>0.40000000596046</ele>
        <time>2021-07-29T10:38:20.000Z</time>
      </trkpt>
      <trkpt lat="47.25956" lon="-2.33878">
        <ele>0.40000000596046</ele>
        <time>2021-07-29T10:38:23.000Z</time>
      </trkpt>
      <trkpt lat="47.25962" lon="-2.33866">
        <ele>0.40000000596046</ele>
        <time>2021-07-29T10:38:25.000Z</time>
      </trkpt>
      <trkpt lat="47.25966" lon="-2.33853">
        <ele>0.40000000596046</ele>
        <time>2021-07-29T10:38:27.000Z</time>
      </trkpt>
      <trkpt lat="47.25968" lon="-2.33837">
        <ele>0.40000000596046</ele>
        <time>2021-07-29T10:38:29.000Z</time>
      </trkpt>
      <trkpt lat="47.2597" lon="-2.3383">
        <ele>0.40000000596046</ele>
        <time>2021-07-29T10:38:30.000Z</time>
      </trkpt>
      <trkpt lat="47.25981" lon="-2.33797">
        <ele>0.40000000596046</ele>
        <time>2021-07-29T10:38:34.000Z</time>
      </trkpt>
      <trkpt lat="47.26003" lon="-2.33731">
        <ele>0.40000000596046</ele>
        <time>2021-07-29T10:38:42.000Z</time>
      </trkpt>
      <trkpt lat="47.2602" lon="-2.33673">
        <ele>0.40000000596046</ele>
        <time>2021-07-29T10:38:49.000Z</time>
      </trkpt>
      <trkpt lat="47.26024" lon="-2.33668">
        <ele>0.40000000596046</ele>
        <time>2021-07-29T10:38:50.000Z</time>
      </trkpt>
      <trkpt lat="47.26039" lon="-2.33666">
        <ele>0.40000000596046</ele>
        <time>2021-07-29T10:38:53.000Z</time>
      </trkpt>
      <trkpt lat="47.26048" lon="-2.33667">
        <ele>0.40000000596046</ele>
        <time>2021-07-29T10:38:55.000Z</time>
      </trkpt>
      <trkpt lat="47.26056" lon="-2.33662">
        <ele>0.40000000596046</ele>
        <time>2021-07-29T10:38:57.000Z</time>
      </trkpt>
      <trkpt lat="47.26062" lon="-2.33644">
        <ele>0.40000000596046</ele>
        <time>2021-07-29T10:39:00.000Z</time>
      </trkpt>
      <trkpt lat="47.26081" lon="-2.33587">
        <ele>0.40000000596046</ele>
        <time>2021-07-29T10:39:08.000Z</time>
      </trkpt>
      <trkpt lat="47.26105" lon="-2.33517">
        <ele>0.40000000596046</ele>
        <time>2021-07-29T10:39:17.000Z</time>
      </trkpt>
      <trkpt lat="47.26125" lon="-2.33468">
        <ele>0.40000000596046</ele>
        <time>2021-07-29T10:39:24.000Z</time>
      </trkpt>
      <trkpt lat="47.26133" lon="-2.33443">
        <ele>0.40000000596046</ele>
        <time>2021-07-29T10:39:29.000Z</time>
      </trkpt>
      <trkpt lat="47.26135" lon="-2.3343">
        <ele>0.40000000596046</ele>
        <time>2021-07-29T10:39:32.000Z</time>
      </trkpt>
      <trkpt lat="47.26134" lon="-2.33426">
        <ele>0.40000000596046</ele>
        <time>2021-07-29T10:39:33.000Z</time>
      </trkpt>
      <trkpt lat="47.26123" lon="-2.33414">
        <ele>0.40000000596046</ele>
        <time>2021-07-29T10:39:37.000Z</time>
      </trkpt>
      <trkpt lat="47.26105" lon="-2.3339">
        <ele>0.40000000596046</ele>
        <time>2021-07-29T10:39:42.000Z</time>
      </trkpt>
      <trkpt lat="47.26093" lon="-2.33375">
        <ele>0.40000000596046</ele>
        <time>2021-07-29T10:39:45.000Z</time>
      </trkpt>
      <trkpt lat="47.26082" lon="-2.33356">
        <ele>0.40000000596046</ele>
        <time>2021-07-29T10:39:48.000Z</time>
      </trkpt>
      <trkpt lat="47.2606" lon="-2.33304">
        <ele>0.40000000596046</ele>
        <time>2021-07-29T10:39:55.000Z</time>
      </trkpt>
      <trkpt lat="47.2604" lon="-2.33245">
        <ele>0.40000000596046</ele>
        <time>2021-07-29T10:40:03.000Z</time>
      </trkpt>
      <trkpt lat="47.26028" lon="-2.33209">
        <ele>0.40000000596046</ele>
        <time>2021-07-29T10:40:09.000Z</time>
      </trkpt>
      <trkpt lat="47.26015" lon="-2.33172">
        <ele>0.40000000596046</ele>
        <time>2021-07-29T10:40:15.000Z</time>
      </trkpt>
      <trkpt lat="47.25995" lon="-2.33119">
        <ele>0.40000000596046</ele>
        <time>2021-07-29T10:40:23.000Z</time>
      </trkpt>
      <trkpt lat="47.25984" lon="-2.33083">
        <ele>0.40000000596046</ele>
        <time>2021-07-29T10:40:28.000Z</time>
      </trkpt>
      <trkpt lat="47.25979" lon="-2.33069">
        <ele>0.40000000596046</ele>
        <time>2021-07-29T10:40:30.000Z</time>
      </trkpt>
      <trkpt lat="47.25962" lon="-2.3302">
        <ele>0.40000000596046</ele>
        <time>2021-07-29T10:40:37.000Z</time>
      </trkpt>
      <trkpt lat="47.25945" lon="-2.32968">
        <ele>0.40000000596046</ele>
        <time>2021-07-29T10:40:44.000Z</time>
      </trkpt>
      <trkpt lat="47.25917" lon="-2.32892">
        <ele>0.40000000596046</ele>
        <time>2021-07-29T10:40:55.000Z</time>
      </trkpt>
      <trkpt lat="47.25914" lon="-2.32884">
        <ele>0.40000000596046</ele>
        <time>2021-07-29T10:40:56.000Z</time>
      </trkpt>
      <trkpt lat="47.25894" lon="-2.32831">
        <ele>0.40000000596046</ele>
        <time>2021-07-29T10:41:03.000Z</time>
      </trkpt>
      <trkpt lat="47.2587" lon="-2.32755">
        <ele>0.40000000596046</ele>
        <time>2021-07-29T10:41:13.000Z</time>
      </trkpt>
      <trkpt lat="47.25868" lon="-2.32747">
        <ele>0.40000000596046</ele>
        <time>2021-07-29T10:41:14.000Z</time>
      </trkpt>
      <trkpt lat="47.25864" lon="-2.32724">
        <ele>0.40000000596046</ele>
        <time>2021-07-29T10:41:17.000Z</time>
      </trkpt>
      <trkpt lat="47.25861" lon="-2.32709">
        <ele>0.40000000596046</ele>
        <time>2021-07-29T10:41:19.000Z</time>
      </trkpt>
      <trkpt lat="47.25853" lon="-2.32698">
        <ele>0.40000000596046</ele>
        <time>2021-07-29T10:41:21.000Z</time>
      </trkpt>
      <trkpt lat="47.25851" lon="-2.32691">
        <ele>0.40000000596046</ele>
        <time>2021-07-29T10:41:22.000Z</time>
      </trkpt>
      <trkpt lat="47.25837" lon="-2.32648">
        <ele>0.40000000596046</ele>
        <time>2021-07-29T10:41:28.000Z</time>
      </trkpt>
      <trkpt lat="47.25827" lon="-2.32596">
        <ele>0.40000000596046</ele>
        <time>2021-07-29T10:41:35.000Z</time>
      </trkpt>
      <trkpt lat="47.25815" lon="-2.32545">
        <ele>0.40000000596046</ele>
        <time>2021-07-29T10:41:42.000Z</time>
      </trkpt>
      <trkpt lat="47.25803" lon="-2.32497">
        <ele>0.40000000596046</ele>
        <time>2021-07-29T10:41:49.000Z</time>
      </trkpt>
      <trkpt lat="47.25801" lon="-2.32483">
        <ele>0.40000000596046</ele>
        <time>2021-07-29T10:41:51.000Z</time>
      </trkpt>
      <trkpt lat="47.25805" lon="-2.32474">
        <ele>0.40000000596046</ele>
        <time>2021-07-29T10:41:53.000Z</time>
      </trkpt>
      <trkpt lat="47.25817" lon="-2.32472">
        <ele>0.40000000596046</ele>
        <time>2021-07-29T10:41:56.000Z</time>
      </trkpt>
      <trkpt lat="47.25837" lon="-2.32483">
        <ele>0.40000000596046</ele>
        <time>2021-07-29T10:42:00.000Z</time>
      </trkpt>
      <trkpt lat="47.25848" lon="-2.32483">
        <ele>0.40000000596046</ele>
        <time>2021-07-29T10:42:02.000Z</time>
      </trkpt>
      <trkpt lat="47.25859" lon="-2.32484">
        <ele>0.40000000596046</ele>
        <time>2021-07-29T10:42:04.000Z</time>
      </trkpt>
      <trkpt lat="47.25864" lon="-2.32485">
        <ele>0.40000000596046</ele>
        <time>2021-07-29T10:42:05.000Z</time>
      </trkpt>
      <trkpt lat="47.25885" lon="-2.32484">
        <ele>0.40000000596046</ele>
        <time>2021-07-29T10:42:09.000Z</time>
      </trkpt>
      <trkpt lat="47.25892" lon="-2.32473">
        <ele>0.40000000596046</ele>
        <time>2021-07-29T10:42:12.000Z</time>
      </trkpt>
      <trkpt lat="47.25899" lon="-2.32457">
        <ele>0.40000000596046</ele>
        <time>2021-07-29T10:42:16.000Z</time>
      </trkpt>
      <trkpt lat="47.25902" lon="-2.32453">
        <ele>0.40000000596046</ele>
        <time>2021-07-29T10:42:17.000Z</time>
      </trkpt>
      <trkpt lat="47.25923" lon="-2.32428">
        <ele>0.40000000596046</ele>
        <time>2021-07-29T10:42:22.000Z</time>
      </trkpt>
      <trkpt lat="47.25958" lon="-2.32383">
        <ele>0.40000000596046</ele>
        <time>2021-07-29T10:42:30.000Z</time>
      </trkpt>
      <trkpt lat="47.26002" lon="-2.32326">
        <ele>0.40000000596046</ele>
        <time>2021-07-29T10:42:40.000Z</time>
      </trkpt>
      <trkpt lat="47.26032" lon="-2.32288">
        <ele>0.40000000596046</ele>
        <time>2021-07-29T10:42:47.000Z</time>
      </trkpt>
      <trkpt lat="47.26066" lon="-2.32249">
        <ele>0.40000000596046</ele>
        <time>2021-07-29T10:42:54.000Z</time>
      </trkpt>
      <trkpt lat="47.2607" lon="-2.32244">
        <ele>0.40000000596046</ele>
        <time>2021-07-29T10:42:55.000Z</time>
      </trkpt>
      <trkpt lat="47.26099" lon="-2.32203">
        <ele>0.40000000596046</ele>
        <time>2021-07-29T10:43:02.000Z</time>
      </trkpt>
      <trkpt lat="47.26114" lon="-2.32165">
        <ele>0.40000000596046</ele>
        <time>2021-07-29T10:43:07.000Z</time>
      </trkpt>
      <trkpt lat="47.26132" lon="-2.32119">
        <ele>0.40000000596046</ele>
        <time>2021-07-29T10:43:13.000Z</time>
      </trkpt>
      <trkpt lat="47.26145" lon="-2.32076">
        <ele>0.40000000596046</ele>
        <time>2021-07-29T10:43:19.000Z</time>
      </trkpt>
      <trkpt lat="47.26158" lon="-2.32033">
        <ele>0.40000000596046</ele>
        <time>2021-07-29T10:43:25.000Z</time>
      </trkpt>
      <trkpt lat="47.26161" lon="-2.32028">
        <ele>0.40000000596046</ele>
        <time>2021-07-29T10:43:26.000Z</time>
      </trkpt>
      <trkpt lat="47.26175" lon="-2.32019">
        <ele>0.40000000596046</ele>
        <time>2021-07-29T10:43:30.000Z</time>
      </trkpt>
      <trkpt lat="47.26187" lon="-2.32023">
        <ele>0.40000000596046</ele>
        <time>2021-07-29T10:43:34.000Z</time>
      </trkpt>
      <trkpt lat="47.26189" lon="-2.32024">
        <ele>0.40000000596046</ele>
        <time>2021-07-29T10:43:35.000Z</time>
      </trkpt>
      <trkpt lat="47.26195" lon="-2.32023">
        <ele>0.40000000596046</ele>
        <time>2021-07-29T10:43:39.000Z</time>
      </trkpt>
      <trkpt lat="47.26196" lon="-2.32019">
        <ele>0.40000000596046</ele>
        <time>2021-07-29T10:43:40.000Z</time>
      </trkpt>
      <trkpt lat="47.26198" lon="-2.32007">
        <ele>0.40000000596046</ele>
        <time>2021-07-29T10:43:43.000Z</time>
      </trkpt>
      <trkpt lat="47.262" lon="-2.32005">
        <ele>0.40000000596046</ele>
        <time>2021-07-29T10:43:44.000Z</time>
      </trkpt>
      <trkpt lat="47.2621" lon="-2.31995">
        <ele>0.40000000596046</ele>
        <time>2021-07-29T10:43:48.000Z</time>
      </trkpt>
      <trkpt lat="47.26213" lon="-2.31991">
        <ele>0.40000000596046</ele>
        <time>2021-07-29T10:43:49.000Z</time>
      </trkpt>
      <trkpt lat="47.26226" lon="-2.31978">
        <ele>0.40000000596046</ele>
        <time>2021-07-29T10:43:53.000Z</time>
      </trkpt>
      <trkpt lat="47.2623" lon="-2.31977">
        <ele>0.40000000596046</ele>
        <time>2021-07-29T10:43:54.000Z</time>
      </trkpt>
      <trkpt lat="47.26239" lon="-2.31961">
        <ele>0.40000000596046</ele>
        <time>2021-07-29T10:43:58.000Z</time>
      </trkpt>
      <trkpt lat="47.26251" lon="-2.3194">
        <ele>0.40000000596046</ele>
        <time>2021-07-29T10:44:03.000Z</time>
      </trkpt>
      <trkpt lat="47.26266" lon="-2.31916">
        <ele>0.40000000596046</ele>
        <time>2021-07-29T10:44:09.000Z</time>
      </trkpt>
      <trkpt lat="47.2628" lon="-2.31902">
        <ele>0.40000000596046</ele>
        <time>2021-07-29T10:44:13.000Z</time>
      </trkpt>
      <trkpt lat="47.26292" lon="-2.31883">
        <ele>0.40000000596046</ele>
        <time>2021-07-29T10:44:17.000Z</time>
      </trkpt>
      <trkpt lat="47.26295" lon="-2.31846">
        <ele>0.40000000596046</ele>
        <time>2021-07-29T10:44:22.000Z</time>
      </trkpt>
      <trkpt lat="47.26297" lon="-2.31827">
        <ele>0.40000000596046</ele>
        <time>2021-07-29T10:44:25.000Z</time>
      </trkpt>
      <trkpt lat="47.26302" lon="-2.31807">
        <ele>0.40000000596046</ele>
        <time>2021-07-29T10:44:28.000Z</time>
      </trkpt>
      <trkpt lat="47.26304" lon="-2.31765">
        <ele>0.40000000596046</ele>
        <time>2021-07-29T10:44:34.000Z</time>
      </trkpt>
      <trkpt lat="47.26303" lon="-2.3175">
        <ele>0.40000000596046</ele>
        <time>2021-07-29T10:44:36.000Z</time>
      </trkpt>
      <trkpt lat="47.26301" lon="-2.31736">
        <ele>0.40000000596046</ele>
        <time>2021-07-29T10:44:38.000Z</time>
      </trkpt>
      <trkpt lat="47.26303" lon="-2.31718">
        <ele>0.40000000596046</ele>
        <time>2021-07-29T10:44:41.000Z</time>
      </trkpt>
      <trkpt lat="47.26309" lon="-2.31713">
        <ele>0.40000000596046</ele>
        <time>2021-07-29T10:44:43.000Z</time>
      </trkpt>
      <trkpt lat="47.26313" lon="-2.31711">
        <ele>0.40000000596046</ele>
        <time>2021-07-29T10:44:44.000Z</time>
      </trkpt>
      <trkpt lat="47.26332" lon="-2.31695">
        <ele>0.40000000596046</ele>
        <time>2021-07-29T10:44:49.000Z</time>
      </trkpt>
      <trkpt lat="47.2634" lon="-2.31686">
        <ele>0.80000001192093</ele>
        <time>2021-07-29T10:44:52.000Z</time>
      </trkpt>
      <trkpt lat="47.26344" lon="-2.31684">
        <ele>1.2000000476837</ele>
        <time>2021-07-29T10:44:53.000Z</time>
      </trkpt>
      <trkpt lat="47.26348" lon="-2.31683">
        <ele>1.6000000238419</ele>
        <time>2021-07-29T10:44:54.000Z</time>
      </trkpt>
      <trkpt lat="47.26352" lon="-2.31681">
        <ele>2</ele>
        <time>2021-07-29T10:44:55.000Z</time>
      </trkpt>
      <trkpt lat="47.26356" lon="-2.31679">
        <ele>2.4000000953674</ele>
        <time>2021-07-29T10:44:56.000Z</time>
      </trkpt>
      <trkpt lat="47.26373" lon="-2.31671">
        <ele>2.4000000953674</ele>
        <time>2021-07-29T10:45:01.000Z</time>
      </trkpt>
      <trkpt lat="47.26377" lon="-2.3167">
        <ele>2.7999999523163</ele>
        <time>2021-07-29T10:45:02.000Z</time>
      </trkpt>
      <trkpt lat="47.26381" lon="-2.31668">
        <ele>3.4000000953674</ele>
        <time>2021-07-29T10:45:03.000Z</time>
      </trkpt>
      <trkpt lat="47.26384" lon="-2.31665">
        <ele>3.7999999523163</ele>
        <time>2021-07-29T10:45:04.000Z</time>
      </trkpt>
      <trkpt lat="47.26388" lon="-2.31663">
        <ele>4.1999998092651</ele>
        <time>2021-07-29T10:45:05.000Z</time>
      </trkpt>
      <trkpt lat="47.26391" lon="-2.31661">
        <ele>4.5999999046326</ele>
        <time>2021-07-29T10:45:06.000Z</time>
      </trkpt>
      <trkpt lat="47.26394" lon="-2.31659">
        <ele>4.5999999046326</ele>
        <time>2021-07-29T10:45:07.000Z</time>
      </trkpt>
      <trkpt lat="47.26408" lon="-2.31652">
        <ele>4.5999999046326</ele>
        <time>2021-07-29T10:45:12.000Z</time>
      </trkpt>
      <trkpt lat="47.26411" lon="-2.31644">
        <ele>4.5999999046326</ele>
        <time>2021-07-29T10:45:14.000Z</time>
      </trkpt>
      <trkpt lat="47.2641" lon="-2.31639">
        <ele>4.5999999046326</ele>
        <time>2021-07-29T10:45:15.000Z</time>
      </trkpt>
      <trkpt lat="47.26411" lon="-2.31606">
        <ele>4.5999999046326</ele>
        <time>2021-07-29T10:45:22.000Z</time>
      </trkpt>
      <trkpt lat="47.26411" lon="-2.31576">
        <ele>4.5999999046326</ele>
        <time>2021-07-29T10:45:28.000Z</time>
      </trkpt>
      <trkpt lat="47.26411" lon="-2.31552">
        <ele>4.5999999046326</ele>
        <time>2021-07-29T10:45:34.000Z</time>
      </trkpt>
      <trkpt lat="47.26418" lon="-2.31553">
        <ele>4.5999999046326</ele>
        <time>2021-07-29T10:45:37.000Z</time>
      </trkpt>
      <trkpt lat="47.26419" lon="-2.31554">
        <ele>4.5999999046326</ele>
        <time>2021-07-29T10:45:39.000Z</time>
      </trkpt>
    </trkseg>
  </trk>
</gpx>